<?xml version="1.0" encoding="UTF-8" standalone="no" ?>
<gpx xmlns="http://www.topografix.com/GPX/1/1" xmlns:xsi="http://www.w3.org/2001/XMLSchema-instance" xsi:schemaLocation="http://www.topografix.com/GPX/1/1 http://www.topografix.com/GPX/1/1/gpx.xsd" version="1.1" creator="VisuGPX - https://www.visugpx.com">
  <metadata>
    <name>Rando vtt Vouneuil sous Biard 2022</name>
    <desc><![CDATA[Rando trop roulante! ]]></desc>
  </metadata>
  <trk>
    <name><![CDATA[Rando vtt Vouneuil sous Biard 2022_1]]></name>
    <trkseg>
      <trkpt lat="46.5781" lon="0.2758">
        <ele>88.8</ele>
        <time>2022-02-13T07:30:52Z</time>
      </trkpt>
      <trkpt lat="46.57807" lon="0.27575">
        <ele>88.8</ele>
        <time>2022-02-13T07:30:58Z</time>
      </trkpt>
      <trkpt lat="46.57808" lon="0.27574">
        <ele>88.8</ele>
        <time>2022-02-13T07:30:59Z</time>
      </trkpt>
      <trkpt lat="46.57807" lon="0.27565">
        <ele>88.8</ele>
        <time>2022-02-13T07:31:03Z</time>
      </trkpt>
      <trkpt lat="46.578" lon="0.27561">
        <ele>89</ele>
        <time>2022-02-13T07:31:06Z</time>
      </trkpt>
      <trkpt lat="46.57797" lon="0.2756">
        <ele>89</ele>
        <time>2022-02-13T07:31:07Z</time>
      </trkpt>
      <trkpt lat="46.57769" lon="0.2755">
        <ele>89</ele>
        <time>2022-02-13T07:31:14Z</time>
      </trkpt>
      <trkpt lat="46.57742" lon="0.2754">
        <ele>89</ele>
        <time>2022-02-13T07:31:20Z</time>
      </trkpt>
      <trkpt lat="46.57733" lon="0.27537">
        <ele>89</ele>
        <time>2022-02-13T07:31:22Z</time>
      </trkpt>
      <trkpt lat="46.5773" lon="0.27534">
        <ele>89</ele>
        <time>2022-02-13T07:31:23Z</time>
      </trkpt>
      <trkpt lat="46.57726" lon="0.27526">
        <ele>89</ele>
        <time>2022-02-13T07:31:25Z</time>
      </trkpt>
      <trkpt lat="46.57725" lon="0.27523">
        <ele>89</ele>
        <time>2022-02-13T07:31:26Z</time>
      </trkpt>
      <trkpt lat="46.57725" lon="0.27519">
        <ele>89</ele>
        <time>2022-02-13T07:31:27Z</time>
      </trkpt>
      <trkpt lat="46.57728" lon="0.27513">
        <ele>89.8</ele>
        <time>2022-02-13T07:31:29Z</time>
      </trkpt>
      <trkpt lat="46.57729" lon="0.2751">
        <ele>90</ele>
        <time>2022-02-13T07:31:30Z</time>
      </trkpt>
      <trkpt lat="46.57731" lon="0.27495">
        <ele>91</ele>
        <time>2022-02-13T07:31:33Z</time>
      </trkpt>
      <trkpt lat="46.57731" lon="0.2749">
        <ele>91.4</ele>
        <time>2022-02-13T07:31:34Z</time>
      </trkpt>
      <trkpt lat="46.57734" lon="0.27471">
        <ele>92.4</ele>
        <time>2022-02-13T07:31:38Z</time>
      </trkpt>
      <trkpt lat="46.57734" lon="0.27466">
        <ele>92.6</ele>
        <time>2022-02-13T07:31:39Z</time>
      </trkpt>
      <trkpt lat="46.57735" lon="0.27452">
        <ele>93.4</ele>
        <time>2022-02-13T07:31:42Z</time>
      </trkpt>
      <trkpt lat="46.57736" lon="0.27447">
        <ele>93.6</ele>
        <time>2022-02-13T07:31:43Z</time>
      </trkpt>
      <trkpt lat="46.57737" lon="0.27429">
        <ele>93.8</ele>
        <time>2022-02-13T07:31:47Z</time>
      </trkpt>
      <trkpt lat="46.5774" lon="0.27421">
        <ele>94.8</ele>
        <time>2022-02-13T07:31:49Z</time>
      </trkpt>
      <trkpt lat="46.57742" lon="0.27412">
        <ele>95.4</ele>
        <time>2022-02-13T07:31:51Z</time>
      </trkpt>
      <trkpt lat="46.57743" lon="0.27407">
        <ele>95.8</ele>
        <time>2022-02-13T07:31:52Z</time>
      </trkpt>
      <trkpt lat="46.57744" lon="0.27403">
        <ele>96</ele>
        <time>2022-02-13T07:31:53Z</time>
      </trkpt>
      <trkpt lat="46.57748" lon="0.27392">
        <ele>97</ele>
        <time>2022-02-13T07:31:56Z</time>
      </trkpt>
      <trkpt lat="46.57753" lon="0.27382">
        <ele>97.8</ele>
        <time>2022-02-13T07:32:00Z</time>
      </trkpt>
      <trkpt lat="46.57756" lon="0.27376">
        <ele>97.8</ele>
        <time>2022-02-13T07:32:01Z</time>
      </trkpt>
      <trkpt lat="46.57757" lon="0.27374">
        <ele>98</ele>
        <time>2022-02-13T07:32:02Z</time>
      </trkpt>
      <trkpt lat="46.57759" lon="0.27368">
        <ele>98.2</ele>
        <time>2022-02-13T07:32:04Z</time>
      </trkpt>
      <trkpt lat="46.5776" lon="0.27365">
        <ele>98.2</ele>
        <time>2022-02-13T07:32:05Z</time>
      </trkpt>
      <trkpt lat="46.57759" lon="0.27361">
        <ele>98.4</ele>
        <time>2022-02-13T07:32:06Z</time>
      </trkpt>
      <trkpt lat="46.57755" lon="0.27353">
        <ele>98.8</ele>
        <time>2022-02-13T07:32:09Z</time>
      </trkpt>
      <trkpt lat="46.57753" lon="0.27349">
        <ele>99</ele>
        <time>2022-02-13T07:32:10Z</time>
      </trkpt>
      <trkpt lat="46.5775" lon="0.27331">
        <ele>100.2</ele>
        <time>2022-02-13T07:32:14Z</time>
      </trkpt>
      <trkpt lat="46.57747" lon="0.27299">
        <ele>101.2</ele>
        <time>2022-02-13T07:32:21Z</time>
      </trkpt>
      <trkpt lat="46.57745" lon="0.27285">
        <ele>102</ele>
        <time>2022-02-13T07:32:24Z</time>
      </trkpt>
      <trkpt lat="46.57744" lon="0.27281">
        <ele>102.2</ele>
        <time>2022-02-13T07:32:25Z</time>
      </trkpt>
      <trkpt lat="46.57741" lon="0.27264">
        <ele>103</ele>
        <time>2022-02-13T07:32:29Z</time>
      </trkpt>
      <trkpt lat="46.57739" lon="0.2726">
        <ele>103.2</ele>
        <time>2022-02-13T07:32:30Z</time>
      </trkpt>
      <trkpt lat="46.57729" lon="0.27251">
        <ele>104</ele>
        <time>2022-02-13T07:32:34Z</time>
      </trkpt>
      <trkpt lat="46.57722" lon="0.27248">
        <ele>104.4</ele>
        <time>2022-02-13T07:32:36Z</time>
      </trkpt>
      <trkpt lat="46.57719" lon="0.27247">
        <ele>104.6</ele>
        <time>2022-02-13T07:32:37Z</time>
      </trkpt>
      <trkpt lat="46.57705" lon="0.27241">
        <ele>105.2</ele>
        <time>2022-02-13T07:32:41Z</time>
      </trkpt>
      <trkpt lat="46.57702" lon="0.27239">
        <ele>105.4</ele>
        <time>2022-02-13T07:32:42Z</time>
      </trkpt>
      <trkpt lat="46.5768" lon="0.2723">
        <ele>106.4</ele>
        <time>2022-02-13T07:32:48Z</time>
      </trkpt>
      <trkpt lat="46.57676" lon="0.27228">
        <ele>106.6</ele>
        <time>2022-02-13T07:32:49Z</time>
      </trkpt>
      <trkpt lat="46.57669" lon="0.27224">
        <ele>107</ele>
        <time>2022-02-13T07:32:51Z</time>
      </trkpt>
      <trkpt lat="46.57665" lon="0.27221">
        <ele>107.2</ele>
        <time>2022-02-13T07:32:52Z</time>
      </trkpt>
      <trkpt lat="46.57655" lon="0.27212">
        <ele>107.6</ele>
        <time>2022-02-13T07:32:56Z</time>
      </trkpt>
      <trkpt lat="46.57652" lon="0.27209">
        <ele>107.8</ele>
        <time>2022-02-13T07:32:57Z</time>
      </trkpt>
      <trkpt lat="46.57628" lon="0.27188">
        <ele>108.6</ele>
        <time>2022-02-13T07:33:04Z</time>
      </trkpt>
      <trkpt lat="46.57624" lon="0.27185">
        <ele>108.8</ele>
        <time>2022-02-13T07:33:05Z</time>
      </trkpt>
      <trkpt lat="46.57591" lon="0.27156">
        <ele>109.6</ele>
        <time>2022-02-13T07:33:13Z</time>
      </trkpt>
      <trkpt lat="46.57587" lon="0.27152">
        <ele>109.8</ele>
        <time>2022-02-13T07:33:14Z</time>
      </trkpt>
      <trkpt lat="46.57567" lon="0.27134">
        <ele>110</ele>
        <time>2022-02-13T07:33:19Z</time>
      </trkpt>
      <trkpt lat="46.57559" lon="0.27126">
        <ele>110.2</ele>
        <time>2022-02-13T07:33:21Z</time>
      </trkpt>
      <trkpt lat="46.57538" lon="0.271">
        <ele>110.2</ele>
        <time>2022-02-13T07:33:27Z</time>
      </trkpt>
      <trkpt lat="46.57522" lon="0.27078">
        <ele>110.8</ele>
        <time>2022-02-13T07:33:32Z</time>
      </trkpt>
      <trkpt lat="46.57518" lon="0.27074">
        <ele>111.2</ele>
        <time>2022-02-13T07:33:33Z</time>
      </trkpt>
      <trkpt lat="46.57512" lon="0.27067">
        <ele>111.8</ele>
        <time>2022-02-13T07:33:35Z</time>
      </trkpt>
      <trkpt lat="46.57509" lon="0.27063">
        <ele>112</ele>
        <time>2022-02-13T07:33:36Z</time>
      </trkpt>
      <trkpt lat="46.57487" lon="0.27044">
        <ele>113</ele>
        <time>2022-02-13T07:33:43Z</time>
      </trkpt>
      <trkpt lat="46.57481" lon="0.27038">
        <ele>113.2</ele>
        <time>2022-02-13T07:33:45Z</time>
      </trkpt>
      <trkpt lat="46.5747" lon="0.27028">
        <ele>113.8</ele>
        <time>2022-02-13T07:33:49Z</time>
      </trkpt>
      <trkpt lat="46.57467" lon="0.27026">
        <ele>114.2</ele>
        <time>2022-02-13T07:33:50Z</time>
      </trkpt>
      <trkpt lat="46.57464" lon="0.27024">
        <ele>114.4</ele>
        <time>2022-02-13T07:33:51Z</time>
      </trkpt>
      <trkpt lat="46.57452" lon="0.27019">
        <ele>115.2</ele>
        <time>2022-02-13T07:33:55Z</time>
      </trkpt>
      <trkpt lat="46.57446" lon="0.27017">
        <ele>115.8</ele>
        <time>2022-02-13T07:33:57Z</time>
      </trkpt>
      <trkpt lat="46.57437" lon="0.27015">
        <ele>116.2</ele>
        <time>2022-02-13T07:34:00Z</time>
      </trkpt>
      <trkpt lat="46.57425" lon="0.27016">
        <ele>117</ele>
        <time>2022-02-13T07:34:04Z</time>
      </trkpt>
      <trkpt lat="46.57419" lon="0.27017">
        <ele>117.4</ele>
        <time>2022-02-13T07:34:06Z</time>
      </trkpt>
      <trkpt lat="46.574" lon="0.2702">
        <ele>118.4</ele>
        <time>2022-02-13T07:34:12Z</time>
      </trkpt>
      <trkpt lat="46.57377" lon="0.27017">
        <ele>119.6</ele>
        <time>2022-02-13T07:34:19Z</time>
      </trkpt>
      <trkpt lat="46.57356" lon="0.2702">
        <ele>120.6</ele>
        <time>2022-02-13T07:34:25Z</time>
      </trkpt>
      <trkpt lat="46.57353" lon="0.27021">
        <ele>120.6</ele>
        <time>2022-02-13T07:34:26Z</time>
      </trkpt>
      <trkpt lat="46.57335" lon="0.2703">
        <ele>121</ele>
        <time>2022-02-13T07:34:31Z</time>
      </trkpt>
      <trkpt lat="46.57327" lon="0.27029">
        <ele>121</ele>
        <time>2022-02-13T07:34:33Z</time>
      </trkpt>
      <trkpt lat="46.57314" lon="0.2702">
        <ele>121.6</ele>
        <time>2022-02-13T07:34:37Z</time>
      </trkpt>
      <trkpt lat="46.57311" lon="0.27018">
        <ele>121.8</ele>
        <time>2022-02-13T07:34:38Z</time>
      </trkpt>
      <trkpt lat="46.57283" lon="0.27011">
        <ele>122.4</ele>
        <time>2022-02-13T07:34:45Z</time>
      </trkpt>
      <trkpt lat="46.57274" lon="0.27009">
        <ele>122.8</ele>
        <time>2022-02-13T07:34:47Z</time>
      </trkpt>
      <trkpt lat="46.57253" lon="0.27006">
        <ele>123.4</ele>
        <time>2022-02-13T07:34:52Z</time>
      </trkpt>
      <trkpt lat="46.57246" lon="0.27005">
        <ele>123.6</ele>
        <time>2022-02-13T07:34:54Z</time>
      </trkpt>
      <trkpt lat="46.57238" lon="0.27005">
        <ele>123.8</ele>
        <time>2022-02-13T07:34:56Z</time>
      </trkpt>
      <trkpt lat="46.57227" lon="0.27003">
        <ele>124.2</ele>
        <time>2022-02-13T07:34:59Z</time>
      </trkpt>
      <trkpt lat="46.57216" lon="0.27002">
        <ele>125</ele>
        <time>2022-02-13T07:35:02Z</time>
      </trkpt>
      <trkpt lat="46.57197" lon="0.27002">
        <ele>125.6</ele>
        <time>2022-02-13T07:35:07Z</time>
      </trkpt>
      <trkpt lat="46.57186" lon="0.27002">
        <ele>126.2</ele>
        <time>2022-02-13T07:35:10Z</time>
      </trkpt>
      <trkpt lat="46.57163" lon="0.27002">
        <ele>126.8</ele>
        <time>2022-02-13T07:35:16Z</time>
      </trkpt>
      <trkpt lat="46.57151" lon="0.27002">
        <ele>127</ele>
        <time>2022-02-13T07:35:19Z</time>
      </trkpt>
      <trkpt lat="46.5714" lon="0.27002">
        <ele>127.2</ele>
        <time>2022-02-13T07:35:22Z</time>
      </trkpt>
      <trkpt lat="46.57128" lon="0.27001">
        <ele>127.8</ele>
        <time>2022-02-13T07:35:25Z</time>
      </trkpt>
      <trkpt lat="46.57109" lon="0.27">
        <ele>127.8</ele>
        <time>2022-02-13T07:35:30Z</time>
      </trkpt>
      <trkpt lat="46.57103" lon="0.27003">
        <ele>127.8</ele>
        <time>2022-02-13T07:35:32Z</time>
      </trkpt>
      <trkpt lat="46.57101" lon="0.27006">
        <ele>127.8</ele>
        <time>2022-02-13T07:35:33Z</time>
      </trkpt>
      <trkpt lat="46.57102" lon="0.27015">
        <ele>127.4</ele>
        <time>2022-02-13T07:35:35Z</time>
      </trkpt>
      <trkpt lat="46.57112" lon="0.27035">
        <ele>126.6</ele>
        <time>2022-02-13T07:35:39Z</time>
      </trkpt>
      <trkpt lat="46.57113" lon="0.2704">
        <ele>126.6</ele>
        <time>2022-02-13T07:35:40Z</time>
      </trkpt>
      <trkpt lat="46.57115" lon="0.2705">
        <ele>126.4</ele>
        <time>2022-02-13T07:35:42Z</time>
      </trkpt>
      <trkpt lat="46.57122" lon="0.27067">
        <ele>126.2</ele>
        <time>2022-02-13T07:35:45Z</time>
      </trkpt>
      <trkpt lat="46.57129" lon="0.27085">
        <ele>126.2</ele>
        <time>2022-02-13T07:35:48Z</time>
      </trkpt>
      <trkpt lat="46.57138" lon="0.27106">
        <ele>126.8</ele>
        <time>2022-02-13T07:35:52Z</time>
      </trkpt>
      <trkpt lat="46.57139" lon="0.27112">
        <ele>126.8</ele>
        <time>2022-02-13T07:35:53Z</time>
      </trkpt>
      <trkpt lat="46.57139" lon="0.27124">
        <ele>127</ele>
        <time>2022-02-13T07:35:55Z</time>
      </trkpt>
      <trkpt lat="46.57135" lon="0.2716">
        <ele>128</ele>
        <time>2022-02-13T07:36:01Z</time>
      </trkpt>
      <trkpt lat="46.57134" lon="0.27166">
        <ele>128.2</ele>
        <time>2022-02-13T07:36:02Z</time>
      </trkpt>
      <trkpt lat="46.57131" lon="0.272">
        <ele>129.2</ele>
        <time>2022-02-13T07:36:08Z</time>
      </trkpt>
      <trkpt lat="46.57129" lon="0.27211">
        <ele>129.6</ele>
        <time>2022-02-13T07:36:10Z</time>
      </trkpt>
      <trkpt lat="46.57126" lon="0.27244">
        <ele>130.2</ele>
        <time>2022-02-13T07:36:16Z</time>
      </trkpt>
      <trkpt lat="46.57123" lon="0.27265">
        <ele>130.2</ele>
        <time>2022-02-13T07:36:20Z</time>
      </trkpt>
      <trkpt lat="46.5712" lon="0.27278">
        <ele>130.4</ele>
        <time>2022-02-13T07:36:23Z</time>
      </trkpt>
      <trkpt lat="46.57119" lon="0.27282">
        <ele>130.4</ele>
        <time>2022-02-13T07:36:24Z</time>
      </trkpt>
      <trkpt lat="46.57117" lon="0.27289">
        <ele>130.6</ele>
        <time>2022-02-13T07:36:26Z</time>
      </trkpt>
      <trkpt lat="46.57119" lon="0.27294">
        <ele>130.6</ele>
        <time>2022-02-13T07:36:28Z</time>
      </trkpt>
      <trkpt lat="46.57118" lon="0.27315">
        <ele>130.8</ele>
        <time>2022-02-13T07:36:33Z</time>
      </trkpt>
      <trkpt lat="46.5712" lon="0.27318">
        <ele>130.8</ele>
        <time>2022-02-13T07:36:34Z</time>
      </trkpt>
      <trkpt lat="46.57126" lon="0.27318">
        <ele>131</ele>
        <time>2022-02-13T07:36:36Z</time>
      </trkpt>
      <trkpt lat="46.5715" lon="0.27321">
        <ele>130.4</ele>
        <time>2022-02-13T07:36:42Z</time>
      </trkpt>
      <trkpt lat="46.57171" lon="0.27325">
        <ele>129.8</ele>
        <time>2022-02-13T07:36:48Z</time>
      </trkpt>
      <trkpt lat="46.57172" lon="0.27339">
        <ele>129.8</ele>
        <time>2022-02-13T07:36:51Z</time>
      </trkpt>
      <trkpt lat="46.57167" lon="0.27372">
        <ele>129.8</ele>
        <time>2022-02-13T07:36:57Z</time>
      </trkpt>
      <trkpt lat="46.57161" lon="0.27409">
        <ele>129.8</ele>
        <time>2022-02-13T07:37:03Z</time>
      </trkpt>
      <trkpt lat="46.57158" lon="0.27427">
        <ele>130</ele>
        <time>2022-02-13T07:37:06Z</time>
      </trkpt>
      <trkpt lat="46.57154" lon="0.27443">
        <ele>130</ele>
        <time>2022-02-13T07:37:09Z</time>
      </trkpt>
      <trkpt lat="46.57153" lon="0.27448">
        <ele>130</ele>
        <time>2022-02-13T07:37:10Z</time>
      </trkpt>
      <trkpt lat="46.57147" lon="0.27477">
        <ele>130</ele>
        <time>2022-02-13T07:37:15Z</time>
      </trkpt>
      <trkpt lat="46.5714" lon="0.27512">
        <ele>130.2</ele>
        <time>2022-02-13T07:37:21Z</time>
      </trkpt>
      <trkpt lat="46.57133" lon="0.27548">
        <ele>129.4</ele>
        <time>2022-02-13T07:37:27Z</time>
      </trkpt>
      <trkpt lat="46.57128" lon="0.27582">
        <ele>129.2</ele>
        <time>2022-02-13T07:37:33Z</time>
      </trkpt>
      <trkpt lat="46.57127" lon="0.27589">
        <ele>129.2</ele>
        <time>2022-02-13T07:37:34Z</time>
      </trkpt>
      <trkpt lat="46.57117" lon="0.27635">
        <ele>128.6</ele>
        <time>2022-02-13T07:37:40Z</time>
      </trkpt>
      <trkpt lat="46.57113" lon="0.27661">
        <ele>128</ele>
        <time>2022-02-13T07:37:43Z</time>
      </trkpt>
      <trkpt lat="46.57113" lon="0.27671">
        <ele>127.8</ele>
        <time>2022-02-13T07:37:44Z</time>
      </trkpt>
      <trkpt lat="46.57113" lon="0.27693">
        <ele>127.6</ele>
        <time>2022-02-13T07:37:46Z</time>
      </trkpt>
      <trkpt lat="46.57115" lon="0.27716">
        <ele>127.4</ele>
        <time>2022-02-13T07:37:48Z</time>
      </trkpt>
      <trkpt lat="46.57117" lon="0.27728">
        <ele>126.6</ele>
        <time>2022-02-13T07:37:49Z</time>
      </trkpt>
      <trkpt lat="46.57118" lon="0.27751">
        <ele>125.8</ele>
        <time>2022-02-13T07:37:51Z</time>
      </trkpt>
      <trkpt lat="46.57118" lon="0.27762">
        <ele>125.6</ele>
        <time>2022-02-13T07:37:52Z</time>
      </trkpt>
      <trkpt lat="46.57114" lon="0.27787">
        <ele>124.4</ele>
        <time>2022-02-13T07:37:54Z</time>
      </trkpt>
      <trkpt lat="46.57112" lon="0.278">
        <ele>124</ele>
        <time>2022-02-13T07:37:55Z</time>
      </trkpt>
      <trkpt lat="46.57109" lon="0.27812">
        <ele>123.2</ele>
        <time>2022-02-13T07:37:56Z</time>
      </trkpt>
      <trkpt lat="46.571" lon="0.27854">
        <ele>122.2</ele>
        <time>2022-02-13T07:37:59Z</time>
      </trkpt>
      <trkpt lat="46.57092" lon="0.27889">
        <ele>121.2</ele>
        <time>2022-02-13T07:38:02Z</time>
      </trkpt>
      <trkpt lat="46.57089" lon="0.279">
        <ele>121</ele>
        <time>2022-02-13T07:38:03Z</time>
      </trkpt>
      <trkpt lat="46.57079" lon="0.2796">
        <ele>122.2</ele>
        <time>2022-02-13T07:38:09Z</time>
      </trkpt>
      <trkpt lat="46.57075" lon="0.28016">
        <ele>123.2</ele>
        <time>2022-02-13T07:38:15Z</time>
      </trkpt>
      <trkpt lat="46.57073" lon="0.28023">
        <ele>123.2</ele>
        <time>2022-02-13T07:38:16Z</time>
      </trkpt>
      <trkpt lat="46.57068" lon="0.28033">
        <ele>123.4</ele>
        <time>2022-02-13T07:38:18Z</time>
      </trkpt>
      <trkpt lat="46.57063" lon="0.28043">
        <ele>123.4</ele>
        <time>2022-02-13T07:38:20Z</time>
      </trkpt>
      <trkpt lat="46.5706" lon="0.28055">
        <ele>123.4</ele>
        <time>2022-02-13T07:38:22Z</time>
      </trkpt>
      <trkpt lat="46.57039" lon="0.281">
        <ele>123.2</ele>
        <time>2022-02-13T07:38:29Z</time>
      </trkpt>
      <trkpt lat="46.57028" lon="0.28125">
        <ele>123.2</ele>
        <time>2022-02-13T07:38:33Z</time>
      </trkpt>
      <trkpt lat="46.57025" lon="0.2813">
        <ele>123.4</ele>
        <time>2022-02-13T07:38:34Z</time>
      </trkpt>
      <trkpt lat="46.57021" lon="0.28133">
        <ele>123.4</ele>
        <time>2022-02-13T07:38:35Z</time>
      </trkpt>
      <trkpt lat="46.57013" lon="0.28132">
        <ele>123.6</ele>
        <time>2022-02-13T07:38:37Z</time>
      </trkpt>
      <trkpt lat="46.57006" lon="0.28125">
        <ele>124</ele>
        <time>2022-02-13T07:38:39Z</time>
      </trkpt>
      <trkpt lat="46.56998" lon="0.28121">
        <ele>124.4</ele>
        <time>2022-02-13T07:38:41Z</time>
      </trkpt>
      <trkpt lat="46.56981" lon="0.28114">
        <ele>125.4</ele>
        <time>2022-02-13T07:38:45Z</time>
      </trkpt>
      <trkpt lat="46.56972" lon="0.2811">
        <ele>126.6</ele>
        <time>2022-02-13T07:38:48Z</time>
      </trkpt>
      <trkpt lat="46.56966" lon="0.28108">
        <ele>128.2</ele>
        <time>2022-02-13T07:38:50Z</time>
      </trkpt>
      <trkpt lat="46.5696" lon="0.28106">
        <ele>129.4</ele>
        <time>2022-02-13T07:38:52Z</time>
      </trkpt>
      <trkpt lat="46.56953" lon="0.28103">
        <ele>130.6</ele>
        <time>2022-02-13T07:38:55Z</time>
      </trkpt>
      <trkpt lat="46.56941" lon="0.28101">
        <ele>131.8</ele>
        <time>2022-02-13T07:38:59Z</time>
      </trkpt>
      <trkpt lat="46.56931" lon="0.28098">
        <ele>132.6</ele>
        <time>2022-02-13T07:39:02Z</time>
      </trkpt>
      <trkpt lat="46.56928" lon="0.28097">
        <ele>132.8</ele>
        <time>2022-02-13T07:39:03Z</time>
      </trkpt>
      <trkpt lat="46.56906" lon="0.281">
        <ele>132.8</ele>
        <time>2022-02-13T07:39:09Z</time>
      </trkpt>
      <trkpt lat="46.56881" lon="0.28105">
        <ele>131.6</ele>
        <time>2022-02-13T07:39:13Z</time>
      </trkpt>
      <trkpt lat="46.56866" lon="0.28108">
        <ele>130.6</ele>
        <time>2022-02-13T07:39:15Z</time>
      </trkpt>
      <trkpt lat="46.56858" lon="0.28112">
        <ele>129.2</ele>
        <time>2022-02-13T07:39:16Z</time>
      </trkpt>
      <trkpt lat="46.56852" lon="0.28117">
        <ele>127.6</ele>
        <time>2022-02-13T07:39:17Z</time>
      </trkpt>
      <trkpt lat="46.56841" lon="0.28128">
        <ele>126.4</ele>
        <time>2022-02-13T07:39:19Z</time>
      </trkpt>
      <trkpt lat="46.56835" lon="0.28132">
        <ele>125.8</ele>
        <time>2022-02-13T07:39:20Z</time>
      </trkpt>
      <trkpt lat="46.56829" lon="0.28135">
        <ele>125.6</ele>
        <time>2022-02-13T07:39:21Z</time>
      </trkpt>
      <trkpt lat="46.56823" lon="0.28138">
        <ele>125.2</ele>
        <time>2022-02-13T07:39:22Z</time>
      </trkpt>
      <trkpt lat="46.56805" lon="0.28146">
        <ele>124</ele>
        <time>2022-02-13T07:39:25Z</time>
      </trkpt>
      <trkpt lat="46.56793" lon="0.28154">
        <ele>123</ele>
        <time>2022-02-13T07:39:27Z</time>
      </trkpt>
      <trkpt lat="46.56768" lon="0.28169">
        <ele>121.8</ele>
        <time>2022-02-13T07:39:31Z</time>
      </trkpt>
      <trkpt lat="46.56755" lon="0.28173">
        <ele>121</ele>
        <time>2022-02-13T07:39:33Z</time>
      </trkpt>
      <trkpt lat="46.56748" lon="0.28176">
        <ele>120.8</ele>
        <time>2022-02-13T07:39:34Z</time>
      </trkpt>
      <trkpt lat="46.56723" lon="0.28181">
        <ele>119.6</ele>
        <time>2022-02-13T07:39:37Z</time>
      </trkpt>
      <trkpt lat="46.56716" lon="0.28182">
        <ele>119</ele>
        <time>2022-02-13T07:39:38Z</time>
      </trkpt>
      <trkpt lat="46.56709" lon="0.28182">
        <ele>117.6</ele>
        <time>2022-02-13T07:39:39Z</time>
      </trkpt>
      <trkpt lat="46.56702" lon="0.28181">
        <ele>116.4</ele>
        <time>2022-02-13T07:39:40Z</time>
      </trkpt>
      <trkpt lat="46.56694" lon="0.2818">
        <ele>115</ele>
        <time>2022-02-13T07:39:41Z</time>
      </trkpt>
      <trkpt lat="46.56687" lon="0.28178">
        <ele>114.2</ele>
        <time>2022-02-13T07:39:42Z</time>
      </trkpt>
      <trkpt lat="46.56679" lon="0.28176">
        <ele>113.8</ele>
        <time>2022-02-13T07:39:43Z</time>
      </trkpt>
      <trkpt lat="46.56671" lon="0.28172">
        <ele>112.6</ele>
        <time>2022-02-13T07:39:44Z</time>
      </trkpt>
      <trkpt lat="46.56656" lon="0.28165">
        <ele>110.4</ele>
        <time>2022-02-13T07:39:46Z</time>
      </trkpt>
      <trkpt lat="46.56642" lon="0.28161">
        <ele>107.8</ele>
        <time>2022-02-13T07:39:48Z</time>
      </trkpt>
      <trkpt lat="46.56626" lon="0.28159">
        <ele>106</ele>
        <time>2022-02-13T07:39:50Z</time>
      </trkpt>
      <trkpt lat="46.56616" lon="0.28158">
        <ele>105.2</ele>
        <time>2022-02-13T07:39:51Z</time>
      </trkpt>
      <trkpt lat="46.56607" lon="0.2816">
        <ele>104.6</ele>
        <time>2022-02-13T07:39:52Z</time>
      </trkpt>
      <trkpt lat="46.56598" lon="0.28163">
        <ele>104.2</ele>
        <time>2022-02-13T07:39:53Z</time>
      </trkpt>
      <trkpt lat="46.56582" lon="0.28167">
        <ele>103.4</ele>
        <time>2022-02-13T07:39:55Z</time>
      </trkpt>
      <trkpt lat="46.56566" lon="0.28159">
        <ele>102.4</ele>
        <time>2022-02-13T07:39:58Z</time>
      </trkpt>
      <trkpt lat="46.56552" lon="0.28148">
        <ele>101.8</ele>
        <time>2022-02-13T07:40:02Z</time>
      </trkpt>
      <trkpt lat="46.56532" lon="0.28125">
        <ele>102</ele>
        <time>2022-02-13T07:40:08Z</time>
      </trkpt>
      <trkpt lat="46.56508" lon="0.28104">
        <ele>103</ele>
        <time>2022-02-13T07:40:14Z</time>
      </trkpt>
      <trkpt lat="46.56503" lon="0.28097">
        <ele>103.2</ele>
        <time>2022-02-13T07:40:16Z</time>
      </trkpt>
      <trkpt lat="46.56497" lon="0.28094">
        <ele>103.6</ele>
        <time>2022-02-13T07:40:18Z</time>
      </trkpt>
      <trkpt lat="46.56486" lon="0.28096">
        <ele>104.6</ele>
        <time>2022-02-13T07:40:23Z</time>
      </trkpt>
      <trkpt lat="46.56484" lon="0.28096">
        <ele>105.2</ele>
        <time>2022-02-13T07:40:24Z</time>
      </trkpt>
      <trkpt lat="46.56477" lon="0.28095">
        <ele>105.8</ele>
        <time>2022-02-13T07:40:27Z</time>
      </trkpt>
      <trkpt lat="46.56472" lon="0.28091">
        <ele>106.4</ele>
        <time>2022-02-13T07:40:29Z</time>
      </trkpt>
      <trkpt lat="46.56458" lon="0.28075">
        <ele>106.6</ele>
        <time>2022-02-13T07:40:35Z</time>
      </trkpt>
      <trkpt lat="46.56441" lon="0.28053">
        <ele>106.2</ele>
        <time>2022-02-13T07:40:42Z</time>
      </trkpt>
      <trkpt lat="46.56425" lon="0.28038">
        <ele>106.2</ele>
        <time>2022-02-13T07:40:48Z</time>
      </trkpt>
      <trkpt lat="46.56404" lon="0.28023">
        <ele>107</ele>
        <time>2022-02-13T07:40:54Z</time>
      </trkpt>
      <trkpt lat="46.56401" lon="0.2802">
        <ele>107</ele>
        <time>2022-02-13T07:40:55Z</time>
      </trkpt>
      <trkpt lat="46.5638" lon="0.28004">
        <ele>107.8</ele>
        <time>2022-02-13T07:41:02Z</time>
      </trkpt>
      <trkpt lat="46.56372" lon="0.27996">
        <ele>108</ele>
        <time>2022-02-13T07:41:05Z</time>
      </trkpt>
      <trkpt lat="46.56357" lon="0.27981">
        <ele>107.8</ele>
        <time>2022-02-13T07:41:10Z</time>
      </trkpt>
      <trkpt lat="46.56338" lon="0.27952">
        <ele>106.8</ele>
        <time>2022-02-13T07:41:15Z</time>
      </trkpt>
      <trkpt lat="46.56315" lon="0.27923">
        <ele>106.6</ele>
        <time>2022-02-13T07:41:21Z</time>
      </trkpt>
      <trkpt lat="46.56303" lon="0.27911">
        <ele>106.6</ele>
        <time>2022-02-13T07:41:25Z</time>
      </trkpt>
      <trkpt lat="46.56296" lon="0.27906">
        <ele>106.8</ele>
        <time>2022-02-13T07:41:27Z</time>
      </trkpt>
      <trkpt lat="46.56291" lon="0.27904">
        <ele>107.4</ele>
        <time>2022-02-13T07:41:29Z</time>
      </trkpt>
      <trkpt lat="46.56287" lon="0.27905">
        <ele>108.2</ele>
        <time>2022-02-13T07:41:31Z</time>
      </trkpt>
      <trkpt lat="46.56284" lon="0.27915">
        <ele>109.2</ele>
        <time>2022-02-13T07:41:36Z</time>
      </trkpt>
      <trkpt lat="46.56284" lon="0.27918">
        <ele>109.4</ele>
        <time>2022-02-13T07:41:37Z</time>
      </trkpt>
      <trkpt lat="46.56284" lon="0.27929">
        <ele>110.4</ele>
        <time>2022-02-13T07:41:41Z</time>
      </trkpt>
      <trkpt lat="46.56284" lon="0.27937">
        <ele>111.6</ele>
        <time>2022-02-13T07:41:44Z</time>
      </trkpt>
      <trkpt lat="46.56284" lon="0.2794">
        <ele>112</ele>
        <time>2022-02-13T07:41:45Z</time>
      </trkpt>
      <trkpt lat="46.56284" lon="0.27947">
        <ele>112.8</ele>
        <time>2022-02-13T07:41:47Z</time>
      </trkpt>
      <trkpt lat="46.56288" lon="0.2796">
        <ele>114.2</ele>
        <time>2022-02-13T07:41:51Z</time>
      </trkpt>
      <trkpt lat="46.56289" lon="0.27963">
        <ele>114.4</ele>
        <time>2022-02-13T07:41:52Z</time>
      </trkpt>
      <trkpt lat="46.56294" lon="0.27973">
        <ele>115.2</ele>
        <time>2022-02-13T07:41:55Z</time>
      </trkpt>
      <trkpt lat="46.56301" lon="0.27986">
        <ele>116</ele>
        <time>2022-02-13T07:41:59Z</time>
      </trkpt>
      <trkpt lat="46.56303" lon="0.27989">
        <ele>116.4</ele>
        <time>2022-02-13T07:42:01Z</time>
      </trkpt>
      <trkpt lat="46.56312" lon="0.28004">
        <ele>117.4</ele>
        <time>2022-02-13T07:42:05Z</time>
      </trkpt>
      <trkpt lat="46.56314" lon="0.28007">
        <ele>117.4</ele>
        <time>2022-02-13T07:42:06Z</time>
      </trkpt>
      <trkpt lat="46.56326" lon="0.28027">
        <ele>118.4</ele>
        <time>2022-02-13T07:42:12Z</time>
      </trkpt>
      <trkpt lat="46.5633" lon="0.28034">
        <ele>118.8</ele>
        <time>2022-02-13T07:42:14Z</time>
      </trkpt>
      <trkpt lat="46.56343" lon="0.28055">
        <ele>119.6</ele>
        <time>2022-02-13T07:42:20Z</time>
      </trkpt>
      <trkpt lat="46.56345" lon="0.28058">
        <ele>119.6</ele>
        <time>2022-02-13T07:42:21Z</time>
      </trkpt>
      <trkpt lat="46.56351" lon="0.2808">
        <ele>120.6</ele>
        <time>2022-02-13T07:42:27Z</time>
      </trkpt>
      <trkpt lat="46.56349" lon="0.28095">
        <ele>121.8</ele>
        <time>2022-02-13T07:42:31Z</time>
      </trkpt>
      <trkpt lat="46.56347" lon="0.28102">
        <ele>122.6</ele>
        <time>2022-02-13T07:42:33Z</time>
      </trkpt>
      <trkpt lat="46.56345" lon="0.28109">
        <ele>123</ele>
        <time>2022-02-13T07:42:35Z</time>
      </trkpt>
      <trkpt lat="46.56342" lon="0.28114">
        <ele>124.2</ele>
        <time>2022-02-13T07:42:37Z</time>
      </trkpt>
      <trkpt lat="46.56338" lon="0.28121">
        <ele>125</ele>
        <time>2022-02-13T07:42:40Z</time>
      </trkpt>
      <trkpt lat="46.56337" lon="0.28125">
        <ele>125.4</ele>
        <time>2022-02-13T07:42:41Z</time>
      </trkpt>
      <trkpt lat="46.56333" lon="0.28144">
        <ele>126.6</ele>
        <time>2022-02-13T07:42:46Z</time>
      </trkpt>
      <trkpt lat="46.56332" lon="0.28152">
        <ele>127.2</ele>
        <time>2022-02-13T07:42:48Z</time>
      </trkpt>
      <trkpt lat="46.56329" lon="0.28158">
        <ele>127.8</ele>
        <time>2022-02-13T07:42:50Z</time>
      </trkpt>
      <trkpt lat="46.56324" lon="0.28169">
        <ele>128.8</ele>
        <time>2022-02-13T07:42:54Z</time>
      </trkpt>
      <trkpt lat="46.56323" lon="0.28173">
        <ele>129</ele>
        <time>2022-02-13T07:42:55Z</time>
      </trkpt>
      <trkpt lat="46.56317" lon="0.28193">
        <ele>130.2</ele>
        <time>2022-02-13T07:43:01Z</time>
      </trkpt>
      <trkpt lat="46.5632" lon="0.28215">
        <ele>131</ele>
        <time>2022-02-13T07:43:06Z</time>
      </trkpt>
      <trkpt lat="46.56322" lon="0.2823">
        <ele>131.2</ele>
        <time>2022-02-13T07:43:09Z</time>
      </trkpt>
      <trkpt lat="46.56323" lon="0.28243">
        <ele>131.6</ele>
        <time>2022-02-13T07:43:12Z</time>
      </trkpt>
      <trkpt lat="46.56316" lon="0.28267">
        <ele>132</ele>
        <time>2022-02-13T07:43:18Z</time>
      </trkpt>
      <trkpt lat="46.56308" lon="0.28279">
        <ele>132.4</ele>
        <time>2022-02-13T07:43:21Z</time>
      </trkpt>
      <trkpt lat="46.56296" lon="0.28292">
        <ele>132.6</ele>
        <time>2022-02-13T07:43:25Z</time>
      </trkpt>
      <trkpt lat="46.56271" lon="0.28314">
        <ele>132.6</ele>
        <time>2022-02-13T07:43:33Z</time>
      </trkpt>
      <trkpt lat="46.56253" lon="0.28334">
        <ele>132.6</ele>
        <time>2022-02-13T07:43:38Z</time>
      </trkpt>
      <trkpt lat="46.56244" lon="0.28339">
        <ele>132.4</ele>
        <time>2022-02-13T07:43:40Z</time>
      </trkpt>
      <trkpt lat="46.56237" lon="0.28335">
        <ele>132.4</ele>
        <time>2022-02-13T07:43:42Z</time>
      </trkpt>
      <trkpt lat="46.56234" lon="0.28331">
        <ele>132.2</ele>
        <time>2022-02-13T07:43:43Z</time>
      </trkpt>
      <trkpt lat="46.56231" lon="0.28327">
        <ele>132.2</ele>
        <time>2022-02-13T07:43:44Z</time>
      </trkpt>
      <trkpt lat="46.56223" lon="0.28322">
        <ele>132.2</ele>
        <time>2022-02-13T07:43:46Z</time>
      </trkpt>
      <trkpt lat="46.56219" lon="0.28323">
        <ele>132.2</ele>
        <time>2022-02-13T07:43:47Z</time>
      </trkpt>
      <trkpt lat="46.56215" lon="0.28326">
        <ele>132.2</ele>
        <time>2022-02-13T07:43:48Z</time>
      </trkpt>
      <trkpt lat="46.56203" lon="0.28337">
        <ele>132</ele>
        <time>2022-02-13T07:43:51Z</time>
      </trkpt>
      <trkpt lat="46.56199" lon="0.28342">
        <ele>132</ele>
        <time>2022-02-13T07:43:52Z</time>
      </trkpt>
      <trkpt lat="46.56195" lon="0.28352">
        <ele>132</ele>
        <time>2022-02-13T07:43:54Z</time>
      </trkpt>
      <trkpt lat="46.56195" lon="0.28358">
        <ele>132</ele>
        <time>2022-02-13T07:43:55Z</time>
      </trkpt>
      <trkpt lat="46.56197" lon="0.28364">
        <ele>132</ele>
        <time>2022-02-13T07:43:56Z</time>
      </trkpt>
      <trkpt lat="46.56205" lon="0.28381">
        <ele>131.8</ele>
        <time>2022-02-13T07:43:59Z</time>
      </trkpt>
      <trkpt lat="46.56223" lon="0.28418">
        <ele>132</ele>
        <time>2022-02-13T07:44:05Z</time>
      </trkpt>
      <trkpt lat="46.56242" lon="0.28455">
        <ele>131.2</ele>
        <time>2022-02-13T07:44:11Z</time>
      </trkpt>
      <trkpt lat="46.56249" lon="0.28466">
        <ele>131</ele>
        <time>2022-02-13T07:44:13Z</time>
      </trkpt>
      <trkpt lat="46.56277" lon="0.28496">
        <ele>130.8</ele>
        <time>2022-02-13T07:44:19Z</time>
      </trkpt>
      <trkpt lat="46.56297" lon="0.28517">
        <ele>130.2</ele>
        <time>2022-02-13T07:44:23Z</time>
      </trkpt>
      <trkpt lat="46.56305" lon="0.2853">
        <ele>129.8</ele>
        <time>2022-02-13T07:44:25Z</time>
      </trkpt>
      <trkpt lat="46.56309" lon="0.28538">
        <ele>129.6</ele>
        <time>2022-02-13T07:44:26Z</time>
      </trkpt>
      <trkpt lat="46.56317" lon="0.28555">
        <ele>129.2</ele>
        <time>2022-02-13T07:44:28Z</time>
      </trkpt>
      <trkpt lat="46.56322" lon="0.28564">
        <ele>128.8</ele>
        <time>2022-02-13T07:44:29Z</time>
      </trkpt>
      <trkpt lat="46.56327" lon="0.28573">
        <ele>128.6</ele>
        <time>2022-02-13T07:44:30Z</time>
      </trkpt>
      <trkpt lat="46.56331" lon="0.28581">
        <ele>128</ele>
        <time>2022-02-13T07:44:31Z</time>
      </trkpt>
      <trkpt lat="46.56338" lon="0.28598">
        <ele>125.8</ele>
        <time>2022-02-13T07:44:33Z</time>
      </trkpt>
      <trkpt lat="46.5634" lon="0.28606">
        <ele>125.2</ele>
        <time>2022-02-13T07:44:34Z</time>
      </trkpt>
      <trkpt lat="46.56341" lon="0.28616">
        <ele>124.2</ele>
        <time>2022-02-13T07:44:35Z</time>
      </trkpt>
      <trkpt lat="46.56342" lon="0.28625">
        <ele>123.2</ele>
        <time>2022-02-13T07:44:36Z</time>
      </trkpt>
      <trkpt lat="46.56341" lon="0.28634">
        <ele>122.4</ele>
        <time>2022-02-13T07:44:37Z</time>
      </trkpt>
      <trkpt lat="46.56339" lon="0.2864">
        <ele>122.2</ele>
        <time>2022-02-13T07:44:38Z</time>
      </trkpt>
      <trkpt lat="46.56336" lon="0.28644">
        <ele>122</ele>
        <time>2022-02-13T07:44:39Z</time>
      </trkpt>
      <trkpt lat="46.56329" lon="0.28647">
        <ele>122</ele>
        <time>2022-02-13T07:44:41Z</time>
      </trkpt>
      <trkpt lat="46.56315" lon="0.28643">
        <ele>122.8</ele>
        <time>2022-02-13T07:44:45Z</time>
      </trkpt>
      <trkpt lat="46.56311" lon="0.28641">
        <ele>123.4</ele>
        <time>2022-02-13T07:44:46Z</time>
      </trkpt>
      <trkpt lat="46.56299" lon="0.28637">
        <ele>124.6</ele>
        <time>2022-02-13T07:44:49Z</time>
      </trkpt>
      <trkpt lat="46.56296" lon="0.28635">
        <ele>124.8</ele>
        <time>2022-02-13T07:44:50Z</time>
      </trkpt>
      <trkpt lat="46.56284" lon="0.2863">
        <ele>125.6</ele>
        <time>2022-02-13T07:44:53Z</time>
      </trkpt>
      <trkpt lat="46.5628" lon="0.28628">
        <ele>125.6</ele>
        <time>2022-02-13T07:44:54Z</time>
      </trkpt>
      <trkpt lat="46.56256" lon="0.28618">
        <ele>126.8</ele>
        <time>2022-02-13T07:45:00Z</time>
      </trkpt>
      <trkpt lat="46.56252" lon="0.28616">
        <ele>127</ele>
        <time>2022-02-13T07:45:01Z</time>
      </trkpt>
      <trkpt lat="46.5624" lon="0.28612">
        <ele>127.8</ele>
        <time>2022-02-13T07:45:04Z</time>
      </trkpt>
      <trkpt lat="46.56229" lon="0.28611">
        <ele>128.2</ele>
        <time>2022-02-13T07:45:07Z</time>
      </trkpt>
      <trkpt lat="46.56194" lon="0.28602">
        <ele>128.8</ele>
        <time>2022-02-13T07:45:16Z</time>
      </trkpt>
      <trkpt lat="46.56191" lon="0.28601">
        <ele>128.8</ele>
        <time>2022-02-13T07:45:17Z</time>
      </trkpt>
      <trkpt lat="46.56158" lon="0.28593">
        <ele>129.6</ele>
        <time>2022-02-13T07:45:25Z</time>
      </trkpt>
      <trkpt lat="46.56143" lon="0.28589">
        <ele>130</ele>
        <time>2022-02-13T07:45:29Z</time>
      </trkpt>
      <trkpt lat="46.56135" lon="0.28586">
        <ele>130.2</ele>
        <time>2022-02-13T07:45:31Z</time>
      </trkpt>
      <trkpt lat="46.56106" lon="0.28575">
        <ele>130.8</ele>
        <time>2022-02-13T07:45:39Z</time>
      </trkpt>
      <trkpt lat="46.56104" lon="0.28572">
        <ele>131</ele>
        <time>2022-02-13T07:45:40Z</time>
      </trkpt>
      <trkpt lat="46.56097" lon="0.28557">
        <ele>131.2</ele>
        <time>2022-02-13T07:45:44Z</time>
      </trkpt>
      <trkpt lat="46.56094" lon="0.28535">
        <ele>131</ele>
        <time>2022-02-13T07:45:50Z</time>
      </trkpt>
      <trkpt lat="46.56093" lon="0.28533">
        <ele>131</ele>
        <time>2022-02-13T07:45:51Z</time>
      </trkpt>
      <trkpt lat="46.56091" lon="0.2853">
        <ele>131</ele>
        <time>2022-02-13T07:45:53Z</time>
      </trkpt>
      <trkpt lat="46.56088" lon="0.28532">
        <ele>131</ele>
        <time>2022-02-13T07:45:55Z</time>
      </trkpt>
      <trkpt lat="46.56086" lon="0.28538">
        <ele>131</ele>
        <time>2022-02-13T07:45:57Z</time>
      </trkpt>
      <trkpt lat="46.56087" lon="0.28543">
        <ele>130.8</ele>
        <time>2022-02-13T07:45:58Z</time>
      </trkpt>
      <trkpt lat="46.56091" lon="0.2857">
        <ele>131</ele>
        <time>2022-02-13T07:46:03Z</time>
      </trkpt>
      <trkpt lat="46.56099" lon="0.2862">
        <ele>131.2</ele>
        <time>2022-02-13T07:46:11Z</time>
      </trkpt>
      <trkpt lat="46.5611" lon="0.28686">
        <ele>131.6</ele>
        <time>2022-02-13T07:46:20Z</time>
      </trkpt>
      <trkpt lat="46.56118" lon="0.2874">
        <ele>132</ele>
        <time>2022-02-13T07:46:27Z</time>
      </trkpt>
      <trkpt lat="46.56121" lon="0.28763">
        <ele>132</ele>
        <time>2022-02-13T07:46:30Z</time>
      </trkpt>
      <trkpt lat="46.56128" lon="0.2882">
        <ele>132</ele>
        <time>2022-02-13T07:46:37Z</time>
      </trkpt>
      <trkpt lat="46.56134" lon="0.28886">
        <ele>132.2</ele>
        <time>2022-02-13T07:46:45Z</time>
      </trkpt>
      <trkpt lat="46.5614" lon="0.28935">
        <ele>132.6</ele>
        <time>2022-02-13T07:46:51Z</time>
      </trkpt>
      <trkpt lat="46.56146" lon="0.2899">
        <ele>132.4</ele>
        <time>2022-02-13T07:46:58Z</time>
      </trkpt>
      <trkpt lat="46.56153" lon="0.29055">
        <ele>132.4</ele>
        <time>2022-02-13T07:47:06Z</time>
      </trkpt>
      <trkpt lat="46.56162" lon="0.29129">
        <ele>131.2</ele>
        <time>2022-02-13T07:47:15Z</time>
      </trkpt>
      <trkpt lat="46.56164" lon="0.29146">
        <ele>130.6</ele>
        <time>2022-02-13T07:47:17Z</time>
      </trkpt>
      <trkpt lat="46.56167" lon="0.29184">
        <ele>129.4</ele>
        <time>2022-02-13T07:47:21Z</time>
      </trkpt>
      <trkpt lat="46.56168" lon="0.29193">
        <ele>129</ele>
        <time>2022-02-13T07:47:22Z</time>
      </trkpt>
      <trkpt lat="46.56169" lon="0.29233">
        <ele>128</ele>
        <time>2022-02-13T07:47:26Z</time>
      </trkpt>
      <trkpt lat="46.56169" lon="0.29266">
        <ele>127</ele>
        <time>2022-02-13T07:47:29Z</time>
      </trkpt>
      <trkpt lat="46.56169" lon="0.29277">
        <ele>126.8</ele>
        <time>2022-02-13T07:47:30Z</time>
      </trkpt>
      <trkpt lat="46.5617" lon="0.29323">
        <ele>125.6</ele>
        <time>2022-02-13T07:47:34Z</time>
      </trkpt>
      <trkpt lat="46.56171" lon="0.29357">
        <ele>124.8</ele>
        <time>2022-02-13T07:47:37Z</time>
      </trkpt>
      <trkpt lat="46.56173" lon="0.29389">
        <ele>124.6</ele>
        <time>2022-02-13T07:47:40Z</time>
      </trkpt>
      <trkpt lat="46.56175" lon="0.29439">
        <ele>124.2</ele>
        <time>2022-02-13T07:47:45Z</time>
      </trkpt>
      <trkpt lat="46.5618" lon="0.29503">
        <ele>124.4</ele>
        <time>2022-02-13T07:47:52Z</time>
      </trkpt>
      <trkpt lat="46.56184" lon="0.29532">
        <ele>124.8</ele>
        <time>2022-02-13T07:47:57Z</time>
      </trkpt>
      <trkpt lat="46.56187" lon="0.29537">
        <ele>125</ele>
        <time>2022-02-13T07:47:58Z</time>
      </trkpt>
      <trkpt lat="46.5619" lon="0.29541">
        <ele>125.2</ele>
        <time>2022-02-13T07:47:59Z</time>
      </trkpt>
      <trkpt lat="46.56199" lon="0.29543">
        <ele>125.4</ele>
        <time>2022-02-13T07:48:01Z</time>
      </trkpt>
      <trkpt lat="46.56233" lon="0.29539">
        <ele>124.6</ele>
        <time>2022-02-13T07:48:07Z</time>
      </trkpt>
      <trkpt lat="46.56265" lon="0.29536">
        <ele>123.4</ele>
        <time>2022-02-13T07:48:12Z</time>
      </trkpt>
      <trkpt lat="46.56277" lon="0.29535">
        <ele>123.2</ele>
        <time>2022-02-13T07:48:14Z</time>
      </trkpt>
      <trkpt lat="46.56314" lon="0.29541">
        <ele>122.8</ele>
        <time>2022-02-13T07:48:20Z</time>
      </trkpt>
      <trkpt lat="46.56342" lon="0.29548">
        <ele>123</ele>
        <time>2022-02-13T07:48:25Z</time>
      </trkpt>
      <trkpt lat="46.56352" lon="0.29553">
        <ele>123.2</ele>
        <time>2022-02-13T07:48:27Z</time>
      </trkpt>
      <trkpt lat="46.56393" lon="0.29579">
        <ele>124.2</ele>
        <time>2022-02-13T07:48:35Z</time>
      </trkpt>
      <trkpt lat="46.56409" lon="0.29587">
        <ele>124.6</ele>
        <time>2022-02-13T07:48:38Z</time>
      </trkpt>
      <trkpt lat="46.56438" lon="0.29603">
        <ele>125</ele>
        <time>2022-02-13T07:48:44Z</time>
      </trkpt>
      <trkpt lat="46.56481" lon="0.29625">
        <ele>124.8</ele>
        <time>2022-02-13T07:48:52Z</time>
      </trkpt>
      <trkpt lat="46.56528" lon="0.29649">
        <ele>124.4</ele>
        <time>2022-02-13T07:49:00Z</time>
      </trkpt>
      <trkpt lat="46.56563" lon="0.29667">
        <ele>123.4</ele>
        <time>2022-02-13T07:49:06Z</time>
      </trkpt>
      <trkpt lat="46.56589" lon="0.29677">
        <ele>122.4</ele>
        <time>2022-02-13T07:49:10Z</time>
      </trkpt>
      <trkpt lat="46.56597" lon="0.29679">
        <ele>122</ele>
        <time>2022-02-13T07:49:11Z</time>
      </trkpt>
      <trkpt lat="46.56619" lon="0.29681">
        <ele>121.2</ele>
        <time>2022-02-13T07:49:14Z</time>
      </trkpt>
      <trkpt lat="46.56626" lon="0.2968">
        <ele>121</ele>
        <time>2022-02-13T07:49:15Z</time>
      </trkpt>
      <trkpt lat="46.56647" lon="0.29672">
        <ele>119.6</ele>
        <time>2022-02-13T07:49:18Z</time>
      </trkpt>
      <trkpt lat="46.5666" lon="0.29663">
        <ele>118.8</ele>
        <time>2022-02-13T07:49:20Z</time>
      </trkpt>
      <trkpt lat="46.56667" lon="0.29658">
        <ele>118.6</ele>
        <time>2022-02-13T07:49:21Z</time>
      </trkpt>
      <trkpt lat="46.56693" lon="0.29631">
        <ele>117.4</ele>
        <time>2022-02-13T07:49:25Z</time>
      </trkpt>
      <trkpt lat="46.56699" lon="0.29623">
        <ele>116.8</ele>
        <time>2022-02-13T07:49:26Z</time>
      </trkpt>
      <trkpt lat="46.56715" lon="0.29604">
        <ele>116.2</ele>
        <time>2022-02-13T07:49:29Z</time>
      </trkpt>
      <trkpt lat="46.56721" lon="0.29598">
        <ele>115.8</ele>
        <time>2022-02-13T07:49:30Z</time>
      </trkpt>
      <trkpt lat="46.56726" lon="0.29594">
        <ele>115.4</ele>
        <time>2022-02-13T07:49:31Z</time>
      </trkpt>
      <trkpt lat="46.56732" lon="0.29591">
        <ele>115</ele>
        <time>2022-02-13T07:49:32Z</time>
      </trkpt>
      <trkpt lat="46.56744" lon="0.29586">
        <ele>114</ele>
        <time>2022-02-13T07:49:34Z</time>
      </trkpt>
      <trkpt lat="46.56754" lon="0.29584">
        <ele>113.2</ele>
        <time>2022-02-13T07:49:36Z</time>
      </trkpt>
      <trkpt lat="46.56757" lon="0.29582">
        <ele>112.8</ele>
        <time>2022-02-13T07:49:37Z</time>
      </trkpt>
      <trkpt lat="46.56758" lon="0.29575">
        <ele>112</ele>
        <time>2022-02-13T07:49:39Z</time>
      </trkpt>
      <trkpt lat="46.56756" lon="0.29571">
        <ele>111.6</ele>
        <time>2022-02-13T07:49:41Z</time>
      </trkpt>
      <trkpt lat="46.56753" lon="0.29568">
        <ele>111</ele>
        <time>2022-02-13T07:49:43Z</time>
      </trkpt>
      <trkpt lat="46.5675" lon="0.29563">
        <ele>110.4</ele>
        <time>2022-02-13T07:49:46Z</time>
      </trkpt>
      <trkpt lat="46.56746" lon="0.29563">
        <ele>110.4</ele>
        <time>2022-02-13T07:49:48Z</time>
      </trkpt>
      <trkpt lat="46.5673" lon="0.29556">
        <ele>110.6</ele>
        <time>2022-02-13T07:49:52Z</time>
      </trkpt>
      <trkpt lat="46.56724" lon="0.29549">
        <ele>110.6</ele>
        <time>2022-02-13T07:49:54Z</time>
      </trkpt>
      <trkpt lat="46.56722" lon="0.2954">
        <ele>110.6</ele>
        <time>2022-02-13T07:49:56Z</time>
      </trkpt>
      <trkpt lat="46.56719" lon="0.29525">
        <ele>109</ele>
        <time>2022-02-13T07:50:00Z</time>
      </trkpt>
      <trkpt lat="46.56718" lon="0.29523">
        <ele>108.6</ele>
        <time>2022-02-13T07:50:01Z</time>
      </trkpt>
      <trkpt lat="46.56717" lon="0.2952">
        <ele>107.8</ele>
        <time>2022-02-13T07:50:04Z</time>
      </trkpt>
      <trkpt lat="46.56716" lon="0.29519">
        <ele>107.6</ele>
        <time>2022-02-13T07:50:05Z</time>
      </trkpt>
      <trkpt lat="46.56716" lon="0.29512">
        <ele>107.4</ele>
        <time>2022-02-13T07:50:08Z</time>
      </trkpt>
      <trkpt lat="46.56714" lon="0.29496">
        <ele>106.8</ele>
        <time>2022-02-13T07:50:13Z</time>
      </trkpt>
      <trkpt lat="46.56713" lon="0.29492">
        <ele>106.6</ele>
        <time>2022-02-13T07:50:14Z</time>
      </trkpt>
      <trkpt lat="46.5671" lon="0.29481">
        <ele>106.2</ele>
        <time>2022-02-13T07:50:17Z</time>
      </trkpt>
      <trkpt lat="46.56711" lon="0.29473">
        <ele>105.8</ele>
        <time>2022-02-13T07:50:19Z</time>
      </trkpt>
      <trkpt lat="46.56712" lon="0.29471">
        <ele>105.8</ele>
        <time>2022-02-13T07:50:20Z</time>
      </trkpt>
      <trkpt lat="46.56719" lon="0.2947">
        <ele>105.6</ele>
        <time>2022-02-13T07:50:23Z</time>
      </trkpt>
      <trkpt lat="46.56732" lon="0.29477">
        <ele>105.2</ele>
        <time>2022-02-13T07:50:27Z</time>
      </trkpt>
      <trkpt lat="46.56736" lon="0.29478">
        <ele>105.2</ele>
        <time>2022-02-13T07:50:28Z</time>
      </trkpt>
      <trkpt lat="46.56744" lon="0.2948">
        <ele>104.6</ele>
        <time>2022-02-13T07:50:30Z</time>
      </trkpt>
      <trkpt lat="46.56761" lon="0.29485">
        <ele>104</ele>
        <time>2022-02-13T07:50:34Z</time>
      </trkpt>
      <trkpt lat="46.56783" lon="0.29495">
        <ele>103.6</ele>
        <time>2022-02-13T07:50:38Z</time>
      </trkpt>
      <trkpt lat="46.56789" lon="0.29497">
        <ele>103.4</ele>
        <time>2022-02-13T07:50:39Z</time>
      </trkpt>
      <trkpt lat="46.56809" lon="0.29503">
        <ele>103</ele>
        <time>2022-02-13T07:50:43Z</time>
      </trkpt>
      <trkpt lat="46.56814" lon="0.29504">
        <ele>102.8</ele>
        <time>2022-02-13T07:50:44Z</time>
      </trkpt>
      <trkpt lat="46.56843" lon="0.29512">
        <ele>102.6</ele>
        <time>2022-02-13T07:50:49Z</time>
      </trkpt>
      <trkpt lat="46.56857" lon="0.29514">
        <ele>101.8</ele>
        <time>2022-02-13T07:50:51Z</time>
      </trkpt>
      <trkpt lat="46.56872" lon="0.29512">
        <ele>100.2</ele>
        <time>2022-02-13T07:50:53Z</time>
      </trkpt>
      <trkpt lat="46.56883" lon="0.29506">
        <ele>99.4</ele>
        <time>2022-02-13T07:50:55Z</time>
      </trkpt>
      <trkpt lat="46.56888" lon="0.29503">
        <ele>98.6</ele>
        <time>2022-02-13T07:50:56Z</time>
      </trkpt>
      <trkpt lat="46.56893" lon="0.29499">
        <ele>98.2</ele>
        <time>2022-02-13T07:50:57Z</time>
      </trkpt>
      <trkpt lat="46.56898" lon="0.29495">
        <ele>97.8</ele>
        <time>2022-02-13T07:50:58Z</time>
      </trkpt>
      <trkpt lat="46.56902" lon="0.2949">
        <ele>97</ele>
        <time>2022-02-13T07:50:59Z</time>
      </trkpt>
      <trkpt lat="46.56917" lon="0.29471">
        <ele>95.6</ele>
        <time>2022-02-13T07:51:02Z</time>
      </trkpt>
      <trkpt lat="46.56932" lon="0.29453">
        <ele>94.2</ele>
        <time>2022-02-13T07:51:05Z</time>
      </trkpt>
      <trkpt lat="46.56942" lon="0.29439">
        <ele>92.6</ele>
        <time>2022-02-13T07:51:07Z</time>
      </trkpt>
      <trkpt lat="46.56946" lon="0.29432">
        <ele>92</ele>
        <time>2022-02-13T07:51:08Z</time>
      </trkpt>
      <trkpt lat="46.56951" lon="0.29425">
        <ele>91.4</ele>
        <time>2022-02-13T07:51:09Z</time>
      </trkpt>
      <trkpt lat="46.56955" lon="0.29417">
        <ele>91</ele>
        <time>2022-02-13T07:51:10Z</time>
      </trkpt>
      <trkpt lat="46.56959" lon="0.29398">
        <ele>90.4</ele>
        <time>2022-02-13T07:51:12Z</time>
      </trkpt>
      <trkpt lat="46.5696" lon="0.29383">
        <ele>89</ele>
        <time>2022-02-13T07:51:14Z</time>
      </trkpt>
      <trkpt lat="46.56959" lon="0.29377">
        <ele>88.6</ele>
        <time>2022-02-13T07:51:15Z</time>
      </trkpt>
      <trkpt lat="46.56959" lon="0.29371">
        <ele>88.4</ele>
        <time>2022-02-13T07:51:16Z</time>
      </trkpt>
      <trkpt lat="46.5696" lon="0.29361">
        <ele>88</ele>
        <time>2022-02-13T07:51:18Z</time>
      </trkpt>
      <trkpt lat="46.5696" lon="0.29348">
        <ele>88</ele>
        <time>2022-02-13T07:51:20Z</time>
      </trkpt>
      <trkpt lat="46.56961" lon="0.29342">
        <ele>88.2</ele>
        <time>2022-02-13T07:51:21Z</time>
      </trkpt>
      <trkpt lat="46.56961" lon="0.29335">
        <ele>88.2</ele>
        <time>2022-02-13T07:51:22Z</time>
      </trkpt>
      <trkpt lat="46.56961" lon="0.29321">
        <ele>88.6</ele>
        <time>2022-02-13T07:51:24Z</time>
      </trkpt>
      <trkpt lat="46.56961" lon="0.29314">
        <ele>88.6</ele>
        <time>2022-02-13T07:51:25Z</time>
      </trkpt>
      <trkpt lat="46.56961" lon="0.29307">
        <ele>88.6</ele>
        <time>2022-02-13T07:51:26Z</time>
      </trkpt>
      <trkpt lat="46.56963" lon="0.29292">
        <ele>88.8</ele>
        <time>2022-02-13T07:51:28Z</time>
      </trkpt>
      <trkpt lat="46.56965" lon="0.29275">
        <ele>89</ele>
        <time>2022-02-13T07:51:30Z</time>
      </trkpt>
      <trkpt lat="46.56965" lon="0.29268">
        <ele>89</ele>
        <time>2022-02-13T07:51:31Z</time>
      </trkpt>
      <trkpt lat="46.56964" lon="0.29253">
        <ele>89.4</ele>
        <time>2022-02-13T07:51:33Z</time>
      </trkpt>
      <trkpt lat="46.56963" lon="0.2923">
        <ele>89.6</ele>
        <time>2022-02-13T07:51:36Z</time>
      </trkpt>
      <trkpt lat="46.56962" lon="0.29223">
        <ele>89.6</ele>
        <time>2022-02-13T07:51:37Z</time>
      </trkpt>
      <trkpt lat="46.56963" lon="0.29208">
        <ele>89.6</ele>
        <time>2022-02-13T07:51:39Z</time>
      </trkpt>
      <trkpt lat="46.56963" lon="0.29195">
        <ele>89.8</ele>
        <time>2022-02-13T07:51:41Z</time>
      </trkpt>
      <trkpt lat="46.56963" lon="0.29181">
        <ele>90.2</ele>
        <time>2022-02-13T07:51:43Z</time>
      </trkpt>
      <trkpt lat="46.56962" lon="0.29164">
        <ele>90.8</ele>
        <time>2022-02-13T07:51:46Z</time>
      </trkpt>
      <trkpt lat="46.56962" lon="0.29159">
        <ele>91</ele>
        <time>2022-02-13T07:51:47Z</time>
      </trkpt>
      <trkpt lat="46.5696" lon="0.29151">
        <ele>91.2</ele>
        <time>2022-02-13T07:51:48Z</time>
      </trkpt>
      <trkpt lat="46.5696" lon="0.29142">
        <ele>91.4</ele>
        <time>2022-02-13T07:51:49Z</time>
      </trkpt>
      <trkpt lat="46.56961" lon="0.29125">
        <ele>91.6</ele>
        <time>2022-02-13T07:51:51Z</time>
      </trkpt>
      <trkpt lat="46.56962" lon="0.29109">
        <ele>91.8</ele>
        <time>2022-02-13T07:51:53Z</time>
      </trkpt>
      <trkpt lat="46.56964" lon="0.29094">
        <ele>91.8</ele>
        <time>2022-02-13T07:51:55Z</time>
      </trkpt>
      <trkpt lat="46.56965" lon="0.29087">
        <ele>92.2</ele>
        <time>2022-02-13T07:51:56Z</time>
      </trkpt>
      <trkpt lat="46.56968" lon="0.29072">
        <ele>92.4</ele>
        <time>2022-02-13T07:51:58Z</time>
      </trkpt>
      <trkpt lat="46.56973" lon="0.29044">
        <ele>92.6</ele>
        <time>2022-02-13T07:52:02Z</time>
      </trkpt>
      <trkpt lat="46.56978" lon="0.2902">
        <ele>93.2</ele>
        <time>2022-02-13T07:52:06Z</time>
      </trkpt>
      <trkpt lat="46.56978" lon="0.29015">
        <ele>93.6</ele>
        <time>2022-02-13T07:52:07Z</time>
      </trkpt>
      <trkpt lat="46.56979" lon="0.29003">
        <ele>94.6</ele>
        <time>2022-02-13T07:52:09Z</time>
      </trkpt>
      <trkpt lat="46.56981" lon="0.28987">
        <ele>95.8</ele>
        <time>2022-02-13T07:52:12Z</time>
      </trkpt>
      <trkpt lat="46.56982" lon="0.28972">
        <ele>97</ele>
        <time>2022-02-13T07:52:16Z</time>
      </trkpt>
      <trkpt lat="46.56981" lon="0.28967">
        <ele>97.6</ele>
        <time>2022-02-13T07:52:17Z</time>
      </trkpt>
      <trkpt lat="46.56979" lon="0.2896">
        <ele>98.2</ele>
        <time>2022-02-13T07:52:19Z</time>
      </trkpt>
      <trkpt lat="46.56975" lon="0.28952">
        <ele>99.6</ele>
        <time>2022-02-13T07:52:22Z</time>
      </trkpt>
      <trkpt lat="46.56966" lon="0.28942">
        <ele>100.6</ele>
        <time>2022-02-13T07:52:27Z</time>
      </trkpt>
      <trkpt lat="46.56962" lon="0.28938">
        <ele>100.8</ele>
        <time>2022-02-13T07:52:29Z</time>
      </trkpt>
      <trkpt lat="46.56956" lon="0.28934">
        <ele>101.8</ele>
        <time>2022-02-13T07:52:32Z</time>
      </trkpt>
      <trkpt lat="46.56948" lon="0.28928">
        <ele>102.8</ele>
        <time>2022-02-13T07:52:36Z</time>
      </trkpt>
      <trkpt lat="46.56946" lon="0.28927">
        <ele>103.2</ele>
        <time>2022-02-13T07:52:37Z</time>
      </trkpt>
      <trkpt lat="46.56935" lon="0.28919">
        <ele>104.2</ele>
        <time>2022-02-13T07:52:42Z</time>
      </trkpt>
      <trkpt lat="46.56932" lon="0.28918">
        <ele>104.8</ele>
        <time>2022-02-13T07:52:44Z</time>
      </trkpt>
      <trkpt lat="46.56923" lon="0.28913">
        <ele>105.2</ele>
        <time>2022-02-13T07:52:48Z</time>
      </trkpt>
      <trkpt lat="46.5692" lon="0.28909">
        <ele>105.8</ele>
        <time>2022-02-13T07:52:50Z</time>
      </trkpt>
      <trkpt lat="46.56917" lon="0.28905">
        <ele>106.4</ele>
        <time>2022-02-13T07:52:52Z</time>
      </trkpt>
      <trkpt lat="46.56916" lon="0.28897">
        <ele>107.2</ele>
        <time>2022-02-13T07:52:55Z</time>
      </trkpt>
      <trkpt lat="46.56916" lon="0.28894">
        <ele>107.4</ele>
        <time>2022-02-13T07:52:56Z</time>
      </trkpt>
      <trkpt lat="46.56917" lon="0.28887">
        <ele>108</ele>
        <time>2022-02-13T07:52:59Z</time>
      </trkpt>
      <trkpt lat="46.56918" lon="0.28886">
        <ele>108</ele>
        <time>2022-02-13T07:53:00Z</time>
      </trkpt>
      <trkpt lat="46.56931" lon="0.28886">
        <ele>108</ele>
        <time>2022-02-13T07:53:05Z</time>
      </trkpt>
      <trkpt lat="46.56956" lon="0.2889">
        <ele>108</ele>
        <time>2022-02-13T07:53:13Z</time>
      </trkpt>
      <trkpt lat="46.56981" lon="0.28895">
        <ele>107.6</ele>
        <time>2022-02-13T07:53:20Z</time>
      </trkpt>
      <trkpt lat="46.57006" lon="0.289">
        <ele>107</ele>
        <time>2022-02-13T07:53:26Z</time>
      </trkpt>
      <trkpt lat="46.57032" lon="0.28905">
        <ele>106.8</ele>
        <time>2022-02-13T07:53:33Z</time>
      </trkpt>
      <trkpt lat="46.57035" lon="0.28906">
        <ele>106.8</ele>
        <time>2022-02-13T07:53:34Z</time>
      </trkpt>
      <trkpt lat="46.57042" lon="0.28909">
        <ele>106.8</ele>
        <time>2022-02-13T07:53:36Z</time>
      </trkpt>
      <trkpt lat="46.57049" lon="0.28916">
        <ele>107</ele>
        <time>2022-02-13T07:53:38Z</time>
      </trkpt>
      <trkpt lat="46.57057" lon="0.28923">
        <ele>107.2</ele>
        <time>2022-02-13T07:53:40Z</time>
      </trkpt>
      <trkpt lat="46.57066" lon="0.28929">
        <ele>107.2</ele>
        <time>2022-02-13T07:53:42Z</time>
      </trkpt>
      <trkpt lat="46.5707" lon="0.28931">
        <ele>107.2</ele>
        <time>2022-02-13T07:53:43Z</time>
      </trkpt>
      <trkpt lat="46.57074" lon="0.28935">
        <ele>107.4</ele>
        <time>2022-02-13T07:53:44Z</time>
      </trkpt>
      <trkpt lat="46.57077" lon="0.28943">
        <ele>107.4</ele>
        <time>2022-02-13T07:53:46Z</time>
      </trkpt>
      <trkpt lat="46.5708" lon="0.28966">
        <ele>109.4</ele>
        <time>2022-02-13T07:53:52Z</time>
      </trkpt>
      <trkpt lat="46.57081" lon="0.28972">
        <ele>110.4</ele>
        <time>2022-02-13T07:53:54Z</time>
      </trkpt>
      <trkpt lat="46.57085" lon="0.28982">
        <ele>111.6</ele>
        <time>2022-02-13T07:53:57Z</time>
      </trkpt>
      <trkpt lat="46.57085" lon="0.28986">
        <ele>112</ele>
        <time>2022-02-13T07:53:58Z</time>
      </trkpt>
      <trkpt lat="46.5709" lon="0.29008">
        <ele>112.8</ele>
        <time>2022-02-13T07:54:04Z</time>
      </trkpt>
      <trkpt lat="46.57098" lon="0.29044">
        <ele>113</ele>
        <time>2022-02-13T07:54:12Z</time>
      </trkpt>
      <trkpt lat="46.57099" lon="0.29077">
        <ele>113.2</ele>
        <time>2022-02-13T07:54:19Z</time>
      </trkpt>
      <trkpt lat="46.57093" lon="0.29111">
        <ele>113.4</ele>
        <time>2022-02-13T07:54:26Z</time>
      </trkpt>
      <trkpt lat="46.57099" lon="0.29137">
        <ele>113.6</ele>
        <time>2022-02-13T07:54:31Z</time>
      </trkpt>
      <trkpt lat="46.57101" lon="0.29149">
        <ele>113.6</ele>
        <time>2022-02-13T07:54:33Z</time>
      </trkpt>
      <trkpt lat="46.57104" lon="0.29158">
        <ele>113.6</ele>
        <time>2022-02-13T07:54:35Z</time>
      </trkpt>
      <trkpt lat="46.57106" lon="0.29163">
        <ele>113.6</ele>
        <time>2022-02-13T07:54:36Z</time>
      </trkpt>
      <trkpt lat="46.57108" lon="0.29169">
        <ele>113.6</ele>
        <time>2022-02-13T07:54:37Z</time>
      </trkpt>
      <trkpt lat="46.57117" lon="0.29197">
        <ele>113.4</ele>
        <time>2022-02-13T07:54:42Z</time>
      </trkpt>
      <trkpt lat="46.57126" lon="0.29227">
        <ele>113.2</ele>
        <time>2022-02-13T07:54:47Z</time>
      </trkpt>
      <trkpt lat="46.57128" lon="0.29233">
        <ele>113</ele>
        <time>2022-02-13T07:54:48Z</time>
      </trkpt>
      <trkpt lat="46.57145" lon="0.29272">
        <ele>111.8</ele>
        <time>2022-02-13T07:54:54Z</time>
      </trkpt>
      <trkpt lat="46.57148" lon="0.2928">
        <ele>111.4</ele>
        <time>2022-02-13T07:54:55Z</time>
      </trkpt>
      <trkpt lat="46.57163" lon="0.29312">
        <ele>110.2</ele>
        <time>2022-02-13T07:54:59Z</time>
      </trkpt>
      <trkpt lat="46.57167" lon="0.29319">
        <ele>110</ele>
        <time>2022-02-13T07:55:00Z</time>
      </trkpt>
      <trkpt lat="46.57178" lon="0.29343">
        <ele>108.8</ele>
        <time>2022-02-13T07:55:03Z</time>
      </trkpt>
      <trkpt lat="46.57201" lon="0.29383">
        <ele>108</ele>
        <time>2022-02-13T07:55:08Z</time>
      </trkpt>
      <trkpt lat="46.5721" lon="0.29398">
        <ele>107.8</ele>
        <time>2022-02-13T07:55:10Z</time>
      </trkpt>
      <trkpt lat="46.57218" lon="0.29415">
        <ele>107.4</ele>
        <time>2022-02-13T07:55:12Z</time>
      </trkpt>
      <trkpt lat="46.57227" lon="0.29432">
        <ele>107</ele>
        <time>2022-02-13T07:55:14Z</time>
      </trkpt>
      <trkpt lat="46.57231" lon="0.2944">
        <ele>106.2</ele>
        <time>2022-02-13T07:55:15Z</time>
      </trkpt>
      <trkpt lat="46.57244" lon="0.29465">
        <ele>105</ele>
        <time>2022-02-13T07:55:18Z</time>
      </trkpt>
      <trkpt lat="46.57253" lon="0.29482">
        <ele>103.8</ele>
        <time>2022-02-13T07:55:20Z</time>
      </trkpt>
      <trkpt lat="46.57265" lon="0.29506">
        <ele>102.6</ele>
        <time>2022-02-13T07:55:23Z</time>
      </trkpt>
      <trkpt lat="46.57268" lon="0.29514">
        <ele>102</ele>
        <time>2022-02-13T07:55:24Z</time>
      </trkpt>
      <trkpt lat="46.57271" lon="0.2952">
        <ele>101.4</ele>
        <time>2022-02-13T07:55:25Z</time>
      </trkpt>
      <trkpt lat="46.57274" lon="0.29531">
        <ele>100.2</ele>
        <time>2022-02-13T07:55:27Z</time>
      </trkpt>
      <trkpt lat="46.57275" lon="0.29534">
        <ele>100</ele>
        <time>2022-02-13T07:55:28Z</time>
      </trkpt>
      <trkpt lat="46.57276" lon="0.2954">
        <ele>99.2</ele>
        <time>2022-02-13T07:55:30Z</time>
      </trkpt>
      <trkpt lat="46.57278" lon="0.29552">
        <ele>98</ele>
        <time>2022-02-13T07:55:34Z</time>
      </trkpt>
      <trkpt lat="46.57279" lon="0.29556">
        <ele>97.8</ele>
        <time>2022-02-13T07:55:35Z</time>
      </trkpt>
      <trkpt lat="46.57289" lon="0.29571">
        <ele>97.4</ele>
        <time>2022-02-13T07:55:39Z</time>
      </trkpt>
      <trkpt lat="46.57292" lon="0.29574">
        <ele>97.4</ele>
        <time>2022-02-13T07:55:40Z</time>
      </trkpt>
      <trkpt lat="46.57296" lon="0.29576">
        <ele>97.2</ele>
        <time>2022-02-13T07:55:41Z</time>
      </trkpt>
      <trkpt lat="46.57299" lon="0.29575">
        <ele>96.8</ele>
        <time>2022-02-13T07:55:42Z</time>
      </trkpt>
      <trkpt lat="46.57302" lon="0.29572">
        <ele>96.6</ele>
        <time>2022-02-13T07:55:43Z</time>
      </trkpt>
      <trkpt lat="46.57307" lon="0.29569">
        <ele>95.8</ele>
        <time>2022-02-13T07:55:45Z</time>
      </trkpt>
      <trkpt lat="46.57309" lon="0.29566">
        <ele>95</ele>
        <time>2022-02-13T07:55:47Z</time>
      </trkpt>
      <trkpt lat="46.5731" lon="0.29564">
        <ele>94.6</ele>
        <time>2022-02-13T07:55:48Z</time>
      </trkpt>
      <trkpt lat="46.57312" lon="0.29554">
        <ele>93.2</ele>
        <time>2022-02-13T07:55:51Z</time>
      </trkpt>
      <trkpt lat="46.57312" lon="0.29551">
        <ele>92.8</ele>
        <time>2022-02-13T07:55:52Z</time>
      </trkpt>
      <trkpt lat="46.5731" lon="0.29548">
        <ele>91.8</ele>
        <time>2022-02-13T07:55:54Z</time>
      </trkpt>
      <trkpt lat="46.57308" lon="0.29539">
        <ele>91</ele>
        <time>2022-02-13T07:55:57Z</time>
      </trkpt>
      <trkpt lat="46.57308" lon="0.29534">
        <ele>90.8</ele>
        <time>2022-02-13T07:55:58Z</time>
      </trkpt>
      <trkpt lat="46.57306" lon="0.29517">
        <ele>89.2</ele>
        <time>2022-02-13T07:56:01Z</time>
      </trkpt>
      <trkpt lat="46.57305" lon="0.29511">
        <ele>88.6</ele>
        <time>2022-02-13T07:56:02Z</time>
      </trkpt>
      <trkpt lat="46.57304" lon="0.29505">
        <ele>87.6</ele>
        <time>2022-02-13T07:56:03Z</time>
      </trkpt>
      <trkpt lat="46.57301" lon="0.29492">
        <ele>86</ele>
        <time>2022-02-13T07:56:05Z</time>
      </trkpt>
      <trkpt lat="46.57297" lon="0.2948">
        <ele>85</ele>
        <time>2022-02-13T07:56:07Z</time>
      </trkpt>
      <trkpt lat="46.57296" lon="0.29474">
        <ele>84.2</ele>
        <time>2022-02-13T07:56:08Z</time>
      </trkpt>
      <trkpt lat="46.57296" lon="0.2947">
        <ele>83.8</ele>
        <time>2022-02-13T07:56:09Z</time>
      </trkpt>
      <trkpt lat="46.57293" lon="0.29458">
        <ele>82</ele>
        <time>2022-02-13T07:56:11Z</time>
      </trkpt>
      <trkpt lat="46.57291" lon="0.29451">
        <ele>81.6</ele>
        <time>2022-02-13T07:56:12Z</time>
      </trkpt>
      <trkpt lat="46.57287" lon="0.29441">
        <ele>80.8</ele>
        <time>2022-02-13T07:56:14Z</time>
      </trkpt>
      <trkpt lat="46.57284" lon="0.29429">
        <ele>80.4</ele>
        <time>2022-02-13T07:56:16Z</time>
      </trkpt>
      <trkpt lat="46.57282" lon="0.29421">
        <ele>80.4</ele>
        <time>2022-02-13T07:56:17Z</time>
      </trkpt>
      <trkpt lat="46.57273" lon="0.29399">
        <ele>80.2</ele>
        <time>2022-02-13T07:56:21Z</time>
      </trkpt>
      <trkpt lat="46.57271" lon="0.29393">
        <ele>80.2</ele>
        <time>2022-02-13T07:56:22Z</time>
      </trkpt>
      <trkpt lat="46.57265" lon="0.29378">
        <ele>79.8</ele>
        <time>2022-02-13T07:56:24Z</time>
      </trkpt>
      <trkpt lat="46.5726" lon="0.29365">
        <ele>79.6</ele>
        <time>2022-02-13T07:56:26Z</time>
      </trkpt>
      <trkpt lat="46.57244" lon="0.29313">
        <ele>79.6</ele>
        <time>2022-02-13T07:56:32Z</time>
      </trkpt>
      <trkpt lat="46.57241" lon="0.29304">
        <ele>79.6</ele>
        <time>2022-02-13T07:56:33Z</time>
      </trkpt>
      <trkpt lat="46.57236" lon="0.29288">
        <ele>79.6</ele>
        <time>2022-02-13T07:56:35Z</time>
      </trkpt>
      <trkpt lat="46.57232" lon="0.29271">
        <ele>79.8</ele>
        <time>2022-02-13T07:56:37Z</time>
      </trkpt>
      <trkpt lat="46.57215" lon="0.29221">
        <ele>80.6</ele>
        <time>2022-02-13T07:56:43Z</time>
      </trkpt>
      <trkpt lat="46.57213" lon="0.29213">
        <ele>80.6</ele>
        <time>2022-02-13T07:56:44Z</time>
      </trkpt>
      <trkpt lat="46.57208" lon="0.29194">
        <ele>80.8</ele>
        <time>2022-02-13T07:56:47Z</time>
      </trkpt>
      <trkpt lat="46.57204" lon="0.29182">
        <ele>81</ele>
        <time>2022-02-13T07:56:49Z</time>
      </trkpt>
      <trkpt lat="46.57194" lon="0.29153">
        <ele>81</ele>
        <time>2022-02-13T07:56:54Z</time>
      </trkpt>
      <trkpt lat="46.57192" lon="0.29147">
        <ele>81</ele>
        <time>2022-02-13T07:56:55Z</time>
      </trkpt>
      <trkpt lat="46.5719" lon="0.29141">
        <ele>81</ele>
        <time>2022-02-13T07:56:56Z</time>
      </trkpt>
      <trkpt lat="46.57185" lon="0.29126">
        <ele>81.2</ele>
        <time>2022-02-13T07:56:59Z</time>
      </trkpt>
      <trkpt lat="46.57184" lon="0.2912">
        <ele>81.4</ele>
        <time>2022-02-13T07:57:00Z</time>
      </trkpt>
      <trkpt lat="46.57182" lon="0.29107">
        <ele>81.4</ele>
        <time>2022-02-13T07:57:02Z</time>
      </trkpt>
      <trkpt lat="46.57179" lon="0.29095">
        <ele>81.4</ele>
        <time>2022-02-13T07:57:04Z</time>
      </trkpt>
      <trkpt lat="46.57175" lon="0.29082">
        <ele>81.2</ele>
        <time>2022-02-13T07:57:06Z</time>
      </trkpt>
      <trkpt lat="46.57164" lon="0.2904">
        <ele>81</ele>
        <time>2022-02-13T07:57:12Z</time>
      </trkpt>
      <trkpt lat="46.57158" lon="0.29014">
        <ele>80.6</ele>
        <time>2022-02-13T07:57:16Z</time>
      </trkpt>
      <trkpt lat="46.57154" lon="0.29002">
        <ele>80.4</ele>
        <time>2022-02-13T07:57:18Z</time>
      </trkpt>
      <trkpt lat="46.57148" lon="0.28985">
        <ele>80.6</ele>
        <time>2022-02-13T07:57:21Z</time>
      </trkpt>
      <trkpt lat="46.57145" lon="0.28974">
        <ele>80.6</ele>
        <time>2022-02-13T07:57:23Z</time>
      </trkpt>
      <trkpt lat="46.57144" lon="0.28971">
        <ele>80.8</ele>
        <time>2022-02-13T07:57:24Z</time>
      </trkpt>
      <trkpt lat="46.57141" lon="0.2896">
        <ele>81.2</ele>
        <time>2022-02-13T07:57:27Z</time>
      </trkpt>
      <trkpt lat="46.57141" lon="0.28945">
        <ele>81</ele>
        <time>2022-02-13T07:57:30Z</time>
      </trkpt>
      <trkpt lat="46.57147" lon="0.28931">
        <ele>80.4</ele>
        <time>2022-02-13T07:57:34Z</time>
      </trkpt>
      <trkpt lat="46.57154" lon="0.2892">
        <ele>79.8</ele>
        <time>2022-02-13T07:57:38Z</time>
      </trkpt>
      <trkpt lat="46.57158" lon="0.2892">
        <ele>79.8</ele>
        <time>2022-02-13T07:57:39Z</time>
      </trkpt>
      <trkpt lat="46.57162" lon="0.2892">
        <ele>79.8</ele>
        <time>2022-02-13T07:57:40Z</time>
      </trkpt>
      <trkpt lat="46.57176" lon="0.2892">
        <ele>80</ele>
        <time>2022-02-13T07:57:43Z</time>
      </trkpt>
      <trkpt lat="46.5718" lon="0.28921">
        <ele>80</ele>
        <time>2022-02-13T07:57:44Z</time>
      </trkpt>
      <trkpt lat="46.572" lon="0.28924">
        <ele>80.2</ele>
        <time>2022-02-13T07:57:48Z</time>
      </trkpt>
      <trkpt lat="46.57218" lon="0.28927">
        <ele>80.2</ele>
        <time>2022-02-13T07:57:51Z</time>
      </trkpt>
      <trkpt lat="46.57226" lon="0.28926">
        <ele>80.4</ele>
        <time>2022-02-13T07:57:53Z</time>
      </trkpt>
      <trkpt lat="46.57234" lon="0.28924">
        <ele>80.2</ele>
        <time>2022-02-13T07:57:55Z</time>
      </trkpt>
      <trkpt lat="46.57238" lon="0.28923">
        <ele>80.2</ele>
        <time>2022-02-13T07:57:56Z</time>
      </trkpt>
      <trkpt lat="46.57247" lon="0.28922">
        <ele>80.2</ele>
        <time>2022-02-13T07:57:58Z</time>
      </trkpt>
      <trkpt lat="46.57254" lon="0.28925">
        <ele>80.4</ele>
        <time>2022-02-13T07:58:00Z</time>
      </trkpt>
      <trkpt lat="46.57264" lon="0.28932">
        <ele>80.6</ele>
        <time>2022-02-13T07:58:03Z</time>
      </trkpt>
      <trkpt lat="46.57265" lon="0.28935">
        <ele>80.8</ele>
        <time>2022-02-13T07:58:04Z</time>
      </trkpt>
      <trkpt lat="46.57273" lon="0.28953">
        <ele>81.2</ele>
        <time>2022-02-13T07:58:07Z</time>
      </trkpt>
      <trkpt lat="46.57276" lon="0.2896">
        <ele>81.2</ele>
        <time>2022-02-13T07:58:08Z</time>
      </trkpt>
      <trkpt lat="46.57287" lon="0.28997">
        <ele>81.6</ele>
        <time>2022-02-13T07:58:14Z</time>
      </trkpt>
      <trkpt lat="46.5729" lon="0.29003">
        <ele>81.8</ele>
        <time>2022-02-13T07:58:15Z</time>
      </trkpt>
      <trkpt lat="46.57292" lon="0.2901">
        <ele>81.8</ele>
        <time>2022-02-13T07:58:16Z</time>
      </trkpt>
      <trkpt lat="46.57298" lon="0.29031">
        <ele>81.8</ele>
        <time>2022-02-13T07:58:19Z</time>
      </trkpt>
      <trkpt lat="46.57307" lon="0.29067">
        <ele>81.8</ele>
        <time>2022-02-13T07:58:24Z</time>
      </trkpt>
      <trkpt lat="46.5731" lon="0.29074">
        <ele>81.8</ele>
        <time>2022-02-13T07:58:25Z</time>
      </trkpt>
      <trkpt lat="46.57314" lon="0.29081">
        <ele>81.8</ele>
        <time>2022-02-13T07:58:26Z</time>
      </trkpt>
      <trkpt lat="46.57329" lon="0.29117">
        <ele>81.6</ele>
        <time>2022-02-13T07:58:31Z</time>
      </trkpt>
      <trkpt lat="46.57353" lon="0.29167">
        <ele>81.4</ele>
        <time>2022-02-13T07:58:39Z</time>
      </trkpt>
      <trkpt lat="46.57359" lon="0.29178">
        <ele>81.4</ele>
        <time>2022-02-13T07:58:41Z</time>
      </trkpt>
      <trkpt lat="46.57363" lon="0.2919">
        <ele>81.6</ele>
        <time>2022-02-13T07:58:43Z</time>
      </trkpt>
      <trkpt lat="46.57368" lon="0.29202">
        <ele>81.4</ele>
        <time>2022-02-13T07:58:45Z</time>
      </trkpt>
      <trkpt lat="46.5737" lon="0.29207">
        <ele>81.4</ele>
        <time>2022-02-13T07:58:46Z</time>
      </trkpt>
      <trkpt lat="46.57375" lon="0.29218">
        <ele>81.2</ele>
        <time>2022-02-13T07:58:48Z</time>
      </trkpt>
      <trkpt lat="46.5738" lon="0.2923">
        <ele>81.2</ele>
        <time>2022-02-13T07:58:50Z</time>
      </trkpt>
      <trkpt lat="46.57384" lon="0.29249">
        <ele>81.8</ele>
        <time>2022-02-13T07:58:53Z</time>
      </trkpt>
      <trkpt lat="46.57389" lon="0.29263">
        <ele>82.2</ele>
        <time>2022-02-13T07:58:56Z</time>
      </trkpt>
      <trkpt lat="46.57391" lon="0.29268">
        <ele>82.6</ele>
        <time>2022-02-13T07:58:57Z</time>
      </trkpt>
      <trkpt lat="46.57393" lon="0.29274">
        <ele>83</ele>
        <time>2022-02-13T07:58:58Z</time>
      </trkpt>
      <trkpt lat="46.57397" lon="0.29285">
        <ele>83.2</ele>
        <time>2022-02-13T07:59:00Z</time>
      </trkpt>
      <trkpt lat="46.57399" lon="0.29299">
        <ele>83.4</ele>
        <time>2022-02-13T07:59:02Z</time>
      </trkpt>
      <trkpt lat="46.57407" lon="0.29368">
        <ele>83.6</ele>
        <time>2022-02-13T07:59:12Z</time>
      </trkpt>
      <trkpt lat="46.57414" lon="0.29428">
        <ele>83.2</ele>
        <time>2022-02-13T07:59:20Z</time>
      </trkpt>
      <trkpt lat="46.57419" lon="0.29481">
        <ele>82.2</ele>
        <time>2022-02-13T07:59:26Z</time>
      </trkpt>
      <trkpt lat="46.57422" lon="0.295">
        <ele>81.8</ele>
        <time>2022-02-13T07:59:28Z</time>
      </trkpt>
      <trkpt lat="46.57434" lon="0.29554">
        <ele>81</ele>
        <time>2022-02-13T07:59:34Z</time>
      </trkpt>
      <trkpt lat="46.57447" lon="0.29586">
        <ele>80.6</ele>
        <time>2022-02-13T07:59:38Z</time>
      </trkpt>
      <trkpt lat="46.57453" lon="0.29601">
        <ele>80.6</ele>
        <time>2022-02-13T07:59:40Z</time>
      </trkpt>
      <trkpt lat="46.57469" lon="0.29647">
        <ele>80.4</ele>
        <time>2022-02-13T07:59:46Z</time>
      </trkpt>
      <trkpt lat="46.57486" lon="0.29713">
        <ele>80.4</ele>
        <time>2022-02-13T07:59:55Z</time>
      </trkpt>
      <trkpt lat="46.57499" lon="0.29765">
        <ele>80.8</ele>
        <time>2022-02-13T08:00:02Z</time>
      </trkpt>
      <trkpt lat="46.57516" lon="0.29832">
        <ele>80.8</ele>
        <time>2022-02-13T08:00:11Z</time>
      </trkpt>
      <trkpt lat="46.57526" lon="0.29879">
        <ele>81</ele>
        <time>2022-02-13T08:00:17Z</time>
      </trkpt>
      <trkpt lat="46.5753" lon="0.29894">
        <ele>81</ele>
        <time>2022-02-13T08:00:19Z</time>
      </trkpt>
      <trkpt lat="46.57542" lon="0.29948">
        <ele>81</ele>
        <time>2022-02-13T08:00:26Z</time>
      </trkpt>
      <trkpt lat="46.57555" lon="0.30005">
        <ele>81.4</ele>
        <time>2022-02-13T08:00:34Z</time>
      </trkpt>
      <trkpt lat="46.57558" lon="0.30019">
        <ele>81.6</ele>
        <time>2022-02-13T08:00:36Z</time>
      </trkpt>
      <trkpt lat="46.5756" lon="0.30026">
        <ele>81.8</ele>
        <time>2022-02-13T08:00:37Z</time>
      </trkpt>
      <trkpt lat="46.57566" lon="0.30053">
        <ele>82.2</ele>
        <time>2022-02-13T08:00:41Z</time>
      </trkpt>
      <trkpt lat="46.5757" lon="0.30087">
        <ele>82.4</ele>
        <time>2022-02-13T08:00:46Z</time>
      </trkpt>
      <trkpt lat="46.57569" lon="0.30093">
        <ele>82.6</ele>
        <time>2022-02-13T08:00:47Z</time>
      </trkpt>
      <trkpt lat="46.57568" lon="0.30105">
        <ele>82.8</ele>
        <time>2022-02-13T08:00:49Z</time>
      </trkpt>
      <trkpt lat="46.57565" lon="0.30123">
        <ele>83.2</ele>
        <time>2022-02-13T08:00:52Z</time>
      </trkpt>
      <trkpt lat="46.57564" lon="0.30134">
        <ele>83.8</ele>
        <time>2022-02-13T08:00:54Z</time>
      </trkpt>
      <trkpt lat="46.57559" lon="0.30154">
        <ele>84.8</ele>
        <time>2022-02-13T08:00:58Z</time>
      </trkpt>
      <trkpt lat="46.57557" lon="0.30158">
        <ele>85</ele>
        <time>2022-02-13T08:00:59Z</time>
      </trkpt>
      <trkpt lat="46.57549" lon="0.30173">
        <ele>85.8</ele>
        <time>2022-02-13T08:01:03Z</time>
      </trkpt>
      <trkpt lat="46.57539" lon="0.30185">
        <ele>85.8</ele>
        <time>2022-02-13T08:01:06Z</time>
      </trkpt>
      <trkpt lat="46.57523" lon="0.302">
        <ele>85.8</ele>
        <time>2022-02-13T08:01:10Z</time>
      </trkpt>
      <trkpt lat="46.57495" lon="0.3022">
        <ele>84.8</ele>
        <time>2022-02-13T08:01:15Z</time>
      </trkpt>
      <trkpt lat="46.57489" lon="0.30224">
        <ele>84.4</ele>
        <time>2022-02-13T08:01:16Z</time>
      </trkpt>
      <trkpt lat="46.57467" lon="0.30241">
        <ele>83.4</ele>
        <time>2022-02-13T08:01:20Z</time>
      </trkpt>
      <trkpt lat="46.57462" lon="0.30245">
        <ele>83.2</ele>
        <time>2022-02-13T08:01:21Z</time>
      </trkpt>
      <trkpt lat="46.57442" lon="0.30254">
        <ele>82.2</ele>
        <time>2022-02-13T08:01:24Z</time>
      </trkpt>
      <trkpt lat="46.57429" lon="0.3026">
        <ele>81.8</ele>
        <time>2022-02-13T08:01:26Z</time>
      </trkpt>
      <trkpt lat="46.57411" lon="0.30265">
        <ele>81.2</ele>
        <time>2022-02-13T08:01:29Z</time>
      </trkpt>
      <trkpt lat="46.57392" lon="0.30266">
        <ele>80.6</ele>
        <time>2022-02-13T08:01:32Z</time>
      </trkpt>
      <trkpt lat="46.57355" lon="0.30263">
        <ele>80</ele>
        <time>2022-02-13T08:01:38Z</time>
      </trkpt>
      <trkpt lat="46.57349" lon="0.30263">
        <ele>80</ele>
        <time>2022-02-13T08:01:39Z</time>
      </trkpt>
      <trkpt lat="46.57305" lon="0.30253">
        <ele>79.2</ele>
        <time>2022-02-13T08:01:46Z</time>
      </trkpt>
      <trkpt lat="46.57269" lon="0.30248">
        <ele>79</ele>
        <time>2022-02-13T08:01:52Z</time>
      </trkpt>
      <trkpt lat="46.57264" lon="0.30246">
        <ele>79</ele>
        <time>2022-02-13T08:01:53Z</time>
      </trkpt>
      <trkpt lat="46.57238" lon="0.30231">
        <ele>79.4</ele>
        <time>2022-02-13T08:01:58Z</time>
      </trkpt>
      <trkpt lat="46.57207" lon="0.30214">
        <ele>79.2</ele>
        <time>2022-02-13T08:02:04Z</time>
      </trkpt>
      <trkpt lat="46.57175" lon="0.30201">
        <ele>79.4</ele>
        <time>2022-02-13T08:02:10Z</time>
      </trkpt>
      <trkpt lat="46.57149" lon="0.30193">
        <ele>79.4</ele>
        <time>2022-02-13T08:02:15Z</time>
      </trkpt>
      <trkpt lat="46.57112" lon="0.30186">
        <ele>79.8</ele>
        <time>2022-02-13T08:02:22Z</time>
      </trkpt>
      <trkpt lat="46.57106" lon="0.30186">
        <ele>79.8</ele>
        <time>2022-02-13T08:02:23Z</time>
      </trkpt>
      <trkpt lat="46.57086" lon="0.3019">
        <ele>80</ele>
        <time>2022-02-13T08:02:27Z</time>
      </trkpt>
      <trkpt lat="46.57065" lon="0.30194">
        <ele>80</ele>
        <time>2022-02-13T08:02:31Z</time>
      </trkpt>
      <trkpt lat="46.57045" lon="0.30199">
        <ele>80.6</ele>
        <time>2022-02-13T08:02:35Z</time>
      </trkpt>
      <trkpt lat="46.57011" lon="0.30219">
        <ele>80.2</ele>
        <time>2022-02-13T08:02:42Z</time>
      </trkpt>
      <trkpt lat="46.5699" lon="0.30237">
        <ele>79.6</ele>
        <time>2022-02-13T08:02:48Z</time>
      </trkpt>
      <trkpt lat="46.56971" lon="0.30256">
        <ele>79.4</ele>
        <time>2022-02-13T08:02:55Z</time>
      </trkpt>
      <trkpt lat="46.5696" lon="0.30269">
        <ele>79.4</ele>
        <time>2022-02-13T08:03:02Z</time>
      </trkpt>
      <trkpt lat="46.56957" lon="0.30268">
        <ele>79.4</ele>
        <time>2022-02-13T08:03:04Z</time>
      </trkpt>
      <trkpt lat="46.56957" lon="0.3027">
        <ele>79.2</ele>
        <time>2022-02-13T08:03:10Z</time>
      </trkpt>
      <trkpt lat="46.56958" lon="0.30271">
        <ele>79.2</ele>
        <time>2022-02-13T08:03:26Z</time>
      </trkpt>
      <trkpt lat="46.56952" lon="0.30281">
        <ele>79.4</ele>
        <time>2022-02-13T08:03:35Z</time>
      </trkpt>
      <trkpt lat="46.56943" lon="0.30295">
        <ele>79.4</ele>
        <time>2022-02-13T08:03:41Z</time>
      </trkpt>
      <trkpt lat="46.56933" lon="0.30312">
        <ele>79.2</ele>
        <time>2022-02-13T08:03:47Z</time>
      </trkpt>
      <trkpt lat="46.56933" lon="0.3033">
        <ele>78.8</ele>
        <time>2022-02-13T08:03:51Z</time>
      </trkpt>
      <trkpt lat="46.56935" lon="0.30333">
        <ele>78.8</ele>
        <time>2022-02-13T08:03:52Z</time>
      </trkpt>
      <trkpt lat="46.56938" lon="0.30338">
        <ele>78.8</ele>
        <time>2022-02-13T08:03:54Z</time>
      </trkpt>
      <trkpt lat="46.56942" lon="0.30335">
        <ele>79.4</ele>
        <time>2022-02-13T08:03:56Z</time>
      </trkpt>
      <trkpt lat="46.56944" lon="0.3033">
        <ele>80</ele>
        <time>2022-02-13T08:03:58Z</time>
      </trkpt>
      <trkpt lat="46.56946" lon="0.30322">
        <ele>81.2</ele>
        <time>2022-02-13T08:04:01Z</time>
      </trkpt>
      <trkpt lat="46.56947" lon="0.30319">
        <ele>81.2</ele>
        <time>2022-02-13T08:04:02Z</time>
      </trkpt>
      <trkpt lat="46.56951" lon="0.30315">
        <ele>82.2</ele>
        <time>2022-02-13T08:04:04Z</time>
      </trkpt>
      <trkpt lat="46.56958" lon="0.30308">
        <ele>83.2</ele>
        <time>2022-02-13T08:04:07Z</time>
      </trkpt>
      <trkpt lat="46.56966" lon="0.30299">
        <ele>84.4</ele>
        <time>2022-02-13T08:04:11Z</time>
      </trkpt>
      <trkpt lat="46.56971" lon="0.30296">
        <ele>85</ele>
        <time>2022-02-13T08:04:13Z</time>
      </trkpt>
      <trkpt lat="46.56976" lon="0.30292">
        <ele>85.6</ele>
        <time>2022-02-13T08:04:15Z</time>
      </trkpt>
      <trkpt lat="46.5699" lon="0.30285">
        <ele>86.8</ele>
        <time>2022-02-13T08:04:20Z</time>
      </trkpt>
      <trkpt lat="46.57" lon="0.30282">
        <ele>88</ele>
        <time>2022-02-13T08:04:24Z</time>
      </trkpt>
      <trkpt lat="46.57007" lon="0.30281">
        <ele>89.2</ele>
        <time>2022-02-13T08:04:27Z</time>
      </trkpt>
      <trkpt lat="46.57009" lon="0.30281">
        <ele>89.4</ele>
        <time>2022-02-13T08:04:28Z</time>
      </trkpt>
      <trkpt lat="46.57013" lon="0.3028">
        <ele>90.2</ele>
        <time>2022-02-13T08:04:30Z</time>
      </trkpt>
      <trkpt lat="46.5702" lon="0.30281">
        <ele>91.2</ele>
        <time>2022-02-13T08:04:34Z</time>
      </trkpt>
      <trkpt lat="46.57024" lon="0.30281">
        <ele>92.4</ele>
        <time>2022-02-13T08:04:36Z</time>
      </trkpt>
      <trkpt lat="46.57026" lon="0.30282">
        <ele>92.8</ele>
        <time>2022-02-13T08:04:37Z</time>
      </trkpt>
      <trkpt lat="46.57031" lon="0.30284">
        <ele>93.4</ele>
        <time>2022-02-13T08:04:39Z</time>
      </trkpt>
      <trkpt lat="46.5704" lon="0.30286">
        <ele>93.8</ele>
        <time>2022-02-13T08:04:43Z</time>
      </trkpt>
      <trkpt lat="46.57045" lon="0.30285">
        <ele>94.6</ele>
        <time>2022-02-13T08:04:45Z</time>
      </trkpt>
      <trkpt lat="46.57052" lon="0.30286">
        <ele>95.8</ele>
        <time>2022-02-13T08:04:48Z</time>
      </trkpt>
      <trkpt lat="46.57055" lon="0.30285">
        <ele>96.2</ele>
        <time>2022-02-13T08:04:49Z</time>
      </trkpt>
      <trkpt lat="46.5706" lon="0.30284">
        <ele>97</ele>
        <time>2022-02-13T08:04:51Z</time>
      </trkpt>
      <trkpt lat="46.57068" lon="0.30284">
        <ele>98</ele>
        <time>2022-02-13T08:04:54Z</time>
      </trkpt>
      <trkpt lat="46.57076" lon="0.30282">
        <ele>99.4</ele>
        <time>2022-02-13T08:04:57Z</time>
      </trkpt>
      <trkpt lat="46.57087" lon="0.30281">
        <ele>100.2</ele>
        <time>2022-02-13T08:05:01Z</time>
      </trkpt>
      <trkpt lat="46.57089" lon="0.3028">
        <ele>100.4</ele>
        <time>2022-02-13T08:05:02Z</time>
      </trkpt>
      <trkpt lat="46.57098" lon="0.30279">
        <ele>101.6</ele>
        <time>2022-02-13T08:05:06Z</time>
      </trkpt>
      <trkpt lat="46.57103" lon="0.30279">
        <ele>101.8</ele>
        <time>2022-02-13T08:05:08Z</time>
      </trkpt>
      <trkpt lat="46.57104" lon="0.30279">
        <ele>101.8</ele>
        <time>2022-02-13T08:05:09Z</time>
      </trkpt>
      <trkpt lat="46.57113" lon="0.30275">
        <ele>102</ele>
        <time>2022-02-13T08:05:13Z</time>
      </trkpt>
      <trkpt lat="46.57128" lon="0.30273">
        <ele>102.8</ele>
        <time>2022-02-13T08:05:19Z</time>
      </trkpt>
      <trkpt lat="46.57147" lon="0.30267">
        <ele>103.8</ele>
        <time>2022-02-13T08:05:26Z</time>
      </trkpt>
      <trkpt lat="46.5716" lon="0.30265">
        <ele>104.6</ele>
        <time>2022-02-13T08:05:32Z</time>
      </trkpt>
      <trkpt lat="46.57178" lon="0.30265">
        <ele>104.8</ele>
        <time>2022-02-13T08:05:39Z</time>
      </trkpt>
      <trkpt lat="46.5718" lon="0.30266">
        <ele>105</ele>
        <time>2022-02-13T08:05:40Z</time>
      </trkpt>
      <trkpt lat="46.57201" lon="0.30271">
        <ele>105.8</ele>
        <time>2022-02-13T08:05:47Z</time>
      </trkpt>
      <trkpt lat="46.57206" lon="0.30272">
        <ele>106</ele>
        <time>2022-02-13T08:05:49Z</time>
      </trkpt>
      <trkpt lat="46.57223" lon="0.30274">
        <ele>106.4</ele>
        <time>2022-02-13T08:05:54Z</time>
      </trkpt>
      <trkpt lat="46.57234" lon="0.30278">
        <ele>107</ele>
        <time>2022-02-13T08:05:58Z</time>
      </trkpt>
      <trkpt lat="46.57241" lon="0.30283">
        <ele>108</ele>
        <time>2022-02-13T08:06:01Z</time>
      </trkpt>
      <trkpt lat="46.57241" lon="0.30283">
        <ele>109</ele>
        <time>2022-02-13T08:06:02Z</time>
      </trkpt>
      <trkpt lat="46.57244" lon="0.30288">
        <ele>109.6</ele>
        <time>2022-02-13T08:06:05Z</time>
      </trkpt>
      <trkpt lat="46.57243" lon="0.30288">
        <ele>109.8</ele>
        <time>2022-02-13T08:06:06Z</time>
      </trkpt>
      <trkpt lat="46.57243" lon="0.30288">
        <ele>110</ele>
        <time>2022-02-13T08:06:07Z</time>
      </trkpt>
      <trkpt lat="46.57242" lon="0.30289">
        <ele>110.2</ele>
        <time>2022-02-13T08:06:08Z</time>
      </trkpt>
      <trkpt lat="46.57242" lon="0.30291">
        <ele>110.4</ele>
        <time>2022-02-13T08:06:09Z</time>
      </trkpt>
      <trkpt lat="46.57243" lon="0.30292">
        <ele>110.6</ele>
        <time>2022-02-13T08:06:10Z</time>
      </trkpt>
      <trkpt lat="46.57248" lon="0.30297">
        <ele>111.4</ele>
        <time>2022-02-13T08:06:13Z</time>
      </trkpt>
      <trkpt lat="46.57251" lon="0.303">
        <ele>112</ele>
        <time>2022-02-13T08:06:15Z</time>
      </trkpt>
      <trkpt lat="46.57253" lon="0.30302">
        <ele>112.4</ele>
        <time>2022-02-13T08:06:16Z</time>
      </trkpt>
      <trkpt lat="46.57261" lon="0.30306">
        <ele>113.6</ele>
        <time>2022-02-13T08:06:20Z</time>
      </trkpt>
      <trkpt lat="46.57266" lon="0.30308">
        <ele>113.8</ele>
        <time>2022-02-13T08:06:22Z</time>
      </trkpt>
      <trkpt lat="46.57281" lon="0.30314">
        <ele>114.6</ele>
        <time>2022-02-13T08:06:28Z</time>
      </trkpt>
      <trkpt lat="46.57284" lon="0.30316">
        <ele>114.8</ele>
        <time>2022-02-13T08:06:29Z</time>
      </trkpt>
      <trkpt lat="46.57313" lon="0.30332">
        <ele>115.6</ele>
        <time>2022-02-13T08:06:37Z</time>
      </trkpt>
      <trkpt lat="46.57319" lon="0.30336">
        <ele>115.6</ele>
        <time>2022-02-13T08:06:39Z</time>
      </trkpt>
      <trkpt lat="46.57338" lon="0.30344">
        <ele>115.6</ele>
        <time>2022-02-13T08:06:44Z</time>
      </trkpt>
      <trkpt lat="46.57347" lon="0.30346">
        <ele>115.4</ele>
        <time>2022-02-13T08:06:46Z</time>
      </trkpt>
      <trkpt lat="46.57369" lon="0.30347">
        <ele>115.4</ele>
        <time>2022-02-13T08:06:51Z</time>
      </trkpt>
      <trkpt lat="46.57399" lon="0.30348">
        <ele>115.8</ele>
        <time>2022-02-13T08:06:58Z</time>
      </trkpt>
      <trkpt lat="46.57404" lon="0.30349">
        <ele>115.8</ele>
        <time>2022-02-13T08:06:59Z</time>
      </trkpt>
      <trkpt lat="46.57412" lon="0.30353">
        <ele>116</ele>
        <time>2022-02-13T08:07:01Z</time>
      </trkpt>
      <trkpt lat="46.57416" lon="0.30356">
        <ele>116</ele>
        <time>2022-02-13T08:07:02Z</time>
      </trkpt>
      <trkpt lat="46.57431" lon="0.30365">
        <ele>116.8</ele>
        <time>2022-02-13T08:07:07Z</time>
      </trkpt>
      <trkpt lat="46.57445" lon="0.30363">
        <ele>118</ele>
        <time>2022-02-13T08:07:11Z</time>
      </trkpt>
      <trkpt lat="46.57455" lon="0.30361">
        <ele>118.6</ele>
        <time>2022-02-13T08:07:14Z</time>
      </trkpt>
      <trkpt lat="46.57464" lon="0.3036">
        <ele>119</ele>
        <time>2022-02-13T08:07:17Z</time>
      </trkpt>
      <trkpt lat="46.57473" lon="0.3036">
        <ele>119.6</ele>
        <time>2022-02-13T08:07:21Z</time>
      </trkpt>
      <trkpt lat="46.57482" lon="0.3036">
        <ele>120</ele>
        <time>2022-02-13T08:07:24Z</time>
      </trkpt>
      <trkpt lat="46.57493" lon="0.30355">
        <ele>120.4</ele>
        <time>2022-02-13T08:07:28Z</time>
      </trkpt>
      <trkpt lat="46.57495" lon="0.30352">
        <ele>120.6</ele>
        <time>2022-02-13T08:07:29Z</time>
      </trkpt>
      <trkpt lat="46.57495" lon="0.30339">
        <ele>121</ele>
        <time>2022-02-13T08:07:32Z</time>
      </trkpt>
      <trkpt lat="46.57497" lon="0.30315">
        <ele>120.2</ele>
        <time>2022-02-13T08:07:37Z</time>
      </trkpt>
      <trkpt lat="46.57499" lon="0.30312">
        <ele>120.2</ele>
        <time>2022-02-13T08:07:38Z</time>
      </trkpt>
      <trkpt lat="46.57506" lon="0.30311">
        <ele>120</ele>
        <time>2022-02-13T08:07:40Z</time>
      </trkpt>
      <trkpt lat="46.57509" lon="0.30312">
        <ele>119.8</ele>
        <time>2022-02-13T08:07:41Z</time>
      </trkpt>
      <trkpt lat="46.57516" lon="0.30309">
        <ele>119.8</ele>
        <time>2022-02-13T08:07:43Z</time>
      </trkpt>
      <trkpt lat="46.5752" lon="0.30305">
        <ele>120</ele>
        <time>2022-02-13T08:07:44Z</time>
      </trkpt>
      <trkpt lat="46.57524" lon="0.30303">
        <ele>120</ele>
        <time>2022-02-13T08:07:45Z</time>
      </trkpt>
      <trkpt lat="46.57532" lon="0.30302">
        <ele>120.2</ele>
        <time>2022-02-13T08:07:47Z</time>
      </trkpt>
      <trkpt lat="46.57542" lon="0.30302">
        <ele>120.4</ele>
        <time>2022-02-13T08:07:49Z</time>
      </trkpt>
      <trkpt lat="46.5755" lon="0.30308">
        <ele>120.4</ele>
        <time>2022-02-13T08:07:51Z</time>
      </trkpt>
      <trkpt lat="46.57557" lon="0.30318">
        <ele>120.6</ele>
        <time>2022-02-13T08:07:53Z</time>
      </trkpt>
      <trkpt lat="46.57563" lon="0.30329">
        <ele>120.8</ele>
        <time>2022-02-13T08:07:55Z</time>
      </trkpt>
      <trkpt lat="46.57566" lon="0.30335">
        <ele>121.2</ele>
        <time>2022-02-13T08:07:56Z</time>
      </trkpt>
      <trkpt lat="46.57569" lon="0.3034">
        <ele>121.2</ele>
        <time>2022-02-13T08:07:57Z</time>
      </trkpt>
      <trkpt lat="46.57576" lon="0.30346">
        <ele>121.4</ele>
        <time>2022-02-13T08:07:59Z</time>
      </trkpt>
      <trkpt lat="46.57594" lon="0.30353">
        <ele>122</ele>
        <time>2022-02-13T08:08:04Z</time>
      </trkpt>
      <trkpt lat="46.57597" lon="0.30355">
        <ele>122</ele>
        <time>2022-02-13T08:08:05Z</time>
      </trkpt>
      <trkpt lat="46.576" lon="0.3036">
        <ele>122</ele>
        <time>2022-02-13T08:08:06Z</time>
      </trkpt>
      <trkpt lat="46.57602" lon="0.30371">
        <ele>122.2</ele>
        <time>2022-02-13T08:08:08Z</time>
      </trkpt>
      <trkpt lat="46.57603" lon="0.30388">
        <ele>122.6</ele>
        <time>2022-02-13T08:08:11Z</time>
      </trkpt>
      <trkpt lat="46.57605" lon="0.30397">
        <ele>123.2</ele>
        <time>2022-02-13T08:08:13Z</time>
      </trkpt>
      <trkpt lat="46.57607" lon="0.30399">
        <ele>123.4</ele>
        <time>2022-02-13T08:08:14Z</time>
      </trkpt>
      <trkpt lat="46.57613" lon="0.30402">
        <ele>123.4</ele>
        <time>2022-02-13T08:08:17Z</time>
      </trkpt>
      <trkpt lat="46.5762" lon="0.30403">
        <ele>123.2</ele>
        <time>2022-02-13T08:08:23Z</time>
      </trkpt>
      <trkpt lat="46.57627" lon="0.304">
        <ele>123.2</ele>
        <time>2022-02-13T08:08:28Z</time>
      </trkpt>
      <trkpt lat="46.57629" lon="0.30397">
        <ele>123</ele>
        <time>2022-02-13T08:08:30Z</time>
      </trkpt>
      <trkpt lat="46.57634" lon="0.30378">
        <ele>123</ele>
        <time>2022-02-13T08:08:36Z</time>
      </trkpt>
      <trkpt lat="46.57637" lon="0.30366">
        <ele>122.4</ele>
        <time>2022-02-13T08:08:42Z</time>
      </trkpt>
      <trkpt lat="46.57638" lon="0.30366">
        <ele>122.2</ele>
        <time>2022-02-13T08:08:43Z</time>
      </trkpt>
      <trkpt lat="46.57642" lon="0.30356">
        <ele>122</ele>
        <time>2022-02-13T08:08:49Z</time>
      </trkpt>
      <trkpt lat="46.57656" lon="0.30339">
        <ele>121.4</ele>
        <time>2022-02-13T08:08:55Z</time>
      </trkpt>
      <trkpt lat="46.57659" lon="0.30335">
        <ele>121.2</ele>
        <time>2022-02-13T08:08:56Z</time>
      </trkpt>
      <trkpt lat="46.57675" lon="0.30313">
        <ele>121</ele>
        <time>2022-02-13T08:09:01Z</time>
      </trkpt>
      <trkpt lat="46.57693" lon="0.30286">
        <ele>120.2</ele>
        <time>2022-02-13T08:09:06Z</time>
      </trkpt>
      <trkpt lat="46.5771" lon="0.30263">
        <ele>119.4</ele>
        <time>2022-02-13T08:09:10Z</time>
      </trkpt>
      <trkpt lat="46.57714" lon="0.30257">
        <ele>119.2</ele>
        <time>2022-02-13T08:09:11Z</time>
      </trkpt>
      <trkpt lat="46.57732" lon="0.30236">
        <ele>118.8</ele>
        <time>2022-02-13T08:09:16Z</time>
      </trkpt>
      <trkpt lat="46.57738" lon="0.30228">
        <ele>119.2</ele>
        <time>2022-02-13T08:09:18Z</time>
      </trkpt>
      <trkpt lat="46.57741" lon="0.30215">
        <ele>119.4</ele>
        <time>2022-02-13T08:09:20Z</time>
      </trkpt>
      <trkpt lat="46.57751" lon="0.30171">
        <ele>119.8</ele>
        <time>2022-02-13T08:09:27Z</time>
      </trkpt>
      <trkpt lat="46.57752" lon="0.30164">
        <ele>119.8</ele>
        <time>2022-02-13T08:09:28Z</time>
      </trkpt>
      <trkpt lat="46.57755" lon="0.30143">
        <ele>120.2</ele>
        <time>2022-02-13T08:09:31Z</time>
      </trkpt>
      <trkpt lat="46.57756" lon="0.30135">
        <ele>120.2</ele>
        <time>2022-02-13T08:09:32Z</time>
      </trkpt>
      <trkpt lat="46.57758" lon="0.30128">
        <ele>120.4</ele>
        <time>2022-02-13T08:09:33Z</time>
      </trkpt>
      <trkpt lat="46.57768" lon="0.30091">
        <ele>120.6</ele>
        <time>2022-02-13T08:09:38Z</time>
      </trkpt>
      <trkpt lat="46.57778" lon="0.30045">
        <ele>120.8</ele>
        <time>2022-02-13T08:09:45Z</time>
      </trkpt>
      <trkpt lat="46.57786" lon="0.30015">
        <ele>121.2</ele>
        <time>2022-02-13T08:09:50Z</time>
      </trkpt>
      <trkpt lat="46.57787" lon="0.30008">
        <ele>121.4</ele>
        <time>2022-02-13T08:09:51Z</time>
      </trkpt>
      <trkpt lat="46.57787" lon="0.30002">
        <ele>121.4</ele>
        <time>2022-02-13T08:09:52Z</time>
      </trkpt>
      <trkpt lat="46.57786" lon="0.29996">
        <ele>121.4</ele>
        <time>2022-02-13T08:09:53Z</time>
      </trkpt>
      <trkpt lat="46.57781" lon="0.29986">
        <ele>121.6</ele>
        <time>2022-02-13T08:09:55Z</time>
      </trkpt>
      <trkpt lat="46.57777" lon="0.29981">
        <ele>121.6</ele>
        <time>2022-02-13T08:09:56Z</time>
      </trkpt>
      <trkpt lat="46.57771" lon="0.2997">
        <ele>121.4</ele>
        <time>2022-02-13T08:09:58Z</time>
      </trkpt>
      <trkpt lat="46.57762" lon="0.29949">
        <ele>121.4</ele>
        <time>2022-02-13T08:10:01Z</time>
      </trkpt>
      <trkpt lat="46.5775" lon="0.29909">
        <ele>121.2</ele>
        <time>2022-02-13T08:10:07Z</time>
      </trkpt>
      <trkpt lat="46.57738" lon="0.29875">
        <ele>121.8</ele>
        <time>2022-02-13T08:10:13Z</time>
      </trkpt>
      <trkpt lat="46.57739" lon="0.29859">
        <ele>122</ele>
        <time>2022-02-13T08:10:17Z</time>
      </trkpt>
      <trkpt lat="46.57747" lon="0.29833">
        <ele>122.4</ele>
        <time>2022-02-13T08:10:21Z</time>
      </trkpt>
      <trkpt lat="46.57761" lon="0.29798">
        <ele>123</ele>
        <time>2022-02-13T08:10:26Z</time>
      </trkpt>
      <trkpt lat="46.57766" lon="0.29793">
        <ele>123.2</ele>
        <time>2022-02-13T08:10:27Z</time>
      </trkpt>
      <trkpt lat="46.5777" lon="0.29789">
        <ele>123.4</ele>
        <time>2022-02-13T08:10:28Z</time>
      </trkpt>
      <trkpt lat="46.57794" lon="0.29774">
        <ele>124.2</ele>
        <time>2022-02-13T08:10:33Z</time>
      </trkpt>
      <trkpt lat="46.57803" lon="0.29768">
        <ele>124.6</ele>
        <time>2022-02-13T08:10:35Z</time>
      </trkpt>
      <trkpt lat="46.57812" lon="0.29762">
        <ele>125</ele>
        <time>2022-02-13T08:10:37Z</time>
      </trkpt>
      <trkpt lat="46.57822" lon="0.29761">
        <ele>125.4</ele>
        <time>2022-02-13T08:10:39Z</time>
      </trkpt>
      <trkpt lat="46.57827" lon="0.29761">
        <ele>125.4</ele>
        <time>2022-02-13T08:10:40Z</time>
      </trkpt>
      <trkpt lat="46.57832" lon="0.29761">
        <ele>125.6</ele>
        <time>2022-02-13T08:10:41Z</time>
      </trkpt>
      <trkpt lat="46.57837" lon="0.29761">
        <ele>125.8</ele>
        <time>2022-02-13T08:10:42Z</time>
      </trkpt>
      <trkpt lat="46.57846" lon="0.29755">
        <ele>126</ele>
        <time>2022-02-13T08:10:44Z</time>
      </trkpt>
      <trkpt lat="46.57852" lon="0.29743">
        <ele>126.4</ele>
        <time>2022-02-13T08:10:46Z</time>
      </trkpt>
      <trkpt lat="46.57853" lon="0.29736">
        <ele>126.8</ele>
        <time>2022-02-13T08:10:47Z</time>
      </trkpt>
      <trkpt lat="46.57865" lon="0.29685">
        <ele>127.8</ele>
        <time>2022-02-13T08:10:54Z</time>
      </trkpt>
      <trkpt lat="46.57881" lon="0.29615">
        <ele>128.2</ele>
        <time>2022-02-13T08:11:03Z</time>
      </trkpt>
      <trkpt lat="46.57886" lon="0.29593">
        <ele>128.2</ele>
        <time>2022-02-13T08:11:06Z</time>
      </trkpt>
      <trkpt lat="46.57889" lon="0.29581">
        <ele>128.2</ele>
        <time>2022-02-13T08:11:08Z</time>
      </trkpt>
      <trkpt lat="46.57891" lon="0.29577">
        <ele>128.2</ele>
        <time>2022-02-13T08:11:09Z</time>
      </trkpt>
      <trkpt lat="46.57893" lon="0.29576">
        <ele>128.2</ele>
        <time>2022-02-13T08:11:10Z</time>
      </trkpt>
      <trkpt lat="46.579" lon="0.29577">
        <ele>128</ele>
        <time>2022-02-13T08:11:12Z</time>
      </trkpt>
      <trkpt lat="46.57916" lon="0.29588">
        <ele>128</ele>
        <time>2022-02-13T08:11:16Z</time>
      </trkpt>
      <trkpt lat="46.57951" lon="0.29621">
        <ele>128.4</ele>
        <time>2022-02-13T08:11:24Z</time>
      </trkpt>
      <trkpt lat="46.57955" lon="0.29627">
        <ele>128.6</ele>
        <time>2022-02-13T08:11:25Z</time>
      </trkpt>
      <trkpt lat="46.57963" lon="0.29637">
        <ele>128.8</ele>
        <time>2022-02-13T08:11:27Z</time>
      </trkpt>
      <trkpt lat="46.5798" lon="0.29654">
        <ele>129.2</ele>
        <time>2022-02-13T08:11:31Z</time>
      </trkpt>
      <trkpt lat="46.58022" lon="0.2969">
        <ele>129.4</ele>
        <time>2022-02-13T08:11:40Z</time>
      </trkpt>
      <trkpt lat="46.58061" lon="0.29723">
        <ele>129.8</ele>
        <time>2022-02-13T08:11:48Z</time>
      </trkpt>
      <trkpt lat="46.58071" lon="0.29732">
        <ele>129.8</ele>
        <time>2022-02-13T08:11:50Z</time>
      </trkpt>
      <trkpt lat="46.58081" lon="0.2974">
        <ele>129.8</ele>
        <time>2022-02-13T08:11:52Z</time>
      </trkpt>
      <trkpt lat="46.58121" lon="0.29775">
        <ele>130</ele>
        <time>2022-02-13T08:12:00Z</time>
      </trkpt>
      <trkpt lat="46.58172" lon="0.29818">
        <ele>129.8</ele>
        <time>2022-02-13T08:12:10Z</time>
      </trkpt>
      <trkpt lat="46.58177" lon="0.29823">
        <ele>129.8</ele>
        <time>2022-02-13T08:12:11Z</time>
      </trkpt>
      <trkpt lat="46.58227" lon="0.29865">
        <ele>129.4</ele>
        <time>2022-02-13T08:12:20Z</time>
      </trkpt>
      <trkpt lat="46.58274" lon="0.29906">
        <ele>128.8</ele>
        <time>2022-02-13T08:12:28Z</time>
      </trkpt>
      <trkpt lat="46.58319" lon="0.29944">
        <ele>127.8</ele>
        <time>2022-02-13T08:12:35Z</time>
      </trkpt>
      <trkpt lat="46.58331" lon="0.29954">
        <ele>127.6</ele>
        <time>2022-02-13T08:12:37Z</time>
      </trkpt>
      <trkpt lat="46.58379" lon="0.29996">
        <ele>127.4</ele>
        <time>2022-02-13T08:12:45Z</time>
      </trkpt>
      <trkpt lat="46.58385" lon="0.30001">
        <ele>127.4</ele>
        <time>2022-02-13T08:12:46Z</time>
      </trkpt>
      <trkpt lat="46.58432" lon="0.3004">
        <ele>127.4</ele>
        <time>2022-02-13T08:12:54Z</time>
      </trkpt>
      <trkpt lat="46.58483" lon="0.30086">
        <ele>127</ele>
        <time>2022-02-13T08:13:03Z</time>
      </trkpt>
      <trkpt lat="46.58489" lon="0.30091">
        <ele>127</ele>
        <time>2022-02-13T08:13:04Z</time>
      </trkpt>
      <trkpt lat="46.58518" lon="0.30116">
        <ele>126.8</ele>
        <time>2022-02-13T08:13:09Z</time>
      </trkpt>
      <trkpt lat="46.58541" lon="0.30136">
        <ele>126.4</ele>
        <time>2022-02-13T08:13:13Z</time>
      </trkpt>
      <trkpt lat="46.58576" lon="0.30164">
        <ele>125.6</ele>
        <time>2022-02-13T08:13:19Z</time>
      </trkpt>
      <trkpt lat="46.58582" lon="0.30168">
        <ele>125.4</ele>
        <time>2022-02-13T08:13:20Z</time>
      </trkpt>
      <trkpt lat="46.58595" lon="0.30175">
        <ele>125.4</ele>
        <time>2022-02-13T08:13:22Z</time>
      </trkpt>
      <trkpt lat="46.58624" lon="0.30191">
        <ele>124.4</ele>
        <time>2022-02-13T08:13:27Z</time>
      </trkpt>
      <trkpt lat="46.5864" lon="0.302">
        <ele>124.2</ele>
        <time>2022-02-13T08:13:30Z</time>
      </trkpt>
      <trkpt lat="46.58651" lon="0.30204">
        <ele>124.2</ele>
        <time>2022-02-13T08:13:32Z</time>
      </trkpt>
      <trkpt lat="46.58661" lon="0.30204">
        <ele>124</ele>
        <time>2022-02-13T08:13:34Z</time>
      </trkpt>
      <trkpt lat="46.58671" lon="0.30197">
        <ele>123.8</ele>
        <time>2022-02-13T08:13:36Z</time>
      </trkpt>
      <trkpt lat="46.58676" lon="0.30191">
        <ele>123.6</ele>
        <time>2022-02-13T08:13:37Z</time>
      </trkpt>
      <trkpt lat="46.58697" lon="0.30155">
        <ele>124.2</ele>
        <time>2022-02-13T08:13:42Z</time>
      </trkpt>
      <trkpt lat="46.58725" lon="0.30112">
        <ele>125.6</ele>
        <time>2022-02-13T08:13:49Z</time>
      </trkpt>
      <trkpt lat="46.5873" lon="0.30106">
        <ele>125.8</ele>
        <time>2022-02-13T08:13:50Z</time>
      </trkpt>
      <trkpt lat="46.58753" lon="0.30075">
        <ele>126.8</ele>
        <time>2022-02-13T08:13:55Z</time>
      </trkpt>
      <trkpt lat="46.58768" lon="0.30059">
        <ele>126.8</ele>
        <time>2022-02-13T08:13:58Z</time>
      </trkpt>
      <trkpt lat="46.58787" lon="0.30042">
        <ele>126.8</ele>
        <time>2022-02-13T08:14:02Z</time>
      </trkpt>
      <trkpt lat="46.58798" lon="0.30039">
        <ele>126.4</ele>
        <time>2022-02-13T08:14:04Z</time>
      </trkpt>
      <trkpt lat="46.58811" lon="0.3004">
        <ele>126.2</ele>
        <time>2022-02-13T08:14:06Z</time>
      </trkpt>
      <trkpt lat="46.58818" lon="0.30042">
        <ele>125.6</ele>
        <time>2022-02-13T08:14:07Z</time>
      </trkpt>
      <trkpt lat="46.58824" lon="0.30045">
        <ele>125.2</ele>
        <time>2022-02-13T08:14:08Z</time>
      </trkpt>
      <trkpt lat="46.58844" lon="0.30055">
        <ele>124.6</ele>
        <time>2022-02-13T08:14:11Z</time>
      </trkpt>
      <trkpt lat="46.58859" lon="0.30061">
        <ele>124.6</ele>
        <time>2022-02-13T08:14:13Z</time>
      </trkpt>
      <trkpt lat="46.58907" lon="0.30077">
        <ele>123.4</ele>
        <time>2022-02-13T08:14:20Z</time>
      </trkpt>
      <trkpt lat="46.58924" lon="0.30076">
        <ele>122.4</ele>
        <time>2022-02-13T08:14:23Z</time>
      </trkpt>
      <trkpt lat="46.5894" lon="0.30075">
        <ele>122.2</ele>
        <time>2022-02-13T08:14:26Z</time>
      </trkpt>
      <trkpt lat="46.58949" lon="0.30075">
        <ele>122</ele>
        <time>2022-02-13T08:14:28Z</time>
      </trkpt>
      <trkpt lat="46.58963" lon="0.30077">
        <ele>122</ele>
        <time>2022-02-13T08:14:31Z</time>
      </trkpt>
      <trkpt lat="46.58978" lon="0.30078">
        <ele>122</ele>
        <time>2022-02-13T08:14:34Z</time>
      </trkpt>
      <trkpt lat="46.58995" lon="0.30078">
        <ele>121.6</ele>
        <time>2022-02-13T08:14:37Z</time>
      </trkpt>
      <trkpt lat="46.59004" lon="0.30081">
        <ele>121.6</ele>
        <time>2022-02-13T08:14:39Z</time>
      </trkpt>
      <trkpt lat="46.59011" lon="0.30088">
        <ele>121.6</ele>
        <time>2022-02-13T08:14:41Z</time>
      </trkpt>
      <trkpt lat="46.59026" lon="0.30102">
        <ele>121.4</ele>
        <time>2022-02-13T08:14:44Z</time>
      </trkpt>
      <trkpt lat="46.59032" lon="0.30108">
        <ele>121.2</ele>
        <time>2022-02-13T08:14:45Z</time>
      </trkpt>
      <trkpt lat="46.59056" lon="0.30129">
        <ele>121</ele>
        <time>2022-02-13T08:14:49Z</time>
      </trkpt>
      <trkpt lat="46.5906" lon="0.30135">
        <ele>121</ele>
        <time>2022-02-13T08:14:50Z</time>
      </trkpt>
      <trkpt lat="46.59066" lon="0.30143">
        <ele>121</ele>
        <time>2022-02-13T08:14:51Z</time>
      </trkpt>
      <trkpt lat="46.59075" lon="0.30158">
        <ele>121</ele>
        <time>2022-02-13T08:14:53Z</time>
      </trkpt>
      <trkpt lat="46.59079" lon="0.30164">
        <ele>121</ele>
        <time>2022-02-13T08:14:54Z</time>
      </trkpt>
      <trkpt lat="46.59094" lon="0.30179">
        <ele>121.4</ele>
        <time>2022-02-13T08:14:57Z</time>
      </trkpt>
      <trkpt lat="46.59103" lon="0.30183">
        <ele>121.6</ele>
        <time>2022-02-13T08:14:59Z</time>
      </trkpt>
      <trkpt lat="46.59108" lon="0.30192">
        <ele>121.6</ele>
        <time>2022-02-13T08:15:01Z</time>
      </trkpt>
      <trkpt lat="46.5911" lon="0.30204">
        <ele>121.8</ele>
        <time>2022-02-13T08:15:03Z</time>
      </trkpt>
      <trkpt lat="46.59111" lon="0.30223">
        <ele>121.8</ele>
        <time>2022-02-13T08:15:08Z</time>
      </trkpt>
      <trkpt lat="46.59112" lon="0.30234">
        <ele>121.2</ele>
        <time>2022-02-13T08:15:15Z</time>
      </trkpt>
      <trkpt lat="46.59113" lon="0.30239">
        <ele>121.2</ele>
        <time>2022-02-13T08:15:18Z</time>
      </trkpt>
      <trkpt lat="46.59118" lon="0.30247">
        <ele>121.2</ele>
        <time>2022-02-13T08:15:22Z</time>
      </trkpt>
      <trkpt lat="46.59123" lon="0.30251">
        <ele>122</ele>
        <time>2022-02-13T08:15:25Z</time>
      </trkpt>
      <trkpt lat="46.59125" lon="0.3025">
        <ele>122.6</ele>
        <time>2022-02-13T08:15:26Z</time>
      </trkpt>
      <trkpt lat="46.59126" lon="0.30248">
        <ele>123</ele>
        <time>2022-02-13T08:15:27Z</time>
      </trkpt>
      <trkpt lat="46.59127" lon="0.30243">
        <ele>123.6</ele>
        <time>2022-02-13T08:15:29Z</time>
      </trkpt>
      <trkpt lat="46.59127" lon="0.30232">
        <ele>124.4</ele>
        <time>2022-02-13T08:15:32Z</time>
      </trkpt>
      <trkpt lat="46.59129" lon="0.30212">
        <ele>125</ele>
        <time>2022-02-13T08:15:36Z</time>
      </trkpt>
      <trkpt lat="46.5913" lon="0.30201">
        <ele>125.4</ele>
        <time>2022-02-13T08:15:38Z</time>
      </trkpt>
      <trkpt lat="46.59132" lon="0.30182">
        <ele>126</ele>
        <time>2022-02-13T08:15:41Z</time>
      </trkpt>
      <trkpt lat="46.59133" lon="0.30154">
        <ele>126.4</ele>
        <time>2022-02-13T08:15:45Z</time>
      </trkpt>
      <trkpt lat="46.59133" lon="0.30102">
        <ele>126.2</ele>
        <time>2022-02-13T08:15:52Z</time>
      </trkpt>
      <trkpt lat="46.5913" lon="0.30071">
        <ele>126.8</ele>
        <time>2022-02-13T08:15:56Z</time>
      </trkpt>
      <trkpt lat="46.59133" lon="0.30057">
        <ele>127.2</ele>
        <time>2022-02-13T08:15:58Z</time>
      </trkpt>
      <trkpt lat="46.59149" lon="0.30024">
        <ele>128.2</ele>
        <time>2022-02-13T08:16:04Z</time>
      </trkpt>
      <trkpt lat="46.59159" lon="0.30001">
        <ele>128</ele>
        <time>2022-02-13T08:16:08Z</time>
      </trkpt>
      <trkpt lat="46.59162" lon="0.29987">
        <ele>127.8</ele>
        <time>2022-02-13T08:16:10Z</time>
      </trkpt>
      <trkpt lat="46.59162" lon="0.29971">
        <ele>127.6</ele>
        <time>2022-02-13T08:16:12Z</time>
      </trkpt>
      <trkpt lat="46.59159" lon="0.29955">
        <ele>127.4</ele>
        <time>2022-02-13T08:16:14Z</time>
      </trkpt>
      <trkpt lat="46.59156" lon="0.29947">
        <ele>127.2</ele>
        <time>2022-02-13T08:16:15Z</time>
      </trkpt>
      <trkpt lat="46.59148" lon="0.29923">
        <ele>126</ele>
        <time>2022-02-13T08:16:18Z</time>
      </trkpt>
      <trkpt lat="46.59147" lon="0.29907">
        <ele>125.2</ele>
        <time>2022-02-13T08:16:20Z</time>
      </trkpt>
      <trkpt lat="46.59148" lon="0.299">
        <ele>124.8</ele>
        <time>2022-02-13T08:16:21Z</time>
      </trkpt>
      <trkpt lat="46.59148" lon="0.2989">
        <ele>123.4</ele>
        <time>2022-02-13T08:16:23Z</time>
      </trkpt>
      <trkpt lat="46.59148" lon="0.29885">
        <ele>122.8</ele>
        <time>2022-02-13T08:16:25Z</time>
      </trkpt>
      <trkpt lat="46.59149" lon="0.29883">
        <ele>122.6</ele>
        <time>2022-02-13T08:16:26Z</time>
      </trkpt>
      <trkpt lat="46.5915" lon="0.29883">
        <ele>122.2</ele>
        <time>2022-02-13T08:16:27Z</time>
      </trkpt>
      <trkpt lat="46.59151" lon="0.29885">
        <ele>122.2</ele>
        <time>2022-02-13T08:16:28Z</time>
      </trkpt>
      <trkpt lat="46.59151" lon="0.29901">
        <ele>122</ele>
        <time>2022-02-13T08:16:32Z</time>
      </trkpt>
      <trkpt lat="46.59153" lon="0.29927">
        <ele>123.4</ele>
        <time>2022-02-13T08:16:37Z</time>
      </trkpt>
      <trkpt lat="46.59157" lon="0.2994">
        <ele>124.6</ele>
        <time>2022-02-13T08:16:40Z</time>
      </trkpt>
      <trkpt lat="46.59163" lon="0.29953">
        <ele>125</ele>
        <time>2022-02-13T08:16:43Z</time>
      </trkpt>
      <trkpt lat="46.59166" lon="0.29966">
        <ele>125.8</ele>
        <time>2022-02-13T08:16:46Z</time>
      </trkpt>
      <trkpt lat="46.59168" lon="0.29979">
        <ele>126.2</ele>
        <time>2022-02-13T08:16:49Z</time>
      </trkpt>
      <trkpt lat="46.59169" lon="0.29991">
        <ele>126.8</ele>
        <time>2022-02-13T08:16:54Z</time>
      </trkpt>
      <trkpt lat="46.59173" lon="0.30008">
        <ele>126.6</ele>
        <time>2022-02-13T08:17:01Z</time>
      </trkpt>
      <trkpt lat="46.59173" lon="0.30027">
        <ele>125</ele>
        <time>2022-02-13T08:17:04Z</time>
      </trkpt>
      <trkpt lat="46.59173" lon="0.30034">
        <ele>124</ele>
        <time>2022-02-13T08:17:05Z</time>
      </trkpt>
      <trkpt lat="46.59175" lon="0.30039">
        <ele>122.4</ele>
        <time>2022-02-13T08:17:06Z</time>
      </trkpt>
      <trkpt lat="46.59175" lon="0.30039">
        <ele>121.4</ele>
        <time>2022-02-13T08:17:07Z</time>
      </trkpt>
      <trkpt lat="46.5918" lon="0.30046">
        <ele>120.8</ele>
        <time>2022-02-13T08:17:08Z</time>
      </trkpt>
      <trkpt lat="46.59183" lon="0.3005">
        <ele>120.2</ele>
        <time>2022-02-13T08:17:09Z</time>
      </trkpt>
      <trkpt lat="46.59204" lon="0.30073">
        <ele>119.8</ele>
        <time>2022-02-13T08:17:14Z</time>
      </trkpt>
      <trkpt lat="46.5925" lon="0.30124">
        <ele>119.8</ele>
        <time>2022-02-13T08:17:24Z</time>
      </trkpt>
      <trkpt lat="46.59255" lon="0.30129">
        <ele>119.8</ele>
        <time>2022-02-13T08:17:25Z</time>
      </trkpt>
      <trkpt lat="46.59269" lon="0.30144">
        <ele>119.8</ele>
        <time>2022-02-13T08:17:28Z</time>
      </trkpt>
      <trkpt lat="46.59287" lon="0.30164">
        <ele>119.4</ele>
        <time>2022-02-13T08:17:32Z</time>
      </trkpt>
      <trkpt lat="46.59302" lon="0.30179">
        <ele>119.2</ele>
        <time>2022-02-13T08:17:35Z</time>
      </trkpt>
      <trkpt lat="46.59311" lon="0.30187">
        <ele>119.2</ele>
        <time>2022-02-13T08:17:37Z</time>
      </trkpt>
      <trkpt lat="46.59315" lon="0.30191">
        <ele>119.2</ele>
        <time>2022-02-13T08:17:38Z</time>
      </trkpt>
      <trkpt lat="46.59334" lon="0.302">
        <ele>119.2</ele>
        <time>2022-02-13T08:17:42Z</time>
      </trkpt>
      <trkpt lat="46.59354" lon="0.30213">
        <ele>119.6</ele>
        <time>2022-02-13T08:17:47Z</time>
      </trkpt>
      <trkpt lat="46.59385" lon="0.30235">
        <ele>119.6</ele>
        <time>2022-02-13T08:17:53Z</time>
      </trkpt>
      <trkpt lat="46.59423" lon="0.30262">
        <ele>119.4</ele>
        <time>2022-02-13T08:18:00Z</time>
      </trkpt>
      <trkpt lat="46.59452" lon="0.30291">
        <ele>119.2</ele>
        <time>2022-02-13T08:18:06Z</time>
      </trkpt>
      <trkpt lat="46.59488" lon="0.30318">
        <ele>118.6</ele>
        <time>2022-02-13T08:18:13Z</time>
      </trkpt>
      <trkpt lat="46.59493" lon="0.30322">
        <ele>118.4</ele>
        <time>2022-02-13T08:18:14Z</time>
      </trkpt>
      <trkpt lat="46.59501" lon="0.30332">
        <ele>118.4</ele>
        <time>2022-02-13T08:18:16Z</time>
      </trkpt>
      <trkpt lat="46.59508" lon="0.30343">
        <ele>118.4</ele>
        <time>2022-02-13T08:18:18Z</time>
      </trkpt>
      <trkpt lat="46.59525" lon="0.30386">
        <ele>118.8</ele>
        <time>2022-02-13T08:18:25Z</time>
      </trkpt>
      <trkpt lat="46.59531" lon="0.30398">
        <ele>118.6</ele>
        <time>2022-02-13T08:18:27Z</time>
      </trkpt>
      <trkpt lat="46.59537" lon="0.30407">
        <ele>118.6</ele>
        <time>2022-02-13T08:18:29Z</time>
      </trkpt>
      <trkpt lat="46.59541" lon="0.30411">
        <ele>118.6</ele>
        <time>2022-02-13T08:18:30Z</time>
      </trkpt>
      <trkpt lat="46.59566" lon="0.30433">
        <ele>118.4</ele>
        <time>2022-02-13T08:18:35Z</time>
      </trkpt>
      <trkpt lat="46.59579" lon="0.30442">
        <ele>118</ele>
        <time>2022-02-13T08:18:37Z</time>
      </trkpt>
      <trkpt lat="46.59596" lon="0.30453">
        <ele>117.6</ele>
        <time>2022-02-13T08:18:40Z</time>
      </trkpt>
      <trkpt lat="46.59635" lon="0.30484">
        <ele>118.2</ele>
        <time>2022-02-13T08:18:47Z</time>
      </trkpt>
      <trkpt lat="46.59675" lon="0.30519">
        <ele>117.4</ele>
        <time>2022-02-13T08:18:55Z</time>
      </trkpt>
      <trkpt lat="46.59695" lon="0.30538">
        <ele>117</ele>
        <time>2022-02-13T08:18:59Z</time>
      </trkpt>
      <trkpt lat="46.5971" lon="0.30553">
        <ele>116.6</ele>
        <time>2022-02-13T08:19:02Z</time>
      </trkpt>
      <trkpt lat="46.59738" lon="0.3058">
        <ele>116.4</ele>
        <time>2022-02-13T08:19:08Z</time>
      </trkpt>
      <trkpt lat="46.59741" lon="0.30579">
        <ele>116.4</ele>
        <time>2022-02-13T08:19:09Z</time>
      </trkpt>
      <trkpt lat="46.59745" lon="0.30569">
        <ele>116.2</ele>
        <time>2022-02-13T08:19:11Z</time>
      </trkpt>
      <trkpt lat="46.59748" lon="0.30562">
        <ele>116.2</ele>
        <time>2022-02-13T08:19:12Z</time>
      </trkpt>
      <trkpt lat="46.59761" lon="0.30524">
        <ele>116</ele>
        <time>2022-02-13T08:19:17Z</time>
      </trkpt>
      <trkpt lat="46.59787" lon="0.30452">
        <ele>116.2</ele>
        <time>2022-02-13T08:19:26Z</time>
      </trkpt>
      <trkpt lat="46.59789" lon="0.30444">
        <ele>116.2</ele>
        <time>2022-02-13T08:19:27Z</time>
      </trkpt>
      <trkpt lat="46.59807" lon="0.30399">
        <ele>116.2</ele>
        <time>2022-02-13T08:19:33Z</time>
      </trkpt>
      <trkpt lat="46.59814" lon="0.30385">
        <ele>116.2</ele>
        <time>2022-02-13T08:19:35Z</time>
      </trkpt>
      <trkpt lat="46.59834" lon="0.30345">
        <ele>116.8</ele>
        <time>2022-02-13T08:19:41Z</time>
      </trkpt>
      <trkpt lat="46.59837" lon="0.3034">
        <ele>117</ele>
        <time>2022-02-13T08:19:42Z</time>
      </trkpt>
      <trkpt lat="46.59843" lon="0.30331">
        <ele>117</ele>
        <time>2022-02-13T08:19:45Z</time>
      </trkpt>
      <trkpt lat="46.59847" lon="0.30327">
        <ele>117.2</ele>
        <time>2022-02-13T08:19:48Z</time>
      </trkpt>
      <trkpt lat="46.59849" lon="0.30326">
        <ele>117.4</ele>
        <time>2022-02-13T08:19:49Z</time>
      </trkpt>
      <trkpt lat="46.59855" lon="0.30309">
        <ele>117.8</ele>
        <time>2022-02-13T08:19:53Z</time>
      </trkpt>
      <trkpt lat="46.59857" lon="0.30303">
        <ele>117.8</ele>
        <time>2022-02-13T08:19:54Z</time>
      </trkpt>
      <trkpt lat="46.59866" lon="0.30284">
        <ele>117.6</ele>
        <time>2022-02-13T08:19:58Z</time>
      </trkpt>
      <trkpt lat="46.59868" lon="0.30279">
        <ele>117.8</ele>
        <time>2022-02-13T08:19:59Z</time>
      </trkpt>
      <trkpt lat="46.59872" lon="0.30265">
        <ele>118</ele>
        <time>2022-02-13T08:20:01Z</time>
      </trkpt>
      <trkpt lat="46.59874" lon="0.30258">
        <ele>118.2</ele>
        <time>2022-02-13T08:20:02Z</time>
      </trkpt>
      <trkpt lat="46.59884" lon="0.30235">
        <ele>118.4</ele>
        <time>2022-02-13T08:20:05Z</time>
      </trkpt>
      <trkpt lat="46.5989" lon="0.30218">
        <ele>118.4</ele>
        <time>2022-02-13T08:20:07Z</time>
      </trkpt>
      <trkpt lat="46.59911" lon="0.30153">
        <ele>118.2</ele>
        <time>2022-02-13T08:20:14Z</time>
      </trkpt>
      <trkpt lat="46.59931" lon="0.30085">
        <ele>117.6</ele>
        <time>2022-02-13T08:20:21Z</time>
      </trkpt>
      <trkpt lat="46.59943" lon="0.3004">
        <ele>116.8</ele>
        <time>2022-02-13T08:20:26Z</time>
      </trkpt>
      <trkpt lat="46.59949" lon="0.30022">
        <ele>116.4</ele>
        <time>2022-02-13T08:20:28Z</time>
      </trkpt>
      <trkpt lat="46.59955" lon="0.30007">
        <ele>115.8</ele>
        <time>2022-02-13T08:20:30Z</time>
      </trkpt>
      <trkpt lat="46.59965" lon="0.29996">
        <ele>115</ele>
        <time>2022-02-13T08:20:32Z</time>
      </trkpt>
      <trkpt lat="46.59976" lon="0.29991">
        <ele>114.8</ele>
        <time>2022-02-13T08:20:34Z</time>
      </trkpt>
      <trkpt lat="46.59988" lon="0.29988">
        <ele>114.4</ele>
        <time>2022-02-13T08:20:36Z</time>
      </trkpt>
      <trkpt lat="46.60014" lon="0.29978">
        <ele>114</ele>
        <time>2022-02-13T08:20:41Z</time>
      </trkpt>
      <trkpt lat="46.60023" lon="0.29971">
        <ele>114</ele>
        <time>2022-02-13T08:20:43Z</time>
      </trkpt>
      <trkpt lat="46.60031" lon="0.2996">
        <ele>114</ele>
        <time>2022-02-13T08:20:45Z</time>
      </trkpt>
      <trkpt lat="46.60038" lon="0.29947">
        <ele>114.4</ele>
        <time>2022-02-13T08:20:47Z</time>
      </trkpt>
      <trkpt lat="46.6004" lon="0.2994">
        <ele>114.6</ele>
        <time>2022-02-13T08:20:48Z</time>
      </trkpt>
      <trkpt lat="46.60048" lon="0.29912">
        <ele>115</ele>
        <time>2022-02-13T08:20:52Z</time>
      </trkpt>
      <trkpt lat="46.60061" lon="0.29861">
        <ele>115.4</ele>
        <time>2022-02-13T08:20:59Z</time>
      </trkpt>
      <trkpt lat="46.60072" lon="0.29819">
        <ele>115.8</ele>
        <time>2022-02-13T08:21:05Z</time>
      </trkpt>
      <trkpt lat="46.60082" lon="0.29789">
        <ele>115.8</ele>
        <time>2022-02-13T08:21:10Z</time>
      </trkpt>
      <trkpt lat="46.60085" lon="0.29786">
        <ele>115.8</ele>
        <time>2022-02-13T08:21:11Z</time>
      </trkpt>
      <trkpt lat="46.60087" lon="0.29784">
        <ele>115.8</ele>
        <time>2022-02-13T08:21:12Z</time>
      </trkpt>
      <trkpt lat="46.60093" lon="0.29788">
        <ele>116</ele>
        <time>2022-02-13T08:21:14Z</time>
      </trkpt>
      <trkpt lat="46.60109" lon="0.29801">
        <ele>116.2</ele>
        <time>2022-02-13T08:21:19Z</time>
      </trkpt>
      <trkpt lat="46.60117" lon="0.298">
        <ele>116.2</ele>
        <time>2022-02-13T08:21:21Z</time>
      </trkpt>
      <trkpt lat="46.60125" lon="0.29797">
        <ele>116.4</ele>
        <time>2022-02-13T08:21:23Z</time>
      </trkpt>
      <trkpt lat="46.60134" lon="0.29798">
        <ele>116.6</ele>
        <time>2022-02-13T08:21:25Z</time>
      </trkpt>
      <trkpt lat="46.60137" lon="0.29799">
        <ele>116.6</ele>
        <time>2022-02-13T08:21:26Z</time>
      </trkpt>
      <trkpt lat="46.60145" lon="0.29802">
        <ele>116.8</ele>
        <time>2022-02-13T08:21:28Z</time>
      </trkpt>
      <trkpt lat="46.60168" lon="0.2981">
        <ele>117.2</ele>
        <time>2022-02-13T08:21:33Z</time>
      </trkpt>
      <trkpt lat="46.6019" lon="0.29818">
        <ele>118</ele>
        <time>2022-02-13T08:21:37Z</time>
      </trkpt>
      <trkpt lat="46.602" lon="0.29822">
        <ele>118</ele>
        <time>2022-02-13T08:21:39Z</time>
      </trkpt>
      <trkpt lat="46.6025" lon="0.29841">
        <ele>118.2</ele>
        <time>2022-02-13T08:21:48Z</time>
      </trkpt>
      <trkpt lat="46.60296" lon="0.29861">
        <ele>119</ele>
        <time>2022-02-13T08:21:56Z</time>
      </trkpt>
      <trkpt lat="46.60342" lon="0.2988">
        <ele>119.8</ele>
        <time>2022-02-13T08:22:04Z</time>
      </trkpt>
      <trkpt lat="46.60354" lon="0.29886">
        <ele>120</ele>
        <time>2022-02-13T08:22:06Z</time>
      </trkpt>
      <trkpt lat="46.60396" lon="0.29903">
        <ele>121</ele>
        <time>2022-02-13T08:22:13Z</time>
      </trkpt>
      <trkpt lat="46.60402" lon="0.29906">
        <ele>121.4</ele>
        <time>2022-02-13T08:22:14Z</time>
      </trkpt>
      <trkpt lat="46.60439" lon="0.29922">
        <ele>122.6</ele>
        <time>2022-02-13T08:22:20Z</time>
      </trkpt>
      <trkpt lat="46.60445" lon="0.29924">
        <ele>122.8</ele>
        <time>2022-02-13T08:22:21Z</time>
      </trkpt>
      <trkpt lat="46.60485" lon="0.29941">
        <ele>123.6</ele>
        <time>2022-02-13T08:22:28Z</time>
      </trkpt>
      <trkpt lat="46.6049" lon="0.29942">
        <ele>123.6</ele>
        <time>2022-02-13T08:22:29Z</time>
      </trkpt>
      <trkpt lat="46.60497" lon="0.29937">
        <ele>123.6</ele>
        <time>2022-02-13T08:22:31Z</time>
      </trkpt>
      <trkpt lat="46.605" lon="0.29926">
        <ele>123.6</ele>
        <time>2022-02-13T08:22:33Z</time>
      </trkpt>
      <trkpt lat="46.60502" lon="0.29913">
        <ele>123.6</ele>
        <time>2022-02-13T08:22:35Z</time>
      </trkpt>
      <trkpt lat="46.60509" lon="0.29867">
        <ele>123.6</ele>
        <time>2022-02-13T08:22:41Z</time>
      </trkpt>
      <trkpt lat="46.60516" lon="0.29802">
        <ele>124.2</ele>
        <time>2022-02-13T08:22:49Z</time>
      </trkpt>
      <trkpt lat="46.60518" lon="0.29777">
        <ele>124.2</ele>
        <time>2022-02-13T08:22:52Z</time>
      </trkpt>
      <trkpt lat="46.60524" lon="0.29746">
        <ele>124</ele>
        <time>2022-02-13T08:22:56Z</time>
      </trkpt>
      <trkpt lat="46.60533" lon="0.29682">
        <ele>124</ele>
        <time>2022-02-13T08:23:04Z</time>
      </trkpt>
      <trkpt lat="46.60542" lon="0.29608">
        <ele>124</ele>
        <time>2022-02-13T08:23:13Z</time>
      </trkpt>
      <trkpt lat="46.60543" lon="0.29559">
        <ele>124.6</ele>
        <time>2022-02-13T08:23:19Z</time>
      </trkpt>
      <trkpt lat="46.60544" lon="0.29534">
        <ele>124.6</ele>
        <time>2022-02-13T08:23:22Z</time>
      </trkpt>
      <trkpt lat="46.60544" lon="0.29475">
        <ele>124.8</ele>
        <time>2022-02-13T08:23:29Z</time>
      </trkpt>
      <trkpt lat="46.60544" lon="0.29407">
        <ele>124.4</ele>
        <time>2022-02-13T08:23:37Z</time>
      </trkpt>
      <trkpt lat="46.60545" lon="0.2938">
        <ele>123.6</ele>
        <time>2022-02-13T08:23:40Z</time>
      </trkpt>
      <trkpt lat="46.60545" lon="0.29342">
        <ele>123.6</ele>
        <time>2022-02-13T08:23:44Z</time>
      </trkpt>
      <trkpt lat="46.60549" lon="0.29304">
        <ele>123.6</ele>
        <time>2022-02-13T08:23:48Z</time>
      </trkpt>
      <trkpt lat="46.60552" lon="0.29296">
        <ele>123.6</ele>
        <time>2022-02-13T08:23:49Z</time>
      </trkpt>
      <trkpt lat="46.60571" lon="0.29238">
        <ele>122.4</ele>
        <time>2022-02-13T08:23:56Z</time>
      </trkpt>
      <trkpt lat="46.60589" lon="0.2919">
        <ele>121.2</ele>
        <time>2022-02-13T08:24:02Z</time>
      </trkpt>
      <trkpt lat="46.60601" lon="0.29157">
        <ele>121.4</ele>
        <time>2022-02-13T08:24:06Z</time>
      </trkpt>
      <trkpt lat="46.60622" lon="0.291">
        <ele>121.2</ele>
        <time>2022-02-13T08:24:13Z</time>
      </trkpt>
      <trkpt lat="46.60644" lon="0.29038">
        <ele>120.2</ele>
        <time>2022-02-13T08:24:20Z</time>
      </trkpt>
      <trkpt lat="46.6065" lon="0.2902">
        <ele>119.8</ele>
        <time>2022-02-13T08:24:22Z</time>
      </trkpt>
      <trkpt lat="46.60672" lon="0.2896">
        <ele>119</ele>
        <time>2022-02-13T08:24:29Z</time>
      </trkpt>
      <trkpt lat="46.60675" lon="0.28951">
        <ele>119</ele>
        <time>2022-02-13T08:24:30Z</time>
      </trkpt>
      <trkpt lat="46.60698" lon="0.28887">
        <ele>119.6</ele>
        <time>2022-02-13T08:24:38Z</time>
      </trkpt>
      <trkpt lat="46.60721" lon="0.28836">
        <ele>119</ele>
        <time>2022-02-13T08:24:45Z</time>
      </trkpt>
      <trkpt lat="46.60745" lon="0.28791">
        <ele>118</ele>
        <time>2022-02-13T08:24:51Z</time>
      </trkpt>
      <trkpt lat="46.60757" lon="0.28768">
        <ele>117.6</ele>
        <time>2022-02-13T08:24:54Z</time>
      </trkpt>
      <trkpt lat="46.60775" lon="0.28734">
        <ele>117</ele>
        <time>2022-02-13T08:24:59Z</time>
      </trkpt>
      <trkpt lat="46.60783" lon="0.28726">
        <ele>117.4</ele>
        <time>2022-02-13T08:25:01Z</time>
      </trkpt>
      <trkpt lat="46.60791" lon="0.28727">
        <ele>117.6</ele>
        <time>2022-02-13T08:25:03Z</time>
      </trkpt>
      <trkpt lat="46.60795" lon="0.2873">
        <ele>117.6</ele>
        <time>2022-02-13T08:25:04Z</time>
      </trkpt>
      <trkpt lat="46.60823" lon="0.28755">
        <ele>118.4</ele>
        <time>2022-02-13T08:25:11Z</time>
      </trkpt>
      <trkpt lat="46.60835" lon="0.28765">
        <ele>119</ele>
        <time>2022-02-13T08:25:14Z</time>
      </trkpt>
      <trkpt lat="46.60854" lon="0.28783">
        <ele>119.8</ele>
        <time>2022-02-13T08:25:19Z</time>
      </trkpt>
      <trkpt lat="46.60861" lon="0.2879">
        <ele>120.2</ele>
        <time>2022-02-13T08:25:21Z</time>
      </trkpt>
      <trkpt lat="46.60876" lon="0.28804">
        <ele>120.4</ele>
        <time>2022-02-13T08:25:25Z</time>
      </trkpt>
      <trkpt lat="46.6089" lon="0.28818">
        <ele>120.8</ele>
        <time>2022-02-13T08:25:29Z</time>
      </trkpt>
      <trkpt lat="46.60897" lon="0.28825">
        <ele>121.4</ele>
        <time>2022-02-13T08:25:31Z</time>
      </trkpt>
      <trkpt lat="46.60915" lon="0.28842">
        <ele>122.4</ele>
        <time>2022-02-13T08:25:36Z</time>
      </trkpt>
      <trkpt lat="46.60949" lon="0.28873">
        <ele>123.4</ele>
        <time>2022-02-13T08:25:45Z</time>
      </trkpt>
      <trkpt lat="46.60952" lon="0.28876">
        <ele>123.4</ele>
        <time>2022-02-13T08:25:46Z</time>
      </trkpt>
      <trkpt lat="46.60974" lon="0.28897">
        <ele>124.4</ele>
        <time>2022-02-13T08:25:52Z</time>
      </trkpt>
      <trkpt lat="46.60998" lon="0.28917">
        <ele>125.2</ele>
        <time>2022-02-13T08:25:59Z</time>
      </trkpt>
      <trkpt lat="46.61011" lon="0.28905">
        <ele>125.4</ele>
        <time>2022-02-13T08:26:03Z</time>
      </trkpt>
      <trkpt lat="46.61014" lon="0.289">
        <ele>125.4</ele>
        <time>2022-02-13T08:26:04Z</time>
      </trkpt>
      <trkpt lat="46.61034" lon="0.28859">
        <ele>125.2</ele>
        <time>2022-02-13T08:26:11Z</time>
      </trkpt>
      <trkpt lat="46.61054" lon="0.28818">
        <ele>124.4</ele>
        <time>2022-02-13T08:26:17Z</time>
      </trkpt>
      <trkpt lat="46.61062" lon="0.28804">
        <ele>124.2</ele>
        <time>2022-02-13T08:26:19Z</time>
      </trkpt>
      <trkpt lat="46.61083" lon="0.28762">
        <ele>123.4</ele>
        <time>2022-02-13T08:26:25Z</time>
      </trkpt>
      <trkpt lat="46.61094" lon="0.28741">
        <ele>123.2</ele>
        <time>2022-02-13T08:26:28Z</time>
      </trkpt>
      <trkpt lat="46.61127" lon="0.28679">
        <ele>122.6</ele>
        <time>2022-02-13T08:26:37Z</time>
      </trkpt>
      <trkpt lat="46.61159" lon="0.28617">
        <ele>122.8</ele>
        <time>2022-02-13T08:26:46Z</time>
      </trkpt>
      <trkpt lat="46.61183" lon="0.28572">
        <ele>122.2</ele>
        <time>2022-02-13T08:26:53Z</time>
      </trkpt>
      <trkpt lat="46.61189" lon="0.28561">
        <ele>122.2</ele>
        <time>2022-02-13T08:26:55Z</time>
      </trkpt>
      <trkpt lat="46.61197" lon="0.28557">
        <ele>122.2</ele>
        <time>2022-02-13T08:26:57Z</time>
      </trkpt>
      <trkpt lat="46.61201" lon="0.28559">
        <ele>122.2</ele>
        <time>2022-02-13T08:26:58Z</time>
      </trkpt>
      <trkpt lat="46.61205" lon="0.28563">
        <ele>122.2</ele>
        <time>2022-02-13T08:26:59Z</time>
      </trkpt>
      <trkpt lat="46.61219" lon="0.28578">
        <ele>122.6</ele>
        <time>2022-02-13T08:27:02Z</time>
      </trkpt>
      <trkpt lat="46.61228" lon="0.28587">
        <ele>122.2</ele>
        <time>2022-02-13T08:27:04Z</time>
      </trkpt>
      <trkpt lat="46.61238" lon="0.28588">
        <ele>122.2</ele>
        <time>2022-02-13T08:27:06Z</time>
      </trkpt>
      <trkpt lat="46.61246" lon="0.28579">
        <ele>122.2</ele>
        <time>2022-02-13T08:27:08Z</time>
      </trkpt>
      <trkpt lat="46.61249" lon="0.28573">
        <ele>122.2</ele>
        <time>2022-02-13T08:27:09Z</time>
      </trkpt>
      <trkpt lat="46.61267" lon="0.28529">
        <ele>122.2</ele>
        <time>2022-02-13T08:27:15Z</time>
      </trkpt>
      <trkpt lat="46.61297" lon="0.28458">
        <ele>121.2</ele>
        <time>2022-02-13T08:27:24Z</time>
      </trkpt>
      <trkpt lat="46.613" lon="0.2845">
        <ele>121</ele>
        <time>2022-02-13T08:27:25Z</time>
      </trkpt>
      <trkpt lat="46.61324" lon="0.28393">
        <ele>120.2</ele>
        <time>2022-02-13T08:27:32Z</time>
      </trkpt>
      <trkpt lat="46.61328" lon="0.28385">
        <ele>119.6</ele>
        <time>2022-02-13T08:27:33Z</time>
      </trkpt>
      <trkpt lat="46.61338" lon="0.28361">
        <ele>119</ele>
        <time>2022-02-13T08:27:36Z</time>
      </trkpt>
      <trkpt lat="46.61357" lon="0.2832">
        <ele>117.6</ele>
        <time>2022-02-13T08:27:41Z</time>
      </trkpt>
      <trkpt lat="46.61361" lon="0.28311">
        <ele>117.4</ele>
        <time>2022-02-13T08:27:42Z</time>
      </trkpt>
      <trkpt lat="46.61368" lon="0.28294">
        <ele>116.6</ele>
        <time>2022-02-13T08:27:44Z</time>
      </trkpt>
      <trkpt lat="46.61381" lon="0.2826">
        <ele>115.6</ele>
        <time>2022-02-13T08:27:48Z</time>
      </trkpt>
      <trkpt lat="46.61386" lon="0.28246">
        <ele>114.8</ele>
        <time>2022-02-13T08:27:50Z</time>
      </trkpt>
      <trkpt lat="46.61387" lon="0.2824">
        <ele>114.4</ele>
        <time>2022-02-13T08:27:51Z</time>
      </trkpt>
      <trkpt lat="46.61385" lon="0.28236">
        <ele>114.2</ele>
        <time>2022-02-13T08:27:52Z</time>
      </trkpt>
      <trkpt lat="46.61376" lon="0.28228">
        <ele>114</ele>
        <time>2022-02-13T08:27:55Z</time>
      </trkpt>
      <trkpt lat="46.61344" lon="0.28208">
        <ele>114.4</ele>
        <time>2022-02-13T08:28:01Z</time>
      </trkpt>
      <trkpt lat="46.61311" lon="0.28179">
        <ele>113.4</ele>
        <time>2022-02-13T08:28:07Z</time>
      </trkpt>
      <trkpt lat="46.6128" lon="0.28153">
        <ele>114.2</ele>
        <time>2022-02-13T08:28:13Z</time>
      </trkpt>
      <trkpt lat="46.61247" lon="0.28123">
        <ele>114</ele>
        <time>2022-02-13T08:28:21Z</time>
      </trkpt>
      <trkpt lat="46.61227" lon="0.28105">
        <ele>113.2</ele>
        <time>2022-02-13T08:28:26Z</time>
      </trkpt>
      <trkpt lat="46.61212" lon="0.28091">
        <ele>112.8</ele>
        <time>2022-02-13T08:28:29Z</time>
      </trkpt>
      <trkpt lat="46.61202" lon="0.28082">
        <ele>112.2</ele>
        <time>2022-02-13T08:28:31Z</time>
      </trkpt>
      <trkpt lat="46.61181" lon="0.28063">
        <ele>110.8</ele>
        <time>2022-02-13T08:28:35Z</time>
      </trkpt>
      <trkpt lat="46.6117" lon="0.28053">
        <ele>110.2</ele>
        <time>2022-02-13T08:28:37Z</time>
      </trkpt>
      <trkpt lat="46.6116" lon="0.28043">
        <ele>109.6</ele>
        <time>2022-02-13T08:28:39Z</time>
      </trkpt>
      <trkpt lat="46.61136" lon="0.28022">
        <ele>108.6</ele>
        <time>2022-02-13T08:28:44Z</time>
      </trkpt>
      <trkpt lat="46.61132" lon="0.2802">
        <ele>108.6</ele>
        <time>2022-02-13T08:28:45Z</time>
      </trkpt>
      <trkpt lat="46.61126" lon="0.28022">
        <ele>108.4</ele>
        <time>2022-02-13T08:28:47Z</time>
      </trkpt>
      <trkpt lat="46.61122" lon="0.28031">
        <ele>108.6</ele>
        <time>2022-02-13T08:28:49Z</time>
      </trkpt>
      <trkpt lat="46.61116" lon="0.28046">
        <ele>109</ele>
        <time>2022-02-13T08:28:52Z</time>
      </trkpt>
      <trkpt lat="46.61113" lon="0.28052">
        <ele>110</ele>
        <time>2022-02-13T08:28:53Z</time>
      </trkpt>
      <trkpt lat="46.61112" lon="0.28057">
        <ele>110.8</ele>
        <time>2022-02-13T08:28:54Z</time>
      </trkpt>
      <trkpt lat="46.6111" lon="0.28063">
        <ele>111.2</ele>
        <time>2022-02-13T08:28:55Z</time>
      </trkpt>
      <trkpt lat="46.61107" lon="0.28069">
        <ele>111.4</ele>
        <time>2022-02-13T08:28:56Z</time>
      </trkpt>
      <trkpt lat="46.61102" lon="0.2808">
        <ele>112.4</ele>
        <time>2022-02-13T08:28:58Z</time>
      </trkpt>
      <trkpt lat="46.61094" lon="0.28098">
        <ele>113.8</ele>
        <time>2022-02-13T08:29:01Z</time>
      </trkpt>
      <trkpt lat="46.61083" lon="0.28121">
        <ele>114.6</ele>
        <time>2022-02-13T08:29:05Z</time>
      </trkpt>
      <trkpt lat="46.61083" lon="0.28121">
        <ele>114.8</ele>
        <time>2022-02-13T08:29:06Z</time>
      </trkpt>
      <trkpt lat="46.61057" lon="0.2818">
        <ele>115.6</ele>
        <time>2022-02-13T08:29:15Z</time>
      </trkpt>
      <trkpt lat="46.61037" lon="0.28221">
        <ele>115.8</ele>
        <time>2022-02-13T08:29:22Z</time>
      </trkpt>
      <trkpt lat="46.61035" lon="0.28227">
        <ele>115.8</ele>
        <time>2022-02-13T08:29:23Z</time>
      </trkpt>
      <trkpt lat="46.61015" lon="0.2827">
        <ele>115</ele>
        <time>2022-02-13T08:29:30Z</time>
      </trkpt>
      <trkpt lat="46.61009" lon="0.28281">
        <ele>115.2</ele>
        <time>2022-02-13T08:29:32Z</time>
      </trkpt>
      <trkpt lat="46.61001" lon="0.283">
        <ele>115.4</ele>
        <time>2022-02-13T08:29:35Z</time>
      </trkpt>
      <trkpt lat="46.6098" lon="0.28344">
        <ele>116.4</ele>
        <time>2022-02-13T08:29:43Z</time>
      </trkpt>
      <trkpt lat="46.60974" lon="0.28358">
        <ele>117</ele>
        <time>2022-02-13T08:29:46Z</time>
      </trkpt>
      <trkpt lat="46.60968" lon="0.28363">
        <ele>117</ele>
        <time>2022-02-13T08:29:48Z</time>
      </trkpt>
      <trkpt lat="46.60965" lon="0.28363">
        <ele>117.2</ele>
        <time>2022-02-13T08:29:49Z</time>
      </trkpt>
      <trkpt lat="46.6095" lon="0.2836">
        <ele>118.2</ele>
        <time>2022-02-13T08:29:53Z</time>
      </trkpt>
      <trkpt lat="46.60943" lon="0.28358">
        <ele>118.4</ele>
        <time>2022-02-13T08:29:55Z</time>
      </trkpt>
      <trkpt lat="46.60912" lon="0.28349">
        <ele>118.2</ele>
        <time>2022-02-13T08:30:03Z</time>
      </trkpt>
      <trkpt lat="46.60904" lon="0.28349">
        <ele>118.2</ele>
        <time>2022-02-13T08:30:05Z</time>
      </trkpt>
      <trkpt lat="46.60899" lon="0.28348">
        <ele>118.2</ele>
        <time>2022-02-13T08:30:06Z</time>
      </trkpt>
      <trkpt lat="46.60871" lon="0.28341">
        <ele>118</ele>
        <time>2022-02-13T08:30:13Z</time>
      </trkpt>
      <trkpt lat="46.60834" lon="0.28331">
        <ele>119.2</ele>
        <time>2022-02-13T08:30:22Z</time>
      </trkpt>
      <trkpt lat="46.6083" lon="0.2833">
        <ele>119.2</ele>
        <time>2022-02-13T08:30:23Z</time>
      </trkpt>
      <trkpt lat="46.60815" lon="0.28326">
        <ele>119.2</ele>
        <time>2022-02-13T08:30:27Z</time>
      </trkpt>
      <trkpt lat="46.60799" lon="0.2832">
        <ele>119.6</ele>
        <time>2022-02-13T08:30:31Z</time>
      </trkpt>
      <trkpt lat="46.60751" lon="0.28306">
        <ele>119.6</ele>
        <time>2022-02-13T08:30:42Z</time>
      </trkpt>
      <trkpt lat="46.60747" lon="0.28305">
        <ele>119.6</ele>
        <time>2022-02-13T08:30:43Z</time>
      </trkpt>
      <trkpt lat="46.60703" lon="0.28293">
        <ele>119.8</ele>
        <time>2022-02-13T08:30:53Z</time>
      </trkpt>
      <trkpt lat="46.60679" lon="0.28286">
        <ele>119.2</ele>
        <time>2022-02-13T08:30:59Z</time>
      </trkpt>
      <trkpt lat="46.60673" lon="0.28288">
        <ele>119</ele>
        <time>2022-02-13T08:31:01Z</time>
      </trkpt>
      <trkpt lat="46.60661" lon="0.283">
        <ele>119</ele>
        <time>2022-02-13T08:31:06Z</time>
      </trkpt>
      <trkpt lat="46.6064" lon="0.28297">
        <ele>118.6</ele>
        <time>2022-02-13T08:31:12Z</time>
      </trkpt>
      <trkpt lat="46.60627" lon="0.28294">
        <ele>118.2</ele>
        <time>2022-02-13T08:31:16Z</time>
      </trkpt>
      <trkpt lat="46.60619" lon="0.28293">
        <ele>117.6</ele>
        <time>2022-02-13T08:31:19Z</time>
      </trkpt>
      <trkpt lat="46.60616" lon="0.28294">
        <ele>117.2</ele>
        <time>2022-02-13T08:31:23Z</time>
      </trkpt>
      <trkpt lat="46.60616" lon="0.28294">
        <ele>117</ele>
        <time>2022-02-13T08:31:24Z</time>
      </trkpt>
      <trkpt lat="46.60612" lon="0.28295">
        <ele>116.8</ele>
        <time>2022-02-13T08:31:33Z</time>
      </trkpt>
      <trkpt lat="46.60598" lon="0.28294">
        <ele>117</ele>
        <time>2022-02-13T08:31:39Z</time>
      </trkpt>
      <trkpt lat="46.60576" lon="0.28286">
        <ele>116</ele>
        <time>2022-02-13T08:31:43Z</time>
      </trkpt>
      <trkpt lat="46.60561" lon="0.28281">
        <ele>114.4</ele>
        <time>2022-02-13T08:31:45Z</time>
      </trkpt>
      <trkpt lat="46.60556" lon="0.28277">
        <ele>113.2</ele>
        <time>2022-02-13T08:31:46Z</time>
      </trkpt>
      <trkpt lat="46.60552" lon="0.28273">
        <ele>112</ele>
        <time>2022-02-13T08:31:47Z</time>
      </trkpt>
      <trkpt lat="46.60549" lon="0.28267">
        <ele>111.2</ele>
        <time>2022-02-13T08:31:48Z</time>
      </trkpt>
      <trkpt lat="46.60547" lon="0.28262">
        <ele>110.6</ele>
        <time>2022-02-13T08:31:49Z</time>
      </trkpt>
      <trkpt lat="46.60546" lon="0.28257">
        <ele>110.4</ele>
        <time>2022-02-13T08:31:50Z</time>
      </trkpt>
      <trkpt lat="46.60544" lon="0.28243">
        <ele>110</ele>
        <time>2022-02-13T08:31:52Z</time>
      </trkpt>
      <trkpt lat="46.60543" lon="0.28229">
        <ele>110</ele>
        <time>2022-02-13T08:31:54Z</time>
      </trkpt>
      <trkpt lat="46.60539" lon="0.28193">
        <ele>110.2</ele>
        <time>2022-02-13T08:31:59Z</time>
      </trkpt>
      <trkpt lat="46.60537" lon="0.28187">
        <ele>110.2</ele>
        <time>2022-02-13T08:32:00Z</time>
      </trkpt>
      <trkpt lat="46.6053" lon="0.28178">
        <ele>110.4</ele>
        <time>2022-02-13T08:32:02Z</time>
      </trkpt>
      <trkpt lat="46.60527" lon="0.28174">
        <ele>110.6</ele>
        <time>2022-02-13T08:32:03Z</time>
      </trkpt>
      <trkpt lat="46.60507" lon="0.28158">
        <ele>111.2</ele>
        <time>2022-02-13T08:32:08Z</time>
      </trkpt>
      <trkpt lat="46.60505" lon="0.28156">
        <ele>111.4</ele>
        <time>2022-02-13T08:32:09Z</time>
      </trkpt>
      <trkpt lat="46.60499" lon="0.28153">
        <ele>111.8</ele>
        <time>2022-02-13T08:32:11Z</time>
      </trkpt>
      <trkpt lat="46.60497" lon="0.28149">
        <ele>112</ele>
        <time>2022-02-13T08:32:12Z</time>
      </trkpt>
      <trkpt lat="46.60496" lon="0.28145">
        <ele>112.4</ele>
        <time>2022-02-13T08:32:13Z</time>
      </trkpt>
      <trkpt lat="46.60498" lon="0.28129">
        <ele>112.8</ele>
        <time>2022-02-13T08:32:16Z</time>
      </trkpt>
      <trkpt lat="46.60501" lon="0.28117">
        <ele>112.6</ele>
        <time>2022-02-13T08:32:18Z</time>
      </trkpt>
      <trkpt lat="46.60514" lon="0.28078">
        <ele>113</ele>
        <time>2022-02-13T08:32:24Z</time>
      </trkpt>
      <trkpt lat="46.60525" lon="0.28052">
        <ele>113.6</ele>
        <time>2022-02-13T08:32:28Z</time>
      </trkpt>
      <trkpt lat="46.6053" lon="0.2804">
        <ele>114</ele>
        <time>2022-02-13T08:32:30Z</time>
      </trkpt>
      <trkpt lat="46.60549" lon="0.27991">
        <ele>114.8</ele>
        <time>2022-02-13T08:32:37Z</time>
      </trkpt>
      <trkpt lat="46.60551" lon="0.27984">
        <ele>115.4</ele>
        <time>2022-02-13T08:32:38Z</time>
      </trkpt>
      <trkpt lat="46.60563" lon="0.27934">
        <ele>116</ele>
        <time>2022-02-13T08:32:45Z</time>
      </trkpt>
      <trkpt lat="46.60573" lon="0.27892">
        <ele>115.8</ele>
        <time>2022-02-13T08:32:52Z</time>
      </trkpt>
      <trkpt lat="46.60577" lon="0.27887">
        <ele>115.8</ele>
        <time>2022-02-13T08:32:54Z</time>
      </trkpt>
      <trkpt lat="46.60579" lon="0.27886">
        <ele>115.8</ele>
        <time>2022-02-13T08:32:55Z</time>
      </trkpt>
      <trkpt lat="46.60588" lon="0.27871">
        <ele>115.8</ele>
        <time>2022-02-13T08:33:00Z</time>
      </trkpt>
      <trkpt lat="46.606" lon="0.27852">
        <ele>115.8</ele>
        <time>2022-02-13T08:33:06Z</time>
      </trkpt>
      <trkpt lat="46.60606" lon="0.27847">
        <ele>115.6</ele>
        <time>2022-02-13T08:33:08Z</time>
      </trkpt>
      <trkpt lat="46.60617" lon="0.27838">
        <ele>115.4</ele>
        <time>2022-02-13T08:33:12Z</time>
      </trkpt>
      <trkpt lat="46.60627" lon="0.27829">
        <ele>114.8</ele>
        <time>2022-02-13T08:33:18Z</time>
      </trkpt>
      <trkpt lat="46.60631" lon="0.2782">
        <ele>114.4</ele>
        <time>2022-02-13T08:33:25Z</time>
      </trkpt>
      <trkpt lat="46.6064" lon="0.27817">
        <ele>114.8</ele>
        <time>2022-02-13T08:33:29Z</time>
      </trkpt>
      <trkpt lat="46.60651" lon="0.27815">
        <ele>114.4</ele>
        <time>2022-02-13T08:33:36Z</time>
      </trkpt>
      <trkpt lat="46.60657" lon="0.27815">
        <ele>114.6</ele>
        <time>2022-02-13T08:33:42Z</time>
      </trkpt>
      <trkpt lat="46.60658" lon="0.27815">
        <ele>114.8</ele>
        <time>2022-02-13T08:33:45Z</time>
      </trkpt>
      <trkpt lat="46.60658" lon="0.27815">
        <ele>113.6</ele>
        <time>2022-02-13T08:44:16Z</time>
      </trkpt>
      <trkpt lat="46.60654" lon="0.27816">
        <ele>113.6</ele>
        <time>2022-02-13T08:44:20Z</time>
      </trkpt>
      <trkpt lat="46.60641" lon="0.27816">
        <ele>113.6</ele>
        <time>2022-02-13T08:44:25Z</time>
      </trkpt>
      <trkpt lat="46.60635" lon="0.27815">
        <ele>113.4</ele>
        <time>2022-02-13T08:44:30Z</time>
      </trkpt>
      <trkpt lat="46.60634" lon="0.27815">
        <ele>113.4</ele>
        <time>2022-02-13T08:44:31Z</time>
      </trkpt>
      <trkpt lat="46.60631" lon="0.27818">
        <ele>113.6</ele>
        <time>2022-02-13T08:44:35Z</time>
      </trkpt>
      <trkpt lat="46.60631" lon="0.27824">
        <ele>113.8</ele>
        <time>2022-02-13T08:44:38Z</time>
      </trkpt>
      <trkpt lat="46.60629" lon="0.27829">
        <ele>113.6</ele>
        <time>2022-02-13T08:44:40Z</time>
      </trkpt>
      <trkpt lat="46.60626" lon="0.27835">
        <ele>113.6</ele>
        <time>2022-02-13T08:44:42Z</time>
      </trkpt>
      <trkpt lat="46.60626" lon="0.27839">
        <ele>113.6</ele>
        <time>2022-02-13T08:44:43Z</time>
      </trkpt>
      <trkpt lat="46.60629" lon="0.27852">
        <ele>113.4</ele>
        <time>2022-02-13T08:44:46Z</time>
      </trkpt>
      <trkpt lat="46.60634" lon="0.27882">
        <ele>113.8</ele>
        <time>2022-02-13T08:44:53Z</time>
      </trkpt>
      <trkpt lat="46.60636" lon="0.27894">
        <ele>114</ele>
        <time>2022-02-13T08:44:57Z</time>
      </trkpt>
      <trkpt lat="46.60638" lon="0.27897">
        <ele>114</ele>
        <time>2022-02-13T08:44:58Z</time>
      </trkpt>
      <trkpt lat="46.6064" lon="0.27899">
        <ele>114</ele>
        <time>2022-02-13T08:44:59Z</time>
      </trkpt>
      <trkpt lat="46.60648" lon="0.279">
        <ele>114</ele>
        <time>2022-02-13T08:45:02Z</time>
      </trkpt>
      <trkpt lat="46.60656" lon="0.27904">
        <ele>113.8</ele>
        <time>2022-02-13T08:45:07Z</time>
      </trkpt>
      <trkpt lat="46.60665" lon="0.27912">
        <ele>113.8</ele>
        <time>2022-02-13T08:45:14Z</time>
      </trkpt>
      <trkpt lat="46.60676" lon="0.27923">
        <ele>113.6</ele>
        <time>2022-02-13T08:45:22Z</time>
      </trkpt>
      <trkpt lat="46.60687" lon="0.27941">
        <ele>113.4</ele>
        <time>2022-02-13T08:45:29Z</time>
      </trkpt>
      <trkpt lat="46.60686" lon="0.2797">
        <ele>113</ele>
        <time>2022-02-13T08:45:34Z</time>
      </trkpt>
      <trkpt lat="46.60686" lon="0.27993">
        <ele>112.2</ele>
        <time>2022-02-13T08:45:37Z</time>
      </trkpt>
      <trkpt lat="46.60686" lon="0.28001">
        <ele>112</ele>
        <time>2022-02-13T08:45:38Z</time>
      </trkpt>
      <trkpt lat="46.60687" lon="0.2801">
        <ele>111.8</ele>
        <time>2022-02-13T08:45:39Z</time>
      </trkpt>
      <trkpt lat="46.60691" lon="0.28026">
        <ele>111</ele>
        <time>2022-02-13T08:45:41Z</time>
      </trkpt>
      <trkpt lat="46.60693" lon="0.28033">
        <ele>110.6</ele>
        <time>2022-02-13T08:45:42Z</time>
      </trkpt>
      <trkpt lat="46.60696" lon="0.28038">
        <ele>110.6</ele>
        <time>2022-02-13T08:45:43Z</time>
      </trkpt>
      <trkpt lat="46.607" lon="0.28041">
        <ele>110.4</ele>
        <time>2022-02-13T08:45:44Z</time>
      </trkpt>
      <trkpt lat="46.60709" lon="0.28044">
        <ele>110.4</ele>
        <time>2022-02-13T08:45:46Z</time>
      </trkpt>
      <trkpt lat="46.60714" lon="0.28044">
        <ele>110.2</ele>
        <time>2022-02-13T08:45:47Z</time>
      </trkpt>
      <trkpt lat="46.60758" lon="0.28045">
        <ele>111.6</ele>
        <time>2022-02-13T08:45:55Z</time>
      </trkpt>
      <trkpt lat="46.60798" lon="0.28052">
        <ele>111.8</ele>
        <time>2022-02-13T08:46:02Z</time>
      </trkpt>
      <trkpt lat="46.60833" lon="0.28059">
        <ele>111.8</ele>
        <time>2022-02-13T08:46:08Z</time>
      </trkpt>
      <trkpt lat="46.60875" lon="0.28067">
        <ele>111.4</ele>
        <time>2022-02-13T08:46:15Z</time>
      </trkpt>
      <trkpt lat="46.6093" lon="0.28075">
        <ele>111.2</ele>
        <time>2022-02-13T08:46:24Z</time>
      </trkpt>
      <trkpt lat="46.60953" lon="0.2808">
        <ele>110.8</ele>
        <time>2022-02-13T08:46:28Z</time>
      </trkpt>
      <trkpt lat="46.60958" lon="0.2808">
        <ele>110.4</ele>
        <time>2022-02-13T08:46:29Z</time>
      </trkpt>
      <trkpt lat="46.60964" lon="0.28078">
        <ele>110.2</ele>
        <time>2022-02-13T08:46:30Z</time>
      </trkpt>
      <trkpt lat="46.60969" lon="0.28076">
        <ele>109.8</ele>
        <time>2022-02-13T08:46:31Z</time>
      </trkpt>
      <trkpt lat="46.60974" lon="0.28072">
        <ele>109.4</ele>
        <time>2022-02-13T08:46:32Z</time>
      </trkpt>
      <trkpt lat="46.60979" lon="0.28067">
        <ele>109.4</ele>
        <time>2022-02-13T08:46:33Z</time>
      </trkpt>
      <trkpt lat="46.61006" lon="0.28032">
        <ele>109.4</ele>
        <time>2022-02-13T08:46:39Z</time>
      </trkpt>
      <trkpt lat="46.61025" lon="0.28001">
        <ele>108.6</ele>
        <time>2022-02-13T08:46:44Z</time>
      </trkpt>
      <trkpt lat="46.61037" lon="0.2798">
        <ele>108</ele>
        <time>2022-02-13T08:46:47Z</time>
      </trkpt>
      <trkpt lat="46.61046" lon="0.27967">
        <ele>107.4</ele>
        <time>2022-02-13T08:46:49Z</time>
      </trkpt>
      <trkpt lat="46.61056" lon="0.27957">
        <ele>107</ele>
        <time>2022-02-13T08:46:51Z</time>
      </trkpt>
      <trkpt lat="46.61066" lon="0.27952">
        <ele>106.8</ele>
        <time>2022-02-13T08:46:53Z</time>
      </trkpt>
      <trkpt lat="46.61075" lon="0.27946">
        <ele>106.4</ele>
        <time>2022-02-13T08:46:55Z</time>
      </trkpt>
      <trkpt lat="46.61082" lon="0.27935">
        <ele>106</ele>
        <time>2022-02-13T08:46:57Z</time>
      </trkpt>
      <trkpt lat="46.61089" lon="0.27925">
        <ele>105.8</ele>
        <time>2022-02-13T08:46:59Z</time>
      </trkpt>
      <trkpt lat="46.61099" lon="0.27922">
        <ele>106.2</ele>
        <time>2022-02-13T08:47:01Z</time>
      </trkpt>
      <trkpt lat="46.61104" lon="0.27923">
        <ele>106.4</ele>
        <time>2022-02-13T08:47:02Z</time>
      </trkpt>
      <trkpt lat="46.61119" lon="0.27924">
        <ele>107.4</ele>
        <time>2022-02-13T08:47:05Z</time>
      </trkpt>
      <trkpt lat="46.6113" lon="0.27923">
        <ele>108.4</ele>
        <time>2022-02-13T08:47:07Z</time>
      </trkpt>
      <trkpt lat="46.61134" lon="0.27921">
        <ele>109</ele>
        <time>2022-02-13T08:47:08Z</time>
      </trkpt>
      <trkpt lat="46.61138" lon="0.27917">
        <ele>109.6</ele>
        <time>2022-02-13T08:47:09Z</time>
      </trkpt>
      <trkpt lat="46.61144" lon="0.27907">
        <ele>110.6</ele>
        <time>2022-02-13T08:47:11Z</time>
      </trkpt>
      <trkpt lat="46.6115" lon="0.27889">
        <ele>111.8</ele>
        <time>2022-02-13T08:47:14Z</time>
      </trkpt>
      <trkpt lat="46.61152" lon="0.27884">
        <ele>112</ele>
        <time>2022-02-13T08:47:15Z</time>
      </trkpt>
      <trkpt lat="46.61155" lon="0.27878">
        <ele>112.2</ele>
        <time>2022-02-13T08:47:16Z</time>
      </trkpt>
      <trkpt lat="46.61162" lon="0.27859">
        <ele>113</ele>
        <time>2022-02-13T08:47:19Z</time>
      </trkpt>
      <trkpt lat="46.61168" lon="0.27845">
        <ele>113.6</ele>
        <time>2022-02-13T08:47:21Z</time>
      </trkpt>
      <trkpt lat="46.61174" lon="0.27832">
        <ele>114</ele>
        <time>2022-02-13T08:47:23Z</time>
      </trkpt>
      <trkpt lat="46.61193" lon="0.27785">
        <ele>114.8</ele>
        <time>2022-02-13T08:47:30Z</time>
      </trkpt>
      <trkpt lat="46.6121" lon="0.27746">
        <ele>115</ele>
        <time>2022-02-13T08:47:36Z</time>
      </trkpt>
      <trkpt lat="46.61219" lon="0.27727">
        <ele>115.6</ele>
        <time>2022-02-13T08:47:39Z</time>
      </trkpt>
      <trkpt lat="46.61242" lon="0.27669">
        <ele>116</ele>
        <time>2022-02-13T08:47:48Z</time>
      </trkpt>
      <trkpt lat="46.61244" lon="0.27663">
        <ele>116</ele>
        <time>2022-02-13T08:47:49Z</time>
      </trkpt>
      <trkpt lat="46.61257" lon="0.27632">
        <ele>117.2</ele>
        <time>2022-02-13T08:47:54Z</time>
      </trkpt>
      <trkpt lat="46.61266" lon="0.27608">
        <ele>118.4</ele>
        <time>2022-02-13T08:47:58Z</time>
      </trkpt>
      <trkpt lat="46.61271" lon="0.27588">
        <ele>118.8</ele>
        <time>2022-02-13T08:48:01Z</time>
      </trkpt>
      <trkpt lat="46.61275" lon="0.27568">
        <ele>119</ele>
        <time>2022-02-13T08:48:04Z</time>
      </trkpt>
      <trkpt lat="46.61276" lon="0.27555">
        <ele>119.4</ele>
        <time>2022-02-13T08:48:06Z</time>
      </trkpt>
      <trkpt lat="46.61283" lon="0.27508">
        <ele>120.6</ele>
        <time>2022-02-13T08:48:13Z</time>
      </trkpt>
      <trkpt lat="46.61284" lon="0.27501">
        <ele>120.6</ele>
        <time>2022-02-13T08:48:14Z</time>
      </trkpt>
      <trkpt lat="46.61288" lon="0.2747">
        <ele>121.8</ele>
        <time>2022-02-13T08:48:19Z</time>
      </trkpt>
      <trkpt lat="46.61291" lon="0.27443">
        <ele>122.4</ele>
        <time>2022-02-13T08:48:23Z</time>
      </trkpt>
      <trkpt lat="46.61294" lon="0.27423">
        <ele>122.8</ele>
        <time>2022-02-13T08:48:26Z</time>
      </trkpt>
      <trkpt lat="46.613" lon="0.27384">
        <ele>123.8</ele>
        <time>2022-02-13T08:48:32Z</time>
      </trkpt>
      <trkpt lat="46.61304" lon="0.27358">
        <ele>124.8</ele>
        <time>2022-02-13T08:48:36Z</time>
      </trkpt>
      <trkpt lat="46.61306" lon="0.27346">
        <ele>125</ele>
        <time>2022-02-13T08:48:38Z</time>
      </trkpt>
      <trkpt lat="46.61308" lon="0.27327">
        <ele>124.8</ele>
        <time>2022-02-13T08:48:41Z</time>
      </trkpt>
      <trkpt lat="46.61312" lon="0.27292">
        <ele>125.8</ele>
        <time>2022-02-13T08:48:47Z</time>
      </trkpt>
      <trkpt lat="46.61312" lon="0.27286">
        <ele>126</ele>
        <time>2022-02-13T08:48:48Z</time>
      </trkpt>
      <trkpt lat="46.61311" lon="0.27281">
        <ele>126.2</ele>
        <time>2022-02-13T08:48:49Z</time>
      </trkpt>
      <trkpt lat="46.61304" lon="0.27252">
        <ele>127</ele>
        <time>2022-02-13T08:48:54Z</time>
      </trkpt>
      <trkpt lat="46.61302" lon="0.27246">
        <ele>127.2</ele>
        <time>2022-02-13T08:48:55Z</time>
      </trkpt>
      <trkpt lat="46.61286" lon="0.27201">
        <ele>127.8</ele>
        <time>2022-02-13T08:49:03Z</time>
      </trkpt>
      <trkpt lat="46.61274" lon="0.27174">
        <ele>128.2</ele>
        <time>2022-02-13T08:49:08Z</time>
      </trkpt>
      <trkpt lat="46.61265" lon="0.27151">
        <ele>128.4</ele>
        <time>2022-02-13T08:49:12Z</time>
      </trkpt>
      <trkpt lat="46.61246" lon="0.27108">
        <ele>129.2</ele>
        <time>2022-02-13T08:49:20Z</time>
      </trkpt>
      <trkpt lat="46.61239" lon="0.27094">
        <ele>129.4</ele>
        <time>2022-02-13T08:49:23Z</time>
      </trkpt>
      <trkpt lat="46.61234" lon="0.27084">
        <ele>129.6</ele>
        <time>2022-02-13T08:49:25Z</time>
      </trkpt>
      <trkpt lat="46.6122" lon="0.27058">
        <ele>130</ele>
        <time>2022-02-13T08:49:30Z</time>
      </trkpt>
      <trkpt lat="46.61208" lon="0.27034">
        <ele>130.4</ele>
        <time>2022-02-13T08:49:34Z</time>
      </trkpt>
      <trkpt lat="46.61196" lon="0.27007">
        <ele>130.4</ele>
        <time>2022-02-13T08:49:38Z</time>
      </trkpt>
      <trkpt lat="46.61175" lon="0.26961">
        <ele>130.2</ele>
        <time>2022-02-13T08:49:45Z</time>
      </trkpt>
      <trkpt lat="46.61149" lon="0.26906">
        <ele>130</ele>
        <time>2022-02-13T08:49:53Z</time>
      </trkpt>
      <trkpt lat="46.61134" lon="0.26872">
        <ele>130.6</ele>
        <time>2022-02-13T08:49:58Z</time>
      </trkpt>
      <trkpt lat="46.61132" lon="0.26856">
        <ele>130.8</ele>
        <time>2022-02-13T08:50:00Z</time>
      </trkpt>
      <trkpt lat="46.61136" lon="0.26834">
        <ele>130.6</ele>
        <time>2022-02-13T08:50:03Z</time>
      </trkpt>
      <trkpt lat="46.61138" lon="0.26823">
        <ele>130.6</ele>
        <time>2022-02-13T08:50:05Z</time>
      </trkpt>
      <trkpt lat="46.61151" lon="0.26779">
        <ele>130.8</ele>
        <time>2022-02-13T08:50:12Z</time>
      </trkpt>
      <trkpt lat="46.61159" lon="0.26756">
        <ele>131.2</ele>
        <time>2022-02-13T08:50:16Z</time>
      </trkpt>
      <trkpt lat="46.61162" lon="0.26749">
        <ele>131.2</ele>
        <time>2022-02-13T08:50:17Z</time>
      </trkpt>
      <trkpt lat="46.61166" lon="0.26744">
        <ele>131.2</ele>
        <time>2022-02-13T08:50:18Z</time>
      </trkpt>
      <trkpt lat="46.6117" lon="0.2674">
        <ele>131.4</ele>
        <time>2022-02-13T08:50:19Z</time>
      </trkpt>
      <trkpt lat="46.61174" lon="0.26738">
        <ele>131.4</ele>
        <time>2022-02-13T08:50:20Z</time>
      </trkpt>
      <trkpt lat="46.61182" lon="0.26738">
        <ele>131.8</ele>
        <time>2022-02-13T08:50:22Z</time>
      </trkpt>
      <trkpt lat="46.61189" lon="0.26731">
        <ele>132.2</ele>
        <time>2022-02-13T08:50:24Z</time>
      </trkpt>
      <trkpt lat="46.61197" lon="0.2671">
        <ele>132.4</ele>
        <time>2022-02-13T08:50:27Z</time>
      </trkpt>
      <trkpt lat="46.612" lon="0.26702">
        <ele>132.4</ele>
        <time>2022-02-13T08:50:28Z</time>
      </trkpt>
      <trkpt lat="46.61207" lon="0.26687">
        <ele>132.2</ele>
        <time>2022-02-13T08:50:30Z</time>
      </trkpt>
      <trkpt lat="46.61216" lon="0.26673">
        <ele>132</ele>
        <time>2022-02-13T08:50:32Z</time>
      </trkpt>
      <trkpt lat="46.61221" lon="0.26667">
        <ele>132</ele>
        <time>2022-02-13T08:50:33Z</time>
      </trkpt>
      <trkpt lat="46.61231" lon="0.26656">
        <ele>132.4</ele>
        <time>2022-02-13T08:50:35Z</time>
      </trkpt>
      <trkpt lat="46.61237" lon="0.26643">
        <ele>132.6</ele>
        <time>2022-02-13T08:50:37Z</time>
      </trkpt>
      <trkpt lat="46.6124" lon="0.26628">
        <ele>132.4</ele>
        <time>2022-02-13T08:50:39Z</time>
      </trkpt>
      <trkpt lat="46.61239" lon="0.26612">
        <ele>132.4</ele>
        <time>2022-02-13T08:50:41Z</time>
      </trkpt>
      <trkpt lat="46.61243" lon="0.26576">
        <ele>132.4</ele>
        <time>2022-02-13T08:50:45Z</time>
      </trkpt>
      <trkpt lat="46.61246" lon="0.26568">
        <ele>132.4</ele>
        <time>2022-02-13T08:50:46Z</time>
      </trkpt>
      <trkpt lat="46.6125" lon="0.26562">
        <ele>132.4</ele>
        <time>2022-02-13T08:50:47Z</time>
      </trkpt>
      <trkpt lat="46.61261" lon="0.26558">
        <ele>132.2</ele>
        <time>2022-02-13T08:50:49Z</time>
      </trkpt>
      <trkpt lat="46.61312" lon="0.26552">
        <ele>131.2</ele>
        <time>2022-02-13T08:50:57Z</time>
      </trkpt>
      <trkpt lat="46.61351" lon="0.2654">
        <ele>130.2</ele>
        <time>2022-02-13T08:51:03Z</time>
      </trkpt>
      <trkpt lat="46.61357" lon="0.26537">
        <ele>130</ele>
        <time>2022-02-13T08:51:04Z</time>
      </trkpt>
      <trkpt lat="46.61387" lon="0.26521">
        <ele>129.4</ele>
        <time>2022-02-13T08:51:09Z</time>
      </trkpt>
      <trkpt lat="46.61396" lon="0.26515">
        <ele>129</ele>
        <time>2022-02-13T08:51:11Z</time>
      </trkpt>
      <trkpt lat="46.614" lon="0.26512">
        <ele>129</ele>
        <time>2022-02-13T08:51:12Z</time>
      </trkpt>
      <trkpt lat="46.61407" lon="0.26505">
        <ele>128.8</ele>
        <time>2022-02-13T08:51:14Z</time>
      </trkpt>
      <trkpt lat="46.61414" lon="0.26498">
        <ele>128.6</ele>
        <time>2022-02-13T08:51:16Z</time>
      </trkpt>
      <trkpt lat="46.6143" lon="0.26485">
        <ele>128.2</ele>
        <time>2022-02-13T08:51:20Z</time>
      </trkpt>
      <trkpt lat="46.61434" lon="0.26482">
        <ele>128</ele>
        <time>2022-02-13T08:51:21Z</time>
      </trkpt>
      <trkpt lat="46.61464" lon="0.26457">
        <ele>127.4</ele>
        <time>2022-02-13T08:51:28Z</time>
      </trkpt>
      <trkpt lat="46.61469" lon="0.26454">
        <ele>127.2</ele>
        <time>2022-02-13T08:51:29Z</time>
      </trkpt>
      <trkpt lat="46.61474" lon="0.2645">
        <ele>127</ele>
        <time>2022-02-13T08:51:30Z</time>
      </trkpt>
      <trkpt lat="46.61496" lon="0.26437">
        <ele>126.4</ele>
        <time>2022-02-13T08:51:34Z</time>
      </trkpt>
      <trkpt lat="46.6153" lon="0.2642">
        <ele>125.8</ele>
        <time>2022-02-13T08:51:40Z</time>
      </trkpt>
      <trkpt lat="46.61542" lon="0.26415">
        <ele>125.4</ele>
        <time>2022-02-13T08:51:42Z</time>
      </trkpt>
      <trkpt lat="46.61572" lon="0.26402">
        <ele>124.8</ele>
        <time>2022-02-13T08:51:47Z</time>
      </trkpt>
      <trkpt lat="46.61578" lon="0.264">
        <ele>124.6</ele>
        <time>2022-02-13T08:51:48Z</time>
      </trkpt>
      <trkpt lat="46.61598" lon="0.26391">
        <ele>123.6</ele>
        <time>2022-02-13T08:51:51Z</time>
      </trkpt>
      <trkpt lat="46.61625" lon="0.26379">
        <ele>122.6</ele>
        <time>2022-02-13T08:51:55Z</time>
      </trkpt>
      <trkpt lat="46.61646" lon="0.26369">
        <ele>121.4</ele>
        <time>2022-02-13T08:51:58Z</time>
      </trkpt>
      <trkpt lat="46.61673" lon="0.26356">
        <ele>120.6</ele>
        <time>2022-02-13T08:52:02Z</time>
      </trkpt>
      <trkpt lat="46.6168" lon="0.26353">
        <ele>120.4</ele>
        <time>2022-02-13T08:52:03Z</time>
      </trkpt>
      <trkpt lat="46.61723" lon="0.26332">
        <ele>118.8</ele>
        <time>2022-02-13T08:52:09Z</time>
      </trkpt>
      <trkpt lat="46.61766" lon="0.26312">
        <ele>117.8</ele>
        <time>2022-02-13T08:52:15Z</time>
      </trkpt>
      <trkpt lat="46.61788" lon="0.26302">
        <ele>117.4</ele>
        <time>2022-02-13T08:52:18Z</time>
      </trkpt>
      <trkpt lat="46.6181" lon="0.26292">
        <ele>116.6</ele>
        <time>2022-02-13T08:52:21Z</time>
      </trkpt>
      <trkpt lat="46.61854" lon="0.26273">
        <ele>115.6</ele>
        <time>2022-02-13T08:52:27Z</time>
      </trkpt>
      <trkpt lat="46.61906" lon="0.2625">
        <ele>115.2</ele>
        <time>2022-02-13T08:52:34Z</time>
      </trkpt>
      <trkpt lat="46.61922" lon="0.26243">
        <ele>115</ele>
        <time>2022-02-13T08:52:36Z</time>
      </trkpt>
      <trkpt lat="46.61929" lon="0.26241">
        <ele>114.8</ele>
        <time>2022-02-13T08:52:37Z</time>
      </trkpt>
      <trkpt lat="46.61937" lon="0.26239">
        <ele>114.6</ele>
        <time>2022-02-13T08:52:38Z</time>
      </trkpt>
      <trkpt lat="46.6196" lon="0.26235">
        <ele>114</ele>
        <time>2022-02-13T08:52:41Z</time>
      </trkpt>
      <trkpt lat="46.61982" lon="0.26232">
        <ele>113.2</ele>
        <time>2022-02-13T08:52:44Z</time>
      </trkpt>
      <trkpt lat="46.6199" lon="0.26231">
        <ele>113</ele>
        <time>2022-02-13T08:52:45Z</time>
      </trkpt>
      <trkpt lat="46.62005" lon="0.26232">
        <ele>112.8</ele>
        <time>2022-02-13T08:52:47Z</time>
      </trkpt>
      <trkpt lat="46.62029" lon="0.2623">
        <ele>112.2</ele>
        <time>2022-02-13T08:52:50Z</time>
      </trkpt>
      <trkpt lat="46.62052" lon="0.26226">
        <ele>111.8</ele>
        <time>2022-02-13T08:52:53Z</time>
      </trkpt>
      <trkpt lat="46.62073" lon="0.26224">
        <ele>111</ele>
        <time>2022-02-13T08:52:56Z</time>
      </trkpt>
      <trkpt lat="46.62093" lon="0.26222">
        <ele>110.2</ele>
        <time>2022-02-13T08:52:59Z</time>
      </trkpt>
      <trkpt lat="46.62099" lon="0.26223">
        <ele>110</ele>
        <time>2022-02-13T08:53:00Z</time>
      </trkpt>
      <trkpt lat="46.62111" lon="0.26223">
        <ele>109.4</ele>
        <time>2022-02-13T08:53:02Z</time>
      </trkpt>
      <trkpt lat="46.62115" lon="0.26221">
        <ele>109.2</ele>
        <time>2022-02-13T08:53:03Z</time>
      </trkpt>
      <trkpt lat="46.6212" lon="0.26218">
        <ele>109.2</ele>
        <time>2022-02-13T08:53:04Z</time>
      </trkpt>
      <trkpt lat="46.62128" lon="0.26207">
        <ele>108.8</ele>
        <time>2022-02-13T08:53:06Z</time>
      </trkpt>
      <trkpt lat="46.62131" lon="0.262">
        <ele>108.6</ele>
        <time>2022-02-13T08:53:07Z</time>
      </trkpt>
      <trkpt lat="46.62143" lon="0.26176">
        <ele>107.6</ele>
        <time>2022-02-13T08:53:10Z</time>
      </trkpt>
      <trkpt lat="46.6216" lon="0.2614">
        <ele>106.4</ele>
        <time>2022-02-13T08:53:14Z</time>
      </trkpt>
      <trkpt lat="46.62177" lon="0.26108">
        <ele>105.4</ele>
        <time>2022-02-13T08:53:17Z</time>
      </trkpt>
      <trkpt lat="46.62182" lon="0.26097">
        <ele>104</ele>
        <time>2022-02-13T08:53:18Z</time>
      </trkpt>
      <trkpt lat="46.62187" lon="0.26085">
        <ele>103.2</ele>
        <time>2022-02-13T08:53:19Z</time>
      </trkpt>
      <trkpt lat="46.62192" lon="0.26074">
        <ele>102.8</ele>
        <time>2022-02-13T08:53:20Z</time>
      </trkpt>
      <trkpt lat="46.62201" lon="0.2605">
        <ele>101.6</ele>
        <time>2022-02-13T08:53:22Z</time>
      </trkpt>
      <trkpt lat="46.62215" lon="0.26014">
        <ele>99.8</ele>
        <time>2022-02-13T08:53:25Z</time>
      </trkpt>
      <trkpt lat="46.62224" lon="0.25989">
        <ele>98.4</ele>
        <time>2022-02-13T08:53:27Z</time>
      </trkpt>
      <trkpt lat="46.62234" lon="0.25966">
        <ele>97.2</ele>
        <time>2022-02-13T08:53:29Z</time>
      </trkpt>
      <trkpt lat="46.62239" lon="0.25957">
        <ele>96.8</ele>
        <time>2022-02-13T08:53:30Z</time>
      </trkpt>
      <trkpt lat="46.62246" lon="0.25948">
        <ele>96.6</ele>
        <time>2022-02-13T08:53:31Z</time>
      </trkpt>
      <trkpt lat="46.62252" lon="0.25942">
        <ele>96</ele>
        <time>2022-02-13T08:53:32Z</time>
      </trkpt>
      <trkpt lat="46.62259" lon="0.25936">
        <ele>95.6</ele>
        <time>2022-02-13T08:53:33Z</time>
      </trkpt>
      <trkpt lat="46.62268" lon="0.25935">
        <ele>94.6</ele>
        <time>2022-02-13T08:53:34Z</time>
      </trkpt>
      <trkpt lat="46.62277" lon="0.25934">
        <ele>93.8</ele>
        <time>2022-02-13T08:53:35Z</time>
      </trkpt>
      <trkpt lat="46.62285" lon="0.25934">
        <ele>93</ele>
        <time>2022-02-13T08:53:36Z</time>
      </trkpt>
      <trkpt lat="46.62293" lon="0.25932">
        <ele>91.8</ele>
        <time>2022-02-13T08:53:37Z</time>
      </trkpt>
      <trkpt lat="46.62306" lon="0.25927">
        <ele>89.4</ele>
        <time>2022-02-13T08:53:39Z</time>
      </trkpt>
      <trkpt lat="46.62312" lon="0.25922">
        <ele>88.2</ele>
        <time>2022-02-13T08:53:40Z</time>
      </trkpt>
      <trkpt lat="46.62318" lon="0.25915">
        <ele>87.6</ele>
        <time>2022-02-13T08:53:41Z</time>
      </trkpt>
      <trkpt lat="46.62322" lon="0.25907">
        <ele>87.2</ele>
        <time>2022-02-13T08:53:42Z</time>
      </trkpt>
      <trkpt lat="46.62325" lon="0.25899">
        <ele>87</ele>
        <time>2022-02-13T08:53:43Z</time>
      </trkpt>
      <trkpt lat="46.62328" lon="0.25882">
        <ele>86.8</ele>
        <time>2022-02-13T08:53:45Z</time>
      </trkpt>
      <trkpt lat="46.62324" lon="0.25864">
        <ele>86.6</ele>
        <time>2022-02-13T08:53:47Z</time>
      </trkpt>
      <trkpt lat="46.62323" lon="0.25855">
        <ele>86.6</ele>
        <time>2022-02-13T08:53:48Z</time>
      </trkpt>
      <trkpt lat="46.62312" lon="0.25802">
        <ele>87.8</ele>
        <time>2022-02-13T08:53:54Z</time>
      </trkpt>
      <trkpt lat="46.62303" lon="0.25753">
        <ele>88</ele>
        <time>2022-02-13T08:54:00Z</time>
      </trkpt>
      <trkpt lat="46.62302" lon="0.25745">
        <ele>88.2</ele>
        <time>2022-02-13T08:54:01Z</time>
      </trkpt>
      <trkpt lat="46.62294" lon="0.25712">
        <ele>88.8</ele>
        <time>2022-02-13T08:54:06Z</time>
      </trkpt>
      <trkpt lat="46.62287" lon="0.25696">
        <ele>89.4</ele>
        <time>2022-02-13T08:54:09Z</time>
      </trkpt>
      <trkpt lat="46.62281" lon="0.25676">
        <ele>89.6</ele>
        <time>2022-02-13T08:54:13Z</time>
      </trkpt>
      <trkpt lat="46.62279" lon="0.25662">
        <ele>89.6</ele>
        <time>2022-02-13T08:54:16Z</time>
      </trkpt>
      <trkpt lat="46.62278" lon="0.25645">
        <ele>89</ele>
        <time>2022-02-13T08:54:19Z</time>
      </trkpt>
      <trkpt lat="46.62279" lon="0.25632">
        <ele>88.2</ele>
        <time>2022-02-13T08:54:21Z</time>
      </trkpt>
      <trkpt lat="46.62278" lon="0.25625">
        <ele>87.8</ele>
        <time>2022-02-13T08:54:22Z</time>
      </trkpt>
      <trkpt lat="46.62273" lon="0.2561">
        <ele>87.6</ele>
        <time>2022-02-13T08:54:24Z</time>
      </trkpt>
      <trkpt lat="46.6227" lon="0.25603">
        <ele>87.2</ele>
        <time>2022-02-13T08:54:25Z</time>
      </trkpt>
      <trkpt lat="46.6225" lon="0.25565">
        <ele>87.2</ele>
        <time>2022-02-13T08:54:30Z</time>
      </trkpt>
      <trkpt lat="46.62225" lon="0.25523">
        <ele>87</ele>
        <time>2022-02-13T08:54:36Z</time>
      </trkpt>
      <trkpt lat="46.62201" lon="0.25487">
        <ele>87.2</ele>
        <time>2022-02-13T08:54:41Z</time>
      </trkpt>
      <trkpt lat="46.62179" lon="0.2546">
        <ele>87.2</ele>
        <time>2022-02-13T08:54:46Z</time>
      </trkpt>
      <trkpt lat="46.62169" lon="0.25448">
        <ele>87.2</ele>
        <time>2022-02-13T08:54:48Z</time>
      </trkpt>
      <trkpt lat="46.62165" lon="0.25442">
        <ele>87.2</ele>
        <time>2022-02-13T08:54:49Z</time>
      </trkpt>
      <trkpt lat="46.62145" lon="0.25412">
        <ele>87.2</ele>
        <time>2022-02-13T08:54:54Z</time>
      </trkpt>
      <trkpt lat="46.6212" lon="0.25386">
        <ele>87.4</ele>
        <time>2022-02-13T08:54:59Z</time>
      </trkpt>
      <trkpt lat="46.62082" lon="0.25343">
        <ele>87.2</ele>
        <time>2022-02-13T08:55:07Z</time>
      </trkpt>
      <trkpt lat="46.62069" lon="0.25328">
        <ele>87.2</ele>
        <time>2022-02-13T08:55:10Z</time>
      </trkpt>
      <trkpt lat="46.62061" lon="0.2532">
        <ele>87.2</ele>
        <time>2022-02-13T08:55:12Z</time>
      </trkpt>
      <trkpt lat="46.62035" lon="0.25289">
        <ele>87</ele>
        <time>2022-02-13T08:55:18Z</time>
      </trkpt>
      <trkpt lat="46.62015" lon="0.25268">
        <ele>87.4</ele>
        <time>2022-02-13T08:55:22Z</time>
      </trkpt>
      <trkpt lat="46.62003" lon="0.25256">
        <ele>87.4</ele>
        <time>2022-02-13T08:55:24Z</time>
      </trkpt>
      <trkpt lat="46.61959" lon="0.25223">
        <ele>87.2</ele>
        <time>2022-02-13T08:55:32Z</time>
      </trkpt>
      <trkpt lat="46.61953" lon="0.2522">
        <ele>87.2</ele>
        <time>2022-02-13T08:55:33Z</time>
      </trkpt>
      <trkpt lat="46.61941" lon="0.25211">
        <ele>86.8</ele>
        <time>2022-02-13T08:55:36Z</time>
      </trkpt>
      <trkpt lat="46.61931" lon="0.25205">
        <ele>86.8</ele>
        <time>2022-02-13T08:55:38Z</time>
      </trkpt>
      <trkpt lat="46.61914" lon="0.25196">
        <ele>86.8</ele>
        <time>2022-02-13T08:55:41Z</time>
      </trkpt>
      <trkpt lat="46.61904" lon="0.25186">
        <ele>87.2</ele>
        <time>2022-02-13T08:55:43Z</time>
      </trkpt>
      <trkpt lat="46.6187" lon="0.25162">
        <ele>87.4</ele>
        <time>2022-02-13T08:55:49Z</time>
      </trkpt>
      <trkpt lat="46.61859" lon="0.25156">
        <ele>87.6</ele>
        <time>2022-02-13T08:55:51Z</time>
      </trkpt>
      <trkpt lat="46.61834" lon="0.25147">
        <ele>87.8</ele>
        <time>2022-02-13T08:55:55Z</time>
      </trkpt>
      <trkpt lat="46.61829" lon="0.25146">
        <ele>88</ele>
        <time>2022-02-13T08:55:56Z</time>
      </trkpt>
      <trkpt lat="46.61818" lon="0.25145">
        <ele>88.2</ele>
        <time>2022-02-13T08:55:58Z</time>
      </trkpt>
      <trkpt lat="46.61811" lon="0.25144">
        <ele>89.2</ele>
        <time>2022-02-13T08:56:00Z</time>
      </trkpt>
      <trkpt lat="46.61804" lon="0.25143">
        <ele>90.4</ele>
        <time>2022-02-13T08:56:02Z</time>
      </trkpt>
      <trkpt lat="46.61789" lon="0.25138">
        <ele>91.2</ele>
        <time>2022-02-13T08:56:06Z</time>
      </trkpt>
      <trkpt lat="46.61783" lon="0.25135">
        <ele>91.6</ele>
        <time>2022-02-13T08:56:08Z</time>
      </trkpt>
      <trkpt lat="46.61777" lon="0.25132">
        <ele>92.6</ele>
        <time>2022-02-13T08:56:10Z</time>
      </trkpt>
      <trkpt lat="46.61769" lon="0.25131">
        <ele>93.4</ele>
        <time>2022-02-13T08:56:12Z</time>
      </trkpt>
      <trkpt lat="46.61766" lon="0.25131">
        <ele>93.8</ele>
        <time>2022-02-13T08:56:13Z</time>
      </trkpt>
      <trkpt lat="46.61759" lon="0.25133">
        <ele>94.8</ele>
        <time>2022-02-13T08:56:15Z</time>
      </trkpt>
      <trkpt lat="46.61752" lon="0.25134">
        <ele>95.2</ele>
        <time>2022-02-13T08:56:17Z</time>
      </trkpt>
      <trkpt lat="46.61747" lon="0.25128">
        <ele>95.2</ele>
        <time>2022-02-13T08:56:19Z</time>
      </trkpt>
      <trkpt lat="46.61743" lon="0.25119">
        <ele>94</ele>
        <time>2022-02-13T08:56:21Z</time>
      </trkpt>
      <trkpt lat="46.61739" lon="0.25117">
        <ele>93.4</ele>
        <time>2022-02-13T08:56:22Z</time>
      </trkpt>
      <trkpt lat="46.61735" lon="0.25116">
        <ele>92.6</ele>
        <time>2022-02-13T08:56:23Z</time>
      </trkpt>
      <trkpt lat="46.61732" lon="0.25115">
        <ele>92.2</ele>
        <time>2022-02-13T08:56:24Z</time>
      </trkpt>
      <trkpt lat="46.61729" lon="0.25115">
        <ele>92</ele>
        <time>2022-02-13T08:56:25Z</time>
      </trkpt>
      <trkpt lat="46.61724" lon="0.25116">
        <ele>91.8</ele>
        <time>2022-02-13T08:56:27Z</time>
      </trkpt>
      <trkpt lat="46.61718" lon="0.25118">
        <ele>91.8</ele>
        <time>2022-02-13T08:56:29Z</time>
      </trkpt>
      <trkpt lat="46.61712" lon="0.25122">
        <ele>92.4</ele>
        <time>2022-02-13T08:56:31Z</time>
      </trkpt>
      <trkpt lat="46.61708" lon="0.25124">
        <ele>92.6</ele>
        <time>2022-02-13T08:56:32Z</time>
      </trkpt>
      <trkpt lat="46.617" lon="0.25127">
        <ele>93</ele>
        <time>2022-02-13T08:56:34Z</time>
      </trkpt>
      <trkpt lat="46.6169" lon="0.2513">
        <ele>93</ele>
        <time>2022-02-13T08:56:36Z</time>
      </trkpt>
      <trkpt lat="46.61663" lon="0.25139">
        <ele>92.6</ele>
        <time>2022-02-13T08:56:42Z</time>
      </trkpt>
      <trkpt lat="46.61651" lon="0.25142">
        <ele>92.6</ele>
        <time>2022-02-13T08:56:45Z</time>
      </trkpt>
      <trkpt lat="46.61644" lon="0.25146">
        <ele>93.2</ele>
        <time>2022-02-13T08:56:47Z</time>
      </trkpt>
      <trkpt lat="46.61635" lon="0.25148">
        <ele>94.4</ele>
        <time>2022-02-13T08:56:50Z</time>
      </trkpt>
      <trkpt lat="46.61626" lon="0.25154">
        <ele>95.4</ele>
        <time>2022-02-13T08:56:53Z</time>
      </trkpt>
      <trkpt lat="46.61624" lon="0.25155">
        <ele>95.8</ele>
        <time>2022-02-13T08:56:54Z</time>
      </trkpt>
      <trkpt lat="46.6161" lon="0.25168">
        <ele>97.2</ele>
        <time>2022-02-13T08:56:59Z</time>
      </trkpt>
      <trkpt lat="46.61603" lon="0.25172">
        <ele>97.6</ele>
        <time>2022-02-13T08:57:01Z</time>
      </trkpt>
      <trkpt lat="46.61585" lon="0.25178">
        <ele>97.4</ele>
        <time>2022-02-13T08:57:05Z</time>
      </trkpt>
      <trkpt lat="46.6158" lon="0.25181">
        <ele>97.2</ele>
        <time>2022-02-13T08:57:06Z</time>
      </trkpt>
      <trkpt lat="46.61567" lon="0.25188">
        <ele>96.6</ele>
        <time>2022-02-13T08:57:09Z</time>
      </trkpt>
      <trkpt lat="46.61563" lon="0.25189">
        <ele>96.2</ele>
        <time>2022-02-13T08:57:10Z</time>
      </trkpt>
      <trkpt lat="46.61558" lon="0.2519">
        <ele>96</ele>
        <time>2022-02-13T08:57:11Z</time>
      </trkpt>
      <trkpt lat="46.61546" lon="0.25194">
        <ele>95.8</ele>
        <time>2022-02-13T08:57:13Z</time>
      </trkpt>
      <trkpt lat="46.61542" lon="0.25197">
        <ele>95.6</ele>
        <time>2022-02-13T08:57:14Z</time>
      </trkpt>
      <trkpt lat="46.61534" lon="0.25204">
        <ele>95.8</ele>
        <time>2022-02-13T08:57:16Z</time>
      </trkpt>
      <trkpt lat="46.61524" lon="0.25209">
        <ele>95.8</ele>
        <time>2022-02-13T08:57:18Z</time>
      </trkpt>
      <trkpt lat="46.61511" lon="0.25214">
        <ele>95.6</ele>
        <time>2022-02-13T08:57:21Z</time>
      </trkpt>
      <trkpt lat="46.61504" lon="0.25215">
        <ele>95</ele>
        <time>2022-02-13T08:57:23Z</time>
      </trkpt>
      <trkpt lat="46.615" lon="0.25216">
        <ele>94.8</ele>
        <time>2022-02-13T08:57:24Z</time>
      </trkpt>
      <trkpt lat="46.61493" lon="0.25218">
        <ele>93.8</ele>
        <time>2022-02-13T08:57:26Z</time>
      </trkpt>
      <trkpt lat="46.6149" lon="0.25219">
        <ele>93</ele>
        <time>2022-02-13T08:57:27Z</time>
      </trkpt>
      <trkpt lat="46.61487" lon="0.25222">
        <ele>92.4</ele>
        <time>2022-02-13T08:57:28Z</time>
      </trkpt>
      <trkpt lat="46.61484" lon="0.25225">
        <ele>91.6</ele>
        <time>2022-02-13T08:57:29Z</time>
      </trkpt>
      <trkpt lat="46.61483" lon="0.25229">
        <ele>91</ele>
        <time>2022-02-13T08:57:30Z</time>
      </trkpt>
      <trkpt lat="46.61481" lon="0.25232">
        <ele>90.6</ele>
        <time>2022-02-13T08:57:31Z</time>
      </trkpt>
      <trkpt lat="46.6148" lon="0.25236">
        <ele>90.4</ele>
        <time>2022-02-13T08:57:32Z</time>
      </trkpt>
      <trkpt lat="46.6148" lon="0.2524">
        <ele>90.2</ele>
        <time>2022-02-13T08:57:33Z</time>
      </trkpt>
      <trkpt lat="46.61481" lon="0.25248">
        <ele>90</ele>
        <time>2022-02-13T08:57:35Z</time>
      </trkpt>
      <trkpt lat="46.61481" lon="0.25256">
        <ele>90</ele>
        <time>2022-02-13T08:57:37Z</time>
      </trkpt>
      <trkpt lat="46.6148" lon="0.25285">
        <ele>90</ele>
        <time>2022-02-13T08:57:42Z</time>
      </trkpt>
      <trkpt lat="46.61479" lon="0.25326">
        <ele>90</ele>
        <time>2022-02-13T08:57:49Z</time>
      </trkpt>
      <trkpt lat="46.61479" lon="0.25333">
        <ele>89.8</ele>
        <time>2022-02-13T08:57:50Z</time>
      </trkpt>
      <trkpt lat="46.61483" lon="0.2535">
        <ele>90</ele>
        <time>2022-02-13T08:57:53Z</time>
      </trkpt>
      <trkpt lat="46.61486" lon="0.25355">
        <ele>90</ele>
        <time>2022-02-13T08:57:54Z</time>
      </trkpt>
      <trkpt lat="46.61485" lon="0.25365">
        <ele>90</ele>
        <time>2022-02-13T08:57:55Z</time>
      </trkpt>
      <trkpt lat="46.61484" lon="0.2538">
        <ele>90</ele>
        <time>2022-02-13T08:57:57Z</time>
      </trkpt>
      <trkpt lat="46.61482" lon="0.2539">
        <ele>90</ele>
        <time>2022-02-13T08:57:58Z</time>
      </trkpt>
      <trkpt lat="46.61479" lon="0.254">
        <ele>90</ele>
        <time>2022-02-13T08:57:59Z</time>
      </trkpt>
      <trkpt lat="46.61469" lon="0.25443">
        <ele>89.4</ele>
        <time>2022-02-13T08:58:04Z</time>
      </trkpt>
      <trkpt lat="46.61466" lon="0.2546">
        <ele>89</ele>
        <time>2022-02-13T08:58:06Z</time>
      </trkpt>
      <trkpt lat="46.61457" lon="0.25491">
        <ele>88.6</ele>
        <time>2022-02-13T08:58:09Z</time>
      </trkpt>
      <trkpt lat="46.61457" lon="0.25503">
        <ele>88.6</ele>
        <time>2022-02-13T08:58:10Z</time>
      </trkpt>
      <trkpt lat="46.61454" lon="0.25525">
        <ele>88.8</ele>
        <time>2022-02-13T08:58:12Z</time>
      </trkpt>
      <trkpt lat="46.6145" lon="0.25536">
        <ele>88.8</ele>
        <time>2022-02-13T08:58:13Z</time>
      </trkpt>
      <trkpt lat="46.61446" lon="0.25547">
        <ele>89</ele>
        <time>2022-02-13T08:58:14Z</time>
      </trkpt>
      <trkpt lat="46.6144" lon="0.25575">
        <ele>89.4</ele>
        <time>2022-02-13T08:58:17Z</time>
      </trkpt>
      <trkpt lat="46.61437" lon="0.25616">
        <ele>90.2</ele>
        <time>2022-02-13T08:58:22Z</time>
      </trkpt>
      <trkpt lat="46.61429" lon="0.25634">
        <ele>90.8</ele>
        <time>2022-02-13T08:58:24Z</time>
      </trkpt>
      <trkpt lat="46.6141" lon="0.25683">
        <ele>91</ele>
        <time>2022-02-13T08:58:30Z</time>
      </trkpt>
      <trkpt lat="46.61388" lon="0.25734">
        <ele>91</ele>
        <time>2022-02-13T08:58:36Z</time>
      </trkpt>
      <trkpt lat="46.61382" lon="0.25757">
        <ele>91.2</ele>
        <time>2022-02-13T08:58:38Z</time>
      </trkpt>
      <trkpt lat="46.61369" lon="0.25794">
        <ele>92.8</ele>
        <time>2022-02-13T08:58:42Z</time>
      </trkpt>
      <trkpt lat="46.61361" lon="0.25814">
        <ele>93.8</ele>
        <time>2022-02-13T08:58:45Z</time>
      </trkpt>
      <trkpt lat="46.61359" lon="0.25818">
        <ele>94</ele>
        <time>2022-02-13T08:58:46Z</time>
      </trkpt>
      <trkpt lat="46.61356" lon="0.2582">
        <ele>94.4</ele>
        <time>2022-02-13T08:58:47Z</time>
      </trkpt>
      <trkpt lat="46.6135" lon="0.25823">
        <ele>95</ele>
        <time>2022-02-13T08:58:49Z</time>
      </trkpt>
      <trkpt lat="46.61337" lon="0.2583">
        <ele>94.4</ele>
        <time>2022-02-13T08:58:52Z</time>
      </trkpt>
      <trkpt lat="46.61327" lon="0.25837">
        <ele>94</ele>
        <time>2022-02-13T08:58:54Z</time>
      </trkpt>
      <trkpt lat="46.61304" lon="0.25853">
        <ele>92.8</ele>
        <time>2022-02-13T08:58:58Z</time>
      </trkpt>
      <trkpt lat="46.61284" lon="0.25868">
        <ele>91.6</ele>
        <time>2022-02-13T08:59:01Z</time>
      </trkpt>
      <trkpt lat="46.61272" lon="0.25876">
        <ele>90.8</ele>
        <time>2022-02-13T08:59:03Z</time>
      </trkpt>
      <trkpt lat="46.61266" lon="0.25881">
        <ele>90.4</ele>
        <time>2022-02-13T08:59:04Z</time>
      </trkpt>
      <trkpt lat="46.61248" lon="0.25896">
        <ele>90.2</ele>
        <time>2022-02-13T08:59:07Z</time>
      </trkpt>
      <trkpt lat="46.6123" lon="0.25912">
        <ele>89.4</ele>
        <time>2022-02-13T08:59:10Z</time>
      </trkpt>
      <trkpt lat="46.61215" lon="0.25926">
        <ele>89.2</ele>
        <time>2022-02-13T08:59:13Z</time>
      </trkpt>
      <trkpt lat="46.61205" lon="0.25933">
        <ele>89.4</ele>
        <time>2022-02-13T08:59:15Z</time>
      </trkpt>
      <trkpt lat="46.61195" lon="0.25937">
        <ele>90.4</ele>
        <time>2022-02-13T08:59:17Z</time>
      </trkpt>
      <trkpt lat="46.6119" lon="0.25938">
        <ele>90.8</ele>
        <time>2022-02-13T08:59:18Z</time>
      </trkpt>
      <trkpt lat="46.61185" lon="0.2594">
        <ele>91</ele>
        <time>2022-02-13T08:59:19Z</time>
      </trkpt>
      <trkpt lat="46.61175" lon="0.25942">
        <ele>91.2</ele>
        <time>2022-02-13T08:59:21Z</time>
      </trkpt>
      <trkpt lat="46.61155" lon="0.25941">
        <ele>91.4</ele>
        <time>2022-02-13T08:59:24Z</time>
      </trkpt>
      <trkpt lat="46.61135" lon="0.25937">
        <ele>91.6</ele>
        <time>2022-02-13T08:59:27Z</time>
      </trkpt>
      <trkpt lat="46.61126" lon="0.2593">
        <ele>91.2</ele>
        <time>2022-02-13T08:59:29Z</time>
      </trkpt>
      <trkpt lat="46.6112" lon="0.25925">
        <ele>90.8</ele>
        <time>2022-02-13T08:59:31Z</time>
      </trkpt>
      <trkpt lat="46.61114" lon="0.25925">
        <ele>90</ele>
        <time>2022-02-13T08:59:33Z</time>
      </trkpt>
      <trkpt lat="46.61111" lon="0.25925">
        <ele>89.6</ele>
        <time>2022-02-13T08:59:34Z</time>
      </trkpt>
      <trkpt lat="46.61099" lon="0.25923">
        <ele>89.4</ele>
        <time>2022-02-13T08:59:39Z</time>
      </trkpt>
      <trkpt lat="46.61085" lon="0.25911">
        <ele>90</ele>
        <time>2022-02-13T08:59:43Z</time>
      </trkpt>
      <trkpt lat="46.61062" lon="0.25893">
        <ele>89.6</ele>
        <time>2022-02-13T08:59:49Z</time>
      </trkpt>
      <trkpt lat="46.61055" lon="0.25889">
        <ele>89.2</ele>
        <time>2022-02-13T08:59:51Z</time>
      </trkpt>
      <trkpt lat="46.61045" lon="0.25885">
        <ele>89.2</ele>
        <time>2022-02-13T08:59:53Z</time>
      </trkpt>
      <trkpt lat="46.61036" lon="0.25884">
        <ele>89.6</ele>
        <time>2022-02-13T08:59:55Z</time>
      </trkpt>
      <trkpt lat="46.61017" lon="0.25868">
        <ele>90.2</ele>
        <time>2022-02-13T09:00:00Z</time>
      </trkpt>
      <trkpt lat="46.61014" lon="0.25864">
        <ele>90.4</ele>
        <time>2022-02-13T09:00:01Z</time>
      </trkpt>
      <trkpt lat="46.61002" lon="0.2585">
        <ele>90.8</ele>
        <time>2022-02-13T09:00:04Z</time>
      </trkpt>
      <trkpt lat="46.60998" lon="0.25846">
        <ele>90.8</ele>
        <time>2022-02-13T09:00:05Z</time>
      </trkpt>
      <trkpt lat="46.60982" lon="0.25821">
        <ele>91.2</ele>
        <time>2022-02-13T09:00:10Z</time>
      </trkpt>
      <trkpt lat="46.60976" lon="0.25808">
        <ele>91</ele>
        <time>2022-02-13T09:00:12Z</time>
      </trkpt>
      <trkpt lat="46.60974" lon="0.25802">
        <ele>90.8</ele>
        <time>2022-02-13T09:00:13Z</time>
      </trkpt>
      <trkpt lat="46.60969" lon="0.25791">
        <ele>90.6</ele>
        <time>2022-02-13T09:00:15Z</time>
      </trkpt>
      <trkpt lat="46.60964" lon="0.25786">
        <ele>90.8</ele>
        <time>2022-02-13T09:00:17Z</time>
      </trkpt>
      <trkpt lat="46.60959" lon="0.2578">
        <ele>90.6</ele>
        <time>2022-02-13T09:00:19Z</time>
      </trkpt>
      <trkpt lat="46.60952" lon="0.25768">
        <ele>90.8</ele>
        <time>2022-02-13T09:00:22Z</time>
      </trkpt>
      <trkpt lat="46.60948" lon="0.25765">
        <ele>90.8</ele>
        <time>2022-02-13T09:00:24Z</time>
      </trkpt>
      <trkpt lat="46.60942" lon="0.25745">
        <ele>91</ele>
        <time>2022-02-13T09:00:29Z</time>
      </trkpt>
      <trkpt lat="46.60929" lon="0.25724">
        <ele>91</ele>
        <time>2022-02-13T09:00:33Z</time>
      </trkpt>
      <trkpt lat="46.60926" lon="0.25719">
        <ele>91</ele>
        <time>2022-02-13T09:00:34Z</time>
      </trkpt>
      <trkpt lat="46.60918" lon="0.25707">
        <ele>90.4</ele>
        <time>2022-02-13T09:00:37Z</time>
      </trkpt>
      <trkpt lat="46.60913" lon="0.25698">
        <ele>90.4</ele>
        <time>2022-02-13T09:00:39Z</time>
      </trkpt>
      <trkpt lat="46.609" lon="0.25676">
        <ele>90.2</ele>
        <time>2022-02-13T09:00:43Z</time>
      </trkpt>
      <trkpt lat="46.60897" lon="0.2567">
        <ele>90.2</ele>
        <time>2022-02-13T09:00:44Z</time>
      </trkpt>
      <trkpt lat="46.60886" lon="0.25638">
        <ele>90.6</ele>
        <time>2022-02-13T09:00:49Z</time>
      </trkpt>
      <trkpt lat="46.60879" lon="0.25615">
        <ele>90.8</ele>
        <time>2022-02-13T09:00:53Z</time>
      </trkpt>
      <trkpt lat="46.60875" lon="0.256">
        <ele>90.6</ele>
        <time>2022-02-13T09:00:55Z</time>
      </trkpt>
      <trkpt lat="46.60869" lon="0.2559">
        <ele>90.6</ele>
        <time>2022-02-13T09:00:57Z</time>
      </trkpt>
      <trkpt lat="46.60867" lon="0.25585">
        <ele>90.8</ele>
        <time>2022-02-13T09:00:58Z</time>
      </trkpt>
      <trkpt lat="46.60865" lon="0.25575">
        <ele>90.8</ele>
        <time>2022-02-13T09:01:00Z</time>
      </trkpt>
      <trkpt lat="46.60862" lon="0.25562">
        <ele>90.8</ele>
        <time>2022-02-13T09:01:02Z</time>
      </trkpt>
      <trkpt lat="46.60854" lon="0.25537">
        <ele>90.8</ele>
        <time>2022-02-13T09:01:06Z</time>
      </trkpt>
      <trkpt lat="46.60848" lon="0.25519">
        <ele>91.4</ele>
        <time>2022-02-13T09:01:09Z</time>
      </trkpt>
      <trkpt lat="46.60833" lon="0.25482">
        <ele>91.4</ele>
        <time>2022-02-13T09:01:15Z</time>
      </trkpt>
      <trkpt lat="46.60819" lon="0.25443">
        <ele>91.8</ele>
        <time>2022-02-13T09:01:22Z</time>
      </trkpt>
      <trkpt lat="46.60815" lon="0.25436">
        <ele>91.8</ele>
        <time>2022-02-13T09:01:23Z</time>
      </trkpt>
      <trkpt lat="46.60812" lon="0.25428">
        <ele>91.8</ele>
        <time>2022-02-13T09:01:24Z</time>
      </trkpt>
      <trkpt lat="46.60801" lon="0.25415">
        <ele>92.8</ele>
        <time>2022-02-13T09:01:27Z</time>
      </trkpt>
      <trkpt lat="46.60798" lon="0.2541">
        <ele>93</ele>
        <time>2022-02-13T09:01:28Z</time>
      </trkpt>
      <trkpt lat="46.60778" lon="0.25374">
        <ele>93.4</ele>
        <time>2022-02-13T09:01:34Z</time>
      </trkpt>
      <trkpt lat="46.60767" lon="0.25359">
        <ele>93.8</ele>
        <time>2022-02-13T09:01:37Z</time>
      </trkpt>
      <trkpt lat="46.60763" lon="0.25354">
        <ele>93.8</ele>
        <time>2022-02-13T09:01:38Z</time>
      </trkpt>
      <trkpt lat="46.60759" lon="0.25349">
        <ele>93.8</ele>
        <time>2022-02-13T09:01:39Z</time>
      </trkpt>
      <trkpt lat="46.60747" lon="0.25336">
        <ele>94</ele>
        <time>2022-02-13T09:01:42Z</time>
      </trkpt>
      <trkpt lat="46.60739" lon="0.25326">
        <ele>94.2</ele>
        <time>2022-02-13T09:01:44Z</time>
      </trkpt>
      <trkpt lat="46.6073" lon="0.2532">
        <ele>94.4</ele>
        <time>2022-02-13T09:01:46Z</time>
      </trkpt>
      <trkpt lat="46.60721" lon="0.25315">
        <ele>94.4</ele>
        <time>2022-02-13T09:01:48Z</time>
      </trkpt>
      <trkpt lat="46.60692" lon="0.25296">
        <ele>94.8</ele>
        <time>2022-02-13T09:01:55Z</time>
      </trkpt>
      <trkpt lat="46.60688" lon="0.25292">
        <ele>94.8</ele>
        <time>2022-02-13T09:01:56Z</time>
      </trkpt>
      <trkpt lat="46.60684" lon="0.25291">
        <ele>94.8</ele>
        <time>2022-02-13T09:01:57Z</time>
      </trkpt>
      <trkpt lat="46.60663" lon="0.25284">
        <ele>95.2</ele>
        <time>2022-02-13T09:02:02Z</time>
      </trkpt>
      <trkpt lat="46.60657" lon="0.25282">
        <ele>95.6</ele>
        <time>2022-02-13T09:02:04Z</time>
      </trkpt>
      <trkpt lat="46.6065" lon="0.2528">
        <ele>96</ele>
        <time>2022-02-13T09:02:06Z</time>
      </trkpt>
      <trkpt lat="46.60638" lon="0.25279">
        <ele>96.2</ele>
        <time>2022-02-13T09:02:08Z</time>
      </trkpt>
      <trkpt lat="46.60597" lon="0.25268">
        <ele>96.6</ele>
        <time>2022-02-13T09:02:17Z</time>
      </trkpt>
      <trkpt lat="46.60584" lon="0.25264">
        <ele>97.2</ele>
        <time>2022-02-13T09:02:20Z</time>
      </trkpt>
      <trkpt lat="46.60576" lon="0.25261">
        <ele>97.6</ele>
        <time>2022-02-13T09:02:22Z</time>
      </trkpt>
      <trkpt lat="46.60569" lon="0.2526">
        <ele>97.8</ele>
        <time>2022-02-13T09:02:24Z</time>
      </trkpt>
      <trkpt lat="46.60563" lon="0.25257">
        <ele>98</ele>
        <time>2022-02-13T09:02:26Z</time>
      </trkpt>
      <trkpt lat="46.60557" lon="0.25255">
        <ele>98.2</ele>
        <time>2022-02-13T09:02:28Z</time>
      </trkpt>
      <trkpt lat="46.60554" lon="0.25254">
        <ele>98.2</ele>
        <time>2022-02-13T09:02:29Z</time>
      </trkpt>
      <trkpt lat="46.60547" lon="0.25253">
        <ele>98.4</ele>
        <time>2022-02-13T09:02:31Z</time>
      </trkpt>
      <trkpt lat="46.60544" lon="0.25252">
        <ele>98.6</ele>
        <time>2022-02-13T09:02:32Z</time>
      </trkpt>
      <trkpt lat="46.60517" lon="0.25244">
        <ele>98.6</ele>
        <time>2022-02-13T09:02:38Z</time>
      </trkpt>
      <trkpt lat="46.60503" lon="0.25243">
        <ele>98.8</ele>
        <time>2022-02-13T09:02:41Z</time>
      </trkpt>
      <trkpt lat="46.60481" lon="0.25241">
        <ele>99.2</ele>
        <time>2022-02-13T09:02:45Z</time>
      </trkpt>
      <trkpt lat="46.60456" lon="0.25233">
        <ele>99.4</ele>
        <time>2022-02-13T09:02:51Z</time>
      </trkpt>
      <trkpt lat="46.60429" lon="0.25229">
        <ele>99.6</ele>
        <time>2022-02-13T09:02:58Z</time>
      </trkpt>
      <trkpt lat="46.60405" lon="0.25226">
        <ele>100.2</ele>
        <time>2022-02-13T09:03:04Z</time>
      </trkpt>
      <trkpt lat="46.60393" lon="0.25227">
        <ele>100.2</ele>
        <time>2022-02-13T09:03:07Z</time>
      </trkpt>
      <trkpt lat="46.60384" lon="0.25221">
        <ele>100.6</ele>
        <time>2022-02-13T09:03:09Z</time>
      </trkpt>
      <trkpt lat="46.60373" lon="0.25212">
        <ele>101.4</ele>
        <time>2022-02-13T09:03:12Z</time>
      </trkpt>
      <trkpt lat="46.60362" lon="0.25201">
        <ele>101.6</ele>
        <time>2022-02-13T09:03:15Z</time>
      </trkpt>
      <trkpt lat="46.60356" lon="0.25194">
        <ele>101.4</ele>
        <time>2022-02-13T09:03:17Z</time>
      </trkpt>
      <trkpt lat="46.60344" lon="0.2518">
        <ele>101.8</ele>
        <time>2022-02-13T09:03:21Z</time>
      </trkpt>
      <trkpt lat="46.60337" lon="0.25167">
        <ele>102.4</ele>
        <time>2022-02-13T09:03:25Z</time>
      </trkpt>
      <trkpt lat="46.60333" lon="0.2516">
        <ele>102.8</ele>
        <time>2022-02-13T09:03:27Z</time>
      </trkpt>
      <trkpt lat="46.60327" lon="0.25147">
        <ele>103.6</ele>
        <time>2022-02-13T09:03:31Z</time>
      </trkpt>
      <trkpt lat="46.60327" lon="0.2514">
        <ele>104</ele>
        <time>2022-02-13T09:03:33Z</time>
      </trkpt>
      <trkpt lat="46.60335" lon="0.25123">
        <ele>104.2</ele>
        <time>2022-02-13T09:03:37Z</time>
      </trkpt>
      <trkpt lat="46.60346" lon="0.25112">
        <ele>103.8</ele>
        <time>2022-02-13T09:03:40Z</time>
      </trkpt>
      <trkpt lat="46.60351" lon="0.251">
        <ele>103.2</ele>
        <time>2022-02-13T09:03:42Z</time>
      </trkpt>
      <trkpt lat="46.60353" lon="0.25087">
        <ele>103</ele>
        <time>2022-02-13T09:03:44Z</time>
      </trkpt>
      <trkpt lat="46.60353" lon="0.25074">
        <ele>103.2</ele>
        <time>2022-02-13T09:03:46Z</time>
      </trkpt>
      <trkpt lat="46.60345" lon="0.25035">
        <ele>104.6</ele>
        <time>2022-02-13T09:03:53Z</time>
      </trkpt>
      <trkpt lat="46.60344" lon="0.2503">
        <ele>104.6</ele>
        <time>2022-02-13T09:03:54Z</time>
      </trkpt>
      <trkpt lat="46.60333" lon="0.24997">
        <ele>105.6</ele>
        <time>2022-02-13T09:04:01Z</time>
      </trkpt>
      <trkpt lat="46.60332" lon="0.24992">
        <ele>105.8</ele>
        <time>2022-02-13T09:04:02Z</time>
      </trkpt>
      <trkpt lat="46.60322" lon="0.24956">
        <ele>106.6</ele>
        <time>2022-02-13T09:04:09Z</time>
      </trkpt>
      <trkpt lat="46.60319" lon="0.24941">
        <ele>106.8</ele>
        <time>2022-02-13T09:04:12Z</time>
      </trkpt>
      <trkpt lat="46.60313" lon="0.24919">
        <ele>107</ele>
        <time>2022-02-13T09:04:16Z</time>
      </trkpt>
      <trkpt lat="46.60299" lon="0.24874">
        <ele>107.2</ele>
        <time>2022-02-13T09:04:24Z</time>
      </trkpt>
      <trkpt lat="46.60286" lon="0.24847">
        <ele>106.8</ele>
        <time>2022-02-13T09:04:29Z</time>
      </trkpt>
      <trkpt lat="46.60278" lon="0.24831">
        <ele>106.8</ele>
        <time>2022-02-13T09:04:32Z</time>
      </trkpt>
      <trkpt lat="46.60256" lon="0.24782">
        <ele>107</ele>
        <time>2022-02-13T09:04:40Z</time>
      </trkpt>
      <trkpt lat="46.60255" lon="0.24775">
        <ele>107.4</ele>
        <time>2022-02-13T09:04:41Z</time>
      </trkpt>
      <trkpt lat="46.60254" lon="0.24769">
        <ele>107.6</ele>
        <time>2022-02-13T09:04:42Z</time>
      </trkpt>
      <trkpt lat="46.60254" lon="0.24756">
        <ele>108</ele>
        <time>2022-02-13T09:04:44Z</time>
      </trkpt>
      <trkpt lat="46.60256" lon="0.2475">
        <ele>108</ele>
        <time>2022-02-13T09:04:45Z</time>
      </trkpt>
      <trkpt lat="46.60263" lon="0.24721">
        <ele>109</ele>
        <time>2022-02-13T09:04:50Z</time>
      </trkpt>
      <trkpt lat="46.60265" lon="0.2471">
        <ele>109.2</ele>
        <time>2022-02-13T09:04:52Z</time>
      </trkpt>
      <trkpt lat="46.60268" lon="0.24687">
        <ele>110.2</ele>
        <time>2022-02-13T09:04:56Z</time>
      </trkpt>
      <trkpt lat="46.6027" lon="0.24673">
        <ele>110.8</ele>
        <time>2022-02-13T09:04:59Z</time>
      </trkpt>
      <trkpt lat="46.60271" lon="0.24664">
        <ele>111.2</ele>
        <time>2022-02-13T09:05:01Z</time>
      </trkpt>
      <trkpt lat="46.60271" lon="0.24654">
        <ele>111.6</ele>
        <time>2022-02-13T09:05:03Z</time>
      </trkpt>
      <trkpt lat="46.60273" lon="0.24639">
        <ele>112.2</ele>
        <time>2022-02-13T09:05:06Z</time>
      </trkpt>
      <trkpt lat="46.60273" lon="0.24634">
        <ele>112.6</ele>
        <time>2022-02-13T09:05:07Z</time>
      </trkpt>
      <trkpt lat="46.60277" lon="0.24591">
        <ele>113</ele>
        <time>2022-02-13T09:05:16Z</time>
      </trkpt>
      <trkpt lat="46.60281" lon="0.24562">
        <ele>113.2</ele>
        <time>2022-02-13T09:05:23Z</time>
      </trkpt>
      <trkpt lat="46.60288" lon="0.24539">
        <ele>113</ele>
        <time>2022-02-13T09:05:28Z</time>
      </trkpt>
      <trkpt lat="46.6029" lon="0.24535">
        <ele>113</ele>
        <time>2022-02-13T09:05:29Z</time>
      </trkpt>
      <trkpt lat="46.60295" lon="0.24525">
        <ele>112.8</ele>
        <time>2022-02-13T09:05:31Z</time>
      </trkpt>
      <trkpt lat="46.60298" lon="0.2452">
        <ele>112.8</ele>
        <time>2022-02-13T09:05:32Z</time>
      </trkpt>
      <trkpt lat="46.60313" lon="0.24511">
        <ele>112.8</ele>
        <time>2022-02-13T09:05:35Z</time>
      </trkpt>
      <trkpt lat="46.60328" lon="0.24505">
        <ele>112.4</ele>
        <time>2022-02-13T09:05:38Z</time>
      </trkpt>
      <trkpt lat="46.60343" lon="0.245">
        <ele>112.4</ele>
        <time>2022-02-13T09:05:41Z</time>
      </trkpt>
      <trkpt lat="46.60355" lon="0.245">
        <ele>112.2</ele>
        <time>2022-02-13T09:05:43Z</time>
      </trkpt>
      <trkpt lat="46.60367" lon="0.24503">
        <ele>112.2</ele>
        <time>2022-02-13T09:05:45Z</time>
      </trkpt>
      <trkpt lat="46.6039" lon="0.24512">
        <ele>111.6</ele>
        <time>2022-02-13T09:05:49Z</time>
      </trkpt>
      <trkpt lat="46.60404" lon="0.2452">
        <ele>111.2</ele>
        <time>2022-02-13T09:05:52Z</time>
      </trkpt>
      <trkpt lat="46.60418" lon="0.24528">
        <ele>110.6</ele>
        <time>2022-02-13T09:05:55Z</time>
      </trkpt>
      <trkpt lat="46.60429" lon="0.24531">
        <ele>110.2</ele>
        <time>2022-02-13T09:05:57Z</time>
      </trkpt>
      <trkpt lat="46.60439" lon="0.24534">
        <ele>109.8</ele>
        <time>2022-02-13T09:05:59Z</time>
      </trkpt>
      <trkpt lat="46.60441" lon="0.24533">
        <ele>109.4</ele>
        <time>2022-02-13T09:06:00Z</time>
      </trkpt>
      <trkpt lat="46.60444" lon="0.24531">
        <ele>109.4</ele>
        <time>2022-02-13T09:06:01Z</time>
      </trkpt>
      <trkpt lat="46.60446" lon="0.24525">
        <ele>109.2</ele>
        <time>2022-02-13T09:06:03Z</time>
      </trkpt>
      <trkpt lat="46.60446" lon="0.24522">
        <ele>109.2</ele>
        <time>2022-02-13T09:06:04Z</time>
      </trkpt>
      <trkpt lat="46.60451" lon="0.2449">
        <ele>109.4</ele>
        <time>2022-02-13T09:06:10Z</time>
      </trkpt>
      <trkpt lat="46.60454" lon="0.24466">
        <ele>108.6</ele>
        <time>2022-02-13T09:06:14Z</time>
      </trkpt>
      <trkpt lat="46.60452" lon="0.24456">
        <ele>108</ele>
        <time>2022-02-13T09:06:16Z</time>
      </trkpt>
      <trkpt lat="46.60448" lon="0.24446">
        <ele>107.6</ele>
        <time>2022-02-13T09:06:18Z</time>
      </trkpt>
      <trkpt lat="46.60445" lon="0.24436">
        <ele>107</ele>
        <time>2022-02-13T09:06:20Z</time>
      </trkpt>
      <trkpt lat="46.60441" lon="0.24424">
        <ele>106.6</ele>
        <time>2022-02-13T09:06:22Z</time>
      </trkpt>
      <trkpt lat="46.60438" lon="0.24419">
        <ele>106</ele>
        <time>2022-02-13T09:06:23Z</time>
      </trkpt>
      <trkpt lat="46.60433" lon="0.24411">
        <ele>105.6</ele>
        <time>2022-02-13T09:06:25Z</time>
      </trkpt>
      <trkpt lat="46.6043" lon="0.24408">
        <ele>105.2</ele>
        <time>2022-02-13T09:06:26Z</time>
      </trkpt>
      <trkpt lat="46.60425" lon="0.24401">
        <ele>103.2</ele>
        <time>2022-02-13T09:06:28Z</time>
      </trkpt>
      <trkpt lat="46.60419" lon="0.24391">
        <ele>101.8</ele>
        <time>2022-02-13T09:06:30Z</time>
      </trkpt>
      <trkpt lat="46.60417" lon="0.24386">
        <ele>100.6</ele>
        <time>2022-02-13T09:06:31Z</time>
      </trkpt>
      <trkpt lat="46.60415" lon="0.24381">
        <ele>100</ele>
        <time>2022-02-13T09:06:32Z</time>
      </trkpt>
      <trkpt lat="46.60414" lon="0.24374">
        <ele>99.6</ele>
        <time>2022-02-13T09:06:33Z</time>
      </trkpt>
      <trkpt lat="46.60413" lon="0.24366">
        <ele>98</ele>
        <time>2022-02-13T09:06:34Z</time>
      </trkpt>
      <trkpt lat="46.60411" lon="0.24358">
        <ele>96.8</ele>
        <time>2022-02-13T09:06:35Z</time>
      </trkpt>
      <trkpt lat="46.60409" lon="0.24342">
        <ele>95</ele>
        <time>2022-02-13T09:06:37Z</time>
      </trkpt>
      <trkpt lat="46.60406" lon="0.24318">
        <ele>93.6</ele>
        <time>2022-02-13T09:06:40Z</time>
      </trkpt>
      <trkpt lat="46.60403" lon="0.243">
        <ele>93.2</ele>
        <time>2022-02-13T09:06:42Z</time>
      </trkpt>
      <trkpt lat="46.60399" lon="0.24285">
        <ele>92.8</ele>
        <time>2022-02-13T09:06:44Z</time>
      </trkpt>
      <trkpt lat="46.60398" lon="0.24278">
        <ele>92.6</ele>
        <time>2022-02-13T09:06:45Z</time>
      </trkpt>
      <trkpt lat="46.60396" lon="0.24269">
        <ele>92.2</ele>
        <time>2022-02-13T09:06:46Z</time>
      </trkpt>
      <trkpt lat="46.60395" lon="0.24248">
        <ele>91.8</ele>
        <time>2022-02-13T09:06:48Z</time>
      </trkpt>
      <trkpt lat="46.60395" lon="0.24238">
        <ele>91.8</ele>
        <time>2022-02-13T09:06:49Z</time>
      </trkpt>
      <trkpt lat="46.60395" lon="0.24194">
        <ele>94</ele>
        <time>2022-02-13T09:06:56Z</time>
      </trkpt>
      <trkpt lat="46.60396" lon="0.24172">
        <ele>95</ele>
        <time>2022-02-13T09:07:01Z</time>
      </trkpt>
      <trkpt lat="46.60394" lon="0.24161">
        <ele>96.2</ele>
        <time>2022-02-13T09:07:05Z</time>
      </trkpt>
      <trkpt lat="46.60393" lon="0.24153">
        <ele>96.4</ele>
        <time>2022-02-13T09:07:07Z</time>
      </trkpt>
      <trkpt lat="46.60392" lon="0.24145">
        <ele>97.2</ele>
        <time>2022-02-13T09:07:09Z</time>
      </trkpt>
      <trkpt lat="46.60391" lon="0.24131">
        <ele>98.2</ele>
        <time>2022-02-13T09:07:12Z</time>
      </trkpt>
      <trkpt lat="46.60392" lon="0.24121">
        <ele>98.6</ele>
        <time>2022-02-13T09:07:14Z</time>
      </trkpt>
      <trkpt lat="46.60392" lon="0.24078">
        <ele>99</ele>
        <time>2022-02-13T09:07:22Z</time>
      </trkpt>
      <trkpt lat="46.60399" lon="0.2405">
        <ele>98.8</ele>
        <time>2022-02-13T09:07:27Z</time>
      </trkpt>
      <trkpt lat="46.60407" lon="0.24021">
        <ele>98.2</ele>
        <time>2022-02-13T09:07:30Z</time>
      </trkpt>
      <trkpt lat="46.6041" lon="0.24012">
        <ele>97.8</ele>
        <time>2022-02-13T09:07:31Z</time>
      </trkpt>
      <trkpt lat="46.6042" lon="0.2399">
        <ele>97.4</ele>
        <time>2022-02-13T09:07:35Z</time>
      </trkpt>
      <trkpt lat="46.60435" lon="0.23977">
        <ele>97.6</ele>
        <time>2022-02-13T09:07:39Z</time>
      </trkpt>
      <trkpt lat="46.60443" lon="0.23972">
        <ele>97.6</ele>
        <time>2022-02-13T09:07:41Z</time>
      </trkpt>
      <trkpt lat="46.60452" lon="0.23967">
        <ele>97.2</ele>
        <time>2022-02-13T09:07:43Z</time>
      </trkpt>
      <trkpt lat="46.60454" lon="0.23964">
        <ele>96.8</ele>
        <time>2022-02-13T09:07:44Z</time>
      </trkpt>
      <trkpt lat="46.60456" lon="0.23956">
        <ele>96</ele>
        <time>2022-02-13T09:07:46Z</time>
      </trkpt>
      <trkpt lat="46.60457" lon="0.23952">
        <ele>95.6</ele>
        <time>2022-02-13T09:07:47Z</time>
      </trkpt>
      <trkpt lat="46.60458" lon="0.23932">
        <ele>95.2</ele>
        <time>2022-02-13T09:07:51Z</time>
      </trkpt>
      <trkpt lat="46.60451" lon="0.23924">
        <ele>95</ele>
        <time>2022-02-13T09:07:53Z</time>
      </trkpt>
      <trkpt lat="46.60447" lon="0.23921">
        <ele>95</ele>
        <time>2022-02-13T09:07:54Z</time>
      </trkpt>
      <trkpt lat="46.60433" lon="0.23911">
        <ele>94.6</ele>
        <time>2022-02-13T09:07:57Z</time>
      </trkpt>
      <trkpt lat="46.60394" lon="0.23881">
        <ele>95.4</ele>
        <time>2022-02-13T09:08:05Z</time>
      </trkpt>
      <trkpt lat="46.6038" lon="0.23867">
        <ele>96</ele>
        <time>2022-02-13T09:08:08Z</time>
      </trkpt>
      <trkpt lat="46.60368" lon="0.23853">
        <ele>96.6</ele>
        <time>2022-02-13T09:08:11Z</time>
      </trkpt>
      <trkpt lat="46.60346" lon="0.23831">
        <ele>96.6</ele>
        <time>2022-02-13T09:08:17Z</time>
      </trkpt>
      <trkpt lat="46.60322" lon="0.23805">
        <ele>96.8</ele>
        <time>2022-02-13T09:08:24Z</time>
      </trkpt>
      <trkpt lat="46.60318" lon="0.23801">
        <ele>97</ele>
        <time>2022-02-13T09:08:25Z</time>
      </trkpt>
      <trkpt lat="46.60296" lon="0.23777">
        <ele>97.8</ele>
        <time>2022-02-13T09:08:31Z</time>
      </trkpt>
      <trkpt lat="46.60268" lon="0.23744">
        <ele>97.8</ele>
        <time>2022-02-13T09:08:38Z</time>
      </trkpt>
      <trkpt lat="46.60264" lon="0.2374">
        <ele>97.6</ele>
        <time>2022-02-13T09:08:39Z</time>
      </trkpt>
      <trkpt lat="46.60241" lon="0.23716">
        <ele>97.4</ele>
        <time>2022-02-13T09:08:45Z</time>
      </trkpt>
      <trkpt lat="46.6022" lon="0.237">
        <ele>97.8</ele>
        <time>2022-02-13T09:08:50Z</time>
      </trkpt>
      <trkpt lat="46.60216" lon="0.23698">
        <ele>97.8</ele>
        <time>2022-02-13T09:08:51Z</time>
      </trkpt>
      <trkpt lat="46.60192" lon="0.23684">
        <ele>97.8</ele>
        <time>2022-02-13T09:08:58Z</time>
      </trkpt>
      <trkpt lat="46.60185" lon="0.2368">
        <ele>98.2</ele>
        <time>2022-02-13T09:09:00Z</time>
      </trkpt>
      <trkpt lat="46.60164" lon="0.23669">
        <ele>98.8</ele>
        <time>2022-02-13T09:09:06Z</time>
      </trkpt>
      <trkpt lat="46.60138" lon="0.2365">
        <ele>98.4</ele>
        <time>2022-02-13T09:09:13Z</time>
      </trkpt>
      <trkpt lat="46.60123" lon="0.23629">
        <ele>99.2</ele>
        <time>2022-02-13T09:09:19Z</time>
      </trkpt>
      <trkpt lat="46.60118" lon="0.23622">
        <ele>99.2</ele>
        <time>2022-02-13T09:09:21Z</time>
      </trkpt>
      <trkpt lat="46.60102" lon="0.23603">
        <ele>100.2</ele>
        <time>2022-02-13T09:09:27Z</time>
      </trkpt>
      <trkpt lat="46.60083" lon="0.23575">
        <ele>99.2</ele>
        <time>2022-02-13T09:09:34Z</time>
      </trkpt>
      <trkpt lat="46.60062" lon="0.23551">
        <ele>100.2</ele>
        <time>2022-02-13T09:09:41Z</time>
      </trkpt>
      <trkpt lat="46.60055" lon="0.23544">
        <ele>100.4</ele>
        <time>2022-02-13T09:09:43Z</time>
      </trkpt>
      <trkpt lat="46.60041" lon="0.23531">
        <ele>100.4</ele>
        <time>2022-02-13T09:09:47Z</time>
      </trkpt>
      <trkpt lat="46.60037" lon="0.23527">
        <ele>100.4</ele>
        <time>2022-02-13T09:09:48Z</time>
      </trkpt>
      <trkpt lat="46.6003" lon="0.23519">
        <ele>100.8</ele>
        <time>2022-02-13T09:09:50Z</time>
      </trkpt>
      <trkpt lat="46.60018" lon="0.23503">
        <ele>101</ele>
        <time>2022-02-13T09:09:54Z</time>
      </trkpt>
      <trkpt lat="46.60013" lon="0.23489">
        <ele>101</ele>
        <time>2022-02-13T09:09:57Z</time>
      </trkpt>
      <trkpt lat="46.60008" lon="0.23474">
        <ele>101</ele>
        <time>2022-02-13T09:10:00Z</time>
      </trkpt>
      <trkpt lat="46.60003" lon="0.23452">
        <ele>101.6</ele>
        <time>2022-02-13T09:10:05Z</time>
      </trkpt>
      <trkpt lat="46.59997" lon="0.23428">
        <ele>102.2</ele>
        <time>2022-02-13T09:10:11Z</time>
      </trkpt>
      <trkpt lat="46.59987" lon="0.23405">
        <ele>102.6</ele>
        <time>2022-02-13T09:10:17Z</time>
      </trkpt>
      <trkpt lat="46.59986" lon="0.23402">
        <ele>102.6</ele>
        <time>2022-02-13T09:10:18Z</time>
      </trkpt>
      <trkpt lat="46.59979" lon="0.23386">
        <ele>103.6</ele>
        <time>2022-02-13T09:10:22Z</time>
      </trkpt>
      <trkpt lat="46.59977" lon="0.23382">
        <ele>103.8</ele>
        <time>2022-02-13T09:10:23Z</time>
      </trkpt>
      <trkpt lat="46.59971" lon="0.2336">
        <ele>104.4</ele>
        <time>2022-02-13T09:10:28Z</time>
      </trkpt>
      <trkpt lat="46.5997" lon="0.23344">
        <ele>105</ele>
        <time>2022-02-13T09:10:31Z</time>
      </trkpt>
      <trkpt lat="46.59971" lon="0.23327">
        <ele>105.4</ele>
        <time>2022-02-13T09:10:34Z</time>
      </trkpt>
      <trkpt lat="46.59971" lon="0.23281">
        <ele>105.6</ele>
        <time>2022-02-13T09:10:42Z</time>
      </trkpt>
      <trkpt lat="46.59966" lon="0.23244">
        <ele>105.6</ele>
        <time>2022-02-13T09:10:49Z</time>
      </trkpt>
      <trkpt lat="46.59961" lon="0.23226">
        <ele>106</ele>
        <time>2022-02-13T09:10:52Z</time>
      </trkpt>
      <trkpt lat="46.59953" lon="0.23205">
        <ele>106</ele>
        <time>2022-02-13T09:10:56Z</time>
      </trkpt>
      <trkpt lat="46.59943" lon="0.2318">
        <ele>107.2</ele>
        <time>2022-02-13T09:11:02Z</time>
      </trkpt>
      <trkpt lat="46.59923" lon="0.23159">
        <ele>108</ele>
        <time>2022-02-13T09:11:07Z</time>
      </trkpt>
      <trkpt lat="46.59921" lon="0.23155">
        <ele>108.2</ele>
        <time>2022-02-13T09:11:08Z</time>
      </trkpt>
      <trkpt lat="46.59916" lon="0.23147">
        <ele>108.6</ele>
        <time>2022-02-13T09:11:10Z</time>
      </trkpt>
      <trkpt lat="46.59912" lon="0.23139">
        <ele>108.6</ele>
        <time>2022-02-13T09:11:12Z</time>
      </trkpt>
      <trkpt lat="46.59909" lon="0.23134">
        <ele>108.4</ele>
        <time>2022-02-13T09:11:13Z</time>
      </trkpt>
      <trkpt lat="46.59904" lon="0.23124">
        <ele>108.4</ele>
        <time>2022-02-13T09:11:16Z</time>
      </trkpt>
      <trkpt lat="46.59901" lon="0.23118">
        <ele>108.4</ele>
        <time>2022-02-13T09:11:18Z</time>
      </trkpt>
      <trkpt lat="46.59897" lon="0.23111">
        <ele>108.4</ele>
        <time>2022-02-13T09:11:20Z</time>
      </trkpt>
      <trkpt lat="46.59887" lon="0.23095">
        <ele>108.8</ele>
        <time>2022-02-13T09:11:24Z</time>
      </trkpt>
      <trkpt lat="46.59885" lon="0.23091">
        <ele>108.8</ele>
        <time>2022-02-13T09:11:25Z</time>
      </trkpt>
      <trkpt lat="46.59876" lon="0.23068">
        <ele>108.6</ele>
        <time>2022-02-13T09:11:30Z</time>
      </trkpt>
      <trkpt lat="46.59867" lon="0.23049">
        <ele>109.4</ele>
        <time>2022-02-13T09:11:34Z</time>
      </trkpt>
      <trkpt lat="46.59863" lon="0.23038">
        <ele>109.4</ele>
        <time>2022-02-13T09:11:36Z</time>
      </trkpt>
      <trkpt lat="46.5985" lon="0.23006">
        <ele>109.4</ele>
        <time>2022-02-13T09:11:43Z</time>
      </trkpt>
      <trkpt lat="46.59848" lon="0.23002">
        <ele>109.4</ele>
        <time>2022-02-13T09:11:44Z</time>
      </trkpt>
      <trkpt lat="46.59839" lon="0.22977">
        <ele>109.6</ele>
        <time>2022-02-13T09:11:49Z</time>
      </trkpt>
      <trkpt lat="46.59837" lon="0.22966">
        <ele>109.8</ele>
        <time>2022-02-13T09:11:51Z</time>
      </trkpt>
      <trkpt lat="46.59829" lon="0.22931">
        <ele>110.2</ele>
        <time>2022-02-13T09:11:57Z</time>
      </trkpt>
      <trkpt lat="46.59825" lon="0.22915">
        <ele>110.4</ele>
        <time>2022-02-13T09:11:59Z</time>
      </trkpt>
      <trkpt lat="46.59815" lon="0.22892">
        <ele>110.6</ele>
        <time>2022-02-13T09:12:03Z</time>
      </trkpt>
      <trkpt lat="46.5981" lon="0.22885">
        <ele>111</ele>
        <time>2022-02-13T09:12:05Z</time>
      </trkpt>
      <trkpt lat="46.59802" lon="0.22882">
        <ele>111.6</ele>
        <time>2022-02-13T09:12:08Z</time>
      </trkpt>
      <trkpt lat="46.59792" lon="0.22876">
        <ele>112.8</ele>
        <time>2022-02-13T09:12:11Z</time>
      </trkpt>
      <trkpt lat="46.59783" lon="0.22871">
        <ele>113.6</ele>
        <time>2022-02-13T09:12:14Z</time>
      </trkpt>
      <trkpt lat="46.59781" lon="0.22869">
        <ele>113.8</ele>
        <time>2022-02-13T09:12:15Z</time>
      </trkpt>
      <trkpt lat="46.59765" lon="0.22857">
        <ele>114.8</ele>
        <time>2022-02-13T09:12:21Z</time>
      </trkpt>
      <trkpt lat="46.59763" lon="0.22856">
        <ele>115</ele>
        <time>2022-02-13T09:12:22Z</time>
      </trkpt>
      <trkpt lat="46.5975" lon="0.22846">
        <ele>115.8</ele>
        <time>2022-02-13T09:12:27Z</time>
      </trkpt>
      <trkpt lat="46.5974" lon="0.2284">
        <ele>116.2</ele>
        <time>2022-02-13T09:12:31Z</time>
      </trkpt>
      <trkpt lat="46.59732" lon="0.22836">
        <ele>116.6</ele>
        <time>2022-02-13T09:12:34Z</time>
      </trkpt>
      <trkpt lat="46.59715" lon="0.22824">
        <ele>117</ele>
        <time>2022-02-13T09:12:41Z</time>
      </trkpt>
      <trkpt lat="46.59714" lon="0.22823">
        <ele>117.4</ele>
        <time>2022-02-13T09:12:42Z</time>
      </trkpt>
      <trkpt lat="46.59704" lon="0.22813">
        <ele>118.4</ele>
        <time>2022-02-13T09:12:47Z</time>
      </trkpt>
      <trkpt lat="46.59702" lon="0.22812">
        <ele>118.6</ele>
        <time>2022-02-13T09:12:48Z</time>
      </trkpt>
      <trkpt lat="46.59691" lon="0.22804">
        <ele>119.6</ele>
        <time>2022-02-13T09:12:53Z</time>
      </trkpt>
      <trkpt lat="46.59688" lon="0.22802">
        <ele>120</ele>
        <time>2022-02-13T09:12:55Z</time>
      </trkpt>
      <trkpt lat="46.59679" lon="0.22795">
        <ele>120.6</ele>
        <time>2022-02-13T09:13:00Z</time>
      </trkpt>
      <trkpt lat="46.59675" lon="0.22794">
        <ele>120.8</ele>
        <time>2022-02-13T09:13:02Z</time>
      </trkpt>
      <trkpt lat="46.59657" lon="0.22793">
        <ele>121.2</ele>
        <time>2022-02-13T09:13:09Z</time>
      </trkpt>
      <trkpt lat="46.5965" lon="0.22791">
        <ele>121.8</ele>
        <time>2022-02-13T09:13:12Z</time>
      </trkpt>
      <trkpt lat="46.59645" lon="0.22789">
        <ele>122.2</ele>
        <time>2022-02-13T09:13:15Z</time>
      </trkpt>
      <trkpt lat="46.59634" lon="0.22786">
        <ele>122.6</ele>
        <time>2022-02-13T09:13:21Z</time>
      </trkpt>
      <trkpt lat="46.59633" lon="0.22785">
        <ele>122.8</ele>
        <time>2022-02-13T09:13:22Z</time>
      </trkpt>
      <trkpt lat="46.59624" lon="0.22782">
        <ele>123.8</ele>
        <time>2022-02-13T09:13:27Z</time>
      </trkpt>
      <trkpt lat="46.59619" lon="0.22781">
        <ele>124.2</ele>
        <time>2022-02-13T09:13:29Z</time>
      </trkpt>
      <trkpt lat="46.59611" lon="0.22779">
        <ele>124.6</ele>
        <time>2022-02-13T09:13:33Z</time>
      </trkpt>
      <trkpt lat="46.59606" lon="0.22778">
        <ele>124.8</ele>
        <time>2022-02-13T09:13:35Z</time>
      </trkpt>
      <trkpt lat="46.59602" lon="0.22777">
        <ele>125</ele>
        <time>2022-02-13T09:13:36Z</time>
      </trkpt>
      <trkpt lat="46.59584" lon="0.22776">
        <ele>125.6</ele>
        <time>2022-02-13T09:13:42Z</time>
      </trkpt>
      <trkpt lat="46.59577" lon="0.22775">
        <ele>126</ele>
        <time>2022-02-13T09:13:44Z</time>
      </trkpt>
      <trkpt lat="46.59563" lon="0.22775">
        <ele>127</ele>
        <time>2022-02-13T09:13:50Z</time>
      </trkpt>
      <trkpt lat="46.59561" lon="0.22775">
        <ele>127.2</ele>
        <time>2022-02-13T09:13:51Z</time>
      </trkpt>
      <trkpt lat="46.59545" lon="0.22773">
        <ele>127.8</ele>
        <time>2022-02-13T09:13:56Z</time>
      </trkpt>
      <trkpt lat="46.59531" lon="0.22771">
        <ele>128.2</ele>
        <time>2022-02-13T09:14:00Z</time>
      </trkpt>
      <trkpt lat="46.59516" lon="0.22768">
        <ele>128.6</ele>
        <time>2022-02-13T09:14:04Z</time>
      </trkpt>
      <trkpt lat="46.59507" lon="0.22768">
        <ele>129.2</ele>
        <time>2022-02-13T09:14:08Z</time>
      </trkpt>
      <trkpt lat="46.59504" lon="0.22768">
        <ele>129.4</ele>
        <time>2022-02-13T09:14:09Z</time>
      </trkpt>
      <trkpt lat="46.59492" lon="0.22764">
        <ele>130.6</ele>
        <time>2022-02-13T09:14:15Z</time>
      </trkpt>
      <trkpt lat="46.59486" lon="0.22763">
        <ele>130.8</ele>
        <time>2022-02-13T09:14:17Z</time>
      </trkpt>
      <trkpt lat="46.59467" lon="0.22763">
        <ele>131.8</ele>
        <time>2022-02-13T09:14:22Z</time>
      </trkpt>
      <trkpt lat="46.59462" lon="0.22765">
        <ele>132</ele>
        <time>2022-02-13T09:14:24Z</time>
      </trkpt>
      <trkpt lat="46.5946" lon="0.22765">
        <ele>132.2</ele>
        <time>2022-02-13T09:14:25Z</time>
      </trkpt>
      <trkpt lat="46.59447" lon="0.22761">
        <ele>132.6</ele>
        <time>2022-02-13T09:14:30Z</time>
      </trkpt>
      <trkpt lat="46.59435" lon="0.22756">
        <ele>132.8</ele>
        <time>2022-02-13T09:14:34Z</time>
      </trkpt>
      <trkpt lat="46.59429" lon="0.22752">
        <ele>133.2</ele>
        <time>2022-02-13T09:14:36Z</time>
      </trkpt>
      <trkpt lat="46.59415" lon="0.22746">
        <ele>134</ele>
        <time>2022-02-13T09:14:40Z</time>
      </trkpt>
      <trkpt lat="46.59408" lon="0.22743">
        <ele>134.2</ele>
        <time>2022-02-13T09:14:43Z</time>
      </trkpt>
      <trkpt lat="46.59391" lon="0.22737">
        <ele>134.6</ele>
        <time>2022-02-13T09:14:49Z</time>
      </trkpt>
      <trkpt lat="46.59378" lon="0.22734">
        <ele>135</ele>
        <time>2022-02-13T09:14:55Z</time>
      </trkpt>
      <trkpt lat="46.59375" lon="0.22734">
        <ele>135.2</ele>
        <time>2022-02-13T09:14:56Z</time>
      </trkpt>
      <trkpt lat="46.59367" lon="0.22734">
        <ele>135.8</ele>
        <time>2022-02-13T09:14:59Z</time>
      </trkpt>
      <trkpt lat="46.59362" lon="0.22731">
        <ele>136.2</ele>
        <time>2022-02-13T09:15:01Z</time>
      </trkpt>
      <trkpt lat="46.59361" lon="0.22729">
        <ele>136.4</ele>
        <time>2022-02-13T09:15:02Z</time>
      </trkpt>
      <trkpt lat="46.59355" lon="0.22709">
        <ele>137</ele>
        <time>2022-02-13T09:15:09Z</time>
      </trkpt>
      <trkpt lat="46.59355" lon="0.22691">
        <ele>137.2</ele>
        <time>2022-02-13T09:15:14Z</time>
      </trkpt>
      <trkpt lat="46.59355" lon="0.22688">
        <ele>137</ele>
        <time>2022-02-13T09:15:15Z</time>
      </trkpt>
      <trkpt lat="46.59358" lon="0.22674">
        <ele>137.4</ele>
        <time>2022-02-13T09:15:19Z</time>
      </trkpt>
      <trkpt lat="46.59361" lon="0.22658">
        <ele>138.2</ele>
        <time>2022-02-13T09:15:23Z</time>
      </trkpt>
      <trkpt lat="46.59367" lon="0.22642">
        <ele>138.6</ele>
        <time>2022-02-13T09:15:27Z</time>
      </trkpt>
      <trkpt lat="46.59368" lon="0.22638">
        <ele>138.6</ele>
        <time>2022-02-13T09:15:28Z</time>
      </trkpt>
      <trkpt lat="46.59377" lon="0.22615">
        <ele>139.6</ele>
        <time>2022-02-13T09:15:34Z</time>
      </trkpt>
      <trkpt lat="46.59381" lon="0.22607">
        <ele>139.8</ele>
        <time>2022-02-13T09:15:36Z</time>
      </trkpt>
      <trkpt lat="46.59393" lon="0.22584">
        <ele>140</ele>
        <time>2022-02-13T09:15:42Z</time>
      </trkpt>
      <trkpt lat="46.59402" lon="0.2256">
        <ele>140.6</ele>
        <time>2022-02-13T09:15:48Z</time>
      </trkpt>
      <trkpt lat="46.59411" lon="0.22542">
        <ele>141.2</ele>
        <time>2022-02-13T09:15:52Z</time>
      </trkpt>
      <trkpt lat="46.59421" lon="0.22516">
        <ele>141.2</ele>
        <time>2022-02-13T09:15:58Z</time>
      </trkpt>
      <trkpt lat="46.59423" lon="0.22511">
        <ele>141.4</ele>
        <time>2022-02-13T09:15:59Z</time>
      </trkpt>
      <trkpt lat="46.5943" lon="0.22496">
        <ele>141.4</ele>
        <time>2022-02-13T09:16:02Z</time>
      </trkpt>
      <trkpt lat="46.59432" lon="0.22491">
        <ele>141.4</ele>
        <time>2022-02-13T09:16:03Z</time>
      </trkpt>
      <trkpt lat="46.59447" lon="0.22456">
        <ele>141.6</ele>
        <time>2022-02-13T09:16:10Z</time>
      </trkpt>
      <trkpt lat="46.59449" lon="0.22451">
        <ele>141.8</ele>
        <time>2022-02-13T09:16:11Z</time>
      </trkpt>
      <trkpt lat="46.59467" lon="0.2241">
        <ele>142</ele>
        <time>2022-02-13T09:16:18Z</time>
      </trkpt>
      <trkpt lat="46.59475" lon="0.224">
        <ele>142.2</ele>
        <time>2022-02-13T09:16:20Z</time>
      </trkpt>
      <trkpt lat="46.59481" lon="0.22391">
        <ele>142.4</ele>
        <time>2022-02-13T09:16:22Z</time>
      </trkpt>
      <trkpt lat="46.59483" lon="0.22386">
        <ele>142.4</ele>
        <time>2022-02-13T09:16:23Z</time>
      </trkpt>
      <trkpt lat="46.59493" lon="0.22371">
        <ele>142</ele>
        <time>2022-02-13T09:16:26Z</time>
      </trkpt>
      <trkpt lat="46.59501" lon="0.22363">
        <ele>142.2</ele>
        <time>2022-02-13T09:16:28Z</time>
      </trkpt>
      <trkpt lat="46.59519" lon="0.22349">
        <ele>142.6</ele>
        <time>2022-02-13T09:16:33Z</time>
      </trkpt>
      <trkpt lat="46.59522" lon="0.22349">
        <ele>142.6</ele>
        <time>2022-02-13T09:16:34Z</time>
      </trkpt>
      <trkpt lat="46.59527" lon="0.22352">
        <ele>142.6</ele>
        <time>2022-02-13T09:16:36Z</time>
      </trkpt>
      <trkpt lat="46.59532" lon="0.22356">
        <ele>142.6</ele>
        <time>2022-02-13T09:16:38Z</time>
      </trkpt>
      <trkpt lat="46.59541" lon="0.22361">
        <ele>142.4</ele>
        <time>2022-02-13T09:16:41Z</time>
      </trkpt>
      <trkpt lat="46.59549" lon="0.22362">
        <ele>142.6</ele>
        <time>2022-02-13T09:16:43Z</time>
      </trkpt>
      <trkpt lat="46.59553" lon="0.22362">
        <ele>142.6</ele>
        <time>2022-02-13T09:16:44Z</time>
      </trkpt>
      <trkpt lat="46.59558" lon="0.22361">
        <ele>142.4</ele>
        <time>2022-02-13T09:16:45Z</time>
      </trkpt>
      <trkpt lat="46.59566" lon="0.22357">
        <ele>142.4</ele>
        <time>2022-02-13T09:16:47Z</time>
      </trkpt>
      <trkpt lat="46.59574" lon="0.22351">
        <ele>142</ele>
        <time>2022-02-13T09:16:49Z</time>
      </trkpt>
      <trkpt lat="46.59582" lon="0.22346">
        <ele>141.8</ele>
        <time>2022-02-13T09:16:52Z</time>
      </trkpt>
      <trkpt lat="46.59589" lon="0.22342">
        <ele>141.6</ele>
        <time>2022-02-13T09:16:54Z</time>
      </trkpt>
      <trkpt lat="46.59595" lon="0.22338">
        <ele>141.6</ele>
        <time>2022-02-13T09:16:56Z</time>
      </trkpt>
      <trkpt lat="46.59606" lon="0.22329">
        <ele>141.8</ele>
        <time>2022-02-13T09:16:59Z</time>
      </trkpt>
      <trkpt lat="46.59637" lon="0.22306">
        <ele>141.8</ele>
        <time>2022-02-13T09:17:06Z</time>
      </trkpt>
      <trkpt lat="46.59666" lon="0.22285">
        <ele>141.2</ele>
        <time>2022-02-13T09:17:12Z</time>
      </trkpt>
      <trkpt lat="46.59671" lon="0.22281">
        <ele>141</ele>
        <time>2022-02-13T09:17:13Z</time>
      </trkpt>
      <trkpt lat="46.59685" lon="0.2227">
        <ele>140.6</ele>
        <time>2022-02-13T09:17:16Z</time>
      </trkpt>
      <trkpt lat="46.5969" lon="0.22265">
        <ele>140.6</ele>
        <time>2022-02-13T09:17:17Z</time>
      </trkpt>
      <trkpt lat="46.597" lon="0.22257">
        <ele>140.4</ele>
        <time>2022-02-13T09:17:19Z</time>
      </trkpt>
      <trkpt lat="46.5971" lon="0.22251">
        <ele>140.4</ele>
        <time>2022-02-13T09:17:21Z</time>
      </trkpt>
      <trkpt lat="46.59715" lon="0.2225">
        <ele>140</ele>
        <time>2022-02-13T09:17:22Z</time>
      </trkpt>
      <trkpt lat="46.59721" lon="0.22249">
        <ele>139.6</ele>
        <time>2022-02-13T09:17:23Z</time>
      </trkpt>
      <trkpt lat="46.59745" lon="0.22245">
        <ele>139</ele>
        <time>2022-02-13T09:17:27Z</time>
      </trkpt>
      <trkpt lat="46.59751" lon="0.22245">
        <ele>139</ele>
        <time>2022-02-13T09:17:28Z</time>
      </trkpt>
      <trkpt lat="46.59769" lon="0.22245">
        <ele>138.4</ele>
        <time>2022-02-13T09:17:31Z</time>
      </trkpt>
      <trkpt lat="46.59781" lon="0.2224">
        <ele>137.6</ele>
        <time>2022-02-13T09:17:33Z</time>
      </trkpt>
      <trkpt lat="46.59786" lon="0.22237">
        <ele>137</ele>
        <time>2022-02-13T09:17:34Z</time>
      </trkpt>
      <trkpt lat="46.59794" lon="0.22228">
        <ele>136.2</ele>
        <time>2022-02-13T09:17:36Z</time>
      </trkpt>
      <trkpt lat="46.59798" lon="0.22224">
        <ele>136</ele>
        <time>2022-02-13T09:17:37Z</time>
      </trkpt>
      <trkpt lat="46.59824" lon="0.22192">
        <ele>135</ele>
        <time>2022-02-13T09:17:42Z</time>
      </trkpt>
      <trkpt lat="46.59831" lon="0.22185">
        <ele>134.6</ele>
        <time>2022-02-13T09:17:43Z</time>
      </trkpt>
      <trkpt lat="46.59844" lon="0.22171">
        <ele>134</ele>
        <time>2022-02-13T09:17:45Z</time>
      </trkpt>
      <trkpt lat="46.59866" lon="0.22142">
        <ele>133</ele>
        <time>2022-02-13T09:17:49Z</time>
      </trkpt>
      <trkpt lat="46.59877" lon="0.22127">
        <ele>132.6</ele>
        <time>2022-02-13T09:17:51Z</time>
      </trkpt>
      <trkpt lat="46.59907" lon="0.22078">
        <ele>131.6</ele>
        <time>2022-02-13T09:17:57Z</time>
      </trkpt>
      <trkpt lat="46.59912" lon="0.22069">
        <ele>131.4</ele>
        <time>2022-02-13T09:17:58Z</time>
      </trkpt>
      <trkpt lat="46.5993" lon="0.22043">
        <ele>130.4</ele>
        <time>2022-02-13T09:18:01Z</time>
      </trkpt>
      <trkpt lat="46.59934" lon="0.22034">
        <ele>130</ele>
        <time>2022-02-13T09:18:02Z</time>
      </trkpt>
      <trkpt lat="46.59948" lon="0.22006">
        <ele>129.2</ele>
        <time>2022-02-13T09:18:05Z</time>
      </trkpt>
      <trkpt lat="46.59965" lon="0.21977">
        <ele>128.8</ele>
        <time>2022-02-13T09:18:08Z</time>
      </trkpt>
      <trkpt lat="46.59992" lon="0.21926">
        <ele>128.4</ele>
        <time>2022-02-13T09:18:14Z</time>
      </trkpt>
      <trkpt lat="46.59999" lon="0.21909">
        <ele>128.2</ele>
        <time>2022-02-13T09:18:16Z</time>
      </trkpt>
      <trkpt lat="46.60008" lon="0.21884">
        <ele>128</ele>
        <time>2022-02-13T09:18:19Z</time>
      </trkpt>
      <trkpt lat="46.60023" lon="0.21846">
        <ele>127.6</ele>
        <time>2022-02-13T09:18:24Z</time>
      </trkpt>
      <trkpt lat="46.60027" lon="0.21831">
        <ele>127</ele>
        <time>2022-02-13T09:18:26Z</time>
      </trkpt>
      <trkpt lat="46.60036" lon="0.21801">
        <ele>126.6</ele>
        <time>2022-02-13T09:18:29Z</time>
      </trkpt>
      <trkpt lat="46.60051" lon="0.21745">
        <ele>126.8</ele>
        <time>2022-02-13T09:18:35Z</time>
      </trkpt>
      <trkpt lat="46.60063" lon="0.217">
        <ele>126.6</ele>
        <time>2022-02-13T09:18:41Z</time>
      </trkpt>
      <trkpt lat="46.60073" lon="0.21656">
        <ele>127.6</ele>
        <time>2022-02-13T09:18:48Z</time>
      </trkpt>
      <trkpt lat="46.60082" lon="0.21619">
        <ele>127.8</ele>
        <time>2022-02-13T09:18:54Z</time>
      </trkpt>
      <trkpt lat="46.60084" lon="0.21614">
        <ele>128</ele>
        <time>2022-02-13T09:18:55Z</time>
      </trkpt>
      <trkpt lat="46.6009" lon="0.21591">
        <ele>128.6</ele>
        <time>2022-02-13T09:18:59Z</time>
      </trkpt>
      <trkpt lat="46.6009" lon="0.21586">
        <ele>128.8</ele>
        <time>2022-02-13T09:19:00Z</time>
      </trkpt>
      <trkpt lat="46.60093" lon="0.21577">
        <ele>129</ele>
        <time>2022-02-13T09:19:02Z</time>
      </trkpt>
      <trkpt lat="46.60097" lon="0.21562">
        <ele>129.2</ele>
        <time>2022-02-13T09:19:06Z</time>
      </trkpt>
      <trkpt lat="46.601" lon="0.21535">
        <ele>129.6</ele>
        <time>2022-02-13T09:19:11Z</time>
      </trkpt>
      <trkpt lat="46.60109" lon="0.21492">
        <ele>129.6</ele>
        <time>2022-02-13T09:19:17Z</time>
      </trkpt>
      <trkpt lat="46.60116" lon="0.21464">
        <ele>130.4</ele>
        <time>2022-02-13T09:19:21Z</time>
      </trkpt>
      <trkpt lat="46.6012" lon="0.21452">
        <ele>130.6</ele>
        <time>2022-02-13T09:19:23Z</time>
      </trkpt>
      <trkpt lat="46.60125" lon="0.21434">
        <ele>131</ele>
        <time>2022-02-13T09:19:26Z</time>
      </trkpt>
      <trkpt lat="46.6013" lon="0.21423">
        <ele>131.2</ele>
        <time>2022-02-13T09:19:28Z</time>
      </trkpt>
      <trkpt lat="46.60132" lon="0.21418">
        <ele>131.4</ele>
        <time>2022-02-13T09:19:29Z</time>
      </trkpt>
      <trkpt lat="46.60141" lon="0.21391">
        <ele>131.6</ele>
        <time>2022-02-13T09:19:34Z</time>
      </trkpt>
      <trkpt lat="46.60149" lon="0.21368">
        <ele>132.4</ele>
        <time>2022-02-13T09:19:39Z</time>
      </trkpt>
      <trkpt lat="46.60152" lon="0.21359">
        <ele>132.8</ele>
        <time>2022-02-13T09:19:41Z</time>
      </trkpt>
      <trkpt lat="46.60167" lon="0.21318">
        <ele>133.4</ele>
        <time>2022-02-13T09:19:48Z</time>
      </trkpt>
      <trkpt lat="46.60175" lon="0.21282">
        <ele>134</ele>
        <time>2022-02-13T09:19:55Z</time>
      </trkpt>
      <trkpt lat="46.60183" lon="0.21249">
        <ele>134.2</ele>
        <time>2022-02-13T09:20:02Z</time>
      </trkpt>
      <trkpt lat="46.60192" lon="0.21217">
        <ele>134</ele>
        <time>2022-02-13T09:20:09Z</time>
      </trkpt>
      <trkpt lat="46.60198" lon="0.21192">
        <ele>134.6</ele>
        <time>2022-02-13T09:20:14Z</time>
      </trkpt>
      <trkpt lat="46.60199" lon="0.21187">
        <ele>134.6</ele>
        <time>2022-02-13T09:20:15Z</time>
      </trkpt>
      <trkpt lat="46.602" lon="0.21183">
        <ele>134.8</ele>
        <time>2022-02-13T09:20:16Z</time>
      </trkpt>
      <trkpt lat="46.60206" lon="0.21165">
        <ele>135.6</ele>
        <time>2022-02-13T09:20:20Z</time>
      </trkpt>
      <trkpt lat="46.60208" lon="0.21156">
        <ele>136</ele>
        <time>2022-02-13T09:20:22Z</time>
      </trkpt>
      <trkpt lat="46.60213" lon="0.21139">
        <ele>136.8</ele>
        <time>2022-02-13T09:20:26Z</time>
      </trkpt>
      <trkpt lat="46.60216" lon="0.21126">
        <ele>137.6</ele>
        <time>2022-02-13T09:20:29Z</time>
      </trkpt>
      <trkpt lat="46.60217" lon="0.21121">
        <ele>137.8</ele>
        <time>2022-02-13T09:20:30Z</time>
      </trkpt>
      <trkpt lat="46.60225" lon="0.21088">
        <ele>138.2</ele>
        <time>2022-02-13T09:20:37Z</time>
      </trkpt>
      <trkpt lat="46.60235" lon="0.21058">
        <ele>138.8</ele>
        <time>2022-02-13T09:20:43Z</time>
      </trkpt>
      <trkpt lat="46.60238" lon="0.21053">
        <ele>139</ele>
        <time>2022-02-13T09:20:44Z</time>
      </trkpt>
      <trkpt lat="46.60246" lon="0.2103">
        <ele>139</ele>
        <time>2022-02-13T09:20:48Z</time>
      </trkpt>
      <trkpt lat="46.60253" lon="0.21014">
        <ele>139</ele>
        <time>2022-02-13T09:20:51Z</time>
      </trkpt>
      <trkpt lat="46.6027" lon="0.20972">
        <ele>139.2</ele>
        <time>2022-02-13T09:20:58Z</time>
      </trkpt>
      <trkpt lat="46.60282" lon="0.20939">
        <ele>139</ele>
        <time>2022-02-13T09:21:04Z</time>
      </trkpt>
      <trkpt lat="46.60289" lon="0.20931">
        <ele>138.2</ele>
        <time>2022-02-13T09:21:06Z</time>
      </trkpt>
      <trkpt lat="46.60298" lon="0.20923">
        <ele>137.8</ele>
        <time>2022-02-13T09:21:08Z</time>
      </trkpt>
      <trkpt lat="46.60302" lon="0.2092">
        <ele>137.8</ele>
        <time>2022-02-13T09:21:09Z</time>
      </trkpt>
      <trkpt lat="46.60328" lon="0.20888">
        <ele>137.4</ele>
        <time>2022-02-13T09:21:16Z</time>
      </trkpt>
      <trkpt lat="46.60331" lon="0.20879">
        <ele>137.6</ele>
        <time>2022-02-13T09:21:18Z</time>
      </trkpt>
      <trkpt lat="46.60331" lon="0.20875">
        <ele>137.6</ele>
        <time>2022-02-13T09:21:19Z</time>
      </trkpt>
      <trkpt lat="46.6033" lon="0.20874">
        <ele>137.6</ele>
        <time>2022-02-13T09:21:20Z</time>
      </trkpt>
      <trkpt lat="46.60324" lon="0.20872">
        <ele>137.4</ele>
        <time>2022-02-13T09:21:22Z</time>
      </trkpt>
      <trkpt lat="46.603" lon="0.2087">
        <ele>138</ele>
        <time>2022-02-13T09:21:28Z</time>
      </trkpt>
      <trkpt lat="46.60274" lon="0.20864">
        <ele>138</ele>
        <time>2022-02-13T09:21:34Z</time>
      </trkpt>
      <trkpt lat="46.60248" lon="0.20851">
        <ele>137.6</ele>
        <time>2022-02-13T09:21:40Z</time>
      </trkpt>
      <trkpt lat="46.60223" lon="0.20842">
        <ele>137.6</ele>
        <time>2022-02-13T09:21:47Z</time>
      </trkpt>
      <trkpt lat="46.60196" lon="0.20832">
        <ele>137.6</ele>
        <time>2022-02-13T09:21:53Z</time>
      </trkpt>
      <trkpt lat="46.60179" lon="0.2083">
        <ele>138</ele>
        <time>2022-02-13T09:21:57Z</time>
      </trkpt>
      <trkpt lat="46.60172" lon="0.20829">
        <ele>138</ele>
        <time>2022-02-13T09:21:59Z</time>
      </trkpt>
      <trkpt lat="46.60154" lon="0.20826">
        <ele>138.4</ele>
        <time>2022-02-13T09:22:04Z</time>
      </trkpt>
      <trkpt lat="46.60145" lon="0.20825">
        <ele>138.4</ele>
        <time>2022-02-13T09:22:06Z</time>
      </trkpt>
      <trkpt lat="46.60137" lon="0.20824">
        <ele>138.4</ele>
        <time>2022-02-13T09:22:08Z</time>
      </trkpt>
      <trkpt lat="46.60121" lon="0.2082">
        <ele>138.6</ele>
        <time>2022-02-13T09:22:12Z</time>
      </trkpt>
      <trkpt lat="46.60118" lon="0.20819">
        <ele>138.6</ele>
        <time>2022-02-13T09:22:13Z</time>
      </trkpt>
      <trkpt lat="46.60111" lon="0.20818">
        <ele>138.8</ele>
        <time>2022-02-13T09:22:15Z</time>
      </trkpt>
      <trkpt lat="46.60103" lon="0.20816">
        <ele>139</ele>
        <time>2022-02-13T09:22:17Z</time>
      </trkpt>
      <trkpt lat="46.60097" lon="0.20816">
        <ele>139</ele>
        <time>2022-02-13T09:22:19Z</time>
      </trkpt>
      <trkpt lat="46.60075" lon="0.2081">
        <ele>139.4</ele>
        <time>2022-02-13T09:22:25Z</time>
      </trkpt>
      <trkpt lat="46.60049" lon="0.20801">
        <ele>139.6</ele>
        <time>2022-02-13T09:22:32Z</time>
      </trkpt>
      <trkpt lat="46.60025" lon="0.20791">
        <ele>140</ele>
        <time>2022-02-13T09:22:38Z</time>
      </trkpt>
      <trkpt lat="46.59998" lon="0.20779">
        <ele>140.8</ele>
        <time>2022-02-13T09:22:45Z</time>
      </trkpt>
      <trkpt lat="46.59995" lon="0.20778">
        <ele>141</ele>
        <time>2022-02-13T09:22:46Z</time>
      </trkpt>
      <trkpt lat="46.59992" lon="0.20776">
        <ele>141</ele>
        <time>2022-02-13T09:22:47Z</time>
      </trkpt>
      <trkpt lat="46.59981" lon="0.2077">
        <ele>141</ele>
        <time>2022-02-13T09:22:50Z</time>
      </trkpt>
      <trkpt lat="46.59977" lon="0.20767">
        <ele>141.2</ele>
        <time>2022-02-13T09:22:51Z</time>
      </trkpt>
      <trkpt lat="46.59959" lon="0.20756">
        <ele>141.4</ele>
        <time>2022-02-13T09:22:55Z</time>
      </trkpt>
      <trkpt lat="46.59935" lon="0.20742">
        <ele>141.8</ele>
        <time>2022-02-13T09:23:02Z</time>
      </trkpt>
      <trkpt lat="46.59916" lon="0.20729">
        <ele>142</ele>
        <time>2022-02-13T09:23:06Z</time>
      </trkpt>
      <trkpt lat="46.59912" lon="0.20727">
        <ele>142.2</ele>
        <time>2022-02-13T09:23:07Z</time>
      </trkpt>
      <trkpt lat="46.59907" lon="0.20723">
        <ele>142</ele>
        <time>2022-02-13T09:23:08Z</time>
      </trkpt>
      <trkpt lat="46.59892" lon="0.20715">
        <ele>142</ele>
        <time>2022-02-13T09:23:12Z</time>
      </trkpt>
      <trkpt lat="46.59889" lon="0.20713">
        <ele>141.8</ele>
        <time>2022-02-13T09:23:13Z</time>
      </trkpt>
      <trkpt lat="46.59882" lon="0.20707">
        <ele>141.8</ele>
        <time>2022-02-13T09:23:15Z</time>
      </trkpt>
      <trkpt lat="46.59875" lon="0.20701">
        <ele>141.8</ele>
        <time>2022-02-13T09:23:17Z</time>
      </trkpt>
      <trkpt lat="46.59853" lon="0.20684">
        <ele>141.4</ele>
        <time>2022-02-13T09:23:22Z</time>
      </trkpt>
      <trkpt lat="46.59849" lon="0.20681">
        <ele>141.2</ele>
        <time>2022-02-13T09:23:23Z</time>
      </trkpt>
      <trkpt lat="46.59837" lon="0.20674">
        <ele>141.2</ele>
        <time>2022-02-13T09:23:25Z</time>
      </trkpt>
      <trkpt lat="46.59828" lon="0.20667">
        <ele>141.2</ele>
        <time>2022-02-13T09:23:27Z</time>
      </trkpt>
      <trkpt lat="46.59822" lon="0.20663">
        <ele>141</ele>
        <time>2022-02-13T09:23:28Z</time>
      </trkpt>
      <trkpt lat="46.59817" lon="0.2066">
        <ele>141</ele>
        <time>2022-02-13T09:23:29Z</time>
      </trkpt>
      <trkpt lat="46.59792" lon="0.20643">
        <ele>140.8</ele>
        <time>2022-02-13T09:23:34Z</time>
      </trkpt>
      <trkpt lat="46.5976" lon="0.20624">
        <ele>140.4</ele>
        <time>2022-02-13T09:23:39Z</time>
      </trkpt>
      <trkpt lat="46.59747" lon="0.20618">
        <ele>140</ele>
        <time>2022-02-13T09:23:41Z</time>
      </trkpt>
      <trkpt lat="46.59722" lon="0.20606">
        <ele>139.8</ele>
        <time>2022-02-13T09:23:45Z</time>
      </trkpt>
      <trkpt lat="46.59684" lon="0.20588">
        <ele>139.2</ele>
        <time>2022-02-13T09:23:51Z</time>
      </trkpt>
      <trkpt lat="46.59678" lon="0.20584">
        <ele>139.2</ele>
        <time>2022-02-13T09:23:52Z</time>
      </trkpt>
      <trkpt lat="46.59672" lon="0.2058">
        <ele>138.8</ele>
        <time>2022-02-13T09:23:53Z</time>
      </trkpt>
      <trkpt lat="46.59656" lon="0.2057">
        <ele>138.4</ele>
        <time>2022-02-13T09:23:56Z</time>
      </trkpt>
      <trkpt lat="46.59639" lon="0.20561">
        <ele>137.8</ele>
        <time>2022-02-13T09:23:59Z</time>
      </trkpt>
      <trkpt lat="46.5963" lon="0.20554">
        <ele>137.6</ele>
        <time>2022-02-13T09:24:01Z</time>
      </trkpt>
      <trkpt lat="46.59613" lon="0.20542">
        <ele>136.8</ele>
        <time>2022-02-13T09:24:05Z</time>
      </trkpt>
      <trkpt lat="46.59605" lon="0.20535">
        <ele>136.4</ele>
        <time>2022-02-13T09:24:07Z</time>
      </trkpt>
      <trkpt lat="46.59585" lon="0.20518">
        <ele>135.8</ele>
        <time>2022-02-13T09:24:11Z</time>
      </trkpt>
      <trkpt lat="46.5958" lon="0.20512">
        <ele>135.6</ele>
        <time>2022-02-13T09:24:12Z</time>
      </trkpt>
      <trkpt lat="46.59564" lon="0.20492">
        <ele>135.2</ele>
        <time>2022-02-13T09:24:15Z</time>
      </trkpt>
      <trkpt lat="46.59558" lon="0.20477">
        <ele>134.6</ele>
        <time>2022-02-13T09:24:17Z</time>
      </trkpt>
      <trkpt lat="46.59544" lon="0.20444">
        <ele>133.8</ele>
        <time>2022-02-13T09:24:22Z</time>
      </trkpt>
      <trkpt lat="46.5954" lon="0.20438">
        <ele>133.8</ele>
        <time>2022-02-13T09:24:23Z</time>
      </trkpt>
      <trkpt lat="46.5953" lon="0.20419">
        <ele>133.4</ele>
        <time>2022-02-13T09:24:27Z</time>
      </trkpt>
      <trkpt lat="46.59523" lon="0.2041">
        <ele>133.2</ele>
        <time>2022-02-13T09:24:29Z</time>
      </trkpt>
      <trkpt lat="46.5951" lon="0.20398">
        <ele>132.6</ele>
        <time>2022-02-13T09:24:32Z</time>
      </trkpt>
      <trkpt lat="46.59505" lon="0.20392">
        <ele>132.4</ele>
        <time>2022-02-13T09:24:33Z</time>
      </trkpt>
      <trkpt lat="46.5949" lon="0.2038">
        <ele>132.6</ele>
        <time>2022-02-13T09:24:36Z</time>
      </trkpt>
      <trkpt lat="46.59477" lon="0.20366">
        <ele>133.2</ele>
        <time>2022-02-13T09:24:40Z</time>
      </trkpt>
      <trkpt lat="46.5947" lon="0.20358">
        <ele>133.4</ele>
        <time>2022-02-13T09:24:42Z</time>
      </trkpt>
      <trkpt lat="46.59449" lon="0.20336">
        <ele>133.8</ele>
        <time>2022-02-13T09:24:47Z</time>
      </trkpt>
      <trkpt lat="46.59442" lon="0.20327">
        <ele>133.8</ele>
        <time>2022-02-13T09:24:49Z</time>
      </trkpt>
      <trkpt lat="46.59432" lon="0.20315">
        <ele>133.8</ele>
        <time>2022-02-13T09:24:52Z</time>
      </trkpt>
      <trkpt lat="46.59405" lon="0.20278">
        <ele>133.6</ele>
        <time>2022-02-13T09:24:59Z</time>
      </trkpt>
      <trkpt lat="46.59395" lon="0.20263">
        <ele>133.4</ele>
        <time>2022-02-13T09:25:02Z</time>
      </trkpt>
      <trkpt lat="46.59386" lon="0.20249">
        <ele>133.4</ele>
        <time>2022-02-13T09:25:05Z</time>
      </trkpt>
      <trkpt lat="46.59381" lon="0.20238">
        <ele>133.4</ele>
        <time>2022-02-13T09:25:07Z</time>
      </trkpt>
      <trkpt lat="46.59378" lon="0.20226">
        <ele>133.6</ele>
        <time>2022-02-13T09:25:09Z</time>
      </trkpt>
      <trkpt lat="46.59373" lon="0.20212">
        <ele>133.6</ele>
        <time>2022-02-13T09:25:11Z</time>
      </trkpt>
      <trkpt lat="46.59363" lon="0.20196">
        <ele>133.6</ele>
        <time>2022-02-13T09:25:14Z</time>
      </trkpt>
      <trkpt lat="46.59358" lon="0.20184">
        <ele>133.4</ele>
        <time>2022-02-13T09:25:16Z</time>
      </trkpt>
      <trkpt lat="46.59353" lon="0.20176">
        <ele>133.2</ele>
        <time>2022-02-13T09:25:17Z</time>
      </trkpt>
      <trkpt lat="46.59334" lon="0.20142">
        <ele>133</ele>
        <time>2022-02-13T09:25:22Z</time>
      </trkpt>
      <trkpt lat="46.59324" lon="0.2013">
        <ele>132.8</ele>
        <time>2022-02-13T09:25:24Z</time>
      </trkpt>
      <trkpt lat="46.59319" lon="0.20127">
        <ele>132.8</ele>
        <time>2022-02-13T09:25:25Z</time>
      </trkpt>
      <trkpt lat="46.59302" lon="0.20122">
        <ele>133.6</ele>
        <time>2022-02-13T09:25:31Z</time>
      </trkpt>
      <trkpt lat="46.59296" lon="0.20126">
        <ele>134.6</ele>
        <time>2022-02-13T09:25:35Z</time>
      </trkpt>
      <trkpt lat="46.59294" lon="0.20128">
        <ele>134.8</ele>
        <time>2022-02-13T09:25:36Z</time>
      </trkpt>
      <trkpt lat="46.59289" lon="0.20134">
        <ele>135.6</ele>
        <time>2022-02-13T09:25:39Z</time>
      </trkpt>
      <trkpt lat="46.59284" lon="0.20141">
        <ele>135.8</ele>
        <time>2022-02-13T09:25:41Z</time>
      </trkpt>
      <trkpt lat="46.59269" lon="0.20158">
        <ele>136</ele>
        <time>2022-02-13T09:25:47Z</time>
      </trkpt>
      <trkpt lat="46.59258" lon="0.2017">
        <ele>136.6</ele>
        <time>2022-02-13T09:25:51Z</time>
      </trkpt>
      <trkpt lat="46.59251" lon="0.20179">
        <ele>137.2</ele>
        <time>2022-02-13T09:25:54Z</time>
      </trkpt>
      <trkpt lat="46.59245" lon="0.20189">
        <ele>137.8</ele>
        <time>2022-02-13T09:25:57Z</time>
      </trkpt>
      <trkpt lat="46.59236" lon="0.20203">
        <ele>138.4</ele>
        <time>2022-02-13T09:26:01Z</time>
      </trkpt>
      <trkpt lat="46.59228" lon="0.20219">
        <ele>138.8</ele>
        <time>2022-02-13T09:26:05Z</time>
      </trkpt>
      <trkpt lat="46.59221" lon="0.2023">
        <ele>139.2</ele>
        <time>2022-02-13T09:26:08Z</time>
      </trkpt>
      <trkpt lat="46.59208" lon="0.20254">
        <ele>139.6</ele>
        <time>2022-02-13T09:26:14Z</time>
      </trkpt>
      <trkpt lat="46.59205" lon="0.20261">
        <ele>139.8</ele>
        <time>2022-02-13T09:26:16Z</time>
      </trkpt>
      <trkpt lat="46.59196" lon="0.20279">
        <ele>140</ele>
        <time>2022-02-13T09:26:20Z</time>
      </trkpt>
      <trkpt lat="46.59183" lon="0.2031">
        <ele>141</ele>
        <time>2022-02-13T09:26:27Z</time>
      </trkpt>
      <trkpt lat="46.59164" lon="0.20348">
        <ele>141.4</ele>
        <time>2022-02-13T09:26:35Z</time>
      </trkpt>
      <trkpt lat="46.59152" lon="0.20375">
        <ele>142</ele>
        <time>2022-02-13T09:26:41Z</time>
      </trkpt>
      <trkpt lat="46.59142" lon="0.20395">
        <ele>142</ele>
        <time>2022-02-13T09:26:47Z</time>
      </trkpt>
      <trkpt lat="46.59129" lon="0.20424">
        <ele>142.2</ele>
        <time>2022-02-13T09:26:53Z</time>
      </trkpt>
      <trkpt lat="46.59115" lon="0.20446">
        <ele>141.6</ele>
        <time>2022-02-13T09:26:58Z</time>
      </trkpt>
      <trkpt lat="46.59106" lon="0.20463">
        <ele>141.4</ele>
        <time>2022-02-13T09:27:01Z</time>
      </trkpt>
      <trkpt lat="46.591" lon="0.20474">
        <ele>141.4</ele>
        <time>2022-02-13T09:27:03Z</time>
      </trkpt>
      <trkpt lat="46.59097" lon="0.2048">
        <ele>141.4</ele>
        <time>2022-02-13T09:27:04Z</time>
      </trkpt>
      <trkpt lat="46.59086" lon="0.20499">
        <ele>141.4</ele>
        <time>2022-02-13T09:27:08Z</time>
      </trkpt>
      <trkpt lat="46.59082" lon="0.20505">
        <ele>141.4</ele>
        <time>2022-02-13T09:27:09Z</time>
      </trkpt>
      <trkpt lat="46.59077" lon="0.20516">
        <ele>140.8</ele>
        <time>2022-02-13T09:27:11Z</time>
      </trkpt>
      <trkpt lat="46.59075" lon="0.20521">
        <ele>140.6</ele>
        <time>2022-02-13T09:27:12Z</time>
      </trkpt>
      <trkpt lat="46.59066" lon="0.2054">
        <ele>140.4</ele>
        <time>2022-02-13T09:27:15Z</time>
      </trkpt>
      <trkpt lat="46.59054" lon="0.20566">
        <ele>139.8</ele>
        <time>2022-02-13T09:27:19Z</time>
      </trkpt>
      <trkpt lat="46.59044" lon="0.20588">
        <ele>139.2</ele>
        <time>2022-02-13T09:27:22Z</time>
      </trkpt>
      <trkpt lat="46.59031" lon="0.2062">
        <ele>138.8</ele>
        <time>2022-02-13T09:27:27Z</time>
      </trkpt>
      <trkpt lat="46.59028" lon="0.20627">
        <ele>138.6</ele>
        <time>2022-02-13T09:27:28Z</time>
      </trkpt>
      <trkpt lat="46.59016" lon="0.20654">
        <ele>137.8</ele>
        <time>2022-02-13T09:27:32Z</time>
      </trkpt>
      <trkpt lat="46.59013" lon="0.20661">
        <ele>137.6</ele>
        <time>2022-02-13T09:27:33Z</time>
      </trkpt>
      <trkpt lat="46.59004" lon="0.2068">
        <ele>137.4</ele>
        <time>2022-02-13T09:27:36Z</time>
      </trkpt>
      <trkpt lat="46.59001" lon="0.20686">
        <ele>137.2</ele>
        <time>2022-02-13T09:27:37Z</time>
      </trkpt>
      <trkpt lat="46.58998" lon="0.20694">
        <ele>137.4</ele>
        <time>2022-02-13T09:27:38Z</time>
      </trkpt>
      <trkpt lat="46.58984" lon="0.20723">
        <ele>137.4</ele>
        <time>2022-02-13T09:27:43Z</time>
      </trkpt>
      <trkpt lat="46.58982" lon="0.20727">
        <ele>137.4</ele>
        <time>2022-02-13T09:27:44Z</time>
      </trkpt>
      <trkpt lat="46.58977" lon="0.20742">
        <ele>138</ele>
        <time>2022-02-13T09:27:47Z</time>
      </trkpt>
      <trkpt lat="46.58969" lon="0.20757">
        <ele>138.6</ele>
        <time>2022-02-13T09:27:51Z</time>
      </trkpt>
      <trkpt lat="46.58969" lon="0.20761">
        <ele>138.6</ele>
        <time>2022-02-13T09:27:52Z</time>
      </trkpt>
      <trkpt lat="46.58969" lon="0.20766">
        <ele>138.6</ele>
        <time>2022-02-13T09:27:53Z</time>
      </trkpt>
      <trkpt lat="46.58972" lon="0.20787">
        <ele>139</ele>
        <time>2022-02-13T09:27:58Z</time>
      </trkpt>
      <trkpt lat="46.58979" lon="0.20811">
        <ele>139.8</ele>
        <time>2022-02-13T09:28:03Z</time>
      </trkpt>
      <trkpt lat="46.58981" lon="0.20822">
        <ele>140</ele>
        <time>2022-02-13T09:28:05Z</time>
      </trkpt>
      <trkpt lat="46.58983" lon="0.20828">
        <ele>140</ele>
        <time>2022-02-13T09:28:06Z</time>
      </trkpt>
      <trkpt lat="46.58986" lon="0.20838">
        <ele>140.4</ele>
        <time>2022-02-13T09:28:08Z</time>
      </trkpt>
      <trkpt lat="46.5899" lon="0.20847">
        <ele>140.6</ele>
        <time>2022-02-13T09:28:10Z</time>
      </trkpt>
      <trkpt lat="46.58993" lon="0.20859">
        <ele>140.8</ele>
        <time>2022-02-13T09:28:12Z</time>
      </trkpt>
      <trkpt lat="46.58997" lon="0.2087">
        <ele>140.8</ele>
        <time>2022-02-13T09:28:14Z</time>
      </trkpt>
      <trkpt lat="46.58998" lon="0.20876">
        <ele>140.8</ele>
        <time>2022-02-13T09:28:15Z</time>
      </trkpt>
      <trkpt lat="46.59" lon="0.20882">
        <ele>140.8</ele>
        <time>2022-02-13T09:28:16Z</time>
      </trkpt>
      <trkpt lat="46.59003" lon="0.20893">
        <ele>140.8</ele>
        <time>2022-02-13T09:28:18Z</time>
      </trkpt>
      <trkpt lat="46.59009" lon="0.20904">
        <ele>140.6</ele>
        <time>2022-02-13T09:28:20Z</time>
      </trkpt>
      <trkpt lat="46.59018" lon="0.20928">
        <ele>140.6</ele>
        <time>2022-02-13T09:28:24Z</time>
      </trkpt>
      <trkpt lat="46.5902" lon="0.2094">
        <ele>140.6</ele>
        <time>2022-02-13T09:28:26Z</time>
      </trkpt>
      <trkpt lat="46.59022" lon="0.20945">
        <ele>140.6</ele>
        <time>2022-02-13T09:28:27Z</time>
      </trkpt>
      <trkpt lat="46.59025" lon="0.20956">
        <ele>140.8</ele>
        <time>2022-02-13T09:28:29Z</time>
      </trkpt>
      <trkpt lat="46.59028" lon="0.20968">
        <ele>140.8</ele>
        <time>2022-02-13T09:28:31Z</time>
      </trkpt>
      <trkpt lat="46.59041" lon="0.21003">
        <ele>141.4</ele>
        <time>2022-02-13T09:28:37Z</time>
      </trkpt>
      <trkpt lat="46.59046" lon="0.21015">
        <ele>141.8</ele>
        <time>2022-02-13T09:28:39Z</time>
      </trkpt>
      <trkpt lat="46.59056" lon="0.21035">
        <ele>142</ele>
        <time>2022-02-13T09:28:43Z</time>
      </trkpt>
      <trkpt lat="46.59064" lon="0.21052">
        <ele>141.8</ele>
        <time>2022-02-13T09:28:46Z</time>
      </trkpt>
      <trkpt lat="46.59071" lon="0.21068">
        <ele>141.6</ele>
        <time>2022-02-13T09:28:49Z</time>
      </trkpt>
      <trkpt lat="46.59077" lon="0.21093">
        <ele>141.6</ele>
        <time>2022-02-13T09:28:53Z</time>
      </trkpt>
      <trkpt lat="46.59083" lon="0.21106">
        <ele>141.6</ele>
        <time>2022-02-13T09:28:55Z</time>
      </trkpt>
      <trkpt lat="46.59095" lon="0.2114">
        <ele>141.4</ele>
        <time>2022-02-13T09:29:00Z</time>
      </trkpt>
      <trkpt lat="46.59098" lon="0.21148">
        <ele>141.4</ele>
        <time>2022-02-13T09:29:01Z</time>
      </trkpt>
      <trkpt lat="46.59108" lon="0.21192">
        <ele>142.8</ele>
        <time>2022-02-13T09:29:07Z</time>
      </trkpt>
      <trkpt lat="46.59111" lon="0.212">
        <ele>143.2</ele>
        <time>2022-02-13T09:29:08Z</time>
      </trkpt>
      <trkpt lat="46.59115" lon="0.21215">
        <ele>143.2</ele>
        <time>2022-02-13T09:29:10Z</time>
      </trkpt>
      <trkpt lat="46.59121" lon="0.21232">
        <ele>143</ele>
        <time>2022-02-13T09:29:12Z</time>
      </trkpt>
      <trkpt lat="46.59138" lon="0.21288">
        <ele>141.6</ele>
        <time>2022-02-13T09:29:19Z</time>
      </trkpt>
      <trkpt lat="46.59153" lon="0.21335">
        <ele>141.4</ele>
        <time>2022-02-13T09:29:25Z</time>
      </trkpt>
      <trkpt lat="46.59169" lon="0.21378">
        <ele>141.6</ele>
        <time>2022-02-13T09:29:30Z</time>
      </trkpt>
      <trkpt lat="46.59182" lon="0.21413">
        <ele>140.4</ele>
        <time>2022-02-13T09:29:34Z</time>
      </trkpt>
      <trkpt lat="46.59194" lon="0.2145">
        <ele>139.8</ele>
        <time>2022-02-13T09:29:38Z</time>
      </trkpt>
      <trkpt lat="46.59201" lon="0.21469">
        <ele>139.4</ele>
        <time>2022-02-13T09:29:40Z</time>
      </trkpt>
      <trkpt lat="46.59214" lon="0.21507">
        <ele>138.4</ele>
        <time>2022-02-13T09:29:44Z</time>
      </trkpt>
      <trkpt lat="46.59217" lon="0.21517">
        <ele>138.2</ele>
        <time>2022-02-13T09:29:45Z</time>
      </trkpt>
      <trkpt lat="46.5923" lon="0.21553">
        <ele>137.2</ele>
        <time>2022-02-13T09:29:49Z</time>
      </trkpt>
      <trkpt lat="46.59236" lon="0.21572">
        <ele>137</ele>
        <time>2022-02-13T09:29:51Z</time>
      </trkpt>
      <trkpt lat="46.59252" lon="0.21619">
        <ele>138</ele>
        <time>2022-02-13T09:29:57Z</time>
      </trkpt>
      <trkpt lat="46.59257" lon="0.21633">
        <ele>138.2</ele>
        <time>2022-02-13T09:29:59Z</time>
      </trkpt>
      <trkpt lat="46.59267" lon="0.21659">
        <ele>138.4</ele>
        <time>2022-02-13T09:30:03Z</time>
      </trkpt>
      <trkpt lat="46.59273" lon="0.21678">
        <ele>138.4</ele>
        <time>2022-02-13T09:30:06Z</time>
      </trkpt>
      <trkpt lat="46.59281" lon="0.21701">
        <ele>138</ele>
        <time>2022-02-13T09:30:10Z</time>
      </trkpt>
      <trkpt lat="46.59292" lon="0.21736">
        <ele>138</ele>
        <time>2022-02-13T09:30:15Z</time>
      </trkpt>
      <trkpt lat="46.59293" lon="0.21744">
        <ele>138</ele>
        <time>2022-02-13T09:30:16Z</time>
      </trkpt>
      <trkpt lat="46.59292" lon="0.21759">
        <ele>138.2</ele>
        <time>2022-02-13T09:30:18Z</time>
      </trkpt>
      <trkpt lat="46.59291" lon="0.21766">
        <ele>138.2</ele>
        <time>2022-02-13T09:30:19Z</time>
      </trkpt>
      <trkpt lat="46.59288" lon="0.21771">
        <ele>138.2</ele>
        <time>2022-02-13T09:30:20Z</time>
      </trkpt>
      <trkpt lat="46.59279" lon="0.21789">
        <ele>138.4</ele>
        <time>2022-02-13T09:30:23Z</time>
      </trkpt>
      <trkpt lat="46.59266" lon="0.21816">
        <ele>139.4</ele>
        <time>2022-02-13T09:30:28Z</time>
      </trkpt>
      <trkpt lat="46.59264" lon="0.21822">
        <ele>139.4</ele>
        <time>2022-02-13T09:30:29Z</time>
      </trkpt>
      <trkpt lat="46.59249" lon="0.21855">
        <ele>139.6</ele>
        <time>2022-02-13T09:30:36Z</time>
      </trkpt>
      <trkpt lat="46.59242" lon="0.21872">
        <ele>140.4</ele>
        <time>2022-02-13T09:30:40Z</time>
      </trkpt>
      <trkpt lat="46.59231" lon="0.21892">
        <ele>141.2</ele>
        <time>2022-02-13T09:30:45Z</time>
      </trkpt>
      <trkpt lat="46.59228" lon="0.21899">
        <ele>141.4</ele>
        <time>2022-02-13T09:30:47Z</time>
      </trkpt>
      <trkpt lat="46.59218" lon="0.21921">
        <ele>142.4</ele>
        <time>2022-02-13T09:30:52Z</time>
      </trkpt>
      <trkpt lat="46.59214" lon="0.21929">
        <ele>143.6</ele>
        <time>2022-02-13T09:30:54Z</time>
      </trkpt>
      <trkpt lat="46.59203" lon="0.21955">
        <ele>144.4</ele>
        <time>2022-02-13T09:31:00Z</time>
      </trkpt>
      <trkpt lat="46.5919" lon="0.21981">
        <ele>144.2</ele>
        <time>2022-02-13T09:31:07Z</time>
      </trkpt>
      <trkpt lat="46.59177" lon="0.22007">
        <ele>144.6</ele>
        <time>2022-02-13T09:31:14Z</time>
      </trkpt>
      <trkpt lat="46.59166" lon="0.22025">
        <ele>145.2</ele>
        <time>2022-02-13T09:31:19Z</time>
      </trkpt>
      <trkpt lat="46.59156" lon="0.22048">
        <ele>145.6</ele>
        <time>2022-02-13T09:31:25Z</time>
      </trkpt>
      <trkpt lat="46.59154" lon="0.22052">
        <ele>145.8</ele>
        <time>2022-02-13T09:31:26Z</time>
      </trkpt>
      <trkpt lat="46.59145" lon="0.22071">
        <ele>146.4</ele>
        <time>2022-02-13T09:31:30Z</time>
      </trkpt>
      <trkpt lat="46.59126" lon="0.22106">
        <ele>146.4</ele>
        <time>2022-02-13T09:31:37Z</time>
      </trkpt>
      <trkpt lat="46.59113" lon="0.22135">
        <ele>146.6</ele>
        <time>2022-02-13T09:31:43Z</time>
      </trkpt>
      <trkpt lat="46.59101" lon="0.22161">
        <ele>145.8</ele>
        <time>2022-02-13T09:31:48Z</time>
      </trkpt>
      <trkpt lat="46.59098" lon="0.22166">
        <ele>145.8</ele>
        <time>2022-02-13T09:31:49Z</time>
      </trkpt>
      <trkpt lat="46.59086" lon="0.22187">
        <ele>145.8</ele>
        <time>2022-02-13T09:31:53Z</time>
      </trkpt>
      <trkpt lat="46.59077" lon="0.22204">
        <ele>145.6</ele>
        <time>2022-02-13T09:31:56Z</time>
      </trkpt>
      <trkpt lat="46.59068" lon="0.22222">
        <ele>145.6</ele>
        <time>2022-02-13T09:31:59Z</time>
      </trkpt>
      <trkpt lat="46.59059" lon="0.22241">
        <ele>145.4</ele>
        <time>2022-02-13T09:32:02Z</time>
      </trkpt>
      <trkpt lat="46.59037" lon="0.22283">
        <ele>144.6</ele>
        <time>2022-02-13T09:32:09Z</time>
      </trkpt>
      <trkpt lat="46.5903" lon="0.22295">
        <ele>144.6</ele>
        <time>2022-02-13T09:32:11Z</time>
      </trkpt>
      <trkpt lat="46.59014" lon="0.22326">
        <ele>143.8</ele>
        <time>2022-02-13T09:32:16Z</time>
      </trkpt>
      <trkpt lat="46.59006" lon="0.22341">
        <ele>143.6</ele>
        <time>2022-02-13T09:32:18Z</time>
      </trkpt>
      <trkpt lat="46.5899" lon="0.22371">
        <ele>143</ele>
        <time>2022-02-13T09:32:23Z</time>
      </trkpt>
      <trkpt lat="46.58987" lon="0.22379">
        <ele>142.4</ele>
        <time>2022-02-13T09:32:24Z</time>
      </trkpt>
      <trkpt lat="46.58978" lon="0.224">
        <ele>141.8</ele>
        <time>2022-02-13T09:32:28Z</time>
      </trkpt>
      <trkpt lat="46.58965" lon="0.22428">
        <ele>142.6</ele>
        <time>2022-02-13T09:32:33Z</time>
      </trkpt>
      <trkpt lat="46.58945" lon="0.22468">
        <ele>142.6</ele>
        <time>2022-02-13T09:32:39Z</time>
      </trkpt>
      <trkpt lat="46.58926" lon="0.22509">
        <ele>142.6</ele>
        <time>2022-02-13T09:32:45Z</time>
      </trkpt>
      <trkpt lat="46.58905" lon="0.2255">
        <ele>142.4</ele>
        <time>2022-02-13T09:32:51Z</time>
      </trkpt>
      <trkpt lat="46.58888" lon="0.2259">
        <ele>142</ele>
        <time>2022-02-13T09:32:57Z</time>
      </trkpt>
      <trkpt lat="46.58878" lon="0.22609">
        <ele>141.8</ele>
        <time>2022-02-13T09:33:00Z</time>
      </trkpt>
      <trkpt lat="46.58867" lon="0.22633">
        <ele>141.6</ele>
        <time>2022-02-13T09:33:04Z</time>
      </trkpt>
      <trkpt lat="46.58851" lon="0.2266">
        <ele>141.4</ele>
        <time>2022-02-13T09:33:09Z</time>
      </trkpt>
      <trkpt lat="46.58846" lon="0.22671">
        <ele>141.6</ele>
        <time>2022-02-13T09:33:11Z</time>
      </trkpt>
      <trkpt lat="46.5883" lon="0.22703">
        <ele>141.8</ele>
        <time>2022-02-13T09:33:17Z</time>
      </trkpt>
      <trkpt lat="46.5882" lon="0.22722">
        <ele>142</ele>
        <time>2022-02-13T09:33:21Z</time>
      </trkpt>
      <trkpt lat="46.58816" lon="0.2273">
        <ele>141.8</ele>
        <time>2022-02-13T09:33:23Z</time>
      </trkpt>
      <trkpt lat="46.58813" lon="0.22736">
        <ele>141.8</ele>
        <time>2022-02-13T09:33:24Z</time>
      </trkpt>
      <trkpt lat="46.58805" lon="0.22759">
        <ele>141.6</ele>
        <time>2022-02-13T09:33:28Z</time>
      </trkpt>
      <trkpt lat="46.58795" lon="0.22779">
        <ele>141.6</ele>
        <time>2022-02-13T09:33:32Z</time>
      </trkpt>
      <trkpt lat="46.58789" lon="0.2279">
        <ele>141.6</ele>
        <time>2022-02-13T09:33:34Z</time>
      </trkpt>
      <trkpt lat="46.58787" lon="0.22796">
        <ele>141.6</ele>
        <time>2022-02-13T09:33:35Z</time>
      </trkpt>
      <trkpt lat="46.58784" lon="0.22802">
        <ele>141.8</ele>
        <time>2022-02-13T09:33:36Z</time>
      </trkpt>
      <trkpt lat="46.58774" lon="0.22819">
        <ele>141.8</ele>
        <time>2022-02-13T09:33:40Z</time>
      </trkpt>
      <trkpt lat="46.58762" lon="0.2284">
        <ele>141.8</ele>
        <time>2022-02-13T09:33:45Z</time>
      </trkpt>
      <trkpt lat="46.58743" lon="0.22882">
        <ele>141.8</ele>
        <time>2022-02-13T09:33:52Z</time>
      </trkpt>
      <trkpt lat="46.58729" lon="0.22909">
        <ele>142</ele>
        <time>2022-02-13T09:33:57Z</time>
      </trkpt>
      <trkpt lat="46.58723" lon="0.22919">
        <ele>141.8</ele>
        <time>2022-02-13T09:33:59Z</time>
      </trkpt>
      <trkpt lat="46.5872" lon="0.22929">
        <ele>142</ele>
        <time>2022-02-13T09:34:01Z</time>
      </trkpt>
      <trkpt lat="46.58712" lon="0.22949">
        <ele>142</ele>
        <time>2022-02-13T09:34:05Z</time>
      </trkpt>
      <trkpt lat="46.58697" lon="0.2298">
        <ele>141.6</ele>
        <time>2022-02-13T09:34:11Z</time>
      </trkpt>
      <trkpt lat="46.58684" lon="0.23009">
        <ele>141.4</ele>
        <time>2022-02-13T09:34:16Z</time>
      </trkpt>
      <trkpt lat="46.58673" lon="0.23033">
        <ele>141</ele>
        <time>2022-02-13T09:34:19Z</time>
      </trkpt>
      <trkpt lat="46.58667" lon="0.23047">
        <ele>140.6</ele>
        <time>2022-02-13T09:34:21Z</time>
      </trkpt>
      <trkpt lat="46.58663" lon="0.23054">
        <ele>140.4</ele>
        <time>2022-02-13T09:34:22Z</time>
      </trkpt>
      <trkpt lat="46.5866" lon="0.2306">
        <ele>140.2</ele>
        <time>2022-02-13T09:34:23Z</time>
      </trkpt>
      <trkpt lat="46.58653" lon="0.23071">
        <ele>139.8</ele>
        <time>2022-02-13T09:34:25Z</time>
      </trkpt>
      <trkpt lat="46.58652" lon="0.23076">
        <ele>139.6</ele>
        <time>2022-02-13T09:34:26Z</time>
      </trkpt>
      <trkpt lat="46.58642" lon="0.23094">
        <ele>139.8</ele>
        <time>2022-02-13T09:34:29Z</time>
      </trkpt>
      <trkpt lat="46.58634" lon="0.23103">
        <ele>140</ele>
        <time>2022-02-13T09:34:31Z</time>
      </trkpt>
      <trkpt lat="46.58629" lon="0.23108">
        <ele>140</ele>
        <time>2022-02-13T09:34:32Z</time>
      </trkpt>
      <trkpt lat="46.58609" lon="0.23125">
        <ele>140.2</ele>
        <time>2022-02-13T09:34:36Z</time>
      </trkpt>
      <trkpt lat="46.58605" lon="0.23129">
        <ele>140.4</ele>
        <time>2022-02-13T09:34:37Z</time>
      </trkpt>
      <trkpt lat="46.58598" lon="0.23135">
        <ele>140.6</ele>
        <time>2022-02-13T09:34:39Z</time>
      </trkpt>
      <trkpt lat="46.58585" lon="0.23144">
        <ele>141</ele>
        <time>2022-02-13T09:34:42Z</time>
      </trkpt>
      <trkpt lat="46.58565" lon="0.23157">
        <ele>141</ele>
        <time>2022-02-13T09:34:47Z</time>
      </trkpt>
      <trkpt lat="46.58547" lon="0.23168">
        <ele>141.4</ele>
        <time>2022-02-13T09:34:51Z</time>
      </trkpt>
      <trkpt lat="46.58544" lon="0.2317">
        <ele>141.4</ele>
        <time>2022-02-13T09:34:52Z</time>
      </trkpt>
      <trkpt lat="46.58532" lon="0.23179">
        <ele>141.6</ele>
        <time>2022-02-13T09:34:57Z</time>
      </trkpt>
      <trkpt lat="46.58514" lon="0.23199">
        <ele>141.8</ele>
        <time>2022-02-13T09:35:03Z</time>
      </trkpt>
      <trkpt lat="46.58507" lon="0.23207">
        <ele>142.8</ele>
        <time>2022-02-13T09:35:05Z</time>
      </trkpt>
      <trkpt lat="46.58505" lon="0.23211">
        <ele>143</ele>
        <time>2022-02-13T09:35:06Z</time>
      </trkpt>
      <trkpt lat="46.58499" lon="0.23217">
        <ele>143.2</ele>
        <time>2022-02-13T09:35:08Z</time>
      </trkpt>
      <trkpt lat="46.58484" lon="0.23235">
        <ele>143</ele>
        <time>2022-02-13T09:35:14Z</time>
      </trkpt>
      <trkpt lat="46.58472" lon="0.23253">
        <ele>143</ele>
        <time>2022-02-13T09:35:19Z</time>
      </trkpt>
      <trkpt lat="46.5847" lon="0.23256">
        <ele>143</ele>
        <time>2022-02-13T09:35:20Z</time>
      </trkpt>
      <trkpt lat="46.58463" lon="0.23267">
        <ele>143.8</ele>
        <time>2022-02-13T09:35:23Z</time>
      </trkpt>
      <trkpt lat="46.58458" lon="0.2327">
        <ele>143.8</ele>
        <time>2022-02-13T09:35:24Z</time>
      </trkpt>
      <trkpt lat="46.58455" lon="0.23274">
        <ele>143.8</ele>
        <time>2022-02-13T09:35:25Z</time>
      </trkpt>
      <trkpt lat="46.5845" lon="0.23282">
        <ele>143.8</ele>
        <time>2022-02-13T09:35:27Z</time>
      </trkpt>
      <trkpt lat="46.58444" lon="0.23297">
        <ele>143.4</ele>
        <time>2022-02-13T09:35:30Z</time>
      </trkpt>
      <trkpt lat="46.58439" lon="0.23308">
        <ele>143.4</ele>
        <time>2022-02-13T09:35:32Z</time>
      </trkpt>
      <trkpt lat="46.58429" lon="0.23343">
        <ele>142.8</ele>
        <time>2022-02-13T09:35:38Z</time>
      </trkpt>
      <trkpt lat="46.58422" lon="0.23362">
        <ele>142.4</ele>
        <time>2022-02-13T09:35:43Z</time>
      </trkpt>
      <trkpt lat="46.58422" lon="0.23382">
        <ele>142.2</ele>
        <time>2022-02-13T09:35:47Z</time>
      </trkpt>
      <trkpt lat="46.58422" lon="0.23387">
        <ele>141.8</ele>
        <time>2022-02-13T09:35:48Z</time>
      </trkpt>
      <trkpt lat="46.58421" lon="0.23393">
        <ele>141.8</ele>
        <time>2022-02-13T09:35:49Z</time>
      </trkpt>
      <trkpt lat="46.5842" lon="0.234">
        <ele>141.6</ele>
        <time>2022-02-13T09:35:50Z</time>
      </trkpt>
      <trkpt lat="46.58418" lon="0.23419">
        <ele>140.6</ele>
        <time>2022-02-13T09:35:54Z</time>
      </trkpt>
      <trkpt lat="46.58414" lon="0.23446">
        <ele>141</ele>
        <time>2022-02-13T09:36:01Z</time>
      </trkpt>
      <trkpt lat="46.58413" lon="0.23477">
        <ele>141.2</ele>
        <time>2022-02-13T09:36:06Z</time>
      </trkpt>
      <trkpt lat="46.58419" lon="0.23526">
        <ele>140.6</ele>
        <time>2022-02-13T09:36:14Z</time>
      </trkpt>
      <trkpt lat="46.5842" lon="0.23563">
        <ele>141.2</ele>
        <time>2022-02-13T09:36:21Z</time>
      </trkpt>
      <trkpt lat="46.58413" lon="0.23576">
        <ele>141.6</ele>
        <time>2022-02-13T09:36:24Z</time>
      </trkpt>
      <trkpt lat="46.58411" lon="0.2358">
        <ele>142</ele>
        <time>2022-02-13T09:36:25Z</time>
      </trkpt>
      <trkpt lat="46.58397" lon="0.23597">
        <ele>142.6</ele>
        <time>2022-02-13T09:36:31Z</time>
      </trkpt>
      <trkpt lat="46.58392" lon="0.23602">
        <ele>142.8</ele>
        <time>2022-02-13T09:36:33Z</time>
      </trkpt>
      <trkpt lat="46.5838" lon="0.23618">
        <ele>143.4</ele>
        <time>2022-02-13T09:36:38Z</time>
      </trkpt>
      <trkpt lat="46.58366" lon="0.23635">
        <ele>143.8</ele>
        <time>2022-02-13T09:36:44Z</time>
      </trkpt>
      <trkpt lat="46.58364" lon="0.23638">
        <ele>143.8</ele>
        <time>2022-02-13T09:36:45Z</time>
      </trkpt>
      <trkpt lat="46.5835" lon="0.23659">
        <ele>144.4</ele>
        <time>2022-02-13T09:36:52Z</time>
      </trkpt>
      <trkpt lat="46.58335" lon="0.23686">
        <ele>144.4</ele>
        <time>2022-02-13T09:37:00Z</time>
      </trkpt>
      <trkpt lat="46.58321" lon="0.2371">
        <ele>144.4</ele>
        <time>2022-02-13T09:37:08Z</time>
      </trkpt>
      <trkpt lat="46.5831" lon="0.23732">
        <ele>145</ele>
        <time>2022-02-13T09:37:15Z</time>
      </trkpt>
      <trkpt lat="46.58309" lon="0.23735">
        <ele>145.2</ele>
        <time>2022-02-13T09:37:16Z</time>
      </trkpt>
      <trkpt lat="46.58297" lon="0.23756">
        <ele>145.2</ele>
        <time>2022-02-13T09:37:23Z</time>
      </trkpt>
      <trkpt lat="46.58285" lon="0.23778">
        <ele>145.8</ele>
        <time>2022-02-13T09:37:30Z</time>
      </trkpt>
      <trkpt lat="46.58271" lon="0.23799">
        <ele>146</ele>
        <time>2022-02-13T09:37:36Z</time>
      </trkpt>
      <trkpt lat="46.58265" lon="0.2381">
        <ele>146</ele>
        <time>2022-02-13T09:37:39Z</time>
      </trkpt>
      <trkpt lat="46.58252" lon="0.23824">
        <ele>145.8</ele>
        <time>2022-02-13T09:37:44Z</time>
      </trkpt>
      <trkpt lat="46.58251" lon="0.23826">
        <ele>145.8</ele>
        <time>2022-02-13T09:37:45Z</time>
      </trkpt>
      <trkpt lat="46.58242" lon="0.23843">
        <ele>146.2</ele>
        <time>2022-02-13T09:37:50Z</time>
      </trkpt>
      <trkpt lat="46.5824" lon="0.23847">
        <ele>146.4</ele>
        <time>2022-02-13T09:37:51Z</time>
      </trkpt>
      <trkpt lat="46.58226" lon="0.23872">
        <ele>147.2</ele>
        <time>2022-02-13T09:37:57Z</time>
      </trkpt>
      <trkpt lat="46.5821" lon="0.239">
        <ele>147.2</ele>
        <time>2022-02-13T09:38:04Z</time>
      </trkpt>
      <trkpt lat="46.58193" lon="0.23918">
        <ele>147.2</ele>
        <time>2022-02-13T09:38:10Z</time>
      </trkpt>
      <trkpt lat="46.58177" lon="0.23935">
        <ele>147.8</ele>
        <time>2022-02-13T09:38:16Z</time>
      </trkpt>
      <trkpt lat="46.5816" lon="0.2396">
        <ele>147.8</ele>
        <time>2022-02-13T09:38:21Z</time>
      </trkpt>
      <trkpt lat="46.58157" lon="0.23965">
        <ele>148</ele>
        <time>2022-02-13T09:38:22Z</time>
      </trkpt>
      <trkpt lat="46.58143" lon="0.23988">
        <ele>148.2</ele>
        <time>2022-02-13T09:38:27Z</time>
      </trkpt>
      <trkpt lat="46.58137" lon="0.23998">
        <ele>148</ele>
        <time>2022-02-13T09:38:29Z</time>
      </trkpt>
      <trkpt lat="46.58125" lon="0.2402">
        <ele>148.2</ele>
        <time>2022-02-13T09:38:33Z</time>
      </trkpt>
      <trkpt lat="46.58117" lon="0.24036">
        <ele>148.4</ele>
        <time>2022-02-13T09:38:36Z</time>
      </trkpt>
      <trkpt lat="46.58099" lon="0.24062">
        <ele>148.8</ele>
        <time>2022-02-13T09:38:42Z</time>
      </trkpt>
      <trkpt lat="46.58092" lon="0.24069">
        <ele>149</ele>
        <time>2022-02-13T09:38:44Z</time>
      </trkpt>
      <trkpt lat="46.58089" lon="0.24073">
        <ele>149.2</ele>
        <time>2022-02-13T09:38:45Z</time>
      </trkpt>
      <trkpt lat="46.58079" lon="0.24082">
        <ele>149.6</ele>
        <time>2022-02-13T09:38:48Z</time>
      </trkpt>
      <trkpt lat="46.5806" lon="0.24098">
        <ele>148.2</ele>
        <time>2022-02-13T09:38:53Z</time>
      </trkpt>
      <trkpt lat="46.58056" lon="0.24101">
        <ele>147.8</ele>
        <time>2022-02-13T09:38:54Z</time>
      </trkpt>
      <trkpt lat="46.58026" lon="0.24119">
        <ele>147.6</ele>
        <time>2022-02-13T09:39:01Z</time>
      </trkpt>
      <trkpt lat="46.58021" lon="0.24121">
        <ele>147.6</ele>
        <time>2022-02-13T09:39:02Z</time>
      </trkpt>
      <trkpt lat="46.58" lon="0.24129">
        <ele>147.4</ele>
        <time>2022-02-13T09:39:07Z</time>
      </trkpt>
      <trkpt lat="46.57968" lon="0.24144">
        <ele>148.4</ele>
        <time>2022-02-13T09:39:16Z</time>
      </trkpt>
      <trkpt lat="46.57928" lon="0.24159">
        <ele>148.8</ele>
        <time>2022-02-13T09:39:27Z</time>
      </trkpt>
      <trkpt lat="46.57925" lon="0.2416">
        <ele>149</ele>
        <time>2022-02-13T09:39:28Z</time>
      </trkpt>
      <trkpt lat="46.57889" lon="0.24171">
        <ele>148.4</ele>
        <time>2022-02-13T09:39:38Z</time>
      </trkpt>
      <trkpt lat="46.57852" lon="0.2418">
        <ele>148</ele>
        <time>2022-02-13T09:39:48Z</time>
      </trkpt>
      <trkpt lat="46.57823" lon="0.24187">
        <ele>148.6</ele>
        <time>2022-02-13T09:39:56Z</time>
      </trkpt>
      <trkpt lat="46.57807" lon="0.24192">
        <ele>147.8</ele>
        <time>2022-02-13T09:40:00Z</time>
      </trkpt>
      <trkpt lat="46.57786" lon="0.242">
        <ele>148</ele>
        <time>2022-02-13T09:40:05Z</time>
      </trkpt>
      <trkpt lat="46.57749" lon="0.24214">
        <ele>147.4</ele>
        <time>2022-02-13T09:40:13Z</time>
      </trkpt>
      <trkpt lat="46.57714" lon="0.2423">
        <ele>148.6</ele>
        <time>2022-02-13T09:40:21Z</time>
      </trkpt>
      <trkpt lat="46.57677" lon="0.24259">
        <ele>147.4</ele>
        <time>2022-02-13T09:40:31Z</time>
      </trkpt>
      <trkpt lat="46.57663" lon="0.24273">
        <ele>146.6</ele>
        <time>2022-02-13T09:40:35Z</time>
      </trkpt>
      <trkpt lat="46.57649" lon="0.24287">
        <ele>146.8</ele>
        <time>2022-02-13T09:40:39Z</time>
      </trkpt>
      <trkpt lat="46.57621" lon="0.24322">
        <ele>147.2</ele>
        <time>2022-02-13T09:40:48Z</time>
      </trkpt>
      <trkpt lat="46.57595" lon="0.2435">
        <ele>147</ele>
        <time>2022-02-13T09:40:56Z</time>
      </trkpt>
      <trkpt lat="46.57578" lon="0.24358">
        <ele>147</ele>
        <time>2022-02-13T09:41:00Z</time>
      </trkpt>
      <trkpt lat="46.57569" lon="0.2436">
        <ele>146.6</ele>
        <time>2022-02-13T09:41:02Z</time>
      </trkpt>
      <trkpt lat="46.57562" lon="0.24363">
        <ele>146.4</ele>
        <time>2022-02-13T09:41:04Z</time>
      </trkpt>
      <trkpt lat="46.57548" lon="0.24372">
        <ele>146.2</ele>
        <time>2022-02-13T09:41:08Z</time>
      </trkpt>
      <trkpt lat="46.57544" lon="0.24373">
        <ele>146</ele>
        <time>2022-02-13T09:41:09Z</time>
      </trkpt>
      <trkpt lat="46.57535" lon="0.24373">
        <ele>145.6</ele>
        <time>2022-02-13T09:41:12Z</time>
      </trkpt>
      <trkpt lat="46.57531" lon="0.24372">
        <ele>145.6</ele>
        <time>2022-02-13T09:41:13Z</time>
      </trkpt>
      <trkpt lat="46.57523" lon="0.24372">
        <ele>145.4</ele>
        <time>2022-02-13T09:41:15Z</time>
      </trkpt>
      <trkpt lat="46.57514" lon="0.24373">
        <ele>145.6</ele>
        <time>2022-02-13T09:41:17Z</time>
      </trkpt>
      <trkpt lat="46.57493" lon="0.24379">
        <ele>145.4</ele>
        <time>2022-02-13T09:41:22Z</time>
      </trkpt>
      <trkpt lat="46.57482" lon="0.24377">
        <ele>145.2</ele>
        <time>2022-02-13T09:41:25Z</time>
      </trkpt>
      <trkpt lat="46.57474" lon="0.24373">
        <ele>145</ele>
        <time>2022-02-13T09:41:27Z</time>
      </trkpt>
      <trkpt lat="46.57463" lon="0.24363">
        <ele>144.4</ele>
        <time>2022-02-13T09:41:30Z</time>
      </trkpt>
      <trkpt lat="46.57459" lon="0.24359">
        <ele>144.4</ele>
        <time>2022-02-13T09:41:31Z</time>
      </trkpt>
      <trkpt lat="46.57455" lon="0.24354">
        <ele>144</ele>
        <time>2022-02-13T09:41:32Z</time>
      </trkpt>
      <trkpt lat="46.57446" lon="0.24344">
        <ele>143.2</ele>
        <time>2022-02-13T09:41:34Z</time>
      </trkpt>
      <trkpt lat="46.57436" lon="0.24333">
        <ele>141.8</ele>
        <time>2022-02-13T09:41:36Z</time>
      </trkpt>
      <trkpt lat="46.57431" lon="0.24326">
        <ele>141.2</ele>
        <time>2022-02-13T09:41:37Z</time>
      </trkpt>
      <trkpt lat="46.57426" lon="0.2432">
        <ele>140.6</ele>
        <time>2022-02-13T09:41:38Z</time>
      </trkpt>
      <trkpt lat="46.57413" lon="0.24307">
        <ele>139.6</ele>
        <time>2022-02-13T09:41:40Z</time>
      </trkpt>
      <trkpt lat="46.57405" lon="0.24299">
        <ele>139</ele>
        <time>2022-02-13T09:41:41Z</time>
      </trkpt>
      <trkpt lat="46.57392" lon="0.24286">
        <ele>137.8</ele>
        <time>2022-02-13T09:41:43Z</time>
      </trkpt>
      <trkpt lat="46.57372" lon="0.24264">
        <ele>136.6</ele>
        <time>2022-02-13T09:41:46Z</time>
      </trkpt>
      <trkpt lat="46.57365" lon="0.2426">
        <ele>135.6</ele>
        <time>2022-02-13T09:41:47Z</time>
      </trkpt>
      <trkpt lat="46.57358" lon="0.24258">
        <ele>134.8</ele>
        <time>2022-02-13T09:41:48Z</time>
      </trkpt>
      <trkpt lat="46.57345" lon="0.24255">
        <ele>133.4</ele>
        <time>2022-02-13T09:41:50Z</time>
      </trkpt>
      <trkpt lat="46.57337" lon="0.24254">
        <ele>132.4</ele>
        <time>2022-02-13T09:41:51Z</time>
      </trkpt>
      <trkpt lat="46.5733" lon="0.24253">
        <ele>131</ele>
        <time>2022-02-13T09:41:52Z</time>
      </trkpt>
      <trkpt lat="46.57305" lon="0.24252">
        <ele>128.8</ele>
        <time>2022-02-13T09:41:55Z</time>
      </trkpt>
      <trkpt lat="46.57297" lon="0.24255">
        <ele>127.4</ele>
        <time>2022-02-13T09:41:56Z</time>
      </trkpt>
      <trkpt lat="46.57289" lon="0.24258">
        <ele>126.4</ele>
        <time>2022-02-13T09:41:57Z</time>
      </trkpt>
      <trkpt lat="46.57282" lon="0.24263">
        <ele>125.8</ele>
        <time>2022-02-13T09:41:58Z</time>
      </trkpt>
      <trkpt lat="46.57273" lon="0.24268">
        <ele>125</ele>
        <time>2022-02-13T09:41:59Z</time>
      </trkpt>
      <trkpt lat="46.57265" lon="0.24275">
        <ele>123.6</ele>
        <time>2022-02-13T09:42:00Z</time>
      </trkpt>
      <trkpt lat="46.57257" lon="0.24282">
        <ele>122.2</ele>
        <time>2022-02-13T09:42:01Z</time>
      </trkpt>
      <trkpt lat="46.5725" lon="0.24288">
        <ele>121</ele>
        <time>2022-02-13T09:42:02Z</time>
      </trkpt>
      <trkpt lat="46.57243" lon="0.24294">
        <ele>119.2</ele>
        <time>2022-02-13T09:42:03Z</time>
      </trkpt>
      <trkpt lat="46.57238" lon="0.24297">
        <ele>118.2</ele>
        <time>2022-02-13T09:42:04Z</time>
      </trkpt>
      <trkpt lat="46.57234" lon="0.24299">
        <ele>116.6</ele>
        <time>2022-02-13T09:42:05Z</time>
      </trkpt>
      <trkpt lat="46.57231" lon="0.24297">
        <ele>115.2</ele>
        <time>2022-02-13T09:42:06Z</time>
      </trkpt>
      <trkpt lat="46.57229" lon="0.24294">
        <ele>114.4</ele>
        <time>2022-02-13T09:42:07Z</time>
      </trkpt>
      <trkpt lat="46.57228" lon="0.2429">
        <ele>113.8</ele>
        <time>2022-02-13T09:42:08Z</time>
      </trkpt>
      <trkpt lat="46.57228" lon="0.24284">
        <ele>113</ele>
        <time>2022-02-13T09:42:09Z</time>
      </trkpt>
      <trkpt lat="46.57227" lon="0.24277">
        <ele>112.4</ele>
        <time>2022-02-13T09:42:10Z</time>
      </trkpt>
      <trkpt lat="46.57228" lon="0.2427">
        <ele>112.2</ele>
        <time>2022-02-13T09:42:11Z</time>
      </trkpt>
      <trkpt lat="46.57229" lon="0.24256">
        <ele>111.2</ele>
        <time>2022-02-13T09:42:13Z</time>
      </trkpt>
      <trkpt lat="46.57235" lon="0.24232">
        <ele>110.2</ele>
        <time>2022-02-13T09:42:16Z</time>
      </trkpt>
      <trkpt lat="46.57238" lon="0.24224">
        <ele>110</ele>
        <time>2022-02-13T09:42:17Z</time>
      </trkpt>
      <trkpt lat="46.57244" lon="0.24209">
        <ele>109.2</ele>
        <time>2022-02-13T09:42:19Z</time>
      </trkpt>
      <trkpt lat="46.57253" lon="0.24182">
        <ele>107.8</ele>
        <time>2022-02-13T09:42:22Z</time>
      </trkpt>
      <trkpt lat="46.57256" lon="0.24172">
        <ele>107.4</ele>
        <time>2022-02-13T09:42:23Z</time>
      </trkpt>
      <trkpt lat="46.57259" lon="0.24162">
        <ele>106.6</ele>
        <time>2022-02-13T09:42:24Z</time>
      </trkpt>
      <trkpt lat="46.57265" lon="0.24143">
        <ele>104.8</ele>
        <time>2022-02-13T09:42:26Z</time>
      </trkpt>
      <trkpt lat="46.57271" lon="0.24125">
        <ele>103.6</ele>
        <time>2022-02-13T09:42:28Z</time>
      </trkpt>
      <trkpt lat="46.57276" lon="0.24116">
        <ele>103.2</ele>
        <time>2022-02-13T09:42:29Z</time>
      </trkpt>
      <trkpt lat="46.57281" lon="0.24107">
        <ele>102.4</ele>
        <time>2022-02-13T09:42:30Z</time>
      </trkpt>
      <trkpt lat="46.57286" lon="0.24087">
        <ele>100.4</ele>
        <time>2022-02-13T09:42:32Z</time>
      </trkpt>
      <trkpt lat="46.57287" lon="0.2408">
        <ele>99.2</ele>
        <time>2022-02-13T09:42:33Z</time>
      </trkpt>
      <trkpt lat="46.57288" lon="0.2407">
        <ele>98</ele>
        <time>2022-02-13T09:42:35Z</time>
      </trkpt>
      <trkpt lat="46.57287" lon="0.24066">
        <ele>97.6</ele>
        <time>2022-02-13T09:42:36Z</time>
      </trkpt>
      <trkpt lat="46.57282" lon="0.24046">
        <ele>97.2</ele>
        <time>2022-02-13T09:42:42Z</time>
      </trkpt>
      <trkpt lat="46.57277" lon="0.24027">
        <ele>96.8</ele>
        <time>2022-02-13T09:42:46Z</time>
      </trkpt>
      <trkpt lat="46.57275" lon="0.24018">
        <ele>96.4</ele>
        <time>2022-02-13T09:42:48Z</time>
      </trkpt>
      <trkpt lat="46.57274" lon="0.24013">
        <ele>96.4</ele>
        <time>2022-02-13T09:42:49Z</time>
      </trkpt>
      <trkpt lat="46.5727" lon="0.24006">
        <ele>96.4</ele>
        <time>2022-02-13T09:42:51Z</time>
      </trkpt>
      <trkpt lat="46.57266" lon="0.23996">
        <ele>96.6</ele>
        <time>2022-02-13T09:42:53Z</time>
      </trkpt>
      <trkpt lat="46.57265" lon="0.23991">
        <ele>96.6</ele>
        <time>2022-02-13T09:42:54Z</time>
      </trkpt>
      <trkpt lat="46.57263" lon="0.23985">
        <ele>96.6</ele>
        <time>2022-02-13T09:42:55Z</time>
      </trkpt>
      <trkpt lat="46.5726" lon="0.23968">
        <ele>97.2</ele>
        <time>2022-02-13T09:42:59Z</time>
      </trkpt>
      <trkpt lat="46.57257" lon="0.23965">
        <ele>97.6</ele>
        <time>2022-02-13T09:43:01Z</time>
      </trkpt>
      <trkpt lat="46.57257" lon="0.23965">
        <ele>97.8</ele>
        <time>2022-02-13T09:43:02Z</time>
      </trkpt>
      <trkpt lat="46.57252" lon="0.23964">
        <ele>98</ele>
        <time>2022-02-13T09:43:03Z</time>
      </trkpt>
      <trkpt lat="46.57237" lon="0.23959">
        <ele>98.4</ele>
        <time>2022-02-13T09:43:08Z</time>
      </trkpt>
      <trkpt lat="46.5723" lon="0.23957">
        <ele>99</ele>
        <time>2022-02-13T09:43:11Z</time>
      </trkpt>
      <trkpt lat="46.57225" lon="0.23957">
        <ele>99.6</ele>
        <time>2022-02-13T09:43:14Z</time>
      </trkpt>
      <trkpt lat="46.57221" lon="0.23956">
        <ele>100.2</ele>
        <time>2022-02-13T09:43:16Z</time>
      </trkpt>
      <trkpt lat="46.57215" lon="0.23955">
        <ele>101.4</ele>
        <time>2022-02-13T09:43:20Z</time>
      </trkpt>
      <trkpt lat="46.57213" lon="0.23955">
        <ele>101.6</ele>
        <time>2022-02-13T09:43:21Z</time>
      </trkpt>
      <trkpt lat="46.57206" lon="0.23952">
        <ele>102.4</ele>
        <time>2022-02-13T09:43:23Z</time>
      </trkpt>
      <trkpt lat="46.572" lon="0.23952">
        <ele>103.6</ele>
        <time>2022-02-13T09:43:26Z</time>
      </trkpt>
      <trkpt lat="46.57198" lon="0.23952">
        <ele>104</ele>
        <time>2022-02-13T09:43:27Z</time>
      </trkpt>
      <trkpt lat="46.57194" lon="0.23951">
        <ele>104.8</ele>
        <time>2022-02-13T09:43:29Z</time>
      </trkpt>
      <trkpt lat="46.57184" lon="0.23947">
        <ele>105.6</ele>
        <time>2022-02-13T09:43:33Z</time>
      </trkpt>
      <trkpt lat="46.57182" lon="0.23946">
        <ele>105.8</ele>
        <time>2022-02-13T09:43:34Z</time>
      </trkpt>
      <trkpt lat="46.57175" lon="0.23938">
        <ele>107</ele>
        <time>2022-02-13T09:43:39Z</time>
      </trkpt>
      <trkpt lat="46.57173" lon="0.23936">
        <ele>107.2</ele>
        <time>2022-02-13T09:43:40Z</time>
      </trkpt>
      <trkpt lat="46.57164" lon="0.23926">
        <ele>108</ele>
        <time>2022-02-13T09:43:47Z</time>
      </trkpt>
      <trkpt lat="46.5716" lon="0.23921">
        <ele>108.6</ele>
        <time>2022-02-13T09:43:50Z</time>
      </trkpt>
      <trkpt lat="46.57157" lon="0.23918">
        <ele>108.8</ele>
        <time>2022-02-13T09:43:52Z</time>
      </trkpt>
      <trkpt lat="46.57154" lon="0.23914">
        <ele>109.2</ele>
        <time>2022-02-13T09:43:54Z</time>
      </trkpt>
      <trkpt lat="46.57149" lon="0.23907">
        <ele>109.4</ele>
        <time>2022-02-13T09:43:57Z</time>
      </trkpt>
      <trkpt lat="46.57141" lon="0.23896">
        <ele>110.2</ele>
        <time>2022-02-13T09:44:03Z</time>
      </trkpt>
      <trkpt lat="46.5714" lon="0.23893">
        <ele>110.4</ele>
        <time>2022-02-13T09:44:05Z</time>
      </trkpt>
      <trkpt lat="46.57133" lon="0.23886">
        <ele>110.8</ele>
        <time>2022-02-13T09:44:09Z</time>
      </trkpt>
      <trkpt lat="46.57129" lon="0.23881">
        <ele>111</ele>
        <time>2022-02-13T09:44:11Z</time>
      </trkpt>
      <trkpt lat="46.57121" lon="0.23874">
        <ele>111.4</ele>
        <time>2022-02-13T09:44:14Z</time>
      </trkpt>
      <trkpt lat="46.57109" lon="0.23861">
        <ele>112</ele>
        <time>2022-02-13T09:44:20Z</time>
      </trkpt>
      <trkpt lat="46.57102" lon="0.23854">
        <ele>112.4</ele>
        <time>2022-02-13T09:44:23Z</time>
      </trkpt>
      <trkpt lat="46.57092" lon="0.23844">
        <ele>113.2</ele>
        <time>2022-02-13T09:44:28Z</time>
      </trkpt>
      <trkpt lat="46.57089" lon="0.2384">
        <ele>113.6</ele>
        <time>2022-02-13T09:44:30Z</time>
      </trkpt>
      <trkpt lat="46.57082" lon="0.23834">
        <ele>114.6</ele>
        <time>2022-02-13T09:44:34Z</time>
      </trkpt>
      <trkpt lat="46.57078" lon="0.23831">
        <ele>114.8</ele>
        <time>2022-02-13T09:44:36Z</time>
      </trkpt>
      <trkpt lat="46.57073" lon="0.23829">
        <ele>115</ele>
        <time>2022-02-13T09:44:39Z</time>
      </trkpt>
      <trkpt lat="46.5707" lon="0.23829">
        <ele>115</ele>
        <time>2022-02-13T09:44:40Z</time>
      </trkpt>
      <trkpt lat="46.57064" lon="0.23828">
        <ele>116</ele>
        <time>2022-02-13T09:44:43Z</time>
      </trkpt>
      <trkpt lat="46.57053" lon="0.23825">
        <ele>117</ele>
        <time>2022-02-13T09:44:47Z</time>
      </trkpt>
      <trkpt lat="46.57034" lon="0.2382">
        <ele>118.2</ele>
        <time>2022-02-13T09:44:53Z</time>
      </trkpt>
      <trkpt lat="46.57032" lon="0.2382">
        <ele>118.4</ele>
        <time>2022-02-13T09:44:54Z</time>
      </trkpt>
      <trkpt lat="46.57025" lon="0.23816">
        <ele>119.2</ele>
        <time>2022-02-13T09:44:57Z</time>
      </trkpt>
      <trkpt lat="46.57018" lon="0.23815">
        <ele>119.8</ele>
        <time>2022-02-13T09:45:01Z</time>
      </trkpt>
      <trkpt lat="46.57012" lon="0.23815">
        <ele>120.4</ele>
        <time>2022-02-13T09:45:04Z</time>
      </trkpt>
      <trkpt lat="46.57004" lon="0.23815">
        <ele>121.6</ele>
        <time>2022-02-13T09:45:09Z</time>
      </trkpt>
      <trkpt lat="46.57" lon="0.23815">
        <ele>122.4</ele>
        <time>2022-02-13T09:45:12Z</time>
      </trkpt>
      <trkpt lat="46.56999" lon="0.23815">
        <ele>122.8</ele>
        <time>2022-02-13T09:45:13Z</time>
      </trkpt>
      <trkpt lat="46.56994" lon="0.23817">
        <ele>123.2</ele>
        <time>2022-02-13T09:45:17Z</time>
      </trkpt>
      <trkpt lat="46.56992" lon="0.23817">
        <ele>123.4</ele>
        <time>2022-02-13T09:45:18Z</time>
      </trkpt>
      <trkpt lat="46.5699" lon="0.23817">
        <ele>123.8</ele>
        <time>2022-02-13T09:45:19Z</time>
      </trkpt>
      <trkpt lat="46.56989" lon="0.23817">
        <ele>124.2</ele>
        <time>2022-02-13T09:45:20Z</time>
      </trkpt>
      <trkpt lat="46.56987" lon="0.23819">
        <ele>124.8</ele>
        <time>2022-02-13T09:45:22Z</time>
      </trkpt>
      <trkpt lat="46.56986" lon="0.2382">
        <ele>125</ele>
        <time>2022-02-13T09:45:23Z</time>
      </trkpt>
      <trkpt lat="46.56981" lon="0.23823">
        <ele>125.8</ele>
        <time>2022-02-13T09:45:27Z</time>
      </trkpt>
      <trkpt lat="46.56978" lon="0.23827">
        <ele>126.4</ele>
        <time>2022-02-13T09:45:29Z</time>
      </trkpt>
      <trkpt lat="46.56972" lon="0.23833">
        <ele>127.4</ele>
        <time>2022-02-13T09:45:35Z</time>
      </trkpt>
      <trkpt lat="46.56969" lon="0.23835">
        <ele>128</ele>
        <time>2022-02-13T09:45:37Z</time>
      </trkpt>
      <trkpt lat="46.56964" lon="0.2384">
        <ele>128.8</ele>
        <time>2022-02-13T09:45:42Z</time>
      </trkpt>
      <trkpt lat="46.56962" lon="0.23844">
        <ele>129.4</ele>
        <time>2022-02-13T09:45:45Z</time>
      </trkpt>
      <trkpt lat="46.56959" lon="0.23845">
        <ele>129.8</ele>
        <time>2022-02-13T09:45:47Z</time>
      </trkpt>
      <trkpt lat="46.56957" lon="0.23848">
        <ele>130.4</ele>
        <time>2022-02-13T09:45:50Z</time>
      </trkpt>
      <trkpt lat="46.56953" lon="0.23851">
        <ele>131.2</ele>
        <time>2022-02-13T09:45:53Z</time>
      </trkpt>
      <trkpt lat="46.56951" lon="0.23854">
        <ele>132</ele>
        <time>2022-02-13T09:45:56Z</time>
      </trkpt>
      <trkpt lat="46.5695" lon="0.23855">
        <ele>132.2</ele>
        <time>2022-02-13T09:45:57Z</time>
      </trkpt>
      <trkpt lat="46.56945" lon="0.23859">
        <ele>133.4</ele>
        <time>2022-02-13T09:46:01Z</time>
      </trkpt>
      <trkpt lat="46.56941" lon="0.2386">
        <ele>134</ele>
        <time>2022-02-13T09:46:03Z</time>
      </trkpt>
      <trkpt lat="46.56939" lon="0.23859">
        <ele>134.8</ele>
        <time>2022-02-13T09:46:05Z</time>
      </trkpt>
      <trkpt lat="46.56932" lon="0.23854">
        <ele>135.6</ele>
        <time>2022-02-13T09:46:10Z</time>
      </trkpt>
      <trkpt lat="46.5693" lon="0.23851">
        <ele>135.8</ele>
        <time>2022-02-13T09:46:12Z</time>
      </trkpt>
      <trkpt lat="46.5693" lon="0.23849">
        <ele>136</ele>
        <time>2022-02-13T09:46:13Z</time>
      </trkpt>
      <trkpt lat="46.56926" lon="0.2384">
        <ele>137</ele>
        <time>2022-02-13T09:46:20Z</time>
      </trkpt>
      <trkpt lat="46.56923" lon="0.23832">
        <ele>137.6</ele>
        <time>2022-02-13T09:46:25Z</time>
      </trkpt>
      <trkpt lat="46.56919" lon="0.23825">
        <ele>138.2</ele>
        <time>2022-02-13T09:46:30Z</time>
      </trkpt>
      <trkpt lat="46.56912" lon="0.23807">
        <ele>138.8</ele>
        <time>2022-02-13T09:46:37Z</time>
      </trkpt>
      <trkpt lat="46.5691" lon="0.23787">
        <ele>139.2</ele>
        <time>2022-02-13T09:46:43Z</time>
      </trkpt>
      <trkpt lat="46.56902" lon="0.23771">
        <ele>139.6</ele>
        <time>2022-02-13T09:46:49Z</time>
      </trkpt>
      <trkpt lat="46.56897" lon="0.23763">
        <ele>140.2</ele>
        <time>2022-02-13T09:46:53Z</time>
      </trkpt>
      <trkpt lat="46.56889" lon="0.23755">
        <ele>140.8</ele>
        <time>2022-02-13T09:46:58Z</time>
      </trkpt>
      <trkpt lat="46.56889" lon="0.23755">
        <ele>141.4</ele>
        <time>2022-02-13T09:47:03Z</time>
      </trkpt>
      <trkpt lat="46.56873" lon="0.23735">
        <ele>142.2</ele>
        <time>2022-02-13T09:47:09Z</time>
      </trkpt>
      <trkpt lat="46.56862" lon="0.23724">
        <ele>142.4</ele>
        <time>2022-02-13T09:47:14Z</time>
      </trkpt>
      <trkpt lat="46.5686" lon="0.23721">
        <ele>142.4</ele>
        <time>2022-02-13T09:47:15Z</time>
      </trkpt>
      <trkpt lat="46.56844" lon="0.23696">
        <ele>143.4</ele>
        <time>2022-02-13T09:47:22Z</time>
      </trkpt>
      <trkpt lat="46.56842" lon="0.23694">
        <ele>143.4</ele>
        <time>2022-02-13T09:47:23Z</time>
      </trkpt>
      <trkpt lat="46.5683" lon="0.23683">
        <ele>143.6</ele>
        <time>2022-02-13T09:47:28Z</time>
      </trkpt>
      <trkpt lat="46.56817" lon="0.23683">
        <ele>144.4</ele>
        <time>2022-02-13T09:47:33Z</time>
      </trkpt>
      <trkpt lat="46.56811" lon="0.23683">
        <ele>144.6</ele>
        <time>2022-02-13T09:47:35Z</time>
      </trkpt>
      <trkpt lat="46.56802" lon="0.2368">
        <ele>145</ele>
        <time>2022-02-13T09:47:38Z</time>
      </trkpt>
      <trkpt lat="46.56785" lon="0.23675">
        <ele>145.2</ele>
        <time>2022-02-13T09:47:44Z</time>
      </trkpt>
      <trkpt lat="46.56766" lon="0.23673">
        <ele>145.2</ele>
        <time>2022-02-13T09:47:50Z</time>
      </trkpt>
      <trkpt lat="46.56762" lon="0.23673">
        <ele>145.6</ele>
        <time>2022-02-13T09:47:51Z</time>
      </trkpt>
      <trkpt lat="46.56759" lon="0.23673">
        <ele>145.8</ele>
        <time>2022-02-13T09:47:52Z</time>
      </trkpt>
      <trkpt lat="46.56752" lon="0.23673">
        <ele>146</ele>
        <time>2022-02-13T09:47:54Z</time>
      </trkpt>
      <trkpt lat="46.56746" lon="0.23674">
        <ele>146</ele>
        <time>2022-02-13T09:47:56Z</time>
      </trkpt>
      <trkpt lat="46.56733" lon="0.23675">
        <ele>145.8</ele>
        <time>2022-02-13T09:48:01Z</time>
      </trkpt>
      <trkpt lat="46.56724" lon="0.23674">
        <ele>145.8</ele>
        <time>2022-02-13T09:48:03Z</time>
      </trkpt>
      <trkpt lat="46.56718" lon="0.23672">
        <ele>145.6</ele>
        <time>2022-02-13T09:48:04Z</time>
      </trkpt>
      <trkpt lat="46.56705" lon="0.23664">
        <ele>145.4</ele>
        <time>2022-02-13T09:48:07Z</time>
      </trkpt>
      <trkpt lat="46.56682" lon="0.23646">
        <ele>145.6</ele>
        <time>2022-02-13T09:48:13Z</time>
      </trkpt>
      <trkpt lat="46.56674" lon="0.23641">
        <ele>145.6</ele>
        <time>2022-02-13T09:48:15Z</time>
      </trkpt>
      <trkpt lat="46.56667" lon="0.2363">
        <ele>145.6</ele>
        <time>2022-02-13T09:48:17Z</time>
      </trkpt>
      <trkpt lat="46.56662" lon="0.23624">
        <ele>145.4</ele>
        <time>2022-02-13T09:48:18Z</time>
      </trkpt>
      <trkpt lat="46.56636" lon="0.23579">
        <ele>145.4</ele>
        <time>2022-02-13T09:48:26Z</time>
      </trkpt>
      <trkpt lat="46.56634" lon="0.23575">
        <ele>145.4</ele>
        <time>2022-02-13T09:48:27Z</time>
      </trkpt>
      <trkpt lat="46.56622" lon="0.23556">
        <ele>146</ele>
        <time>2022-02-13T09:48:32Z</time>
      </trkpt>
      <trkpt lat="46.56609" lon="0.23531">
        <ele>146.4</ele>
        <time>2022-02-13T09:48:38Z</time>
      </trkpt>
      <trkpt lat="46.56603" lon="0.23505">
        <ele>146.6</ele>
        <time>2022-02-13T09:48:43Z</time>
      </trkpt>
      <trkpt lat="46.56599" lon="0.23479">
        <ele>146.2</ele>
        <time>2022-02-13T09:48:47Z</time>
      </trkpt>
      <trkpt lat="46.56598" lon="0.23473">
        <ele>146.4</ele>
        <time>2022-02-13T09:48:48Z</time>
      </trkpt>
      <trkpt lat="46.56597" lon="0.23463">
        <ele>146.4</ele>
        <time>2022-02-13T09:48:50Z</time>
      </trkpt>
      <trkpt lat="46.56596" lon="0.23451">
        <ele>146.4</ele>
        <time>2022-02-13T09:48:52Z</time>
      </trkpt>
      <trkpt lat="46.56595" lon="0.23444">
        <ele>146.6</ele>
        <time>2022-02-13T09:48:53Z</time>
      </trkpt>
      <trkpt lat="46.56588" lon="0.23393">
        <ele>146.4</ele>
        <time>2022-02-13T09:49:00Z</time>
      </trkpt>
      <trkpt lat="46.56586" lon="0.23385">
        <ele>146.4</ele>
        <time>2022-02-13T09:49:01Z</time>
      </trkpt>
      <trkpt lat="46.56577" lon="0.23342">
        <ele>146.4</ele>
        <time>2022-02-13T09:49:07Z</time>
      </trkpt>
      <trkpt lat="46.56575" lon="0.23334">
        <ele>146.4</ele>
        <time>2022-02-13T09:49:08Z</time>
      </trkpt>
      <trkpt lat="46.5657" lon="0.23322">
        <ele>146.8</ele>
        <time>2022-02-13T09:49:10Z</time>
      </trkpt>
      <trkpt lat="46.56567" lon="0.23313">
        <ele>146.8</ele>
        <time>2022-02-13T09:49:11Z</time>
      </trkpt>
      <trkpt lat="46.56564" lon="0.23307">
        <ele>146.8</ele>
        <time>2022-02-13T09:49:12Z</time>
      </trkpt>
      <trkpt lat="46.56547" lon="0.23285">
        <ele>147</ele>
        <time>2022-02-13T09:49:16Z</time>
      </trkpt>
      <trkpt lat="46.56539" lon="0.23273">
        <ele>147</ele>
        <time>2022-02-13T09:49:18Z</time>
      </trkpt>
      <trkpt lat="46.5653" lon="0.23263">
        <ele>147.6</ele>
        <time>2022-02-13T09:49:20Z</time>
      </trkpt>
      <trkpt lat="46.56524" lon="0.23257">
        <ele>147.6</ele>
        <time>2022-02-13T09:49:21Z</time>
      </trkpt>
      <trkpt lat="46.56493" lon="0.23234">
        <ele>147.4</ele>
        <time>2022-02-13T09:49:27Z</time>
      </trkpt>
      <trkpt lat="46.56481" lon="0.23229">
        <ele>147.6</ele>
        <time>2022-02-13T09:49:30Z</time>
      </trkpt>
      <trkpt lat="46.56472" lon="0.23226">
        <ele>147.8</ele>
        <time>2022-02-13T09:49:32Z</time>
      </trkpt>
      <trkpt lat="46.56467" lon="0.23225">
        <ele>148</ele>
        <time>2022-02-13T09:49:33Z</time>
      </trkpt>
      <trkpt lat="46.56441" lon="0.23225">
        <ele>147.8</ele>
        <time>2022-02-13T09:49:39Z</time>
      </trkpt>
      <trkpt lat="46.56413" lon="0.23228">
        <ele>148</ele>
        <time>2022-02-13T09:49:46Z</time>
      </trkpt>
      <trkpt lat="46.56398" lon="0.23226">
        <ele>148.2</ele>
        <time>2022-02-13T09:49:49Z</time>
      </trkpt>
      <trkpt lat="46.56383" lon="0.23222">
        <ele>148.2</ele>
        <time>2022-02-13T09:49:52Z</time>
      </trkpt>
      <trkpt lat="46.56351" lon="0.23209">
        <ele>148</ele>
        <time>2022-02-13T09:49:58Z</time>
      </trkpt>
      <trkpt lat="46.56333" lon="0.23203">
        <ele>147.2</ele>
        <time>2022-02-13T09:50:02Z</time>
      </trkpt>
      <trkpt lat="46.56325" lon="0.23201">
        <ele>147.6</ele>
        <time>2022-02-13T09:50:04Z</time>
      </trkpt>
      <trkpt lat="46.56305" lon="0.23201">
        <ele>148.4</ele>
        <time>2022-02-13T09:50:08Z</time>
      </trkpt>
      <trkpt lat="46.56296" lon="0.23203">
        <ele>148.4</ele>
        <time>2022-02-13T09:50:10Z</time>
      </trkpt>
      <trkpt lat="46.56287" lon="0.23207">
        <ele>148.4</ele>
        <time>2022-02-13T09:50:12Z</time>
      </trkpt>
      <trkpt lat="46.56274" lon="0.23215">
        <ele>148.4</ele>
        <time>2022-02-13T09:50:15Z</time>
      </trkpt>
      <trkpt lat="46.56266" lon="0.23218">
        <ele>148.2</ele>
        <time>2022-02-13T09:50:17Z</time>
      </trkpt>
      <trkpt lat="46.56253" lon="0.2322">
        <ele>147.6</ele>
        <time>2022-02-13T09:50:20Z</time>
      </trkpt>
      <trkpt lat="46.56229" lon="0.23222">
        <ele>147.6</ele>
        <time>2022-02-13T09:50:25Z</time>
      </trkpt>
      <trkpt lat="46.56207" lon="0.2322">
        <ele>148.2</ele>
        <time>2022-02-13T09:50:30Z</time>
      </trkpt>
      <trkpt lat="46.56194" lon="0.23218">
        <ele>148.4</ele>
        <time>2022-02-13T09:50:33Z</time>
      </trkpt>
      <trkpt lat="46.56185" lon="0.23216">
        <ele>148.6</ele>
        <time>2022-02-13T09:50:35Z</time>
      </trkpt>
      <trkpt lat="46.56171" lon="0.23214">
        <ele>149</ele>
        <time>2022-02-13T09:50:38Z</time>
      </trkpt>
      <trkpt lat="46.56155" lon="0.23211">
        <ele>149.4</ele>
        <time>2022-02-13T09:50:41Z</time>
      </trkpt>
      <trkpt lat="46.56123" lon="0.23202">
        <ele>149.8</ele>
        <time>2022-02-13T09:50:47Z</time>
      </trkpt>
      <trkpt lat="46.56098" lon="0.23198">
        <ele>149.4</ele>
        <time>2022-02-13T09:50:53Z</time>
      </trkpt>
      <trkpt lat="46.56085" lon="0.23209">
        <ele>149.2</ele>
        <time>2022-02-13T09:50:57Z</time>
      </trkpt>
      <trkpt lat="46.56079" lon="0.2322">
        <ele>149</ele>
        <time>2022-02-13T09:51:00Z</time>
      </trkpt>
      <trkpt lat="46.56073" lon="0.23227">
        <ele>148.4</ele>
        <time>2022-02-13T09:51:02Z</time>
      </trkpt>
      <trkpt lat="46.56066" lon="0.23237">
        <ele>147.8</ele>
        <time>2022-02-13T09:51:04Z</time>
      </trkpt>
      <trkpt lat="46.56059" lon="0.23248">
        <ele>146.6</ele>
        <time>2022-02-13T09:51:06Z</time>
      </trkpt>
      <trkpt lat="46.56055" lon="0.23255">
        <ele>145.8</ele>
        <time>2022-02-13T09:51:07Z</time>
      </trkpt>
      <trkpt lat="46.56051" lon="0.23261">
        <ele>145.2</ele>
        <time>2022-02-13T09:51:08Z</time>
      </trkpt>
      <trkpt lat="46.56048" lon="0.23269">
        <ele>144.8</ele>
        <time>2022-02-13T09:51:09Z</time>
      </trkpt>
      <trkpt lat="46.56039" lon="0.23282">
        <ele>144.2</ele>
        <time>2022-02-13T09:51:11Z</time>
      </trkpt>
      <trkpt lat="46.56034" lon="0.23289">
        <ele>143.8</ele>
        <time>2022-02-13T09:51:12Z</time>
      </trkpt>
      <trkpt lat="46.56015" lon="0.2332">
        <ele>143.6</ele>
        <time>2022-02-13T09:51:17Z</time>
      </trkpt>
      <trkpt lat="46.56005" lon="0.23333">
        <ele>144.8</ele>
        <time>2022-02-13T09:51:20Z</time>
      </trkpt>
      <trkpt lat="46.56" lon="0.23341">
        <ele>145.4</ele>
        <time>2022-02-13T09:51:22Z</time>
      </trkpt>
      <trkpt lat="46.5599" lon="0.23356">
        <ele>146.8</ele>
        <time>2022-02-13T09:51:26Z</time>
      </trkpt>
      <trkpt lat="46.55987" lon="0.2337">
        <ele>147.8</ele>
        <time>2022-02-13T09:51:29Z</time>
      </trkpt>
      <trkpt lat="46.55985" lon="0.23374">
        <ele>148.2</ele>
        <time>2022-02-13T09:51:30Z</time>
      </trkpt>
      <trkpt lat="46.55972" lon="0.23401">
        <ele>148.2</ele>
        <time>2022-02-13T09:51:36Z</time>
      </trkpt>
      <trkpt lat="46.55953" lon="0.23433">
        <ele>148.6</ele>
        <time>2022-02-13T09:51:44Z</time>
      </trkpt>
      <trkpt lat="46.55942" lon="0.2345">
        <ele>149.2</ele>
        <time>2022-02-13T09:51:48Z</time>
      </trkpt>
      <trkpt lat="46.55931" lon="0.23467">
        <ele>149.8</ele>
        <time>2022-02-13T09:51:53Z</time>
      </trkpt>
      <trkpt lat="46.55914" lon="0.23495">
        <ele>150.2</ele>
        <time>2022-02-13T09:52:01Z</time>
      </trkpt>
      <trkpt lat="46.5591" lon="0.23502">
        <ele>150.4</ele>
        <time>2022-02-13T09:52:03Z</time>
      </trkpt>
      <trkpt lat="46.5589" lon="0.23539">
        <ele>150.4</ele>
        <time>2022-02-13T09:52:13Z</time>
      </trkpt>
      <trkpt lat="46.55874" lon="0.23569">
        <ele>150</ele>
        <time>2022-02-13T09:52:20Z</time>
      </trkpt>
      <trkpt lat="46.55855" lon="0.23601">
        <ele>150.2</ele>
        <time>2022-02-13T09:52:28Z</time>
      </trkpt>
      <trkpt lat="46.55837" lon="0.23633">
        <ele>150.2</ele>
        <time>2022-02-13T09:52:37Z</time>
      </trkpt>
      <trkpt lat="46.55821" lon="0.23663">
        <ele>150.8</ele>
        <time>2022-02-13T09:52:44Z</time>
      </trkpt>
      <trkpt lat="46.55817" lon="0.23672">
        <ele>150.8</ele>
        <time>2022-02-13T09:52:46Z</time>
      </trkpt>
      <trkpt lat="46.55812" lon="0.23685">
        <ele>151.2</ele>
        <time>2022-02-13T09:52:49Z</time>
      </trkpt>
      <trkpt lat="46.55812" lon="0.23691">
        <ele>151.6</ele>
        <time>2022-02-13T09:52:50Z</time>
      </trkpt>
      <trkpt lat="46.55812" lon="0.23696">
        <ele>151.8</ele>
        <time>2022-02-13T09:52:51Z</time>
      </trkpt>
      <trkpt lat="46.55809" lon="0.23739">
        <ele>152.4</ele>
        <time>2022-02-13T09:52:58Z</time>
      </trkpt>
      <trkpt lat="46.55808" lon="0.23764">
        <ele>153</ele>
        <time>2022-02-13T09:53:02Z</time>
      </trkpt>
      <trkpt lat="46.55808" lon="0.23783">
        <ele>153.4</ele>
        <time>2022-02-13T09:53:05Z</time>
      </trkpt>
      <trkpt lat="46.55809" lon="0.23843">
        <ele>153.6</ele>
        <time>2022-02-13T09:53:14Z</time>
      </trkpt>
      <trkpt lat="46.55808" lon="0.23878">
        <ele>154</ele>
        <time>2022-02-13T09:53:19Z</time>
      </trkpt>
      <trkpt lat="46.55808" lon="0.23894">
        <ele>154.4</ele>
        <time>2022-02-13T09:53:21Z</time>
      </trkpt>
      <trkpt lat="46.55807" lon="0.23944">
        <ele>152.8</ele>
        <time>2022-02-13T09:53:27Z</time>
      </trkpt>
      <trkpt lat="46.55807" lon="0.23953">
        <ele>152.6</ele>
        <time>2022-02-13T09:53:28Z</time>
      </trkpt>
      <trkpt lat="46.55808" lon="0.23971">
        <ele>151.6</ele>
        <time>2022-02-13T09:53:30Z</time>
      </trkpt>
      <trkpt lat="46.55811" lon="0.23997">
        <ele>150.4</ele>
        <time>2022-02-13T09:53:33Z</time>
      </trkpt>
      <trkpt lat="46.55811" lon="0.24006">
        <ele>149.8</ele>
        <time>2022-02-13T09:53:34Z</time>
      </trkpt>
      <trkpt lat="46.55812" lon="0.24026">
        <ele>148.8</ele>
        <time>2022-02-13T09:53:36Z</time>
      </trkpt>
      <trkpt lat="46.55814" lon="0.24058">
        <ele>147.8</ele>
        <time>2022-02-13T09:53:39Z</time>
      </trkpt>
      <trkpt lat="46.55818" lon="0.24096">
        <ele>146.6</ele>
        <time>2022-02-13T09:53:43Z</time>
      </trkpt>
      <trkpt lat="46.55818" lon="0.24104">
        <ele>146.6</ele>
        <time>2022-02-13T09:53:44Z</time>
      </trkpt>
      <trkpt lat="46.5582" lon="0.24145">
        <ele>146.2</ele>
        <time>2022-02-13T09:53:49Z</time>
      </trkpt>
      <trkpt lat="46.5582" lon="0.24172">
        <ele>145.6</ele>
        <time>2022-02-13T09:53:52Z</time>
      </trkpt>
      <trkpt lat="46.5582" lon="0.24181">
        <ele>145.4</ele>
        <time>2022-02-13T09:53:53Z</time>
      </trkpt>
      <trkpt lat="46.55823" lon="0.24206">
        <ele>145.2</ele>
        <time>2022-02-13T09:53:56Z</time>
      </trkpt>
      <trkpt lat="46.55823" lon="0.24213">
        <ele>145</ele>
        <time>2022-02-13T09:53:57Z</time>
      </trkpt>
      <trkpt lat="46.55822" lon="0.2424">
        <ele>145.6</ele>
        <time>2022-02-13T09:54:01Z</time>
      </trkpt>
      <trkpt lat="46.55822" lon="0.24258">
        <ele>147</ele>
        <time>2022-02-13T09:54:04Z</time>
      </trkpt>
      <trkpt lat="46.55823" lon="0.2428">
        <ele>148</ele>
        <time>2022-02-13T09:54:08Z</time>
      </trkpt>
      <trkpt lat="46.55823" lon="0.24298">
        <ele>149</ele>
        <time>2022-02-13T09:54:11Z</time>
      </trkpt>
      <trkpt lat="46.55823" lon="0.24304">
        <ele>149</ele>
        <time>2022-02-13T09:54:12Z</time>
      </trkpt>
      <trkpt lat="46.5582" lon="0.24334">
        <ele>149.6</ele>
        <time>2022-02-13T09:54:17Z</time>
      </trkpt>
      <trkpt lat="46.55819" lon="0.24346">
        <ele>150.2</ele>
        <time>2022-02-13T09:54:19Z</time>
      </trkpt>
      <trkpt lat="46.55818" lon="0.24373">
        <ele>150.6</ele>
        <time>2022-02-13T09:54:24Z</time>
      </trkpt>
      <trkpt lat="46.55818" lon="0.24389">
        <ele>151.2</ele>
        <time>2022-02-13T09:54:27Z</time>
      </trkpt>
      <trkpt lat="46.55818" lon="0.24394">
        <ele>151.2</ele>
        <time>2022-02-13T09:54:28Z</time>
      </trkpt>
      <trkpt lat="46.55819" lon="0.24406">
        <ele>151.2</ele>
        <time>2022-02-13T09:54:30Z</time>
      </trkpt>
      <trkpt lat="46.5582" lon="0.24412">
        <ele>151.2</ele>
        <time>2022-02-13T09:54:31Z</time>
      </trkpt>
      <trkpt lat="46.55823" lon="0.2445">
        <ele>151</ele>
        <time>2022-02-13T09:54:37Z</time>
      </trkpt>
      <trkpt lat="46.55827" lon="0.24488">
        <ele>150.4</ele>
        <time>2022-02-13T09:54:43Z</time>
      </trkpt>
      <trkpt lat="46.55828" lon="0.24503">
        <ele>150</ele>
        <time>2022-02-13T09:54:45Z</time>
      </trkpt>
      <trkpt lat="46.5583" lon="0.24536">
        <ele>150</ele>
        <time>2022-02-13T09:54:49Z</time>
      </trkpt>
      <trkpt lat="46.55833" lon="0.24589">
        <ele>150</ele>
        <time>2022-02-13T09:54:55Z</time>
      </trkpt>
      <trkpt lat="46.55839" lon="0.24656">
        <ele>149.2</ele>
        <time>2022-02-13T09:55:02Z</time>
      </trkpt>
      <trkpt lat="46.5584" lon="0.24686">
        <ele>148.4</ele>
        <time>2022-02-13T09:55:05Z</time>
      </trkpt>
      <trkpt lat="46.55841" lon="0.24714">
        <ele>147.6</ele>
        <time>2022-02-13T09:55:08Z</time>
      </trkpt>
      <trkpt lat="46.55846" lon="0.24766">
        <ele>147.8</ele>
        <time>2022-02-13T09:55:14Z</time>
      </trkpt>
      <trkpt lat="46.55852" lon="0.24802">
        <ele>147.4</ele>
        <time>2022-02-13T09:55:19Z</time>
      </trkpt>
      <trkpt lat="46.55855" lon="0.24829">
        <ele>147.6</ele>
        <time>2022-02-13T09:55:23Z</time>
      </trkpt>
      <trkpt lat="46.55858" lon="0.24843">
        <ele>148.2</ele>
        <time>2022-02-13T09:55:25Z</time>
      </trkpt>
      <trkpt lat="46.55859" lon="0.24851">
        <ele>148.4</ele>
        <time>2022-02-13T09:55:26Z</time>
      </trkpt>
      <trkpt lat="46.55859" lon="0.24864">
        <ele>149.4</ele>
        <time>2022-02-13T09:55:28Z</time>
      </trkpt>
      <trkpt lat="46.5586" lon="0.2487">
        <ele>149.8</ele>
        <time>2022-02-13T09:55:29Z</time>
      </trkpt>
      <trkpt lat="46.55861" lon="0.24879">
        <ele>150</ele>
        <time>2022-02-13T09:55:30Z</time>
      </trkpt>
      <trkpt lat="46.55863" lon="0.24915">
        <ele>150.4</ele>
        <time>2022-02-13T09:55:35Z</time>
      </trkpt>
      <trkpt lat="46.55867" lon="0.24922">
        <ele>150.4</ele>
        <time>2022-02-13T09:55:37Z</time>
      </trkpt>
      <trkpt lat="46.5587" lon="0.24924">
        <ele>150.4</ele>
        <time>2022-02-13T09:55:38Z</time>
      </trkpt>
      <trkpt lat="46.55895" lon="0.24935">
        <ele>150</ele>
        <time>2022-02-13T09:55:45Z</time>
      </trkpt>
      <trkpt lat="46.55938" lon="0.2495">
        <ele>148.8</ele>
        <time>2022-02-13T09:55:52Z</time>
      </trkpt>
      <trkpt lat="46.55957" lon="0.24954">
        <ele>148</ele>
        <time>2022-02-13T09:55:56Z</time>
      </trkpt>
      <trkpt lat="46.55971" lon="0.24957">
        <ele>147.6</ele>
        <time>2022-02-13T09:55:59Z</time>
      </trkpt>
      <trkpt lat="46.55987" lon="0.2496">
        <ele>147.4</ele>
        <time>2022-02-13T09:56:02Z</time>
      </trkpt>
      <trkpt lat="46.56007" lon="0.24964">
        <ele>147.2</ele>
        <time>2022-02-13T09:56:06Z</time>
      </trkpt>
      <trkpt lat="46.56012" lon="0.24964">
        <ele>147.2</ele>
        <time>2022-02-13T09:56:07Z</time>
      </trkpt>
      <trkpt lat="46.56048" lon="0.24969">
        <ele>146.8</ele>
        <time>2022-02-13T09:56:13Z</time>
      </trkpt>
      <trkpt lat="46.56077" lon="0.24972">
        <ele>146.6</ele>
        <time>2022-02-13T09:56:18Z</time>
      </trkpt>
      <trkpt lat="46.56085" lon="0.24974">
        <ele>146.6</ele>
        <time>2022-02-13T09:56:19Z</time>
      </trkpt>
      <trkpt lat="46.56103" lon="0.24973">
        <ele>146</ele>
        <time>2022-02-13T09:56:22Z</time>
      </trkpt>
      <trkpt lat="46.56121" lon="0.24974">
        <ele>145.4</ele>
        <time>2022-02-13T09:56:25Z</time>
      </trkpt>
      <trkpt lat="46.56137" lon="0.24976">
        <ele>145.4</ele>
        <time>2022-02-13T09:56:28Z</time>
      </trkpt>
      <trkpt lat="46.56156" lon="0.24979">
        <ele>144.8</ele>
        <time>2022-02-13T09:56:32Z</time>
      </trkpt>
      <trkpt lat="46.5616" lon="0.24982">
        <ele>144.6</ele>
        <time>2022-02-13T09:56:33Z</time>
      </trkpt>
      <trkpt lat="46.56162" lon="0.24986">
        <ele>144.6</ele>
        <time>2022-02-13T09:56:34Z</time>
      </trkpt>
      <trkpt lat="46.56167" lon="0.24998">
        <ele>144.6</ele>
        <time>2022-02-13T09:56:36Z</time>
      </trkpt>
      <trkpt lat="46.5617" lon="0.25005">
        <ele>144.8</ele>
        <time>2022-02-13T09:56:37Z</time>
      </trkpt>
      <trkpt lat="46.56179" lon="0.25039">
        <ele>145</ele>
        <time>2022-02-13T09:56:41Z</time>
      </trkpt>
      <trkpt lat="46.56185" lon="0.25087">
        <ele>145.2</ele>
        <time>2022-02-13T09:56:46Z</time>
      </trkpt>
      <trkpt lat="46.56189" lon="0.25139">
        <ele>144.8</ele>
        <time>2022-02-13T09:56:51Z</time>
      </trkpt>
      <trkpt lat="46.56192" lon="0.25187">
        <ele>145</ele>
        <time>2022-02-13T09:56:56Z</time>
      </trkpt>
      <trkpt lat="46.56193" lon="0.25196">
        <ele>145.2</ele>
        <time>2022-02-13T09:56:57Z</time>
      </trkpt>
      <trkpt lat="46.56195" lon="0.25248">
        <ele>146</ele>
        <time>2022-02-13T09:57:03Z</time>
      </trkpt>
      <trkpt lat="46.56201" lon="0.25308">
        <ele>146.2</ele>
        <time>2022-02-13T09:57:10Z</time>
      </trkpt>
      <trkpt lat="46.56206" lon="0.25365">
        <ele>145.6</ele>
        <time>2022-02-13T09:57:17Z</time>
      </trkpt>
      <trkpt lat="46.56208" lon="0.25372">
        <ele>145.6</ele>
        <time>2022-02-13T09:57:18Z</time>
      </trkpt>
      <trkpt lat="46.56215" lon="0.25381">
        <ele>145.4</ele>
        <time>2022-02-13T09:57:20Z</time>
      </trkpt>
      <trkpt lat="46.56244" lon="0.25403">
        <ele>145.8</ele>
        <time>2022-02-13T09:57:26Z</time>
      </trkpt>
      <trkpt lat="46.56291" lon="0.25433">
        <ele>144.6</ele>
        <time>2022-02-13T09:57:34Z</time>
      </trkpt>
      <trkpt lat="46.56303" lon="0.2544">
        <ele>144.4</ele>
        <time>2022-02-13T09:57:36Z</time>
      </trkpt>
      <trkpt lat="46.56336" lon="0.25459">
        <ele>144.2</ele>
        <time>2022-02-13T09:57:41Z</time>
      </trkpt>
      <trkpt lat="46.56378" lon="0.25488">
        <ele>143.4</ele>
        <time>2022-02-13T09:57:47Z</time>
      </trkpt>
      <trkpt lat="46.56392" lon="0.25501">
        <ele>143</ele>
        <time>2022-02-13T09:57:49Z</time>
      </trkpt>
      <trkpt lat="46.56406" lon="0.25515">
        <ele>142.4</ele>
        <time>2022-02-13T09:57:51Z</time>
      </trkpt>
      <trkpt lat="46.56431" lon="0.25539">
        <ele>142</ele>
        <time>2022-02-13T09:57:55Z</time>
      </trkpt>
      <trkpt lat="46.56467" lon="0.25575">
        <ele>141.6</ele>
        <time>2022-02-13T09:58:01Z</time>
      </trkpt>
      <trkpt lat="46.5649" lon="0.25616">
        <ele>141.8</ele>
        <time>2022-02-13T09:58:06Z</time>
      </trkpt>
      <trkpt lat="46.56508" lon="0.25648">
        <ele>141.2</ele>
        <time>2022-02-13T09:58:10Z</time>
      </trkpt>
      <trkpt lat="46.56522" lon="0.25672">
        <ele>141</ele>
        <time>2022-02-13T09:58:13Z</time>
      </trkpt>
      <trkpt lat="46.56543" lon="0.25715">
        <ele>140.6</ele>
        <time>2022-02-13T09:58:18Z</time>
      </trkpt>
      <trkpt lat="46.56547" lon="0.25724">
        <ele>140.6</ele>
        <time>2022-02-13T09:58:19Z</time>
      </trkpt>
      <trkpt lat="46.56554" lon="0.25741">
        <ele>140.2</ele>
        <time>2022-02-13T09:58:21Z</time>
      </trkpt>
      <trkpt lat="46.56563" lon="0.25758">
        <ele>139.4</ele>
        <time>2022-02-13T09:58:23Z</time>
      </trkpt>
      <trkpt lat="46.56572" lon="0.25773">
        <ele>139</ele>
        <time>2022-02-13T09:58:25Z</time>
      </trkpt>
      <trkpt lat="46.56576" lon="0.2578">
        <ele>138.8</ele>
        <time>2022-02-13T09:58:26Z</time>
      </trkpt>
      <trkpt lat="46.56604" lon="0.25819">
        <ele>138.6</ele>
        <time>2022-02-13T09:58:32Z</time>
      </trkpt>
      <trkpt lat="46.56626" lon="0.25846">
        <ele>138</ele>
        <time>2022-02-13T09:58:36Z</time>
      </trkpt>
      <trkpt lat="46.56637" lon="0.25862">
        <ele>137.4</ele>
        <time>2022-02-13T09:58:38Z</time>
      </trkpt>
      <trkpt lat="46.56649" lon="0.25879">
        <ele>136.8</ele>
        <time>2022-02-13T09:58:40Z</time>
      </trkpt>
      <trkpt lat="46.56664" lon="0.25908">
        <ele>135.2</ele>
        <time>2022-02-13T09:58:43Z</time>
      </trkpt>
      <trkpt lat="46.56674" lon="0.25931">
        <ele>133.8</ele>
        <time>2022-02-13T09:58:45Z</time>
      </trkpt>
      <trkpt lat="46.56682" lon="0.25955">
        <ele>132.6</ele>
        <time>2022-02-13T09:58:47Z</time>
      </trkpt>
      <trkpt lat="46.56686" lon="0.25966">
        <ele>131.8</ele>
        <time>2022-02-13T09:58:48Z</time>
      </trkpt>
      <trkpt lat="46.56689" lon="0.25977">
        <ele>131.4</ele>
        <time>2022-02-13T09:58:49Z</time>
      </trkpt>
      <trkpt lat="46.567" lon="0.26006">
        <ele>131</ele>
        <time>2022-02-13T09:58:52Z</time>
      </trkpt>
      <trkpt lat="46.56706" lon="0.2602">
        <ele>131.2</ele>
        <time>2022-02-13T09:58:54Z</time>
      </trkpt>
      <trkpt lat="46.56713" lon="0.2603">
        <ele>131.6</ele>
        <time>2022-02-13T09:58:56Z</time>
      </trkpt>
      <trkpt lat="46.56721" lon="0.26038">
        <ele>132.6</ele>
        <time>2022-02-13T09:58:58Z</time>
      </trkpt>
      <trkpt lat="46.56734" lon="0.2605">
        <ele>133.8</ele>
        <time>2022-02-13T09:59:01Z</time>
      </trkpt>
      <trkpt lat="46.56742" lon="0.2606">
        <ele>134.2</ele>
        <time>2022-02-13T09:59:03Z</time>
      </trkpt>
      <trkpt lat="46.56749" lon="0.26069">
        <ele>135</ele>
        <time>2022-02-13T09:59:05Z</time>
      </trkpt>
      <trkpt lat="46.56756" lon="0.2608">
        <ele>136</ele>
        <time>2022-02-13T09:59:08Z</time>
      </trkpt>
      <trkpt lat="46.56759" lon="0.26083">
        <ele>136.4</ele>
        <time>2022-02-13T09:59:09Z</time>
      </trkpt>
      <trkpt lat="46.5677" lon="0.26097">
        <ele>137.2</ele>
        <time>2022-02-13T09:59:13Z</time>
      </trkpt>
      <trkpt lat="46.56775" lon="0.26103">
        <ele>137.8</ele>
        <time>2022-02-13T09:59:15Z</time>
      </trkpt>
      <trkpt lat="46.56791" lon="0.26122">
        <ele>138.2</ele>
        <time>2022-02-13T09:59:21Z</time>
      </trkpt>
      <trkpt lat="46.56812" lon="0.26147">
        <ele>139.4</ele>
        <time>2022-02-13T09:59:28Z</time>
      </trkpt>
      <trkpt lat="46.56835" lon="0.26176">
        <ele>140.2</ele>
        <time>2022-02-13T09:59:36Z</time>
      </trkpt>
      <trkpt lat="46.56842" lon="0.26184">
        <ele>140.4</ele>
        <time>2022-02-13T09:59:38Z</time>
      </trkpt>
      <trkpt lat="46.56861" lon="0.26208">
        <ele>140.8</ele>
        <time>2022-02-13T09:59:44Z</time>
      </trkpt>
      <trkpt lat="46.56888" lon="0.26237">
        <ele>141.2</ele>
        <time>2022-02-13T09:59:51Z</time>
      </trkpt>
      <trkpt lat="46.56914" lon="0.2627">
        <ele>141.4</ele>
        <time>2022-02-13T09:59:57Z</time>
      </trkpt>
      <trkpt lat="46.56941" lon="0.26303">
        <ele>141.2</ele>
        <time>2022-02-13T10:00:02Z</time>
      </trkpt>
      <trkpt lat="46.56947" lon="0.26308">
        <ele>141</ele>
        <time>2022-02-13T10:00:03Z</time>
      </trkpt>
      <trkpt lat="46.56967" lon="0.26321">
        <ele>140.8</ele>
        <time>2022-02-13T10:00:06Z</time>
      </trkpt>
      <trkpt lat="46.56974" lon="0.26324">
        <ele>140.6</ele>
        <time>2022-02-13T10:00:07Z</time>
      </trkpt>
      <trkpt lat="46.56988" lon="0.26329">
        <ele>140.4</ele>
        <time>2022-02-13T10:00:09Z</time>
      </trkpt>
      <trkpt lat="46.56995" lon="0.26332">
        <ele>140.2</ele>
        <time>2022-02-13T10:00:10Z</time>
      </trkpt>
      <trkpt lat="46.57002" lon="0.26335">
        <ele>140</ele>
        <time>2022-02-13T10:00:11Z</time>
      </trkpt>
      <trkpt lat="46.57025" lon="0.26344">
        <ele>139.2</ele>
        <time>2022-02-13T10:00:14Z</time>
      </trkpt>
      <trkpt lat="46.57051" lon="0.26352">
        <ele>138.4</ele>
        <time>2022-02-13T10:00:17Z</time>
      </trkpt>
      <trkpt lat="46.57104" lon="0.2637">
        <ele>138.4</ele>
        <time>2022-02-13T10:00:23Z</time>
      </trkpt>
      <trkpt lat="46.57144" lon="0.26376">
        <ele>138.6</ele>
        <time>2022-02-13T10:00:28Z</time>
      </trkpt>
      <trkpt lat="46.5718" lon="0.26382">
        <ele>138.2</ele>
        <time>2022-02-13T10:00:33Z</time>
      </trkpt>
      <trkpt lat="46.57192" lon="0.26383">
        <ele>138.2</ele>
        <time>2022-02-13T10:00:35Z</time>
      </trkpt>
      <trkpt lat="46.57204" lon="0.26384">
        <ele>138.4</ele>
        <time>2022-02-13T10:00:37Z</time>
      </trkpt>
      <trkpt lat="46.57217" lon="0.26383">
        <ele>138.6</ele>
        <time>2022-02-13T10:00:39Z</time>
      </trkpt>
      <trkpt lat="46.57247" lon="0.26382">
        <ele>138.8</ele>
        <time>2022-02-13T10:00:43Z</time>
      </trkpt>
      <trkpt lat="46.57255" lon="0.26385">
        <ele>138.8</ele>
        <time>2022-02-13T10:00:44Z</time>
      </trkpt>
      <trkpt lat="46.57284" lon="0.26398">
        <ele>138</ele>
        <time>2022-02-13T10:00:48Z</time>
      </trkpt>
      <trkpt lat="46.57291" lon="0.26403">
        <ele>137.8</ele>
        <time>2022-02-13T10:00:49Z</time>
      </trkpt>
      <trkpt lat="46.57297" lon="0.26409">
        <ele>137.8</ele>
        <time>2022-02-13T10:00:50Z</time>
      </trkpt>
      <trkpt lat="46.57308" lon="0.26424">
        <ele>138</ele>
        <time>2022-02-13T10:00:52Z</time>
      </trkpt>
      <trkpt lat="46.57312" lon="0.26433">
        <ele>138</ele>
        <time>2022-02-13T10:00:53Z</time>
      </trkpt>
      <trkpt lat="46.57319" lon="0.26452">
        <ele>138.2</ele>
        <time>2022-02-13T10:00:55Z</time>
      </trkpt>
      <trkpt lat="46.57327" lon="0.2648">
        <ele>138</ele>
        <time>2022-02-13T10:00:58Z</time>
      </trkpt>
      <trkpt lat="46.57344" lon="0.26545">
        <ele>137.8</ele>
        <time>2022-02-13T10:01:05Z</time>
      </trkpt>
      <trkpt lat="46.57349" lon="0.26573">
        <ele>138.2</ele>
        <time>2022-02-13T10:01:08Z</time>
      </trkpt>
      <trkpt lat="46.57351" lon="0.26593">
        <ele>138.4</ele>
        <time>2022-02-13T10:01:10Z</time>
      </trkpt>
      <trkpt lat="46.57356" lon="0.26648">
        <ele>138.8</ele>
        <time>2022-02-13T10:01:15Z</time>
      </trkpt>
      <trkpt lat="46.57356" lon="0.26708">
        <ele>138.4</ele>
        <time>2022-02-13T10:01:21Z</time>
      </trkpt>
      <trkpt lat="46.57355" lon="0.26752">
        <ele>138</ele>
        <time>2022-02-13T10:01:26Z</time>
      </trkpt>
      <trkpt lat="46.57354" lon="0.26759">
        <ele>138</ele>
        <time>2022-02-13T10:01:27Z</time>
      </trkpt>
      <trkpt lat="46.57353" lon="0.26774">
        <ele>137.8</ele>
        <time>2022-02-13T10:01:30Z</time>
      </trkpt>
      <trkpt lat="46.57353" lon="0.26777">
        <ele>137.6</ele>
        <time>2022-02-13T10:01:31Z</time>
      </trkpt>
      <trkpt lat="46.57353" lon="0.26781">
        <ele>137.2</ele>
        <time>2022-02-13T10:01:32Z</time>
      </trkpt>
      <trkpt lat="46.57353" lon="0.26798">
        <ele>136.6</ele>
        <time>2022-02-13T10:01:37Z</time>
      </trkpt>
      <trkpt lat="46.57352" lon="0.26814">
        <ele>136.6</ele>
        <time>2022-02-13T10:01:42Z</time>
      </trkpt>
      <trkpt lat="46.57352" lon="0.26822">
        <ele>136.4</ele>
        <time>2022-02-13T10:01:44Z</time>
      </trkpt>
      <trkpt lat="46.57351" lon="0.2685">
        <ele>137.2</ele>
        <time>2022-02-13T10:01:48Z</time>
      </trkpt>
      <trkpt lat="46.57353" lon="0.26907">
        <ele>137.8</ele>
        <time>2022-02-13T10:01:54Z</time>
      </trkpt>
      <trkpt lat="46.57355" lon="0.26947">
        <ele>135.6</ele>
        <time>2022-02-13T10:01:58Z</time>
      </trkpt>
      <trkpt lat="46.57355" lon="0.26968">
        <ele>134.8</ele>
        <time>2022-02-13T10:02:00Z</time>
      </trkpt>
      <trkpt lat="46.57355" lon="0.26979">
        <ele>134.4</ele>
        <time>2022-02-13T10:02:01Z</time>
      </trkpt>
      <trkpt lat="46.57353" lon="0.27017">
        <ele>133.2</ele>
        <time>2022-02-13T10:02:05Z</time>
      </trkpt>
      <trkpt lat="46.57359" lon="0.27027">
        <ele>131.8</ele>
        <time>2022-02-13T10:02:07Z</time>
      </trkpt>
      <trkpt lat="46.57364" lon="0.2703">
        <ele>131.2</ele>
        <time>2022-02-13T10:02:08Z</time>
      </trkpt>
      <trkpt lat="46.57369" lon="0.2703">
        <ele>130.8</ele>
        <time>2022-02-13T10:02:09Z</time>
      </trkpt>
      <trkpt lat="46.57375" lon="0.2703">
        <ele>130.6</ele>
        <time>2022-02-13T10:02:10Z</time>
      </trkpt>
      <trkpt lat="46.57388" lon="0.27028">
        <ele>130.4</ele>
        <time>2022-02-13T10:02:12Z</time>
      </trkpt>
      <trkpt lat="46.57415" lon="0.27024">
        <ele>129.6</ele>
        <time>2022-02-13T10:02:16Z</time>
      </trkpt>
      <trkpt lat="46.57423" lon="0.27023">
        <ele>129.2</ele>
        <time>2022-02-13T10:02:17Z</time>
      </trkpt>
      <trkpt lat="46.5743" lon="0.27022">
        <ele>129</ele>
        <time>2022-02-13T10:02:18Z</time>
      </trkpt>
      <trkpt lat="46.57445" lon="0.27024">
        <ele>128.4</ele>
        <time>2022-02-13T10:02:20Z</time>
      </trkpt>
      <trkpt lat="46.57453" lon="0.27026">
        <ele>127.8</ele>
        <time>2022-02-13T10:02:21Z</time>
      </trkpt>
      <trkpt lat="46.57468" lon="0.27034">
        <ele>127</ele>
        <time>2022-02-13T10:02:23Z</time>
      </trkpt>
      <trkpt lat="46.57484" lon="0.27047">
        <ele>126.4</ele>
        <time>2022-02-13T10:02:25Z</time>
      </trkpt>
      <trkpt lat="46.57492" lon="0.27054">
        <ele>126</ele>
        <time>2022-02-13T10:02:26Z</time>
      </trkpt>
      <trkpt lat="46.57508" lon="0.2707">
        <ele>124.8</ele>
        <time>2022-02-13T10:02:28Z</time>
      </trkpt>
      <trkpt lat="46.57515" lon="0.27078">
        <ele>124.4</ele>
        <time>2022-02-13T10:02:29Z</time>
      </trkpt>
      <trkpt lat="46.57529" lon="0.27096">
        <ele>124</ele>
        <time>2022-02-13T10:02:31Z</time>
      </trkpt>
      <trkpt lat="46.57535" lon="0.27105">
        <ele>123.6</ele>
        <time>2022-02-13T10:02:32Z</time>
      </trkpt>
      <trkpt lat="46.57549" lon="0.27123">
        <ele>123.2</ele>
        <time>2022-02-13T10:02:34Z</time>
      </trkpt>
      <trkpt lat="46.57563" lon="0.27137">
        <ele>122.2</ele>
        <time>2022-02-13T10:02:36Z</time>
      </trkpt>
      <trkpt lat="46.57589" lon="0.27163">
        <ele>121</ele>
        <time>2022-02-13T10:02:40Z</time>
      </trkpt>
      <trkpt lat="46.57608" lon="0.2718">
        <ele>120.8</ele>
        <time>2022-02-13T10:02:43Z</time>
      </trkpt>
      <trkpt lat="46.57644" lon="0.27211">
        <ele>120.6</ele>
        <time>2022-02-13T10:02:49Z</time>
      </trkpt>
      <trkpt lat="46.57662" lon="0.27227">
        <ele>120.4</ele>
        <time>2022-02-13T10:02:52Z</time>
      </trkpt>
      <trkpt lat="46.57675" lon="0.27234">
        <ele>120</ele>
        <time>2022-02-13T10:02:54Z</time>
      </trkpt>
      <trkpt lat="46.57682" lon="0.27238">
        <ele>119.8</ele>
        <time>2022-02-13T10:02:55Z</time>
      </trkpt>
      <trkpt lat="46.57704" lon="0.27248">
        <ele>119</ele>
        <time>2022-02-13T10:02:58Z</time>
      </trkpt>
      <trkpt lat="46.57712" lon="0.27251">
        <ele>118.4</ele>
        <time>2022-02-13T10:02:59Z</time>
      </trkpt>
      <trkpt lat="46.57724" lon="0.27256">
        <ele>117.8</ele>
        <time>2022-02-13T10:03:01Z</time>
      </trkpt>
      <trkpt lat="46.57729" lon="0.27259">
        <ele>117.6</ele>
        <time>2022-02-13T10:03:02Z</time>
      </trkpt>
      <trkpt lat="46.57733" lon="0.27262">
        <ele>117.4</ele>
        <time>2022-02-13T10:03:03Z</time>
      </trkpt>
      <trkpt lat="46.57736" lon="0.27266">
        <ele>117</ele>
        <time>2022-02-13T10:03:04Z</time>
      </trkpt>
      <trkpt lat="46.57739" lon="0.27271">
        <ele>116.8</ele>
        <time>2022-02-13T10:03:05Z</time>
      </trkpt>
      <trkpt lat="46.57743" lon="0.27284">
        <ele>116.2</ele>
        <time>2022-02-13T10:03:07Z</time>
      </trkpt>
      <trkpt lat="46.57745" lon="0.27298">
        <ele>115.6</ele>
        <time>2022-02-13T10:03:09Z</time>
      </trkpt>
      <trkpt lat="46.57749" lon="0.27321">
        <ele>115.4</ele>
        <time>2022-02-13T10:03:12Z</time>
      </trkpt>
      <trkpt lat="46.57748" lon="0.27337">
        <ele>115</ele>
        <time>2022-02-13T10:03:14Z</time>
      </trkpt>
      <trkpt lat="46.57746" lon="0.27343">
        <ele>114.4</ele>
        <time>2022-02-13T10:03:15Z</time>
      </trkpt>
      <trkpt lat="46.57745" lon="0.27349">
        <ele>114.2</ele>
        <time>2022-02-13T10:03:16Z</time>
      </trkpt>
      <trkpt lat="46.57744" lon="0.27354">
        <ele>113.8</ele>
        <time>2022-02-13T10:03:17Z</time>
      </trkpt>
      <trkpt lat="46.57743" lon="0.27368">
        <ele>113.4</ele>
        <time>2022-02-13T10:03:19Z</time>
      </trkpt>
      <trkpt lat="46.57742" lon="0.27375">
        <ele>113.2</ele>
        <time>2022-02-13T10:03:20Z</time>
      </trkpt>
      <trkpt lat="46.57741" lon="0.27382">
        <ele>113</ele>
        <time>2022-02-13T10:03:21Z</time>
      </trkpt>
      <trkpt lat="46.57732" lon="0.27405">
        <ele>112.4</ele>
        <time>2022-02-13T10:03:24Z</time>
      </trkpt>
      <trkpt lat="46.5773" lon="0.27414">
        <ele>112</ele>
        <time>2022-02-13T10:03:25Z</time>
      </trkpt>
      <trkpt lat="46.57726" lon="0.27433">
        <ele>111</ele>
        <time>2022-02-13T10:03:27Z</time>
      </trkpt>
      <trkpt lat="46.57723" lon="0.27453">
        <ele>110.2</ele>
        <time>2022-02-13T10:03:29Z</time>
      </trkpt>
      <trkpt lat="46.57721" lon="0.27461">
        <ele>109.6</ele>
        <time>2022-02-13T10:03:30Z</time>
      </trkpt>
      <trkpt lat="46.57716" lon="0.27489">
        <ele>108.4</ele>
        <time>2022-02-13T10:03:33Z</time>
      </trkpt>
      <trkpt lat="46.57714" lon="0.27506">
        <ele>107</ele>
        <time>2022-02-13T10:03:35Z</time>
      </trkpt>
      <trkpt lat="46.57712" lon="0.27514">
        <ele>106</ele>
        <time>2022-02-13T10:03:36Z</time>
      </trkpt>
      <trkpt lat="46.57712" lon="0.2752">
        <ele>105.4</ele>
        <time>2022-02-13T10:03:37Z</time>
      </trkpt>
      <trkpt lat="46.57713" lon="0.27525">
        <ele>104.6</ele>
        <time>2022-02-13T10:03:38Z</time>
      </trkpt>
      <trkpt lat="46.57715" lon="0.27529">
        <ele>104</ele>
        <time>2022-02-13T10:03:39Z</time>
      </trkpt>
      <trkpt lat="46.57722" lon="0.27534">
        <ele>103.2</ele>
        <time>2022-02-13T10:03:41Z</time>
      </trkpt>
      <trkpt lat="46.57726" lon="0.27534">
        <ele>102.6</ele>
        <time>2022-02-13T10:03:42Z</time>
      </trkpt>
      <trkpt lat="46.57751" lon="0.27542">
        <ele>102.4</ele>
        <time>2022-02-13T10:03:49Z</time>
      </trkpt>
      <trkpt lat="46.57759" lon="0.27545">
        <ele>102.6</ele>
        <time>2022-02-13T10:03:54Z</time>
      </trkpt>
      <trkpt lat="46.57759" lon="0.27545">
        <ele>102.6</ele>
        <time>2022-02-13T10:04:13Z</time>
      </trkpt>
      <trkpt lat="46.57759" lon="0.27545">
        <ele>102.2</ele>
        <time>2022-02-13T10:04:25Z</time>
      </trkpt>
      <trkpt lat="46.57759" lon="0.27545">
        <ele>102.4</ele>
        <time>2022-02-13T10:04:30Z</time>
      </trkpt>
      <trkpt lat="46.5776" lon="0.27545">
        <ele>102.6</ele>
        <time>2022-02-13T10:04:53Z</time>
      </trkpt>
      <trkpt lat="46.5776" lon="0.27545">
        <ele>102.6</ele>
        <time>2022-02-13T10:04:56Z</time>
      </trkpt>
      <trkpt lat="46.57759" lon="0.27554">
        <ele>102.4</ele>
        <time>2022-02-13T10:15:00Z</time>
      </trkpt>
      <trkpt lat="46.57754" lon="0.27552">
        <ele>102.4</ele>
        <time>2022-02-13T10:15:07Z</time>
      </trkpt>
      <trkpt lat="46.57746" lon="0.27546">
        <ele>102.8</ele>
        <time>2022-02-13T10:15:15Z</time>
      </trkpt>
      <trkpt lat="46.57734" lon="0.27541">
        <ele>102.4</ele>
        <time>2022-02-13T10:15:20Z</time>
      </trkpt>
      <trkpt lat="46.57725" lon="0.27537">
        <ele>102</ele>
        <time>2022-02-13T10:15:24Z</time>
      </trkpt>
      <trkpt lat="46.57718" lon="0.27532">
        <ele>102.2</ele>
        <time>2022-02-13T10:15:27Z</time>
      </trkpt>
      <trkpt lat="46.57713" lon="0.27517">
        <ele>102.8</ele>
        <time>2022-02-13T10:15:33Z</time>
      </trkpt>
      <trkpt lat="46.57713" lon="0.27511">
        <ele>103.2</ele>
        <time>2022-02-13T10:15:35Z</time>
      </trkpt>
      <trkpt lat="46.57714" lon="0.27495">
        <ele>104.2</ele>
        <time>2022-02-13T10:15:41Z</time>
      </trkpt>
      <trkpt lat="46.57716" lon="0.27479">
        <ele>105.2</ele>
        <time>2022-02-13T10:15:47Z</time>
      </trkpt>
      <trkpt lat="46.57716" lon="0.27476">
        <ele>105.6</ele>
        <time>2022-02-13T10:15:48Z</time>
      </trkpt>
      <trkpt lat="46.57719" lon="0.27459">
        <ele>106.4</ele>
        <time>2022-02-13T10:15:54Z</time>
      </trkpt>
      <trkpt lat="46.57719" lon="0.27456">
        <ele>106.6</ele>
        <time>2022-02-13T10:15:55Z</time>
      </trkpt>
      <trkpt lat="46.57722" lon="0.27443">
        <ele>107.4</ele>
        <time>2022-02-13T10:16:00Z</time>
      </trkpt>
      <trkpt lat="46.57724" lon="0.27437">
        <ele>108</ele>
        <time>2022-02-13T10:16:02Z</time>
      </trkpt>
      <trkpt lat="46.57725" lon="0.27428">
        <ele>108.6</ele>
        <time>2022-02-13T10:16:05Z</time>
      </trkpt>
      <trkpt lat="46.57727" lon="0.2742">
        <ele>108.8</ele>
        <time>2022-02-13T10:16:08Z</time>
      </trkpt>
      <trkpt lat="46.57729" lon="0.27409">
        <ele>109.6</ele>
        <time>2022-02-13T10:16:12Z</time>
      </trkpt>
      <trkpt lat="46.57732" lon="0.274">
        <ele>110</ele>
        <time>2022-02-13T10:16:15Z</time>
      </trkpt>
      <trkpt lat="46.57743" lon="0.27381">
        <ele>110.8</ele>
        <time>2022-02-13T10:16:22Z</time>
      </trkpt>
      <trkpt lat="46.57746" lon="0.27376">
        <ele>111.4</ele>
        <time>2022-02-13T10:16:24Z</time>
      </trkpt>
      <trkpt lat="46.57751" lon="0.27357">
        <ele>112.2</ele>
        <time>2022-02-13T10:16:30Z</time>
      </trkpt>
      <trkpt lat="46.5775" lon="0.27334">
        <ele>113</ele>
        <time>2022-02-13T10:16:37Z</time>
      </trkpt>
      <trkpt lat="46.57749" lon="0.27321">
        <ele>113.2</ele>
        <time>2022-02-13T10:16:41Z</time>
      </trkpt>
      <trkpt lat="46.57747" lon="0.27302">
        <ele>114.2</ele>
        <time>2022-02-13T10:16:47Z</time>
      </trkpt>
      <trkpt lat="46.57746" lon="0.27299">
        <ele>114.2</ele>
        <time>2022-02-13T10:16:48Z</time>
      </trkpt>
      <trkpt lat="46.57744" lon="0.27285">
        <ele>115.4</ele>
        <time>2022-02-13T10:16:53Z</time>
      </trkpt>
      <trkpt lat="46.57744" lon="0.27283">
        <ele>115.4</ele>
        <time>2022-02-13T10:16:54Z</time>
      </trkpt>
      <trkpt lat="46.57744" lon="0.27281">
        <ele>115.4</ele>
        <time>2022-02-13T10:16:55Z</time>
      </trkpt>
      <trkpt lat="46.57745" lon="0.27276">
        <ele>115.6</ele>
        <time>2022-02-13T10:16:57Z</time>
      </trkpt>
      <trkpt lat="46.57749" lon="0.2727">
        <ele>115.2</ele>
        <time>2022-02-13T10:17:01Z</time>
      </trkpt>
      <trkpt lat="46.5775" lon="0.27262">
        <ele>115</ele>
        <time>2022-02-13T10:17:06Z</time>
      </trkpt>
      <trkpt lat="46.57749" lon="0.27244">
        <ele>115.6</ele>
        <time>2022-02-13T10:17:11Z</time>
      </trkpt>
      <trkpt lat="46.57747" lon="0.27226">
        <ele>115.2</ele>
        <time>2022-02-13T10:17:17Z</time>
      </trkpt>
      <trkpt lat="46.57742" lon="0.27204">
        <ele>115.2</ele>
        <time>2022-02-13T10:17:24Z</time>
      </trkpt>
      <trkpt lat="46.57736" lon="0.27179">
        <ele>114.8</ele>
        <time>2022-02-13T10:17:31Z</time>
      </trkpt>
      <trkpt lat="46.57736" lon="0.27177">
        <ele>114.8</ele>
        <time>2022-02-13T10:17:32Z</time>
      </trkpt>
      <trkpt lat="46.57734" lon="0.27176">
        <ele>114.6</ele>
        <time>2022-02-13T10:17:34Z</time>
      </trkpt>
      <trkpt lat="46.57733" lon="0.27176">
        <ele>114.6</ele>
        <time>2022-02-13T10:17:35Z</time>
      </trkpt>
    </trkseg>
  </trk>
</gpx>